<?xml version="1.0" encoding="UTF-8" standalone="no" ?>
<gpx xmlns="http://www.topografix.com/GPX/1/1" xmlns:xsi="http://www.w3.org/2001/XMLSchema-instance" xsi:schemaLocation="http://www.topografix.com/GPX/1/1 http://www.topografix.com/GPX/1/1/gpx.xsd" version="1.1" creator="VisuGPX - https://www.visugpx.com">
  <metadata>
    <name>024SG738102406</name>
    <desc><![CDATA[
02]]></desc>
  </metadata>
  <trk>
    <name><![CDATA[024SG738102406]]></name>
    <trkseg>
      <trkpt lat="46.69856" lon="-1.93399">
        <ele>5</ele>
        <time>2018-03-14T21:09:09Z</time>
      </trkpt>
      <trkpt lat="46.69824" lon="-1.93411">
        <ele>5</ele>
        <time>2018-03-14T21:10:09Z</time>
      </trkpt>
      <trkpt lat="46.69806" lon="-1.93419">
        <ele>5</ele>
        <time>2018-03-14T21:11:09Z</time>
      </trkpt>
      <trkpt lat="46.69798" lon="-1.93421">
        <ele>5</ele>
        <time>2018-03-14T21:12:09Z</time>
      </trkpt>
      <trkpt lat="46.69797" lon="-1.93421">
        <ele>5</ele>
        <time>2018-03-14T21:13:09Z</time>
      </trkpt>
      <trkpt lat="46.69793" lon="-1.9342">
        <ele>5</ele>
        <time>2018-03-14T21:14:09Z</time>
      </trkpt>
      <trkpt lat="46.69793" lon="-1.93421">
        <ele>5</ele>
        <time>2018-03-14T21:15:09Z</time>
      </trkpt>
      <trkpt lat="46.69793" lon="-1.93422">
        <ele>5</ele>
        <time>2018-03-14T21:16:09Z</time>
      </trkpt>
      <trkpt lat="46.69793" lon="-1.93423">
        <ele>5</ele>
        <time>2018-03-14T21:17:09Z</time>
      </trkpt>
      <trkpt lat="46.69793" lon="-1.93424">
        <ele>5</ele>
        <time>2018-03-14T21:18:09Z</time>
      </trkpt>
      <trkpt lat="46.69792" lon="-1.93425">
        <ele>5</ele>
        <time>2018-03-14T21:19:09Z</time>
      </trkpt>
      <trkpt lat="46.69792" lon="-1.93426">
        <ele>5</ele>
        <time>2018-03-14T21:20:09Z</time>
      </trkpt>
      <trkpt lat="46.69791" lon="-1.93426">
        <ele>5</ele>
        <time>2018-03-14T21:21:09Z</time>
      </trkpt>
      <trkpt lat="46.69791" lon="-1.93427">
        <ele>5</ele>
        <time>2018-03-14T21:22:09Z</time>
      </trkpt>
      <trkpt lat="46.6979" lon="-1.93427">
        <ele>5</ele>
        <time>2018-03-14T21:23:09Z</time>
      </trkpt>
      <trkpt lat="46.6979" lon="-1.93428">
        <ele>5</ele>
        <time>2018-03-14T21:24:09Z</time>
      </trkpt>
      <trkpt lat="46.69789" lon="-1.93428">
        <ele>5</ele>
        <time>2018-03-14T21:25:09Z</time>
      </trkpt>
      <trkpt lat="46.69788" lon="-1.93428">
        <ele>5</ele>
        <time>2018-03-14T21:26:09Z</time>
      </trkpt>
      <trkpt lat="46.69788" lon="-1.93427">
        <ele>5</ele>
        <time>2018-03-14T21:27:09Z</time>
      </trkpt>
      <trkpt lat="46.69787" lon="-1.93427">
        <ele>5</ele>
        <time>2018-03-14T21:28:09Z</time>
      </trkpt>
      <trkpt lat="46.69787" lon="-1.93426">
        <ele>5</ele>
        <time>2018-03-14T21:29:09Z</time>
      </trkpt>
      <trkpt lat="46.69786" lon="-1.93426">
        <ele>5</ele>
        <time>2018-03-14T21:30:09Z</time>
      </trkpt>
      <trkpt lat="46.69786" lon="-1.93425">
        <ele>5</ele>
        <time>2018-03-14T21:31:09Z</time>
      </trkpt>
      <trkpt lat="46.69786" lon="-1.93424">
        <ele>5</ele>
        <time>2018-03-14T21:32:09Z</time>
      </trkpt>
      <trkpt lat="46.69785" lon="-1.93424">
        <ele>5</ele>
        <time>2018-03-14T21:33:09Z</time>
      </trkpt>
      <trkpt lat="46.69785" lon="-1.93423">
        <ele>5</ele>
        <time>2018-03-14T21:34:09Z</time>
      </trkpt>
      <trkpt lat="46.69785" lon="-1.93422">
        <ele>5</ele>
        <time>2018-03-14T21:35:09Z</time>
      </trkpt>
      <trkpt lat="46.69779" lon="-1.9342">
        <ele>5</ele>
        <time>2018-03-14T21:36:09Z</time>
      </trkpt>
      <trkpt lat="46.69776" lon="-1.9342">
        <ele>5</ele>
        <time>2018-03-14T21:37:09Z</time>
      </trkpt>
      <trkpt lat="46.69772" lon="-1.9342">
        <ele>5</ele>
        <time>2018-03-14T21:38:09Z</time>
      </trkpt>
      <trkpt lat="46.69762" lon="-1.93423">
        <ele>5</ele>
        <time>2018-03-14T21:39:09Z</time>
      </trkpt>
      <trkpt lat="46.69759" lon="-1.93424">
        <ele>5</ele>
        <time>2018-03-14T21:40:09Z</time>
      </trkpt>
      <trkpt lat="46.69721" lon="-1.93434">
        <ele>5</ele>
        <time>2018-03-14T21:41:09Z</time>
      </trkpt>
      <trkpt lat="46.69714" lon="-1.93435">
        <ele>5</ele>
        <time>2018-03-14T21:42:09Z</time>
      </trkpt>
      <trkpt lat="46.69697" lon="-1.93436">
        <ele>5</ele>
        <time>2018-03-14T21:43:09Z</time>
      </trkpt>
      <trkpt lat="46.69685" lon="-1.93435">
        <ele>5</ele>
        <time>2018-03-14T21:44:09Z</time>
      </trkpt>
      <trkpt lat="46.69633" lon="-1.93423">
        <ele>5</ele>
        <time>2018-03-14T21:45:09Z</time>
      </trkpt>
      <trkpt lat="46.69633" lon="-1.93423">
        <ele>5</ele>
        <time>2018-03-14T21:46:09Z</time>
      </trkpt>
      <trkpt lat="46.69633" lon="-1.93424">
        <ele>4</ele>
        <time>2018-03-14T21:47:09Z</time>
      </trkpt>
      <trkpt lat="46.69633" lon="-1.93425">
        <ele>4</ele>
        <time>2018-03-14T21:48:09Z</time>
      </trkpt>
      <trkpt lat="46.69633" lon="-1.93426">
        <ele>4</ele>
        <time>2018-03-14T21:49:09Z</time>
      </trkpt>
      <trkpt lat="46.69633" lon="-1.93427">
        <ele>4</ele>
        <time>2018-03-14T21:50:09Z</time>
      </trkpt>
      <trkpt lat="46.69633" lon="-1.93428">
        <ele>4</ele>
        <time>2018-03-14T21:51:09Z</time>
      </trkpt>
      <trkpt lat="46.69633" lon="-1.93429">
        <ele>4</ele>
        <time>2018-03-14T21:52:09Z</time>
      </trkpt>
      <trkpt lat="46.69633" lon="-1.9343">
        <ele>4</ele>
        <time>2018-03-14T21:53:09Z</time>
      </trkpt>
      <trkpt lat="46.69632" lon="-1.9343">
        <ele>4</ele>
        <time>2018-03-14T21:54:09Z</time>
      </trkpt>
      <trkpt lat="46.69632" lon="-1.93431">
        <ele>4</ele>
        <time>2018-03-14T21:55:09Z</time>
      </trkpt>
      <trkpt lat="46.69632" lon="-1.93432">
        <ele>4</ele>
        <time>2018-03-14T21:56:09Z</time>
      </trkpt>
      <trkpt lat="46.69631" lon="-1.93432">
        <ele>4</ele>
        <time>2018-03-14T21:57:09Z</time>
      </trkpt>
      <trkpt lat="46.69631" lon="-1.93433">
        <ele>4</ele>
        <time>2018-03-14T21:58:09Z</time>
      </trkpt>
      <trkpt lat="46.69631" lon="-1.93434">
        <ele>4</ele>
        <time>2018-03-14T21:59:09Z</time>
      </trkpt>
      <trkpt lat="46.6963" lon="-1.93434">
        <ele>4</ele>
        <time>2018-03-14T22:00:09Z</time>
      </trkpt>
      <trkpt lat="46.6963" lon="-1.93435">
        <ele>4</ele>
        <time>2018-03-14T22:01:09Z</time>
      </trkpt>
      <trkpt lat="46.69629" lon="-1.93435">
        <ele>4</ele>
        <time>2018-03-14T22:02:09Z</time>
      </trkpt>
      <trkpt lat="46.69629" lon="-1.93436">
        <ele>4</ele>
        <time>2018-03-14T22:03:09Z</time>
      </trkpt>
      <trkpt lat="46.69628" lon="-1.93436">
        <ele>4</ele>
        <time>2018-03-14T22:04:09Z</time>
      </trkpt>
      <trkpt lat="46.69627" lon="-1.93436">
        <ele>4</ele>
        <time>2018-03-14T22:05:09Z</time>
      </trkpt>
      <trkpt lat="46.69627" lon="-1.93437">
        <ele>4</ele>
        <time>2018-03-14T22:06:09Z</time>
      </trkpt>
      <trkpt lat="46.69626" lon="-1.93437">
        <ele>4</ele>
        <time>2018-03-14T22:07:09Z</time>
      </trkpt>
      <trkpt lat="46.69625" lon="-1.93437">
        <ele>4</ele>
        <time>2018-03-14T22:08:09Z</time>
      </trkpt>
      <trkpt lat="46.69624" lon="-1.93437">
        <ele>4</ele>
        <time>2018-03-14T22:09:09Z</time>
      </trkpt>
      <trkpt lat="46.69623" lon="-1.93437">
        <ele>4</ele>
        <time>2018-03-14T22:10:09Z</time>
      </trkpt>
      <trkpt lat="46.69622" lon="-1.93436">
        <ele>4</ele>
        <time>2018-03-14T22:11:09Z</time>
      </trkpt>
      <trkpt lat="46.69621" lon="-1.93436">
        <ele>4</ele>
        <time>2018-03-14T22:12:09Z</time>
      </trkpt>
      <trkpt lat="46.6962" lon="-1.93435">
        <ele>4</ele>
        <time>2018-03-14T22:13:09Z</time>
      </trkpt>
      <trkpt lat="46.69619" lon="-1.93434">
        <ele>4</ele>
        <time>2018-03-14T22:14:09Z</time>
      </trkpt>
      <trkpt lat="46.69619" lon="-1.93433">
        <ele>4</ele>
        <time>2018-03-14T22:15:09Z</time>
      </trkpt>
      <trkpt lat="46.69618" lon="-1.93433">
        <ele>4</ele>
        <time>2018-03-14T22:16:09Z</time>
      </trkpt>
      <trkpt lat="46.69618" lon="-1.93432">
        <ele>4</ele>
        <time>2018-03-14T22:17:09Z</time>
      </trkpt>
      <trkpt lat="46.69618" lon="-1.93431">
        <ele>4</ele>
        <time>2018-03-14T22:18:09Z</time>
      </trkpt>
      <trkpt lat="46.69617" lon="-1.93431">
        <ele>4</ele>
        <time>2018-03-14T22:19:09Z</time>
      </trkpt>
      <trkpt lat="46.69617" lon="-1.9343">
        <ele>4</ele>
        <time>2018-03-14T22:20:09Z</time>
      </trkpt>
      <trkpt lat="46.69617" lon="-1.93429">
        <ele>4</ele>
        <time>2018-03-14T22:21:09Z</time>
      </trkpt>
      <trkpt lat="46.69617" lon="-1.93428">
        <ele>4</ele>
        <time>2018-03-14T22:22:09Z</time>
      </trkpt>
      <trkpt lat="46.69616" lon="-1.93428">
        <ele>4</ele>
        <time>2018-03-14T22:23:09Z</time>
      </trkpt>
      <trkpt lat="46.69616" lon="-1.93427">
        <ele>4</ele>
        <time>2018-03-14T22:24:09Z</time>
      </trkpt>
      <trkpt lat="46.69616" lon="-1.93426">
        <ele>4</ele>
        <time>2018-03-14T22:25:09Z</time>
      </trkpt>
      <trkpt lat="46.69616" lon="-1.93425">
        <ele>4</ele>
        <time>2018-03-14T22:26:09Z</time>
      </trkpt>
      <trkpt lat="46.69616" lon="-1.93424">
        <ele>4</ele>
        <time>2018-03-14T22:27:09Z</time>
      </trkpt>
      <trkpt lat="46.69616" lon="-1.93423">
        <ele>4</ele>
        <time>2018-03-14T22:28:09Z</time>
      </trkpt>
      <trkpt lat="46.69616" lon="-1.93422">
        <ele>4</ele>
        <time>2018-03-14T22:29:09Z</time>
      </trkpt>
      <trkpt lat="46.69616" lon="-1.93421">
        <ele>4</ele>
        <time>2018-03-14T22:30:09Z</time>
      </trkpt>
      <trkpt lat="46.69617" lon="-1.93421">
        <ele>4</ele>
        <time>2018-03-14T22:31:09Z</time>
      </trkpt>
      <trkpt lat="46.69617" lon="-1.9342">
        <ele>4</ele>
        <time>2018-03-14T22:32:09Z</time>
      </trkpt>
      <trkpt lat="46.69607" lon="-1.93416">
        <ele>4</ele>
        <time>2018-03-14T22:33:09Z</time>
      </trkpt>
      <trkpt lat="46.69587" lon="-1.93404">
        <ele>4</ele>
        <time>2018-03-14T22:34:09Z</time>
      </trkpt>
      <trkpt lat="46.69551" lon="-1.93388">
        <ele>4</ele>
        <time>2018-03-14T22:35:09Z</time>
      </trkpt>
      <trkpt lat="46.69518" lon="-1.93374">
        <ele>4</ele>
        <time>2018-03-14T22:36:09Z</time>
      </trkpt>
      <trkpt lat="46.69507" lon="-1.9337">
        <ele>4</ele>
        <time>2018-03-14T22:37:09Z</time>
      </trkpt>
      <trkpt lat="46.69503" lon="-1.93368">
        <ele>4</ele>
        <time>2018-03-14T22:38:09Z</time>
      </trkpt>
      <trkpt lat="46.69498" lon="-1.93366">
        <ele>4</ele>
        <time>2018-03-14T22:39:09Z</time>
      </trkpt>
      <trkpt lat="46.6946" lon="-1.93349">
        <ele>4</ele>
        <time>2018-03-14T22:40:09Z</time>
      </trkpt>
      <trkpt lat="46.69431" lon="-1.93336">
        <ele>4</ele>
        <time>2018-03-14T22:41:09Z</time>
      </trkpt>
      <trkpt lat="46.69426" lon="-1.93334">
        <ele>4</ele>
        <time>2018-03-14T22:42:09Z</time>
      </trkpt>
      <trkpt lat="46.69421" lon="-1.93333">
        <ele>4</ele>
        <time>2018-03-14T22:43:09Z</time>
      </trkpt>
      <trkpt lat="46.69416" lon="-1.93331">
        <ele>4</ele>
        <time>2018-03-14T22:44:09Z</time>
      </trkpt>
      <trkpt lat="46.69405" lon="-1.9333">
        <ele>4</ele>
        <time>2018-03-14T22:45:09Z</time>
      </trkpt>
      <trkpt lat="46.69394" lon="-1.93333">
        <ele>4</ele>
        <time>2018-03-14T22:46:09Z</time>
      </trkpt>
      <trkpt lat="46.69394" lon="-1.93333">
        <ele>4</ele>
        <time>2018-03-14T22:47:09Z</time>
      </trkpt>
      <trkpt lat="46.69394" lon="-1.93334">
        <ele>4</ele>
        <time>2018-03-14T22:48:09Z</time>
      </trkpt>
      <trkpt lat="46.69394" lon="-1.93335">
        <ele>4</ele>
        <time>2018-03-14T22:49:09Z</time>
      </trkpt>
      <trkpt lat="46.69393" lon="-1.93335">
        <ele>4</ele>
        <time>2018-03-14T22:50:09Z</time>
      </trkpt>
      <trkpt lat="46.69393" lon="-1.93336">
        <ele>4</ele>
        <time>2018-03-14T22:51:09Z</time>
      </trkpt>
      <trkpt lat="46.69392" lon="-1.93336">
        <ele>4</ele>
        <time>2018-03-14T22:52:09Z</time>
      </trkpt>
      <trkpt lat="46.69392" lon="-1.93337">
        <ele>4</ele>
        <time>2018-03-14T22:53:09Z</time>
      </trkpt>
      <trkpt lat="46.69391" lon="-1.93337">
        <ele>4</ele>
        <time>2018-03-14T22:54:09Z</time>
      </trkpt>
      <trkpt lat="46.6939" lon="-1.93338">
        <ele>4</ele>
        <time>2018-03-14T22:55:09Z</time>
      </trkpt>
      <trkpt lat="46.69389" lon="-1.93338">
        <ele>4</ele>
        <time>2018-03-14T22:56:09Z</time>
      </trkpt>
      <trkpt lat="46.69388" lon="-1.93338">
        <ele>4</ele>
        <time>2018-03-14T22:57:09Z</time>
      </trkpt>
      <trkpt lat="46.69387" lon="-1.93338">
        <ele>4</ele>
        <time>2018-03-14T22:58:09Z</time>
      </trkpt>
      <trkpt lat="46.69386" lon="-1.93338">
        <ele>4</ele>
        <time>2018-03-14T22:59:09Z</time>
      </trkpt>
      <trkpt lat="46.69385" lon="-1.93338">
        <ele>4</ele>
        <time>2018-03-14T23:00:09Z</time>
      </trkpt>
      <trkpt lat="46.69384" lon="-1.93338">
        <ele>4</ele>
        <time>2018-03-14T23:01:09Z</time>
      </trkpt>
      <trkpt lat="46.69384" lon="-1.93337">
        <ele>4</ele>
        <time>2018-03-14T23:02:09Z</time>
      </trkpt>
      <trkpt lat="46.69383" lon="-1.93337">
        <ele>4</ele>
        <time>2018-03-14T23:03:09Z</time>
      </trkpt>
      <trkpt lat="46.69383" lon="-1.93336">
        <ele>4</ele>
        <time>2018-03-14T23:04:09Z</time>
      </trkpt>
      <trkpt lat="46.69382" lon="-1.93336">
        <ele>4</ele>
        <time>2018-03-14T23:05:09Z</time>
      </trkpt>
      <trkpt lat="46.69382" lon="-1.93335">
        <ele>4</ele>
        <time>2018-03-14T23:06:09Z</time>
      </trkpt>
      <trkpt lat="46.69381" lon="-1.93335">
        <ele>4</ele>
        <time>2018-03-14T23:07:09Z</time>
      </trkpt>
      <trkpt lat="46.69381" lon="-1.93334">
        <ele>4</ele>
        <time>2018-03-14T23:08:09Z</time>
      </trkpt>
      <trkpt lat="46.6938" lon="-1.93333">
        <ele>4</ele>
        <time>2018-03-14T23:09:09Z</time>
      </trkpt>
      <trkpt lat="46.6938" lon="-1.93332">
        <ele>4</ele>
        <time>2018-03-14T23:10:09Z</time>
      </trkpt>
      <trkpt lat="46.69379" lon="-1.93332">
        <ele>4</ele>
        <time>2018-03-14T23:11:09Z</time>
      </trkpt>
      <trkpt lat="46.69379" lon="-1.93331">
        <ele>4</ele>
        <time>2018-03-14T23:12:09Z</time>
      </trkpt>
      <trkpt lat="46.69379" lon="-1.9333">
        <ele>4</ele>
        <time>2018-03-14T23:13:09Z</time>
      </trkpt>
      <trkpt lat="46.69379" lon="-1.93329">
        <ele>4</ele>
        <time>2018-03-14T23:14:09Z</time>
      </trkpt>
      <trkpt lat="46.69376" lon="-1.93327">
        <ele>4</ele>
        <time>2018-03-14T23:15:09Z</time>
      </trkpt>
      <trkpt lat="46.69367" lon="-1.93325">
        <ele>4</ele>
        <time>2018-03-14T23:16:09Z</time>
      </trkpt>
      <trkpt lat="46.69363" lon="-1.93325">
        <ele>4</ele>
        <time>2018-03-14T23:17:09Z</time>
      </trkpt>
      <trkpt lat="46.69356" lon="-1.93325">
        <ele>4</ele>
        <time>2018-03-14T23:18:09Z</time>
      </trkpt>
      <trkpt lat="46.69353" lon="-1.93324">
        <ele>4</ele>
        <time>2018-03-14T23:19:09Z</time>
      </trkpt>
      <trkpt lat="46.69315" lon="-1.93317">
        <ele>4</ele>
        <time>2018-03-14T23:20:09Z</time>
      </trkpt>
      <trkpt lat="46.69286" lon="-1.93313">
        <ele>4</ele>
        <time>2018-03-14T23:21:09Z</time>
      </trkpt>
      <trkpt lat="46.6924" lon="-1.93303">
        <ele>3</ele>
        <time>2018-03-14T23:22:09Z</time>
      </trkpt>
      <trkpt lat="46.69218" lon="-1.933">
        <ele>3</ele>
        <time>2018-03-14T23:23:09Z</time>
      </trkpt>
      <trkpt lat="46.69217" lon="-1.933">
        <ele>3</ele>
        <time>2018-03-14T23:24:09Z</time>
      </trkpt>
      <trkpt lat="46.69209" lon="-1.93298">
        <ele>3</ele>
        <time>2018-03-14T23:25:09Z</time>
      </trkpt>
      <trkpt lat="46.69203" lon="-1.93298">
        <ele>3</ele>
        <time>2018-03-14T23:26:09Z</time>
      </trkpt>
      <trkpt lat="46.69197" lon="-1.93299">
        <ele>3</ele>
        <time>2018-03-14T23:27:09Z</time>
      </trkpt>
      <trkpt lat="46.69182" lon="-1.93301">
        <ele>3</ele>
        <time>2018-03-14T23:28:09Z</time>
      </trkpt>
      <trkpt lat="46.69182" lon="-1.93301">
        <ele>3</ele>
        <time>2018-03-14T23:29:09Z</time>
      </trkpt>
      <trkpt lat="46.6918" lon="-1.93305">
        <ele>3</ele>
        <time>2018-03-14T23:30:09Z</time>
      </trkpt>
      <trkpt lat="46.69177" lon="-1.93307">
        <ele>3</ele>
        <time>2018-03-14T23:31:09Z</time>
      </trkpt>
      <trkpt lat="46.69173" lon="-1.93307">
        <ele>3</ele>
        <time>2018-03-14T23:32:09Z</time>
      </trkpt>
      <trkpt lat="46.69169" lon="-1.93306">
        <ele>3</ele>
        <time>2018-03-14T23:33:09Z</time>
      </trkpt>
      <trkpt lat="46.69167" lon="-1.93304">
        <ele>3</ele>
        <time>2018-03-14T23:34:09Z</time>
      </trkpt>
      <trkpt lat="46.69165" lon="-1.93301">
        <ele>3</ele>
        <time>2018-03-14T23:35:09Z</time>
      </trkpt>
      <trkpt lat="46.69164" lon="-1.93298">
        <ele>3</ele>
        <time>2018-03-14T23:36:09Z</time>
      </trkpt>
      <trkpt lat="46.69163" lon="-1.93296">
        <ele>3</ele>
        <time>2018-03-14T23:37:09Z</time>
      </trkpt>
      <trkpt lat="46.69163" lon="-1.93293">
        <ele>2</ele>
        <time>2018-03-14T23:38:09Z</time>
      </trkpt>
      <trkpt lat="46.69163" lon="-1.93289">
        <ele>2</ele>
        <time>2018-03-14T23:39:09Z</time>
      </trkpt>
      <trkpt lat="46.69165" lon="-1.93285">
        <ele>2</ele>
        <time>2018-03-14T23:40:09Z</time>
      </trkpt>
      <trkpt lat="46.69169" lon="-1.9328">
        <ele>2</ele>
        <time>2018-03-14T23:41:09Z</time>
      </trkpt>
      <trkpt lat="46.69166" lon="-1.93273">
        <ele>2</ele>
        <time>2018-03-14T23:42:09Z</time>
      </trkpt>
      <trkpt lat="46.69166" lon="-1.93263">
        <ele>2</ele>
        <time>2018-03-14T23:43:09Z</time>
      </trkpt>
      <trkpt lat="46.69167" lon="-1.93252">
        <ele>2</ele>
        <time>2018-03-14T23:44:09Z</time>
      </trkpt>
      <trkpt lat="46.69169" lon="-1.93244">
        <ele>2</ele>
        <time>2018-03-14T23:45:09Z</time>
      </trkpt>
      <trkpt lat="46.69177" lon="-1.93193">
        <ele>4</ele>
        <time>2018-03-14T23:46:09Z</time>
      </trkpt>
      <trkpt lat="46.69179" lon="-1.9318">
        <ele>4</ele>
        <time>2018-03-14T23:47:09Z</time>
      </trkpt>
      <trkpt lat="46.69182" lon="-1.93159">
        <ele>4</ele>
        <time>2018-03-14T23:48:09Z</time>
      </trkpt>
      <trkpt lat="46.69183" lon="-1.9315">
        <ele>4</ele>
        <time>2018-03-14T23:49:09Z</time>
      </trkpt>
      <trkpt lat="46.69186" lon="-1.93138">
        <ele>4</ele>
        <time>2018-03-14T23:50:09Z</time>
      </trkpt>
      <trkpt lat="46.69187" lon="-1.93134">
        <ele>4</ele>
        <time>2018-03-14T23:51:09Z</time>
      </trkpt>
      <trkpt lat="46.6919" lon="-1.93125">
        <ele>4</ele>
        <time>2018-03-14T23:52:09Z</time>
      </trkpt>
      <trkpt lat="46.69194" lon="-1.93117">
        <ele>4</ele>
        <time>2018-03-14T23:53:09Z</time>
      </trkpt>
      <trkpt lat="46.69201" lon="-1.93103">
        <ele>4</ele>
        <time>2018-03-14T23:54:09Z</time>
      </trkpt>
      <trkpt lat="46.6921" lon="-1.93085">
        <ele>5</ele>
        <time>2018-03-14T23:55:09Z</time>
      </trkpt>
      <trkpt lat="46.69219" lon="-1.93065">
        <ele>5</ele>
        <time>2018-03-14T23:56:09Z</time>
      </trkpt>
      <trkpt lat="46.69224" lon="-1.93053">
        <ele>5</ele>
        <time>2018-03-14T23:57:09Z</time>
      </trkpt>
      <trkpt lat="46.69224" lon="-1.93053">
        <ele>5</ele>
        <time>2018-03-14T23:58:09Z</time>
      </trkpt>
      <trkpt lat="46.69217" lon="-1.93046">
        <ele>5</ele>
        <time>2018-03-14T23:59:09Z</time>
      </trkpt>
      <trkpt lat="46.69194" lon="-1.93026">
        <ele>5</ele>
        <time>2018-03-15T00:00:09Z</time>
      </trkpt>
      <trkpt lat="46.69175" lon="-1.93009">
        <ele>4</ele>
        <time>2018-03-15T00:01:09Z</time>
      </trkpt>
      <trkpt lat="46.6917" lon="-1.93005">
        <ele>4</ele>
        <time>2018-03-15T00:02:09Z</time>
      </trkpt>
      <trkpt lat="46.69154" lon="-1.92991">
        <ele>4</ele>
        <time>2018-03-15T00:03:09Z</time>
      </trkpt>
      <trkpt lat="46.69133" lon="-1.92971">
        <ele>4</ele>
        <time>2018-03-15T00:04:09Z</time>
      </trkpt>
      <trkpt lat="46.69107" lon="-1.92948">
        <ele>4</ele>
        <time>2018-03-15T00:05:09Z</time>
      </trkpt>
      <trkpt lat="46.69095" lon="-1.92938">
        <ele>4</ele>
        <time>2018-03-15T00:06:09Z</time>
      </trkpt>
      <trkpt lat="46.69068" lon="-1.92907">
        <ele>4</ele>
        <time>2018-03-15T00:07:09Z</time>
      </trkpt>
      <trkpt lat="46.69055" lon="-1.9289">
        <ele>4</ele>
        <time>2018-03-15T00:08:09Z</time>
      </trkpt>
      <trkpt lat="46.69038" lon="-1.92867">
        <ele>4</ele>
        <time>2018-03-15T00:09:09Z</time>
      </trkpt>
      <trkpt lat="46.69014" lon="-1.92836">
        <ele>4</ele>
        <time>2018-03-15T00:10:09Z</time>
      </trkpt>
      <trkpt lat="46.68993" lon="-1.92806">
        <ele>4</ele>
        <time>2018-03-15T00:11:09Z</time>
      </trkpt>
      <trkpt lat="46.68992" lon="-1.92805">
        <ele>4</ele>
        <time>2018-03-15T00:12:09Z</time>
      </trkpt>
      <trkpt lat="46.68977" lon="-1.92784">
        <ele>4</ele>
        <time>2018-03-15T00:13:09Z</time>
      </trkpt>
      <trkpt lat="46.68969" lon="-1.92774">
        <ele>4</ele>
        <time>2018-03-15T00:14:09Z</time>
      </trkpt>
      <trkpt lat="46.68965" lon="-1.92769">
        <ele>4</ele>
        <time>2018-03-15T00:15:09Z</time>
      </trkpt>
      <trkpt lat="46.68955" lon="-1.92755">
        <ele>4</ele>
        <time>2018-03-15T00:16:09Z</time>
      </trkpt>
      <trkpt lat="46.68947" lon="-1.92747">
        <ele>4</ele>
        <time>2018-03-15T00:17:09Z</time>
      </trkpt>
      <trkpt lat="46.68936" lon="-1.92737">
        <ele>4</ele>
        <time>2018-03-15T00:18:09Z</time>
      </trkpt>
      <trkpt lat="46.68926" lon="-1.9273">
        <ele>4</ele>
        <time>2018-03-15T00:19:09Z</time>
      </trkpt>
      <trkpt lat="46.68913" lon="-1.92723">
        <ele>4</ele>
        <time>2018-03-15T00:20:09Z</time>
      </trkpt>
      <trkpt lat="46.68897" lon="-1.92716">
        <ele>4</ele>
        <time>2018-03-15T00:21:09Z</time>
      </trkpt>
      <trkpt lat="46.68881" lon="-1.92711">
        <ele>5</ele>
        <time>2018-03-15T00:22:09Z</time>
      </trkpt>
      <trkpt lat="46.68869" lon="-1.92706">
        <ele>5</ele>
        <time>2018-03-15T00:23:09Z</time>
      </trkpt>
      <trkpt lat="46.6886" lon="-1.92704">
        <ele>6</ele>
        <time>2018-03-15T00:24:09Z</time>
      </trkpt>
      <trkpt lat="46.68859" lon="-1.92704">
        <ele>6</ele>
        <time>2018-03-15T00:25:09Z</time>
      </trkpt>
      <trkpt lat="46.68851" lon="-1.92698">
        <ele>6</ele>
        <time>2018-03-15T00:26:09Z</time>
      </trkpt>
      <trkpt lat="46.68851" lon="-1.92698">
        <ele>6</ele>
        <time>2018-03-15T00:27:09Z</time>
      </trkpt>
      <trkpt lat="46.68851" lon="-1.92699">
        <ele>6</ele>
        <time>2018-03-15T00:28:09Z</time>
      </trkpt>
      <trkpt lat="46.6885" lon="-1.92699">
        <ele>6</ele>
        <time>2018-03-15T00:29:09Z</time>
      </trkpt>
      <trkpt lat="46.68849" lon="-1.927">
        <ele>6</ele>
        <time>2018-03-15T00:30:09Z</time>
      </trkpt>
      <trkpt lat="46.68848" lon="-1.927">
        <ele>6</ele>
        <time>2018-03-15T00:31:09Z</time>
      </trkpt>
      <trkpt lat="46.68848" lon="-1.92701">
        <ele>6</ele>
        <time>2018-03-15T00:32:09Z</time>
      </trkpt>
      <trkpt lat="46.68847" lon="-1.92701">
        <ele>6</ele>
        <time>2018-03-15T00:33:09Z</time>
      </trkpt>
      <trkpt lat="46.68846" lon="-1.92701">
        <ele>6</ele>
        <time>2018-03-15T00:34:09Z</time>
      </trkpt>
      <trkpt lat="46.68845" lon="-1.92701">
        <ele>6</ele>
        <time>2018-03-15T00:35:09Z</time>
      </trkpt>
      <trkpt lat="46.68844" lon="-1.92701">
        <ele>7</ele>
        <time>2018-03-15T00:36:09Z</time>
      </trkpt>
      <trkpt lat="46.68844" lon="-1.927">
        <ele>7</ele>
        <time>2018-03-15T00:37:09Z</time>
      </trkpt>
      <trkpt lat="46.68843" lon="-1.927">
        <ele>7</ele>
        <time>2018-03-15T00:38:09Z</time>
      </trkpt>
      <trkpt lat="46.68842" lon="-1.92699">
        <ele>7</ele>
        <time>2018-03-15T00:39:09Z</time>
      </trkpt>
      <trkpt lat="46.68837" lon="-1.927">
        <ele>7</ele>
        <time>2018-03-15T00:40:09Z</time>
      </trkpt>
      <trkpt lat="46.68833" lon="-1.92701">
        <ele>7</ele>
        <time>2018-03-15T00:41:09Z</time>
      </trkpt>
      <trkpt lat="46.68828" lon="-1.927">
        <ele>7</ele>
        <time>2018-03-15T00:42:09Z</time>
      </trkpt>
      <trkpt lat="46.68827" lon="-1.927">
        <ele>7</ele>
        <time>2018-03-15T00:43:09Z</time>
      </trkpt>
      <trkpt lat="46.68827" lon="-1.92701">
        <ele>7</ele>
        <time>2018-03-15T00:44:09Z</time>
      </trkpt>
      <trkpt lat="46.68826" lon="-1.92701">
        <ele>7</ele>
        <time>2018-03-15T00:45:09Z</time>
      </trkpt>
      <trkpt lat="46.68826" lon="-1.92702">
        <ele>7</ele>
        <time>2018-03-15T00:46:09Z</time>
      </trkpt>
      <trkpt lat="46.68825" lon="-1.92702">
        <ele>7</ele>
        <time>2018-03-15T00:47:09Z</time>
      </trkpt>
      <trkpt lat="46.68825" lon="-1.92703">
        <ele>7</ele>
        <time>2018-03-15T00:48:09Z</time>
      </trkpt>
      <trkpt lat="46.68824" lon="-1.92703">
        <ele>7</ele>
        <time>2018-03-15T00:49:09Z</time>
      </trkpt>
      <trkpt lat="46.68823" lon="-1.92703">
        <ele>7</ele>
        <time>2018-03-15T00:50:09Z</time>
      </trkpt>
      <trkpt lat="46.68822" lon="-1.92703">
        <ele>7</ele>
        <time>2018-03-15T00:51:09Z</time>
      </trkpt>
      <trkpt lat="46.68821" lon="-1.92703">
        <ele>7</ele>
        <time>2018-03-15T00:52:09Z</time>
      </trkpt>
      <trkpt lat="46.68821" lon="-1.92702">
        <ele>7</ele>
        <time>2018-03-15T00:53:09Z</time>
      </trkpt>
      <trkpt lat="46.6882" lon="-1.92702">
        <ele>7</ele>
        <time>2018-03-15T00:54:09Z</time>
      </trkpt>
      <trkpt lat="46.6882" lon="-1.92701">
        <ele>7</ele>
        <time>2018-03-15T00:55:09Z</time>
      </trkpt>
      <trkpt lat="46.68819" lon="-1.92701">
        <ele>7</ele>
        <time>2018-03-15T00:56:09Z</time>
      </trkpt>
      <trkpt lat="46.68819" lon="-1.927">
        <ele>7</ele>
        <time>2018-03-15T00:57:09Z</time>
      </trkpt>
      <trkpt lat="46.68818" lon="-1.927">
        <ele>7</ele>
        <time>2018-03-15T00:58:09Z</time>
      </trkpt>
      <trkpt lat="46.68818" lon="-1.92699">
        <ele>7</ele>
        <time>2018-03-15T00:59:09Z</time>
      </trkpt>
      <trkpt lat="46.68818" lon="-1.92698">
        <ele>7</ele>
        <time>2018-03-15T01:00:09Z</time>
      </trkpt>
      <trkpt lat="46.68817" lon="-1.92698">
        <ele>7</ele>
        <time>2018-03-15T01:01:09Z</time>
      </trkpt>
      <trkpt lat="46.68817" lon="-1.92697">
        <ele>7</ele>
        <time>2018-03-15T01:02:09Z</time>
      </trkpt>
      <trkpt lat="46.68817" lon="-1.92696">
        <ele>7</ele>
        <time>2018-03-15T01:03:09Z</time>
      </trkpt>
      <trkpt lat="46.68817" lon="-1.92695">
        <ele>7</ele>
        <time>2018-03-15T01:04:09Z</time>
      </trkpt>
      <trkpt lat="46.68817" lon="-1.92694">
        <ele>7</ele>
        <time>2018-03-15T01:05:09Z</time>
      </trkpt>
      <trkpt lat="46.68817" lon="-1.92693">
        <ele>7</ele>
        <time>2018-03-15T01:06:09Z</time>
      </trkpt>
      <trkpt lat="46.68817" lon="-1.92692">
        <ele>7</ele>
        <time>2018-03-15T01:07:09Z</time>
      </trkpt>
      <trkpt lat="46.68817" lon="-1.92691">
        <ele>7</ele>
        <time>2018-03-15T01:08:09Z</time>
      </trkpt>
      <trkpt lat="46.68817" lon="-1.9269">
        <ele>7</ele>
        <time>2018-03-15T01:09:09Z</time>
      </trkpt>
      <trkpt lat="46.68804" lon="-1.92685">
        <ele>7</ele>
        <time>2018-03-15T01:10:09Z</time>
      </trkpt>
      <trkpt lat="46.68787" lon="-1.9268">
        <ele>8</ele>
        <time>2018-03-15T01:11:09Z</time>
      </trkpt>
      <trkpt lat="46.68776" lon="-1.92676">
        <ele>8</ele>
        <time>2018-03-15T01:12:09Z</time>
      </trkpt>
      <trkpt lat="46.6876" lon="-1.92669">
        <ele>8</ele>
        <time>2018-03-15T01:13:09Z</time>
      </trkpt>
      <trkpt lat="46.68759" lon="-1.92668">
        <ele>8</ele>
        <time>2018-03-15T01:14:09Z</time>
      </trkpt>
      <trkpt lat="46.68733" lon="-1.92654">
        <ele>8</ele>
        <time>2018-03-15T01:15:09Z</time>
      </trkpt>
      <trkpt lat="46.68732" lon="-1.92654">
        <ele>8</ele>
        <time>2018-03-15T01:16:09Z</time>
      </trkpt>
      <trkpt lat="46.68707" lon="-1.92638">
        <ele>9</ele>
        <time>2018-03-15T01:17:09Z</time>
      </trkpt>
      <trkpt lat="46.68669" lon="-1.92615">
        <ele>10</ele>
        <time>2018-03-15T01:18:09Z</time>
      </trkpt>
      <trkpt lat="46.68651" lon="-1.92602">
        <ele>10</ele>
        <time>2018-03-15T01:19:09Z</time>
      </trkpt>
      <trkpt lat="46.68644" lon="-1.92596">
        <ele>10</ele>
        <time>2018-03-15T01:20:09Z</time>
      </trkpt>
      <trkpt lat="46.68635" lon="-1.92588">
        <ele>10</ele>
        <time>2018-03-15T01:21:09Z</time>
      </trkpt>
      <trkpt lat="46.68634" lon="-1.92586">
        <ele>10</ele>
        <time>2018-03-15T01:22:09Z</time>
      </trkpt>
      <trkpt lat="46.68629" lon="-1.9258">
        <ele>10</ele>
        <time>2018-03-15T01:23:09Z</time>
      </trkpt>
      <trkpt lat="46.68625" lon="-1.92575">
        <ele>10</ele>
        <time>2018-03-15T01:24:09Z</time>
      </trkpt>
      <trkpt lat="46.68616" lon="-1.92563">
        <ele>10</ele>
        <time>2018-03-15T01:25:09Z</time>
      </trkpt>
      <trkpt lat="46.68605" lon="-1.92548">
        <ele>10</ele>
        <time>2018-03-15T01:26:09Z</time>
      </trkpt>
      <trkpt lat="46.68594" lon="-1.92534">
        <ele>10</ele>
        <time>2018-03-15T01:27:09Z</time>
      </trkpt>
      <trkpt lat="46.68589" lon="-1.92528">
        <ele>10</ele>
        <time>2018-03-15T01:28:09Z</time>
      </trkpt>
      <trkpt lat="46.68567" lon="-1.925">
        <ele>10</ele>
        <time>2018-03-15T01:29:09Z</time>
      </trkpt>
      <trkpt lat="46.68549" lon="-1.92476">
        <ele>10</ele>
        <time>2018-03-15T01:30:09Z</time>
      </trkpt>
      <trkpt lat="46.68538" lon="-1.92464">
        <ele>10</ele>
        <time>2018-03-15T01:31:09Z</time>
      </trkpt>
      <trkpt lat="46.68532" lon="-1.92456">
        <ele>10</ele>
        <time>2018-03-15T01:32:09Z</time>
      </trkpt>
      <trkpt lat="46.68528" lon="-1.9245">
        <ele>10</ele>
        <time>2018-03-15T01:33:09Z</time>
      </trkpt>
      <trkpt lat="46.68514" lon="-1.92436">
        <ele>10</ele>
        <time>2018-03-15T01:34:09Z</time>
      </trkpt>
      <trkpt lat="46.68505" lon="-1.92428">
        <ele>10</ele>
        <time>2018-03-15T01:35:09Z</time>
      </trkpt>
      <trkpt lat="46.68495" lon="-1.9242">
        <ele>10</ele>
        <time>2018-03-15T01:36:09Z</time>
      </trkpt>
      <trkpt lat="46.68487" lon="-1.92415">
        <ele>10</ele>
        <time>2018-03-15T01:37:09Z</time>
      </trkpt>
      <trkpt lat="46.68481" lon="-1.92411">
        <ele>10</ele>
        <time>2018-03-15T01:38:09Z</time>
      </trkpt>
      <trkpt lat="46.68472" lon="-1.92408">
        <ele>10</ele>
        <time>2018-03-15T01:39:09Z</time>
      </trkpt>
      <trkpt lat="46.68463" lon="-1.92406">
        <ele>10</ele>
        <time>2018-03-15T01:40:09Z</time>
      </trkpt>
      <trkpt lat="46.68454" lon="-1.92404">
        <ele>10</ele>
        <time>2018-03-15T01:41:09Z</time>
      </trkpt>
      <trkpt lat="46.68447" lon="-1.92403">
        <ele>10</ele>
        <time>2018-03-15T01:42:09Z</time>
      </trkpt>
      <trkpt lat="46.68435" lon="-1.924">
        <ele>10</ele>
        <time>2018-03-15T01:43:09Z</time>
      </trkpt>
      <trkpt lat="46.68426" lon="-1.92396">
        <ele>10</ele>
        <time>2018-03-15T01:44:09Z</time>
      </trkpt>
      <trkpt lat="46.68413" lon="-1.92388">
        <ele>10</ele>
        <time>2018-03-15T01:45:09Z</time>
      </trkpt>
      <trkpt lat="46.68403" lon="-1.9238">
        <ele>10</ele>
        <time>2018-03-15T01:46:09Z</time>
      </trkpt>
      <trkpt lat="46.68389" lon="-1.92363">
        <ele>10</ele>
        <time>2018-03-15T01:47:09Z</time>
      </trkpt>
      <trkpt lat="46.6838" lon="-1.92351">
        <ele>10</ele>
        <time>2018-03-15T01:48:09Z</time>
      </trkpt>
      <trkpt lat="46.68377" lon="-1.92346">
        <ele>10</ele>
        <time>2018-03-15T01:49:09Z</time>
      </trkpt>
      <trkpt lat="46.6837" lon="-1.92334">
        <ele>10</ele>
        <time>2018-03-15T01:50:09Z</time>
      </trkpt>
      <trkpt lat="46.68355" lon="-1.92305">
        <ele>10</ele>
        <time>2018-03-15T01:51:09Z</time>
      </trkpt>
      <trkpt lat="46.6833" lon="-1.92261">
        <ele>9</ele>
        <time>2018-03-15T01:52:09Z</time>
      </trkpt>
      <trkpt lat="46.6832" lon="-1.92245">
        <ele>9</ele>
        <time>2018-03-15T01:53:09Z</time>
      </trkpt>
      <trkpt lat="46.68306" lon="-1.92219">
        <ele>9</ele>
        <time>2018-03-15T01:54:09Z</time>
      </trkpt>
      <trkpt lat="46.68291" lon="-1.92193">
        <ele>8</ele>
        <time>2018-03-15T01:55:09Z</time>
      </trkpt>
      <trkpt lat="46.68286" lon="-1.92186">
        <ele>8</ele>
        <time>2018-03-15T01:56:09Z</time>
      </trkpt>
      <trkpt lat="46.68277" lon="-1.92172">
        <ele>8</ele>
        <time>2018-03-15T01:57:09Z</time>
      </trkpt>
      <trkpt lat="46.68267" lon="-1.92157">
        <ele>7</ele>
        <time>2018-03-15T01:58:09Z</time>
      </trkpt>
      <trkpt lat="46.68255" lon="-1.9214">
        <ele>7</ele>
        <time>2018-03-15T01:59:09Z</time>
      </trkpt>
      <trkpt lat="46.6823" lon="-1.92107">
        <ele>7</ele>
        <time>2018-03-15T02:00:09Z</time>
      </trkpt>
      <trkpt lat="46.68227" lon="-1.92103">
        <ele>7</ele>
        <time>2018-03-15T02:01:09Z</time>
      </trkpt>
      <trkpt lat="46.68224" lon="-1.92098">
        <ele>7</ele>
        <time>2018-03-15T02:02:09Z</time>
      </trkpt>
      <trkpt lat="46.68224" lon="-1.92097">
        <ele>7</ele>
        <time>2018-03-15T02:03:09Z</time>
      </trkpt>
      <trkpt lat="46.6822" lon="-1.92091">
        <ele>7</ele>
        <time>2018-03-15T02:04:09Z</time>
      </trkpt>
      <trkpt lat="46.68208" lon="-1.92073">
        <ele>7</ele>
        <time>2018-03-15T02:05:09Z</time>
      </trkpt>
      <trkpt lat="46.68198" lon="-1.92057">
        <ele>7</ele>
        <time>2018-03-15T02:06:09Z</time>
      </trkpt>
      <trkpt lat="46.68174" lon="-1.92025">
        <ele>8</ele>
        <time>2018-03-15T02:07:09Z</time>
      </trkpt>
      <trkpt lat="46.68158" lon="-1.92003">
        <ele>8</ele>
        <time>2018-03-15T02:08:09Z</time>
      </trkpt>
      <trkpt lat="46.68115" lon="-1.91941">
        <ele>8</ele>
        <time>2018-03-15T02:09:09Z</time>
      </trkpt>
      <trkpt lat="46.68083" lon="-1.91897">
        <ele>8</ele>
        <time>2018-03-15T02:10:09Z</time>
      </trkpt>
      <trkpt lat="46.68057" lon="-1.91858">
        <ele>8</ele>
        <time>2018-03-15T02:11:09Z</time>
      </trkpt>
      <trkpt lat="46.68041" lon="-1.91836">
        <ele>8</ele>
        <time>2018-03-15T02:12:09Z</time>
      </trkpt>
      <trkpt lat="46.68033" lon="-1.91825">
        <ele>8</ele>
        <time>2018-03-15T02:13:09Z</time>
      </trkpt>
      <trkpt lat="46.68022" lon="-1.91808">
        <ele>8</ele>
        <time>2018-03-15T02:14:09Z</time>
      </trkpt>
      <trkpt lat="46.68" lon="-1.91776">
        <ele>8</ele>
        <time>2018-03-15T02:15:09Z</time>
      </trkpt>
      <trkpt lat="46.67972" lon="-1.91737">
        <ele>7</ele>
        <time>2018-03-15T02:16:09Z</time>
      </trkpt>
      <trkpt lat="46.67947" lon="-1.91703">
        <ele>7</ele>
        <time>2018-03-15T02:17:09Z</time>
      </trkpt>
      <trkpt lat="46.67928" lon="-1.91675">
        <ele>7</ele>
        <time>2018-03-15T02:18:09Z</time>
      </trkpt>
      <trkpt lat="46.67898" lon="-1.91633">
        <ele>7</ele>
        <time>2018-03-15T02:19:09Z</time>
      </trkpt>
      <trkpt lat="46.67883" lon="-1.91611">
        <ele>6</ele>
        <time>2018-03-15T02:20:09Z</time>
      </trkpt>
      <trkpt lat="46.67864" lon="-1.91583">
        <ele>6</ele>
        <time>2018-03-15T02:21:09Z</time>
      </trkpt>
      <trkpt lat="46.6784" lon="-1.91552">
        <ele>6</ele>
        <time>2018-03-15T02:22:09Z</time>
      </trkpt>
      <trkpt lat="46.67831" lon="-1.91538">
        <ele>6</ele>
        <time>2018-03-15T02:23:09Z</time>
      </trkpt>
      <trkpt lat="46.67783" lon="-1.91471">
        <ele>6</ele>
        <time>2018-03-15T02:24:09Z</time>
      </trkpt>
      <trkpt lat="46.67747" lon="-1.9142">
        <ele>6</ele>
        <time>2018-03-15T02:25:09Z</time>
      </trkpt>
      <trkpt lat="46.67743" lon="-1.91414">
        <ele>6</ele>
        <time>2018-03-15T02:26:09Z</time>
      </trkpt>
      <trkpt lat="46.67704" lon="-1.91358">
        <ele>5</ele>
        <time>2018-03-15T02:27:09Z</time>
      </trkpt>
      <trkpt lat="46.67662" lon="-1.91298">
        <ele>5</ele>
        <time>2018-03-15T02:28:09Z</time>
      </trkpt>
      <trkpt lat="46.67634" lon="-1.91261">
        <ele>5</ele>
        <time>2018-03-15T02:29:09Z</time>
      </trkpt>
      <trkpt lat="46.67612" lon="-1.91228">
        <ele>5</ele>
        <time>2018-03-15T02:30:09Z</time>
      </trkpt>
      <trkpt lat="46.67587" lon="-1.91194">
        <ele>6</ele>
        <time>2018-03-15T02:31:09Z</time>
      </trkpt>
      <trkpt lat="46.67578" lon="-1.91181">
        <ele>6</ele>
        <time>2018-03-15T02:32:09Z</time>
      </trkpt>
      <trkpt lat="46.67546" lon="-1.91137">
        <ele>5</ele>
        <time>2018-03-15T02:33:09Z</time>
      </trkpt>
      <trkpt lat="46.67518" lon="-1.91097">
        <ele>5</ele>
        <time>2018-03-15T02:34:09Z</time>
      </trkpt>
      <trkpt lat="46.6749" lon="-1.9106">
        <ele>5</ele>
        <time>2018-03-15T02:35:09Z</time>
      </trkpt>
      <trkpt lat="46.67469" lon="-1.9103">
        <ele>4</ele>
        <time>2018-03-15T02:36:09Z</time>
      </trkpt>
      <trkpt lat="46.67456" lon="-1.9101">
        <ele>4</ele>
        <time>2018-03-15T02:37:09Z</time>
      </trkpt>
      <trkpt lat="46.67452" lon="-1.91005">
        <ele>4</ele>
        <time>2018-03-15T02:38:09Z</time>
      </trkpt>
      <trkpt lat="46.67446" lon="-1.90996">
        <ele>4</ele>
        <time>2018-03-15T02:39:09Z</time>
      </trkpt>
      <trkpt lat="46.6744" lon="-1.90984">
        <ele>4</ele>
        <time>2018-03-15T02:40:09Z</time>
      </trkpt>
      <trkpt lat="46.67435" lon="-1.90971">
        <ele>3</ele>
        <time>2018-03-15T02:41:09Z</time>
      </trkpt>
      <trkpt lat="46.67435" lon="-1.90971">
        <ele>3</ele>
        <time>2018-03-15T02:42:09Z</time>
      </trkpt>
      <trkpt lat="46.67432" lon="-1.90969">
        <ele>3</ele>
        <time>2018-03-15T02:43:09Z</time>
      </trkpt>
      <trkpt lat="46.6743" lon="-1.90968">
        <ele>3</ele>
        <time>2018-03-15T02:44:09Z</time>
      </trkpt>
      <trkpt lat="46.67429" lon="-1.90967">
        <ele>3</ele>
        <time>2018-03-15T02:45:09Z</time>
      </trkpt>
      <trkpt lat="46.67427" lon="-1.90965">
        <ele>3</ele>
        <time>2018-03-15T02:46:09Z</time>
      </trkpt>
      <trkpt lat="46.67426" lon="-1.90964">
        <ele>3</ele>
        <time>2018-03-15T02:47:09Z</time>
      </trkpt>
      <trkpt lat="46.67424" lon="-1.90962">
        <ele>3</ele>
        <time>2018-03-15T02:48:09Z</time>
      </trkpt>
      <trkpt lat="46.67423" lon="-1.9096">
        <ele>3</ele>
        <time>2018-03-15T02:49:09Z</time>
      </trkpt>
      <trkpt lat="46.67422" lon="-1.90958">
        <ele>3</ele>
        <time>2018-03-15T02:50:09Z</time>
      </trkpt>
      <trkpt lat="46.67421" lon="-1.90956">
        <ele>3</ele>
        <time>2018-03-15T02:51:09Z</time>
      </trkpt>
      <trkpt lat="46.6742" lon="-1.90953">
        <ele>3</ele>
        <time>2018-03-15T02:52:09Z</time>
      </trkpt>
      <trkpt lat="46.6742" lon="-1.90951">
        <ele>3</ele>
        <time>2018-03-15T02:53:09Z</time>
      </trkpt>
      <trkpt lat="46.6742" lon="-1.9095">
        <ele>3</ele>
        <time>2018-03-15T02:54:09Z</time>
      </trkpt>
      <trkpt lat="46.67419" lon="-1.9095">
        <ele>3</ele>
        <time>2018-03-15T02:55:09Z</time>
      </trkpt>
      <trkpt lat="46.67419" lon="-1.90949">
        <ele>3</ele>
        <time>2018-03-15T02:56:09Z</time>
      </trkpt>
      <trkpt lat="46.67419" lon="-1.90948">
        <ele>3</ele>
        <time>2018-03-15T02:57:09Z</time>
      </trkpt>
      <trkpt lat="46.67419" lon="-1.90947">
        <ele>3</ele>
        <time>2018-03-15T02:58:09Z</time>
      </trkpt>
      <trkpt lat="46.67419" lon="-1.90946">
        <ele>3</ele>
        <time>2018-03-15T02:59:09Z</time>
      </trkpt>
      <trkpt lat="46.67414" lon="-1.90938">
        <ele>3</ele>
        <time>2018-03-15T03:00:09Z</time>
      </trkpt>
      <trkpt lat="46.67409" lon="-1.90932">
        <ele>3</ele>
        <time>2018-03-15T03:01:09Z</time>
      </trkpt>
      <trkpt lat="46.67407" lon="-1.90929">
        <ele>3</ele>
        <time>2018-03-15T03:02:09Z</time>
      </trkpt>
      <trkpt lat="46.67405" lon="-1.90925">
        <ele>3</ele>
        <time>2018-03-15T03:03:09Z</time>
      </trkpt>
      <trkpt lat="46.67398" lon="-1.90917">
        <ele>3</ele>
        <time>2018-03-15T03:04:09Z</time>
      </trkpt>
      <trkpt lat="46.67384" lon="-1.90901">
        <ele>3</ele>
        <time>2018-03-15T03:05:09Z</time>
      </trkpt>
      <trkpt lat="46.67344" lon="-1.90854">
        <ele>2</ele>
        <time>2018-03-15T03:06:09Z</time>
      </trkpt>
      <trkpt lat="46.67339" lon="-1.90844">
        <ele>2</ele>
        <time>2018-03-15T03:07:09Z</time>
      </trkpt>
      <trkpt lat="46.67336" lon="-1.9084">
        <ele>2</ele>
        <time>2018-03-15T03:08:09Z</time>
      </trkpt>
      <trkpt lat="46.67333" lon="-1.90837">
        <ele>2</ele>
        <time>2018-03-15T03:09:09Z</time>
      </trkpt>
      <trkpt lat="46.6733" lon="-1.90833">
        <ele>2</ele>
        <time>2018-03-15T03:10:09Z</time>
      </trkpt>
      <trkpt lat="46.67327" lon="-1.90829">
        <ele>2</ele>
        <time>2018-03-15T03:11:09Z</time>
      </trkpt>
      <trkpt lat="46.67323" lon="-1.90824">
        <ele>2</ele>
        <time>2018-03-15T03:12:09Z</time>
      </trkpt>
      <trkpt lat="46.6732" lon="-1.90819">
        <ele>2</ele>
        <time>2018-03-15T03:13:09Z</time>
      </trkpt>
      <trkpt lat="46.67313" lon="-1.9081">
        <ele>2</ele>
        <time>2018-03-15T03:14:09Z</time>
      </trkpt>
      <trkpt lat="46.67301" lon="-1.90794">
        <ele>2</ele>
        <time>2018-03-15T03:15:09Z</time>
      </trkpt>
      <trkpt lat="46.67282" lon="-1.90767">
        <ele>3</ele>
        <time>2018-03-15T03:16:09Z</time>
      </trkpt>
      <trkpt lat="46.67255" lon="-1.90729">
        <ele>3</ele>
        <time>2018-03-15T03:17:09Z</time>
      </trkpt>
      <trkpt lat="46.67226" lon="-1.90688">
        <ele>4</ele>
        <time>2018-03-15T03:18:09Z</time>
      </trkpt>
      <trkpt lat="46.67205" lon="-1.90658">
        <ele>4</ele>
        <time>2018-03-15T03:19:09Z</time>
      </trkpt>
      <trkpt lat="46.67166" lon="-1.90604">
        <ele>5</ele>
        <time>2018-03-15T03:20:09Z</time>
      </trkpt>
      <trkpt lat="46.67105" lon="-1.90518">
        <ele>5</ele>
        <time>2018-03-15T03:21:09Z</time>
      </trkpt>
      <trkpt lat="46.67097" lon="-1.90511">
        <ele>5</ele>
        <time>2018-03-15T03:22:09Z</time>
      </trkpt>
      <trkpt lat="46.67055" lon="-1.90456">
        <ele>5</ele>
        <time>2018-03-15T03:23:09Z</time>
      </trkpt>
      <trkpt lat="46.67046" lon="-1.90444">
        <ele>5</ele>
        <time>2018-03-15T03:24:09Z</time>
      </trkpt>
      <trkpt lat="46.67037" lon="-1.9043">
        <ele>5</ele>
        <time>2018-03-15T03:25:09Z</time>
      </trkpt>
      <trkpt lat="46.67034" lon="-1.90427">
        <ele>5</ele>
        <time>2018-03-15T03:26:09Z</time>
      </trkpt>
      <trkpt lat="46.67019" lon="-1.90408">
        <ele>5</ele>
        <time>2018-03-15T03:27:09Z</time>
      </trkpt>
      <trkpt lat="46.67018" lon="-1.90407">
        <ele>5</ele>
        <time>2018-03-15T03:28:09Z</time>
      </trkpt>
      <trkpt lat="46.67017" lon="-1.90406">
        <ele>5</ele>
        <time>2018-03-15T03:29:09Z</time>
      </trkpt>
      <trkpt lat="46.67016" lon="-1.90404">
        <ele>5</ele>
        <time>2018-03-15T03:30:09Z</time>
      </trkpt>
      <trkpt lat="46.67014" lon="-1.90402">
        <ele>5</ele>
        <time>2018-03-15T03:31:09Z</time>
      </trkpt>
      <trkpt lat="46.67012" lon="-1.90399">
        <ele>5</ele>
        <time>2018-03-15T03:32:09Z</time>
      </trkpt>
      <trkpt lat="46.66999" lon="-1.9038">
        <ele>5</ele>
        <time>2018-03-15T03:33:09Z</time>
      </trkpt>
      <trkpt lat="46.66997" lon="-1.90377">
        <ele>5</ele>
        <time>2018-03-15T03:34:09Z</time>
      </trkpt>
      <trkpt lat="46.66995" lon="-1.90374">
        <ele>5</ele>
        <time>2018-03-15T03:35:09Z</time>
      </trkpt>
      <trkpt lat="46.66993" lon="-1.90372">
        <ele>5</ele>
        <time>2018-03-15T03:36:09Z</time>
      </trkpt>
      <trkpt lat="46.66982" lon="-1.90356">
        <ele>5</ele>
        <time>2018-03-15T03:37:09Z</time>
      </trkpt>
      <trkpt lat="46.66982" lon="-1.90356">
        <ele>5</ele>
        <time>2018-03-15T03:38:09Z</time>
      </trkpt>
      <trkpt lat="46.66981" lon="-1.90356">
        <ele>5</ele>
        <time>2018-03-15T03:39:09Z</time>
      </trkpt>
      <trkpt lat="46.66979" lon="-1.90355">
        <ele>5</ele>
        <time>2018-03-15T03:40:09Z</time>
      </trkpt>
      <trkpt lat="46.66978" lon="-1.90355">
        <ele>5</ele>
        <time>2018-03-15T03:41:09Z</time>
      </trkpt>
      <trkpt lat="46.66977" lon="-1.90354">
        <ele>5</ele>
        <time>2018-03-15T03:42:09Z</time>
      </trkpt>
      <trkpt lat="46.66976" lon="-1.90353">
        <ele>5</ele>
        <time>2018-03-15T03:43:09Z</time>
      </trkpt>
      <trkpt lat="46.66975" lon="-1.90352">
        <ele>5</ele>
        <time>2018-03-15T03:44:09Z</time>
      </trkpt>
      <trkpt lat="46.66974" lon="-1.90351">
        <ele>5</ele>
        <time>2018-03-15T03:45:09Z</time>
      </trkpt>
      <trkpt lat="46.66973" lon="-1.9035">
        <ele>5</ele>
        <time>2018-03-15T03:46:09Z</time>
      </trkpt>
      <trkpt lat="46.66972" lon="-1.90349">
        <ele>5</ele>
        <time>2018-03-15T03:47:09Z</time>
      </trkpt>
      <trkpt lat="46.66971" lon="-1.90348">
        <ele>5</ele>
        <time>2018-03-15T03:48:09Z</time>
      </trkpt>
      <trkpt lat="46.6697" lon="-1.90346">
        <ele>5</ele>
        <time>2018-03-15T03:49:09Z</time>
      </trkpt>
      <trkpt lat="46.66969" lon="-1.90345">
        <ele>5</ele>
        <time>2018-03-15T03:50:09Z</time>
      </trkpt>
      <trkpt lat="46.66969" lon="-1.90343">
        <ele>5</ele>
        <time>2018-03-15T03:51:09Z</time>
      </trkpt>
      <trkpt lat="46.66968" lon="-1.90341">
        <ele>5</ele>
        <time>2018-03-15T03:52:09Z</time>
      </trkpt>
      <trkpt lat="46.66968" lon="-1.9034">
        <ele>5</ele>
        <time>2018-03-15T03:53:09Z</time>
      </trkpt>
      <trkpt lat="46.66967" lon="-1.90338">
        <ele>5</ele>
        <time>2018-03-15T03:54:09Z</time>
      </trkpt>
      <trkpt lat="46.66967" lon="-1.90335">
        <ele>5</ele>
        <time>2018-03-15T03:55:09Z</time>
      </trkpt>
      <trkpt lat="46.66963" lon="-1.90329">
        <ele>5</ele>
        <time>2018-03-15T03:56:09Z</time>
      </trkpt>
      <trkpt lat="46.66956" lon="-1.90318">
        <ele>5</ele>
        <time>2018-03-15T03:57:09Z</time>
      </trkpt>
      <trkpt lat="46.66936" lon="-1.90291">
        <ele>5</ele>
        <time>2018-03-15T03:58:09Z</time>
      </trkpt>
      <trkpt lat="46.66926" lon="-1.90283">
        <ele>5</ele>
        <time>2018-03-15T03:59:09Z</time>
      </trkpt>
      <trkpt lat="46.66922" lon="-1.90279">
        <ele>5</ele>
        <time>2018-03-15T04:00:09Z</time>
      </trkpt>
      <trkpt lat="46.66917" lon="-1.90275">
        <ele>5</ele>
        <time>2018-03-15T04:01:09Z</time>
      </trkpt>
      <trkpt lat="46.66913" lon="-1.90272">
        <ele>5</ele>
        <time>2018-03-15T04:02:09Z</time>
      </trkpt>
      <trkpt lat="46.66908" lon="-1.90269">
        <ele>5</ele>
        <time>2018-03-15T04:03:09Z</time>
      </trkpt>
      <trkpt lat="46.66902" lon="-1.90265">
        <ele>5</ele>
        <time>2018-03-15T04:04:09Z</time>
      </trkpt>
      <trkpt lat="46.66895" lon="-1.90261">
        <ele>5</ele>
        <time>2018-03-15T04:05:09Z</time>
      </trkpt>
      <trkpt lat="46.66891" lon="-1.90258">
        <ele>5</ele>
        <time>2018-03-15T04:06:09Z</time>
      </trkpt>
      <trkpt lat="46.66887" lon="-1.90256">
        <ele>5</ele>
        <time>2018-03-15T04:07:09Z</time>
      </trkpt>
      <trkpt lat="46.66883" lon="-1.90253">
        <ele>5</ele>
        <time>2018-03-15T04:08:09Z</time>
      </trkpt>
      <trkpt lat="46.66878" lon="-1.90251">
        <ele>5</ele>
        <time>2018-03-15T04:09:09Z</time>
      </trkpt>
      <trkpt lat="46.66874" lon="-1.90248">
        <ele>5</ele>
        <time>2018-03-15T04:10:09Z</time>
      </trkpt>
      <trkpt lat="46.66868" lon="-1.90245">
        <ele>5</ele>
        <time>2018-03-15T04:11:09Z</time>
      </trkpt>
      <trkpt lat="46.66863" lon="-1.90243">
        <ele>5</ele>
        <time>2018-03-15T04:12:09Z</time>
      </trkpt>
      <trkpt lat="46.66848" lon="-1.90237">
        <ele>5</ele>
        <time>2018-03-15T04:13:09Z</time>
      </trkpt>
      <trkpt lat="46.66842" lon="-1.90237">
        <ele>5</ele>
        <time>2018-03-15T04:14:09Z</time>
      </trkpt>
      <trkpt lat="46.66834" lon="-1.90235">
        <ele>5</ele>
        <time>2018-03-15T04:15:09Z</time>
      </trkpt>
      <trkpt lat="46.66812" lon="-1.9023">
        <ele>5</ele>
        <time>2018-03-15T04:16:09Z</time>
      </trkpt>
      <trkpt lat="46.66774" lon="-1.90221">
        <ele>5</ele>
        <time>2018-03-15T04:17:09Z</time>
      </trkpt>
      <trkpt lat="46.66754" lon="-1.90216">
        <ele>5</ele>
        <time>2018-03-15T04:18:09Z</time>
      </trkpt>
      <trkpt lat="46.66747" lon="-1.90214">
        <ele>5</ele>
        <time>2018-03-15T04:19:09Z</time>
      </trkpt>
      <trkpt lat="46.66649" lon="-1.9019">
        <ele>5</ele>
        <time>2018-03-15T04:20:09Z</time>
      </trkpt>
      <trkpt lat="46.66644" lon="-1.90186">
        <ele>5</ele>
        <time>2018-03-15T04:21:09Z</time>
      </trkpt>
      <trkpt lat="46.66598" lon="-1.90175">
        <ele>4</ele>
        <time>2018-03-15T04:22:09Z</time>
      </trkpt>
      <trkpt lat="46.66556" lon="-1.90164">
        <ele>3</ele>
        <time>2018-03-15T04:23:09Z</time>
      </trkpt>
      <trkpt lat="46.66457" lon="-1.90141">
        <ele>3</ele>
        <time>2018-03-15T04:24:09Z</time>
      </trkpt>
      <trkpt lat="46.66365" lon="-1.90118">
        <ele>1</ele>
        <time>2018-03-15T04:25:09Z</time>
      </trkpt>
      <trkpt lat="46.6636" lon="-1.90117">
        <ele>1</ele>
        <time>2018-03-15T04:26:09Z</time>
      </trkpt>
      <trkpt lat="46.66354" lon="-1.90116">
        <ele>1</ele>
        <time>2018-03-15T04:27:09Z</time>
      </trkpt>
      <trkpt lat="46.66342" lon="-1.90113">
        <ele>1</ele>
        <time>2018-03-15T04:28:09Z</time>
      </trkpt>
      <trkpt lat="46.66335" lon="-1.90111">
        <ele>1</ele>
        <time>2018-03-15T04:29:09Z</time>
      </trkpt>
      <trkpt lat="46.66328" lon="-1.90109">
        <ele>1</ele>
        <time>2018-03-15T04:30:09Z</time>
      </trkpt>
      <trkpt lat="46.66301" lon="-1.90103">
        <ele>1</ele>
        <time>2018-03-15T04:31:09Z</time>
      </trkpt>
      <trkpt lat="46.66278" lon="-1.90097">
        <ele>2</ele>
        <time>2018-03-15T04:32:09Z</time>
      </trkpt>
      <trkpt lat="46.66265" lon="-1.90094">
        <ele>2</ele>
        <time>2018-03-15T04:33:09Z</time>
      </trkpt>
      <trkpt lat="46.66258" lon="-1.90092">
        <ele>2</ele>
        <time>2018-03-15T04:34:09Z</time>
      </trkpt>
      <trkpt lat="46.66254" lon="-1.90091">
        <ele>2</ele>
        <time>2018-03-15T04:35:09Z</time>
      </trkpt>
      <trkpt lat="46.66251" lon="-1.90089">
        <ele>2</ele>
        <time>2018-03-15T04:36:09Z</time>
      </trkpt>
      <trkpt lat="46.66244" lon="-1.90087">
        <ele>2</ele>
        <time>2018-03-15T04:37:09Z</time>
      </trkpt>
      <trkpt lat="46.66237" lon="-1.90084">
        <ele>2</ele>
        <time>2018-03-15T04:38:09Z</time>
      </trkpt>
      <trkpt lat="46.66229" lon="-1.9008">
        <ele>3</ele>
        <time>2018-03-15T04:39:09Z</time>
      </trkpt>
      <trkpt lat="46.66223" lon="-1.90077">
        <ele>3</ele>
        <time>2018-03-15T04:40:09Z</time>
      </trkpt>
      <trkpt lat="46.66216" lon="-1.90073">
        <ele>3</ele>
        <time>2018-03-15T04:41:09Z</time>
      </trkpt>
      <trkpt lat="46.66205" lon="-1.90067">
        <ele>3</ele>
        <time>2018-03-15T04:42:09Z</time>
      </trkpt>
      <trkpt lat="46.66183" lon="-1.90053">
        <ele>4</ele>
        <time>2018-03-15T04:43:09Z</time>
      </trkpt>
      <trkpt lat="46.6615" lon="-1.90033">
        <ele>5</ele>
        <time>2018-03-15T04:44:09Z</time>
      </trkpt>
      <trkpt lat="46.66116" lon="-1.90011">
        <ele>6</ele>
        <time>2018-03-15T04:45:09Z</time>
      </trkpt>
      <trkpt lat="46.6609" lon="-1.89996">
        <ele>7</ele>
        <time>2018-03-15T04:46:09Z</time>
      </trkpt>
      <trkpt lat="46.66074" lon="-1.89986">
        <ele>7</ele>
        <time>2018-03-15T04:47:09Z</time>
      </trkpt>
      <trkpt lat="46.66028" lon="-1.89956">
        <ele>8</ele>
        <time>2018-03-15T04:48:09Z</time>
      </trkpt>
      <trkpt lat="46.65975" lon="-1.89922">
        <ele>7</ele>
        <time>2018-03-15T04:49:09Z</time>
      </trkpt>
      <trkpt lat="46.65958" lon="-1.89911">
        <ele>6</ele>
        <time>2018-03-15T04:50:09Z</time>
      </trkpt>
      <trkpt lat="46.65944" lon="-1.89901">
        <ele>7</ele>
        <time>2018-03-15T04:51:09Z</time>
      </trkpt>
      <trkpt lat="46.65878" lon="-1.8986">
        <ele>7</ele>
        <time>2018-03-15T04:52:09Z</time>
      </trkpt>
      <trkpt lat="46.65759" lon="-1.89784">
        <ele>8</ele>
        <time>2018-03-15T04:53:09Z</time>
      </trkpt>
      <trkpt lat="46.65631" lon="-1.89698">
        <ele>8</ele>
        <time>2018-03-15T04:54:09Z</time>
      </trkpt>
      <trkpt lat="46.65546" lon="-1.89643">
        <ele>7</ele>
        <time>2018-03-15T04:55:09Z</time>
      </trkpt>
      <trkpt lat="46.65541" lon="-1.89641">
        <ele>7</ele>
        <time>2018-03-15T04:56:09Z</time>
      </trkpt>
      <trkpt lat="46.65489" lon="-1.89605">
        <ele>7</ele>
        <time>2018-03-15T04:57:09Z</time>
      </trkpt>
      <trkpt lat="46.65461" lon="-1.89586">
        <ele>8</ele>
        <time>2018-03-15T04:58:09Z</time>
      </trkpt>
      <trkpt lat="46.65438" lon="-1.89566">
        <ele>7</ele>
        <time>2018-03-15T04:59:09Z</time>
      </trkpt>
      <trkpt lat="46.65434" lon="-1.89563">
        <ele>7</ele>
        <time>2018-03-15T05:00:09Z</time>
      </trkpt>
      <trkpt lat="46.65366" lon="-1.89503">
        <ele>6</ele>
        <time>2018-03-15T05:01:09Z</time>
      </trkpt>
      <trkpt lat="46.65366" lon="-1.89503">
        <ele>6</ele>
        <time>2018-03-15T05:02:09Z</time>
      </trkpt>
      <trkpt lat="46.65369" lon="-1.89496">
        <ele>6</ele>
        <time>2018-03-15T05:03:09Z</time>
      </trkpt>
      <trkpt lat="46.65366" lon="-1.89476">
        <ele>6</ele>
        <time>2018-03-15T05:04:09Z</time>
      </trkpt>
      <trkpt lat="46.65354" lon="-1.894">
        <ele>5</ele>
        <time>2018-03-15T05:05:09Z</time>
      </trkpt>
      <trkpt lat="46.65344" lon="-1.89332">
        <ele>5</ele>
        <time>2018-03-15T05:06:09Z</time>
      </trkpt>
      <trkpt lat="46.65335" lon="-1.89273">
        <ele>5</ele>
        <time>2018-03-15T05:07:09Z</time>
      </trkpt>
      <trkpt lat="46.65331" lon="-1.89246">
        <ele>5</ele>
        <time>2018-03-15T05:08:09Z</time>
      </trkpt>
      <trkpt lat="46.65321" lon="-1.89187">
        <ele>5</ele>
        <time>2018-03-15T05:09:09Z</time>
      </trkpt>
      <trkpt lat="46.65308" lon="-1.89096">
        <ele>6</ele>
        <time>2018-03-15T05:10:09Z</time>
      </trkpt>
      <trkpt lat="46.65298" lon="-1.89032">
        <ele>7</ele>
        <time>2018-03-15T05:11:09Z</time>
      </trkpt>
      <trkpt lat="46.65287" lon="-1.88968">
        <ele>8</ele>
        <time>2018-03-15T05:12:09Z</time>
      </trkpt>
      <trkpt lat="46.65283" lon="-1.88941">
        <ele>8</ele>
        <time>2018-03-15T05:13:09Z</time>
      </trkpt>
      <trkpt lat="46.65275" lon="-1.88888">
        <ele>8</ele>
        <time>2018-03-15T05:14:09Z</time>
      </trkpt>
      <trkpt lat="46.65267" lon="-1.88835">
        <ele>7</ele>
        <time>2018-03-15T05:15:09Z</time>
      </trkpt>
      <trkpt lat="46.65261" lon="-1.888">
        <ele>7</ele>
        <time>2018-03-15T05:16:09Z</time>
      </trkpt>
      <trkpt lat="46.65257" lon="-1.88772">
        <ele>8</ele>
        <time>2018-03-15T05:17:09Z</time>
      </trkpt>
      <trkpt lat="46.65254" lon="-1.88736">
        <ele>7</ele>
        <time>2018-03-15T05:18:09Z</time>
      </trkpt>
      <trkpt lat="46.65248" lon="-1.88687">
        <ele>7</ele>
        <time>2018-03-15T05:19:09Z</time>
      </trkpt>
      <trkpt lat="46.65243" lon="-1.88632">
        <ele>6</ele>
        <time>2018-03-15T05:20:09Z</time>
      </trkpt>
      <trkpt lat="46.65239" lon="-1.88591">
        <ele>5</ele>
        <time>2018-03-15T05:21:09Z</time>
      </trkpt>
      <trkpt lat="46.65235" lon="-1.88551">
        <ele>6</ele>
        <time>2018-03-15T05:22:09Z</time>
      </trkpt>
      <trkpt lat="46.65235" lon="-1.8855">
        <ele>6</ele>
        <time>2018-03-15T05:23:09Z</time>
      </trkpt>
      <trkpt lat="46.65229" lon="-1.88491">
        <ele>6</ele>
        <time>2018-03-15T05:24:09Z</time>
      </trkpt>
      <trkpt lat="46.65226" lon="-1.88446">
        <ele>5</ele>
        <time>2018-03-15T05:25:09Z</time>
      </trkpt>
      <trkpt lat="46.6522" lon="-1.88391">
        <ele>5</ele>
        <time>2018-03-15T05:26:09Z</time>
      </trkpt>
      <trkpt lat="46.65215" lon="-1.8834">
        <ele>6</ele>
        <time>2018-03-15T05:27:09Z</time>
      </trkpt>
      <trkpt lat="46.65211" lon="-1.88306">
        <ele>7</ele>
        <time>2018-03-15T05:28:09Z</time>
      </trkpt>
      <trkpt lat="46.65208" lon="-1.88282">
        <ele>7</ele>
        <time>2018-03-15T05:29:09Z</time>
      </trkpt>
      <trkpt lat="46.65207" lon="-1.88274">
        <ele>7</ele>
        <time>2018-03-15T05:30:09Z</time>
      </trkpt>
      <trkpt lat="46.65202" lon="-1.88244">
        <ele>8</ele>
        <time>2018-03-15T05:31:09Z</time>
      </trkpt>
      <trkpt lat="46.65195" lon="-1.8821">
        <ele>8</ele>
        <time>2018-03-15T05:32:09Z</time>
      </trkpt>
      <trkpt lat="46.65186" lon="-1.88173">
        <ele>9</ele>
        <time>2018-03-15T05:33:09Z</time>
      </trkpt>
      <trkpt lat="46.65171" lon="-1.88116">
        <ele>10</ele>
        <time>2018-03-15T05:34:09Z</time>
      </trkpt>
      <trkpt lat="46.65158" lon="-1.88068">
        <ele>10</ele>
        <time>2018-03-15T05:35:09Z</time>
      </trkpt>
      <trkpt lat="46.65151" lon="-1.8804">
        <ele>10</ele>
        <time>2018-03-15T05:36:09Z</time>
      </trkpt>
      <trkpt lat="46.65145" lon="-1.88021">
        <ele>11</ele>
        <time>2018-03-15T05:37:09Z</time>
      </trkpt>
      <trkpt lat="46.65137" lon="-1.87988">
        <ele>11</ele>
        <time>2018-03-15T05:38:09Z</time>
      </trkpt>
      <trkpt lat="46.65133" lon="-1.87974">
        <ele>11</ele>
        <time>2018-03-15T05:39:09Z</time>
      </trkpt>
      <trkpt lat="46.65133" lon="-1.87972">
        <ele>11</ele>
        <time>2018-03-15T05:40:09Z</time>
      </trkpt>
      <trkpt lat="46.65124" lon="-1.87945">
        <ele>11</ele>
        <time>2018-03-15T05:41:09Z</time>
      </trkpt>
      <trkpt lat="46.65116" lon="-1.87918">
        <ele>11</ele>
        <time>2018-03-15T05:42:09Z</time>
      </trkpt>
      <trkpt lat="46.65109" lon="-1.87885">
        <ele>11</ele>
        <time>2018-03-15T05:43:09Z</time>
      </trkpt>
      <trkpt lat="46.65105" lon="-1.87853">
        <ele>11</ele>
        <time>2018-03-15T05:44:09Z</time>
      </trkpt>
      <trkpt lat="46.65101" lon="-1.87824">
        <ele>11</ele>
        <time>2018-03-15T05:45:09Z</time>
      </trkpt>
      <trkpt lat="46.651" lon="-1.87802">
        <ele>10</ele>
        <time>2018-03-15T05:46:09Z</time>
      </trkpt>
      <trkpt lat="46.65099" lon="-1.87787">
        <ele>10</ele>
        <time>2018-03-15T05:47:09Z</time>
      </trkpt>
      <trkpt lat="46.65097" lon="-1.87734">
        <ele>9</ele>
        <time>2018-03-15T05:48:09Z</time>
      </trkpt>
      <trkpt lat="46.65096" lon="-1.87689">
        <ele>9</ele>
        <time>2018-03-15T05:49:09Z</time>
      </trkpt>
      <trkpt lat="46.65095" lon="-1.87668">
        <ele>9</ele>
        <time>2018-03-15T05:50:09Z</time>
      </trkpt>
      <trkpt lat="46.65094" lon="-1.87638">
        <ele>10</ele>
        <time>2018-03-15T05:51:09Z</time>
      </trkpt>
      <trkpt lat="46.65091" lon="-1.87603">
        <ele>10</ele>
        <time>2018-03-15T05:52:09Z</time>
      </trkpt>
      <trkpt lat="46.65088" lon="-1.87575">
        <ele>11</ele>
        <time>2018-03-15T05:53:09Z</time>
      </trkpt>
      <trkpt lat="46.65086" lon="-1.87557">
        <ele>11</ele>
        <time>2018-03-15T05:54:09Z</time>
      </trkpt>
      <trkpt lat="46.65082" lon="-1.87529">
        <ele>10</ele>
        <time>2018-03-15T05:55:09Z</time>
      </trkpt>
      <trkpt lat="46.65079" lon="-1.87507">
        <ele>10</ele>
        <time>2018-03-15T05:56:09Z</time>
      </trkpt>
      <trkpt lat="46.65071" lon="-1.87461">
        <ele>10</ele>
        <time>2018-03-15T05:57:09Z</time>
      </trkpt>
      <trkpt lat="46.65059" lon="-1.87392">
        <ele>10</ele>
        <time>2018-03-15T05:58:09Z</time>
      </trkpt>
      <trkpt lat="46.65055" lon="-1.87369">
        <ele>10</ele>
        <time>2018-03-15T05:59:09Z</time>
      </trkpt>
      <trkpt lat="46.65046" lon="-1.87318">
        <ele>11</ele>
        <time>2018-03-15T06:00:09Z</time>
      </trkpt>
      <trkpt lat="46.65042" lon="-1.8729">
        <ele>10</ele>
        <time>2018-03-15T06:01:09Z</time>
      </trkpt>
      <trkpt lat="46.65039" lon="-1.87258">
        <ele>10</ele>
        <time>2018-03-15T06:02:09Z</time>
      </trkpt>
      <trkpt lat="46.65036" lon="-1.87224">
        <ele>10</ele>
        <time>2018-03-15T06:03:09Z</time>
      </trkpt>
      <trkpt lat="46.65033" lon="-1.8719">
        <ele>11</ele>
        <time>2018-03-15T06:04:09Z</time>
      </trkpt>
      <trkpt lat="46.6503" lon="-1.87136">
        <ele>11</ele>
        <time>2018-03-15T06:05:09Z</time>
      </trkpt>
      <trkpt lat="46.65026" lon="-1.87069">
        <ele>12</ele>
        <time>2018-03-15T06:06:09Z</time>
      </trkpt>
      <trkpt lat="46.65019" lon="-1.86982">
        <ele>12</ele>
        <time>2018-03-15T06:07:09Z</time>
      </trkpt>
      <trkpt lat="46.65015" lon="-1.86918">
        <ele>12</ele>
        <time>2018-03-15T06:08:09Z</time>
      </trkpt>
      <trkpt lat="46.6501" lon="-1.86857">
        <ele>9</ele>
        <time>2018-03-15T06:09:09Z</time>
      </trkpt>
      <trkpt lat="46.65007" lon="-1.86796">
        <ele>8</ele>
        <time>2018-03-15T06:10:09Z</time>
      </trkpt>
      <trkpt lat="46.65005" lon="-1.86741">
        <ele>7</ele>
        <time>2018-03-15T06:11:09Z</time>
      </trkpt>
      <trkpt lat="46.65004" lon="-1.86709">
        <ele>7</ele>
        <time>2018-03-15T06:12:09Z</time>
      </trkpt>
      <trkpt lat="46.65004" lon="-1.86682">
        <ele>7</ele>
        <time>2018-03-15T06:13:09Z</time>
      </trkpt>
      <trkpt lat="46.65003" lon="-1.86633">
        <ele>8</ele>
        <time>2018-03-15T06:14:09Z</time>
      </trkpt>
      <trkpt lat="46.65001" lon="-1.86559">
        <ele>10</ele>
        <time>2018-03-15T06:15:09Z</time>
      </trkpt>
      <trkpt lat="46.64999" lon="-1.86515">
        <ele>12</ele>
        <time>2018-03-15T06:16:09Z</time>
      </trkpt>
      <trkpt lat="46.64998" lon="-1.86496">
        <ele>12</ele>
        <time>2018-03-15T06:17:09Z</time>
      </trkpt>
      <trkpt lat="46.64996" lon="-1.86474">
        <ele>13</ele>
        <time>2018-03-15T06:18:09Z</time>
      </trkpt>
      <trkpt lat="46.64991" lon="-1.86428">
        <ele>14</ele>
        <time>2018-03-15T06:19:09Z</time>
      </trkpt>
      <trkpt lat="46.64987" lon="-1.8638">
        <ele>14</ele>
        <time>2018-03-15T06:20:09Z</time>
      </trkpt>
      <trkpt lat="46.64981" lon="-1.86324">
        <ele>14</ele>
        <time>2018-03-15T06:21:09Z</time>
      </trkpt>
      <trkpt lat="46.64975" lon="-1.86256">
        <ele>16</ele>
        <time>2018-03-15T06:22:09Z</time>
      </trkpt>
      <trkpt lat="46.64968" lon="-1.86171">
        <ele>18</ele>
        <time>2018-03-15T06:23:09Z</time>
      </trkpt>
      <trkpt lat="46.6496" lon="-1.86087">
        <ele>20</ele>
        <time>2018-03-15T06:24:09Z</time>
      </trkpt>
      <trkpt lat="46.64952" lon="-1.86">
        <ele>20</ele>
        <time>2018-03-15T06:25:09Z</time>
      </trkpt>
      <trkpt lat="46.64945" lon="-1.85915">
        <ele>20</ele>
        <time>2018-03-15T06:26:09Z</time>
      </trkpt>
      <trkpt lat="46.64942" lon="-1.85886">
        <ele>20</ele>
        <time>2018-03-15T06:27:09Z</time>
      </trkpt>
      <trkpt lat="46.64938" lon="-1.85845">
        <ele>21</ele>
        <time>2018-03-15T06:28:09Z</time>
      </trkpt>
      <trkpt lat="46.64937" lon="-1.85835">
        <ele>21</ele>
        <time>2018-03-15T06:29:09Z</time>
      </trkpt>
      <trkpt lat="46.64934" lon="-1.85805">
        <ele>20</ele>
        <time>2018-03-15T06:30:09Z</time>
      </trkpt>
      <trkpt lat="46.64929" lon="-1.85757">
        <ele>19</ele>
        <time>2018-03-15T06:31:09Z</time>
      </trkpt>
      <trkpt lat="46.64925" lon="-1.85725">
        <ele>18</ele>
        <time>2018-03-15T06:32:09Z</time>
      </trkpt>
      <trkpt lat="46.6492" lon="-1.85676">
        <ele>17</ele>
        <time>2018-03-15T06:33:09Z</time>
      </trkpt>
      <trkpt lat="46.64915" lon="-1.85626">
        <ele>17</ele>
        <time>2018-03-15T06:34:09Z</time>
      </trkpt>
      <trkpt lat="46.64909" lon="-1.85574">
        <ele>17</ele>
        <time>2018-03-15T06:35:09Z</time>
      </trkpt>
      <trkpt lat="46.64901" lon="-1.85506">
        <ele>17</ele>
        <time>2018-03-15T06:36:09Z</time>
      </trkpt>
      <trkpt lat="46.64893" lon="-1.85436">
        <ele>19</ele>
        <time>2018-03-15T06:37:09Z</time>
      </trkpt>
      <trkpt lat="46.64889" lon="-1.85398">
        <ele>19</ele>
        <time>2018-03-15T06:38:09Z</time>
      </trkpt>
      <trkpt lat="46.64883" lon="-1.85341">
        <ele>19</ele>
        <time>2018-03-15T06:39:09Z</time>
      </trkpt>
      <trkpt lat="46.64876" lon="-1.85276">
        <ele>18</ele>
        <time>2018-03-15T06:40:09Z</time>
      </trkpt>
      <trkpt lat="46.64868" lon="-1.85198">
        <ele>18</ele>
        <time>2018-03-15T06:41:09Z</time>
      </trkpt>
      <trkpt lat="46.64863" lon="-1.85146">
        <ele>19</ele>
        <time>2018-03-15T06:42:09Z</time>
      </trkpt>
      <trkpt lat="46.6486" lon="-1.85108">
        <ele>18</ele>
        <time>2018-03-15T06:43:09Z</time>
      </trkpt>
      <trkpt lat="46.64858" lon="-1.85092">
        <ele>18</ele>
        <time>2018-03-15T06:44:09Z</time>
      </trkpt>
      <trkpt lat="46.64857" lon="-1.85077">
        <ele>18</ele>
        <time>2018-03-15T06:45:09Z</time>
      </trkpt>
      <trkpt lat="46.64856" lon="-1.85061">
        <ele>18</ele>
        <time>2018-03-15T06:46:09Z</time>
      </trkpt>
      <trkpt lat="46.64855" lon="-1.85046">
        <ele>18</ele>
        <time>2018-03-15T06:47:09Z</time>
      </trkpt>
      <trkpt lat="46.64853" lon="-1.8503">
        <ele>19</ele>
        <time>2018-03-15T06:48:09Z</time>
      </trkpt>
      <trkpt lat="46.64852" lon="-1.85014">
        <ele>19</ele>
        <time>2018-03-15T06:49:09Z</time>
      </trkpt>
      <trkpt lat="46.64851" lon="-1.84998">
        <ele>19</ele>
        <time>2018-03-15T06:50:09Z</time>
      </trkpt>
      <trkpt lat="46.64847" lon="-1.84949">
        <ele>19</ele>
        <time>2018-03-15T06:51:09Z</time>
      </trkpt>
      <trkpt lat="46.6484" lon="-1.84872">
        <ele>18</ele>
        <time>2018-03-15T06:52:09Z</time>
      </trkpt>
      <trkpt lat="46.64839" lon="-1.84856">
        <ele>18</ele>
        <time>2018-03-15T06:53:09Z</time>
      </trkpt>
      <trkpt lat="46.64838" lon="-1.8484">
        <ele>18</ele>
        <time>2018-03-15T06:54:09Z</time>
      </trkpt>
      <trkpt lat="46.64837" lon="-1.84824">
        <ele>18</ele>
        <time>2018-03-15T06:55:09Z</time>
      </trkpt>
      <trkpt lat="46.64835" lon="-1.84806">
        <ele>18</ele>
        <time>2018-03-15T06:56:09Z</time>
      </trkpt>
      <trkpt lat="46.64834" lon="-1.84791">
        <ele>18</ele>
        <time>2018-03-15T06:57:09Z</time>
      </trkpt>
      <trkpt lat="46.64833" lon="-1.84774">
        <ele>18</ele>
        <time>2018-03-15T06:58:09Z</time>
      </trkpt>
      <trkpt lat="46.64832" lon="-1.84758">
        <ele>18</ele>
        <time>2018-03-15T06:59:09Z</time>
      </trkpt>
      <trkpt lat="46.6483" lon="-1.84741">
        <ele>18</ele>
        <time>2018-03-15T07:00:09Z</time>
      </trkpt>
      <trkpt lat="46.64829" lon="-1.84724">
        <ele>18</ele>
        <time>2018-03-15T07:01:09Z</time>
      </trkpt>
      <trkpt lat="46.64827" lon="-1.84708">
        <ele>18</ele>
        <time>2018-03-15T07:02:09Z</time>
      </trkpt>
      <trkpt lat="46.64826" lon="-1.84691">
        <ele>17</ele>
        <time>2018-03-15T07:03:09Z</time>
      </trkpt>
      <trkpt lat="46.64825" lon="-1.84675">
        <ele>17</ele>
        <time>2018-03-15T07:04:09Z</time>
      </trkpt>
      <trkpt lat="46.64824" lon="-1.84658">
        <ele>17</ele>
        <time>2018-03-15T07:05:09Z</time>
      </trkpt>
      <trkpt lat="46.64823" lon="-1.84642">
        <ele>18</ele>
        <time>2018-03-15T07:06:09Z</time>
      </trkpt>
      <trkpt lat="46.64822" lon="-1.84625">
        <ele>18</ele>
        <time>2018-03-15T07:07:09Z</time>
      </trkpt>
      <trkpt lat="46.6482" lon="-1.84609">
        <ele>18</ele>
        <time>2018-03-15T07:08:09Z</time>
      </trkpt>
      <trkpt lat="46.64819" lon="-1.84593">
        <ele>19</ele>
        <time>2018-03-15T07:09:09Z</time>
      </trkpt>
      <trkpt lat="46.64818" lon="-1.84577">
        <ele>19</ele>
        <time>2018-03-15T07:10:09Z</time>
      </trkpt>
      <trkpt lat="46.64816" lon="-1.84561">
        <ele>19</ele>
        <time>2018-03-15T07:11:09Z</time>
      </trkpt>
      <trkpt lat="46.64815" lon="-1.84544">
        <ele>19</ele>
        <time>2018-03-15T07:12:09Z</time>
      </trkpt>
      <trkpt lat="46.64814" lon="-1.84528">
        <ele>18</ele>
        <time>2018-03-15T07:13:09Z</time>
      </trkpt>
      <trkpt lat="46.64812" lon="-1.84512">
        <ele>18</ele>
        <time>2018-03-15T07:14:09Z</time>
      </trkpt>
      <trkpt lat="46.6481" lon="-1.84496">
        <ele>18</ele>
        <time>2018-03-15T07:15:09Z</time>
      </trkpt>
      <trkpt lat="46.64808" lon="-1.84479">
        <ele>18</ele>
        <time>2018-03-15T07:16:09Z</time>
      </trkpt>
      <trkpt lat="46.64806" lon="-1.84463">
        <ele>18</ele>
        <time>2018-03-15T07:17:09Z</time>
      </trkpt>
      <trkpt lat="46.64804" lon="-1.84448">
        <ele>18</ele>
        <time>2018-03-15T07:18:09Z</time>
      </trkpt>
      <trkpt lat="46.64802" lon="-1.84431">
        <ele>17</ele>
        <time>2018-03-15T07:19:09Z</time>
      </trkpt>
      <trkpt lat="46.64799" lon="-1.84416">
        <ele>17</ele>
        <time>2018-03-15T07:20:09Z</time>
      </trkpt>
      <trkpt lat="46.64797" lon="-1.844">
        <ele>18</ele>
        <time>2018-03-15T07:21:09Z</time>
      </trkpt>
      <trkpt lat="46.64794" lon="-1.84384">
        <ele>18</ele>
        <time>2018-03-15T07:22:09Z</time>
      </trkpt>
      <trkpt lat="46.64792" lon="-1.84368">
        <ele>18</ele>
        <time>2018-03-15T07:23:09Z</time>
      </trkpt>
      <trkpt lat="46.64789" lon="-1.84353">
        <ele>18</ele>
        <time>2018-03-15T07:24:09Z</time>
      </trkpt>
      <trkpt lat="46.64787" lon="-1.84338">
        <ele>19</ele>
        <time>2018-03-15T07:25:09Z</time>
      </trkpt>
      <trkpt lat="46.64784" lon="-1.84322">
        <ele>19</ele>
        <time>2018-03-15T07:26:09Z</time>
      </trkpt>
      <trkpt lat="46.64782" lon="-1.84306">
        <ele>19</ele>
        <time>2018-03-15T07:27:09Z</time>
      </trkpt>
      <trkpt lat="46.64779" lon="-1.84291">
        <ele>19</ele>
        <time>2018-03-15T07:28:09Z</time>
      </trkpt>
      <trkpt lat="46.64777" lon="-1.84276">
        <ele>20</ele>
        <time>2018-03-15T07:29:09Z</time>
      </trkpt>
      <trkpt lat="46.64775" lon="-1.84261">
        <ele>20</ele>
        <time>2018-03-15T07:30:09Z</time>
      </trkpt>
      <trkpt lat="46.64772" lon="-1.84247">
        <ele>20</ele>
        <time>2018-03-15T07:31:09Z</time>
      </trkpt>
      <trkpt lat="46.6477" lon="-1.84232">
        <ele>21</ele>
        <time>2018-03-15T07:32:09Z</time>
      </trkpt>
      <trkpt lat="46.64768" lon="-1.84218">
        <ele>21</ele>
        <time>2018-03-15T07:33:09Z</time>
      </trkpt>
      <trkpt lat="46.64766" lon="-1.84204">
        <ele>21</ele>
        <time>2018-03-15T07:34:09Z</time>
      </trkpt>
      <trkpt lat="46.64763" lon="-1.8419">
        <ele>21</ele>
        <time>2018-03-15T07:35:09Z</time>
      </trkpt>
      <trkpt lat="46.64761" lon="-1.84175">
        <ele>22</ele>
        <time>2018-03-15T07:36:09Z</time>
      </trkpt>
      <trkpt lat="46.64759" lon="-1.84161">
        <ele>22</ele>
        <time>2018-03-15T07:37:09Z</time>
      </trkpt>
      <trkpt lat="46.64757" lon="-1.84147">
        <ele>22</ele>
        <time>2018-03-15T07:38:09Z</time>
      </trkpt>
      <trkpt lat="46.64755" lon="-1.84133">
        <ele>22</ele>
        <time>2018-03-15T07:39:09Z</time>
      </trkpt>
      <trkpt lat="46.64752" lon="-1.84118">
        <ele>22</ele>
        <time>2018-03-15T07:40:09Z</time>
      </trkpt>
      <trkpt lat="46.64748" lon="-1.84087">
        <ele>22</ele>
        <time>2018-03-15T07:41:09Z</time>
      </trkpt>
      <trkpt lat="46.64746" lon="-1.84077">
        <ele>22</ele>
        <time>2018-03-15T07:42:09Z</time>
      </trkpt>
      <trkpt lat="46.64744" lon="-1.84064">
        <ele>22</ele>
        <time>2018-03-15T07:43:09Z</time>
      </trkpt>
      <trkpt lat="46.64742" lon="-1.8405">
        <ele>22</ele>
        <time>2018-03-15T07:44:09Z</time>
      </trkpt>
      <trkpt lat="46.6474" lon="-1.84036">
        <ele>22</ele>
        <time>2018-03-15T07:45:09Z</time>
      </trkpt>
      <trkpt lat="46.64738" lon="-1.84022">
        <ele>22</ele>
        <time>2018-03-15T07:46:09Z</time>
      </trkpt>
      <trkpt lat="46.64736" lon="-1.84008">
        <ele>22</ele>
        <time>2018-03-15T07:47:09Z</time>
      </trkpt>
      <trkpt lat="46.64734" lon="-1.83994">
        <ele>22</ele>
        <time>2018-03-15T07:48:09Z</time>
      </trkpt>
      <trkpt lat="46.64732" lon="-1.8398">
        <ele>22</ele>
        <time>2018-03-15T07:49:09Z</time>
      </trkpt>
      <trkpt lat="46.64731" lon="-1.83965">
        <ele>22</ele>
        <time>2018-03-15T07:50:09Z</time>
      </trkpt>
      <trkpt lat="46.64729" lon="-1.83951">
        <ele>22</ele>
        <time>2018-03-15T07:51:09Z</time>
      </trkpt>
      <trkpt lat="46.64728" lon="-1.83937">
        <ele>22</ele>
        <time>2018-03-15T07:52:09Z</time>
      </trkpt>
      <trkpt lat="46.64728" lon="-1.83924">
        <ele>22</ele>
        <time>2018-03-15T07:53:09Z</time>
      </trkpt>
      <trkpt lat="46.64728" lon="-1.8391">
        <ele>22</ele>
        <time>2018-03-15T07:54:09Z</time>
      </trkpt>
      <trkpt lat="46.64728" lon="-1.83896">
        <ele>23</ele>
        <time>2018-03-15T07:55:09Z</time>
      </trkpt>
      <trkpt lat="46.64729" lon="-1.83883">
        <ele>23</ele>
        <time>2018-03-15T07:56:09Z</time>
      </trkpt>
      <trkpt lat="46.6473" lon="-1.8387">
        <ele>23</ele>
        <time>2018-03-15T07:57:09Z</time>
      </trkpt>
      <trkpt lat="46.64732" lon="-1.83857">
        <ele>23</ele>
        <time>2018-03-15T07:58:09Z</time>
      </trkpt>
      <trkpt lat="46.64736" lon="-1.83833">
        <ele>24</ele>
        <time>2018-03-15T07:59:09Z</time>
      </trkpt>
      <trkpt lat="46.64738" lon="-1.83821">
        <ele>24</ele>
        <time>2018-03-15T08:00:09Z</time>
      </trkpt>
      <trkpt lat="46.6474" lon="-1.83809">
        <ele>25</ele>
        <time>2018-03-15T08:01:09Z</time>
      </trkpt>
      <trkpt lat="46.64743" lon="-1.83796">
        <ele>25</ele>
        <time>2018-03-15T08:02:09Z</time>
      </trkpt>
      <trkpt lat="46.64745" lon="-1.83784">
        <ele>26</ele>
        <time>2018-03-15T08:03:09Z</time>
      </trkpt>
      <trkpt lat="46.64747" lon="-1.83771">
        <ele>26</ele>
        <time>2018-03-15T08:04:09Z</time>
      </trkpt>
      <trkpt lat="46.6475" lon="-1.83758">
        <ele>27</ele>
        <time>2018-03-15T08:05:09Z</time>
      </trkpt>
      <trkpt lat="46.64752" lon="-1.83746">
        <ele>27</ele>
        <time>2018-03-15T08:06:09Z</time>
      </trkpt>
      <trkpt lat="46.64754" lon="-1.83733">
        <ele>27</ele>
        <time>2018-03-15T08:07:09Z</time>
      </trkpt>
      <trkpt lat="46.64757" lon="-1.83721">
        <ele>26</ele>
        <time>2018-03-15T08:08:09Z</time>
      </trkpt>
      <trkpt lat="46.64759" lon="-1.83709">
        <ele>26</ele>
        <time>2018-03-15T08:09:09Z</time>
      </trkpt>
      <trkpt lat="46.64761" lon="-1.83695">
        <ele>26</ele>
        <time>2018-03-15T08:10:09Z</time>
      </trkpt>
      <trkpt lat="46.64764" lon="-1.83683">
        <ele>26</ele>
        <time>2018-03-15T08:11:09Z</time>
      </trkpt>
      <trkpt lat="46.64766" lon="-1.8367">
        <ele>25</ele>
        <time>2018-03-15T08:12:09Z</time>
      </trkpt>
      <trkpt lat="46.64769" lon="-1.83657">
        <ele>25</ele>
        <time>2018-03-15T08:13:09Z</time>
      </trkpt>
      <trkpt lat="46.64771" lon="-1.83644">
        <ele>25</ele>
        <time>2018-03-15T08:14:09Z</time>
      </trkpt>
      <trkpt lat="46.64773" lon="-1.83631">
        <ele>25</ele>
        <time>2018-03-15T08:15:09Z</time>
      </trkpt>
      <trkpt lat="46.64776" lon="-1.83619">
        <ele>25</ele>
        <time>2018-03-15T08:16:09Z</time>
      </trkpt>
      <trkpt lat="46.64778" lon="-1.83606">
        <ele>25</ele>
        <time>2018-03-15T08:17:09Z</time>
      </trkpt>
      <trkpt lat="46.6478" lon="-1.83593">
        <ele>24</ele>
        <time>2018-03-15T08:18:09Z</time>
      </trkpt>
      <trkpt lat="46.64783" lon="-1.83579">
        <ele>24</ele>
        <time>2018-03-15T08:19:09Z</time>
      </trkpt>
      <trkpt lat="46.64785" lon="-1.83566">
        <ele>24</ele>
        <time>2018-03-15T08:20:09Z</time>
      </trkpt>
      <trkpt lat="46.64788" lon="-1.83553">
        <ele>24</ele>
        <time>2018-03-15T08:21:09Z</time>
      </trkpt>
      <trkpt lat="46.6479" lon="-1.8354">
        <ele>23</ele>
        <time>2018-03-15T08:22:09Z</time>
      </trkpt>
      <trkpt lat="46.64793" lon="-1.83526">
        <ele>23</ele>
        <time>2018-03-15T08:23:09Z</time>
      </trkpt>
      <trkpt lat="46.64795" lon="-1.83513">
        <ele>23</ele>
        <time>2018-03-15T08:24:09Z</time>
      </trkpt>
      <trkpt lat="46.64798" lon="-1.83501">
        <ele>23</ele>
        <time>2018-03-15T08:25:09Z</time>
      </trkpt>
      <trkpt lat="46.648" lon="-1.83488">
        <ele>22</ele>
        <time>2018-03-15T08:26:09Z</time>
      </trkpt>
      <trkpt lat="46.64801" lon="-1.83477">
        <ele>22</ele>
        <time>2018-03-15T08:27:09Z</time>
      </trkpt>
      <trkpt lat="46.64803" lon="-1.83473">
        <ele>22</ele>
        <time>2018-03-15T08:28:09Z</time>
      </trkpt>
      <trkpt lat="46.64805" lon="-1.83461">
        <ele>22</ele>
        <time>2018-03-15T08:29:09Z</time>
      </trkpt>
      <trkpt lat="46.64807" lon="-1.83448">
        <ele>21</ele>
        <time>2018-03-15T08:30:09Z</time>
      </trkpt>
      <trkpt lat="46.6481" lon="-1.83435">
        <ele>21</ele>
        <time>2018-03-15T08:31:09Z</time>
      </trkpt>
      <trkpt lat="46.64812" lon="-1.83422">
        <ele>21</ele>
        <time>2018-03-15T08:32:09Z</time>
      </trkpt>
      <trkpt lat="46.64813" lon="-1.83408">
        <ele>21</ele>
        <time>2018-03-15T08:33:09Z</time>
      </trkpt>
      <trkpt lat="46.64815" lon="-1.83395">
        <ele>21</ele>
        <time>2018-03-15T08:34:09Z</time>
      </trkpt>
      <trkpt lat="46.64816" lon="-1.83381">
        <ele>21</ele>
        <time>2018-03-15T08:35:09Z</time>
      </trkpt>
      <trkpt lat="46.64816" lon="-1.83368">
        <ele>21</ele>
        <time>2018-03-15T08:36:09Z</time>
      </trkpt>
      <trkpt lat="46.64816" lon="-1.83354">
        <ele>21</ele>
        <time>2018-03-15T08:37:09Z</time>
      </trkpt>
      <trkpt lat="46.64815" lon="-1.83335">
        <ele>21</ele>
        <time>2018-03-15T08:38:09Z</time>
      </trkpt>
      <trkpt lat="46.64815" lon="-1.83328">
        <ele>21</ele>
        <time>2018-03-15T08:39:09Z</time>
      </trkpt>
      <trkpt lat="46.64814" lon="-1.83316">
        <ele>21</ele>
        <time>2018-03-15T08:40:09Z</time>
      </trkpt>
      <trkpt lat="46.64813" lon="-1.83302">
        <ele>21</ele>
        <time>2018-03-15T08:41:09Z</time>
      </trkpt>
      <trkpt lat="46.64811" lon="-1.8329">
        <ele>21</ele>
        <time>2018-03-15T08:42:09Z</time>
      </trkpt>
      <trkpt lat="46.6481" lon="-1.83276">
        <ele>22</ele>
        <time>2018-03-15T08:43:09Z</time>
      </trkpt>
      <trkpt lat="46.64808" lon="-1.83264">
        <ele>22</ele>
        <time>2018-03-15T08:44:09Z</time>
      </trkpt>
      <trkpt lat="46.64807" lon="-1.83251">
        <ele>22</ele>
        <time>2018-03-15T08:45:09Z</time>
      </trkpt>
      <trkpt lat="46.64805" lon="-1.83238">
        <ele>22</ele>
        <time>2018-03-15T08:46:09Z</time>
      </trkpt>
      <trkpt lat="46.64804" lon="-1.83225">
        <ele>22</ele>
        <time>2018-03-15T08:47:09Z</time>
      </trkpt>
      <trkpt lat="46.64802" lon="-1.83212">
        <ele>22</ele>
        <time>2018-03-15T08:48:09Z</time>
      </trkpt>
      <trkpt lat="46.648" lon="-1.832">
        <ele>23</ele>
        <time>2018-03-15T08:49:09Z</time>
      </trkpt>
      <trkpt lat="46.64798" lon="-1.83187">
        <ele>23</ele>
        <time>2018-03-15T08:50:09Z</time>
      </trkpt>
      <trkpt lat="46.64797" lon="-1.83185">
        <ele>23</ele>
        <time>2018-03-15T08:51:09Z</time>
      </trkpt>
      <trkpt lat="46.64792" lon="-1.83165">
        <ele>23</ele>
        <time>2018-03-15T08:52:09Z</time>
      </trkpt>
      <trkpt lat="46.64789" lon="-1.83153">
        <ele>23</ele>
        <time>2018-03-15T08:53:09Z</time>
      </trkpt>
      <trkpt lat="46.64786" lon="-1.83142">
        <ele>23</ele>
        <time>2018-03-15T08:54:09Z</time>
      </trkpt>
      <trkpt lat="46.64783" lon="-1.83131">
        <ele>23</ele>
        <time>2018-03-15T08:55:09Z</time>
      </trkpt>
      <trkpt lat="46.6478" lon="-1.8312">
        <ele>23</ele>
        <time>2018-03-15T08:56:09Z</time>
      </trkpt>
      <trkpt lat="46.64777" lon="-1.83109">
        <ele>23</ele>
        <time>2018-03-15T08:57:09Z</time>
      </trkpt>
      <trkpt lat="46.64773" lon="-1.83098">
        <ele>23</ele>
        <time>2018-03-15T08:58:09Z</time>
      </trkpt>
      <trkpt lat="46.6477" lon="-1.83086">
        <ele>23</ele>
        <time>2018-03-15T08:59:09Z</time>
      </trkpt>
      <trkpt lat="46.64767" lon="-1.83075">
        <ele>23</ele>
        <time>2018-03-15T09:00:09Z</time>
      </trkpt>
      <trkpt lat="46.64765" lon="-1.83063">
        <ele>23</ele>
        <time>2018-03-15T09:01:09Z</time>
      </trkpt>
      <trkpt lat="46.64762" lon="-1.83051">
        <ele>23</ele>
        <time>2018-03-15T09:02:09Z</time>
      </trkpt>
      <trkpt lat="46.6476" lon="-1.83039">
        <ele>23</ele>
        <time>2018-03-15T09:03:09Z</time>
      </trkpt>
      <trkpt lat="46.64758" lon="-1.83027">
        <ele>23</ele>
        <time>2018-03-15T09:04:09Z</time>
      </trkpt>
      <trkpt lat="46.64757" lon="-1.83014">
        <ele>23</ele>
        <time>2018-03-15T09:05:09Z</time>
      </trkpt>
      <trkpt lat="46.64756" lon="-1.83004">
        <ele>23</ele>
        <time>2018-03-15T09:06:09Z</time>
      </trkpt>
      <trkpt lat="46.64751" lon="-1.82946">
        <ele>23</ele>
        <time>2018-03-15T09:07:09Z</time>
      </trkpt>
      <trkpt lat="46.64747" lon="-1.82909">
        <ele>23</ele>
        <time>2018-03-15T09:08:09Z</time>
      </trkpt>
      <trkpt lat="46.64745" lon="-1.82879">
        <ele>23</ele>
        <time>2018-03-15T09:09:09Z</time>
      </trkpt>
      <trkpt lat="46.64744" lon="-1.8287">
        <ele>23</ele>
        <time>2018-03-15T09:10:09Z</time>
      </trkpt>
      <trkpt lat="46.64743" lon="-1.82855">
        <ele>23</ele>
        <time>2018-03-15T09:11:09Z</time>
      </trkpt>
      <trkpt lat="46.64742" lon="-1.82842">
        <ele>23</ele>
        <time>2018-03-15T09:12:09Z</time>
      </trkpt>
      <trkpt lat="46.6474" lon="-1.82828">
        <ele>23</ele>
        <time>2018-03-15T09:13:09Z</time>
      </trkpt>
      <trkpt lat="46.64739" lon="-1.82814">
        <ele>23</ele>
        <time>2018-03-15T09:14:09Z</time>
      </trkpt>
      <trkpt lat="46.64737" lon="-1.828">
        <ele>23</ele>
        <time>2018-03-15T09:15:09Z</time>
      </trkpt>
      <trkpt lat="46.64736" lon="-1.82786">
        <ele>23</ele>
        <time>2018-03-15T09:16:09Z</time>
      </trkpt>
      <trkpt lat="46.64734" lon="-1.82772">
        <ele>23</ele>
        <time>2018-03-15T09:17:09Z</time>
      </trkpt>
      <trkpt lat="46.64733" lon="-1.82759">
        <ele>23</ele>
        <time>2018-03-15T09:18:09Z</time>
      </trkpt>
      <trkpt lat="46.64731" lon="-1.82745">
        <ele>23</ele>
        <time>2018-03-15T09:19:09Z</time>
      </trkpt>
      <trkpt lat="46.6473" lon="-1.82732">
        <ele>23</ele>
        <time>2018-03-15T09:20:09Z</time>
      </trkpt>
      <trkpt lat="46.64728" lon="-1.82718">
        <ele>23</ele>
        <time>2018-03-15T09:21:09Z</time>
      </trkpt>
      <trkpt lat="46.64726" lon="-1.82705">
        <ele>24</ele>
        <time>2018-03-15T09:22:09Z</time>
      </trkpt>
      <trkpt lat="46.64725" lon="-1.82692">
        <ele>24</ele>
        <time>2018-03-15T09:23:09Z</time>
      </trkpt>
      <trkpt lat="46.64723" lon="-1.8268">
        <ele>24</ele>
        <time>2018-03-15T09:24:09Z</time>
      </trkpt>
      <trkpt lat="46.64722" lon="-1.82668">
        <ele>25</ele>
        <time>2018-03-15T09:25:09Z</time>
      </trkpt>
      <trkpt lat="46.6472" lon="-1.82655">
        <ele>25</ele>
        <time>2018-03-15T09:26:09Z</time>
      </trkpt>
      <trkpt lat="46.64716" lon="-1.8263">
        <ele>25</ele>
        <time>2018-03-15T09:27:09Z</time>
      </trkpt>
      <trkpt lat="46.64712" lon="-1.82607">
        <ele>26</ele>
        <time>2018-03-15T09:28:09Z</time>
      </trkpt>
      <trkpt lat="46.64708" lon="-1.82584">
        <ele>26</ele>
        <time>2018-03-15T09:29:09Z</time>
      </trkpt>
      <trkpt lat="46.64703" lon="-1.82552">
        <ele>26</ele>
        <time>2018-03-15T09:30:09Z</time>
      </trkpt>
      <trkpt lat="46.647" lon="-1.82536">
        <ele>26</ele>
        <time>2018-03-15T09:31:09Z</time>
      </trkpt>
      <trkpt lat="46.64698" lon="-1.82523">
        <ele>26</ele>
        <time>2018-03-15T09:32:09Z</time>
      </trkpt>
      <trkpt lat="46.64695" lon="-1.8251">
        <ele>26</ele>
        <time>2018-03-15T09:33:09Z</time>
      </trkpt>
      <trkpt lat="46.64693" lon="-1.82497">
        <ele>26</ele>
        <time>2018-03-15T09:34:09Z</time>
      </trkpt>
      <trkpt lat="46.64691" lon="-1.82485">
        <ele>26</ele>
        <time>2018-03-15T09:35:09Z</time>
      </trkpt>
      <trkpt lat="46.64689" lon="-1.82472">
        <ele>26</ele>
        <time>2018-03-15T09:36:09Z</time>
      </trkpt>
      <trkpt lat="46.64687" lon="-1.82459">
        <ele>26</ele>
        <time>2018-03-15T09:37:09Z</time>
      </trkpt>
      <trkpt lat="46.64685" lon="-1.82446">
        <ele>26</ele>
        <time>2018-03-15T09:38:09Z</time>
      </trkpt>
      <trkpt lat="46.64684" lon="-1.8244">
        <ele>26</ele>
        <time>2018-03-15T09:39:09Z</time>
      </trkpt>
      <trkpt lat="46.64682" lon="-1.82433">
        <ele>26</ele>
        <time>2018-03-15T09:40:09Z</time>
      </trkpt>
      <trkpt lat="46.64681" lon="-1.82426">
        <ele>26</ele>
        <time>2018-03-15T09:41:09Z</time>
      </trkpt>
      <trkpt lat="46.6468" lon="-1.82413">
        <ele>26</ele>
        <time>2018-03-15T09:42:09Z</time>
      </trkpt>
      <trkpt lat="46.64679" lon="-1.82402">
        <ele>27</ele>
        <time>2018-03-15T09:43:09Z</time>
      </trkpt>
      <trkpt lat="46.64679" lon="-1.82391">
        <ele>27</ele>
        <time>2018-03-15T09:44:09Z</time>
      </trkpt>
      <trkpt lat="46.6468" lon="-1.82381">
        <ele>27</ele>
        <time>2018-03-15T09:45:09Z</time>
      </trkpt>
      <trkpt lat="46.6468" lon="-1.82371">
        <ele>28</ele>
        <time>2018-03-15T09:46:09Z</time>
      </trkpt>
      <trkpt lat="46.64682" lon="-1.82362">
        <ele>28</ele>
        <time>2018-03-15T09:47:09Z</time>
      </trkpt>
      <trkpt lat="46.64684" lon="-1.82352">
        <ele>28</ele>
        <time>2018-03-15T09:48:09Z</time>
      </trkpt>
      <trkpt lat="46.64686" lon="-1.82344">
        <ele>28</ele>
        <time>2018-03-15T09:49:09Z</time>
      </trkpt>
      <trkpt lat="46.64689" lon="-1.82336">
        <ele>28</ele>
        <time>2018-03-15T09:50:09Z</time>
      </trkpt>
      <trkpt lat="46.64693" lon="-1.82329">
        <ele>28</ele>
        <time>2018-03-15T09:51:09Z</time>
      </trkpt>
      <trkpt lat="46.64697" lon="-1.82323">
        <ele>29</ele>
        <time>2018-03-15T09:52:09Z</time>
      </trkpt>
      <trkpt lat="46.64701" lon="-1.82317">
        <ele>29</ele>
        <time>2018-03-15T09:53:09Z</time>
      </trkpt>
      <trkpt lat="46.64705" lon="-1.82312">
        <ele>29</ele>
        <time>2018-03-15T09:54:09Z</time>
      </trkpt>
      <trkpt lat="46.64709" lon="-1.82307">
        <ele>29</ele>
        <time>2018-03-15T09:55:09Z</time>
      </trkpt>
      <trkpt lat="46.64714" lon="-1.82301">
        <ele>29</ele>
        <time>2018-03-15T09:56:09Z</time>
      </trkpt>
      <trkpt lat="46.64716" lon="-1.82297">
        <ele>29</ele>
        <time>2018-03-15T09:57:09Z</time>
      </trkpt>
      <trkpt lat="46.64719" lon="-1.82293">
        <ele>29</ele>
        <time>2018-03-15T09:58:09Z</time>
      </trkpt>
      <trkpt lat="46.64721" lon="-1.82287">
        <ele>29</ele>
        <time>2018-03-15T09:59:09Z</time>
      </trkpt>
      <trkpt lat="46.64723" lon="-1.82282">
        <ele>29</ele>
        <time>2018-03-15T10:00:09Z</time>
      </trkpt>
      <trkpt lat="46.64724" lon="-1.82276">
        <ele>29</ele>
        <time>2018-03-15T10:01:09Z</time>
      </trkpt>
      <trkpt lat="46.64726" lon="-1.82269">
        <ele>30</ele>
        <time>2018-03-15T10:02:09Z</time>
      </trkpt>
      <trkpt lat="46.64726" lon="-1.82261">
        <ele>30</ele>
        <time>2018-03-15T10:03:09Z</time>
      </trkpt>
      <trkpt lat="46.64727" lon="-1.82253">
        <ele>30</ele>
        <time>2018-03-15T10:04:09Z</time>
      </trkpt>
      <trkpt lat="46.64728" lon="-1.82244">
        <ele>30</ele>
        <time>2018-03-15T10:05:09Z</time>
      </trkpt>
      <trkpt lat="46.64728" lon="-1.82235">
        <ele>30</ele>
        <time>2018-03-15T10:06:09Z</time>
      </trkpt>
      <trkpt lat="46.6473" lon="-1.82221">
        <ele>31</ele>
        <time>2018-03-15T10:07:09Z</time>
      </trkpt>
      <trkpt lat="46.64732" lon="-1.82195">
        <ele>31</ele>
        <time>2018-03-15T10:08:09Z</time>
      </trkpt>
      <trkpt lat="46.64733" lon="-1.82184">
        <ele>31</ele>
        <time>2018-03-15T10:09:09Z</time>
      </trkpt>
      <trkpt lat="46.64736" lon="-1.82154">
        <ele>31</ele>
        <time>2018-03-15T10:10:09Z</time>
      </trkpt>
      <trkpt lat="46.64738" lon="-1.82138">
        <ele>32</ele>
        <time>2018-03-15T10:11:09Z</time>
      </trkpt>
      <trkpt lat="46.64739" lon="-1.82126">
        <ele>32</ele>
        <time>2018-03-15T10:12:09Z</time>
      </trkpt>
      <trkpt lat="46.64742" lon="-1.82103">
        <ele>32</ele>
        <time>2018-03-15T10:13:09Z</time>
      </trkpt>
      <trkpt lat="46.64744" lon="-1.82092">
        <ele>32</ele>
        <time>2018-03-15T10:14:09Z</time>
      </trkpt>
      <trkpt lat="46.64745" lon="-1.82081">
        <ele>32</ele>
        <time>2018-03-15T10:15:09Z</time>
      </trkpt>
      <trkpt lat="46.64747" lon="-1.82069">
        <ele>32</ele>
        <time>2018-03-15T10:16:09Z</time>
      </trkpt>
      <trkpt lat="46.64749" lon="-1.82058">
        <ele>32</ele>
        <time>2018-03-15T10:17:09Z</time>
      </trkpt>
      <trkpt lat="46.64751" lon="-1.82048">
        <ele>32</ele>
        <time>2018-03-15T10:18:09Z</time>
      </trkpt>
      <trkpt lat="46.64753" lon="-1.82037">
        <ele>32</ele>
        <time>2018-03-15T10:19:09Z</time>
      </trkpt>
      <trkpt lat="46.64755" lon="-1.82027">
        <ele>32</ele>
        <time>2018-03-15T10:20:09Z</time>
      </trkpt>
      <trkpt lat="46.64757" lon="-1.82018">
        <ele>32</ele>
        <time>2018-03-15T10:21:09Z</time>
      </trkpt>
      <trkpt lat="46.64759" lon="-1.82008">
        <ele>32</ele>
        <time>2018-03-15T10:22:09Z</time>
      </trkpt>
      <trkpt lat="46.64761" lon="-1.81999">
        <ele>32</ele>
        <time>2018-03-15T10:23:09Z</time>
      </trkpt>
      <trkpt lat="46.64762" lon="-1.81991">
        <ele>32</ele>
        <time>2018-03-15T10:24:09Z</time>
      </trkpt>
      <trkpt lat="46.64763" lon="-1.81982">
        <ele>32</ele>
        <time>2018-03-15T10:25:09Z</time>
      </trkpt>
      <trkpt lat="46.64764" lon="-1.81975">
        <ele>32</ele>
        <time>2018-03-15T10:26:09Z</time>
      </trkpt>
      <trkpt lat="46.64764" lon="-1.81967">
        <ele>32</ele>
        <time>2018-03-15T10:27:09Z</time>
      </trkpt>
      <trkpt lat="46.64764" lon="-1.81961">
        <ele>32</ele>
        <time>2018-03-15T10:28:09Z</time>
      </trkpt>
      <trkpt lat="46.64762" lon="-1.81944">
        <ele>32</ele>
        <time>2018-03-15T10:29:09Z</time>
      </trkpt>
      <trkpt lat="46.64762" lon="-1.81944">
        <ele>32</ele>
        <time>2018-03-15T10:30:09Z</time>
      </trkpt>
      <trkpt lat="46.64762" lon="-1.81943">
        <ele>32</ele>
        <time>2018-03-15T10:31:09Z</time>
      </trkpt>
      <trkpt lat="46.64761" lon="-1.81943">
        <ele>32</ele>
        <time>2018-03-15T10:32:09Z</time>
      </trkpt>
      <trkpt lat="46.6476" lon="-1.81943">
        <ele>32</ele>
        <time>2018-03-15T10:33:09Z</time>
      </trkpt>
      <trkpt lat="46.6476" lon="-1.81942">
        <ele>32</ele>
        <time>2018-03-15T10:34:09Z</time>
      </trkpt>
      <trkpt lat="46.64759" lon="-1.81942">
        <ele>33</ele>
        <time>2018-03-15T10:35:09Z</time>
      </trkpt>
      <trkpt lat="46.64759" lon="-1.81941">
        <ele>33</ele>
        <time>2018-03-15T10:36:09Z</time>
      </trkpt>
      <trkpt lat="46.64759" lon="-1.8194">
        <ele>33</ele>
        <time>2018-03-15T10:37:09Z</time>
      </trkpt>
      <trkpt lat="46.64758" lon="-1.8194">
        <ele>33</ele>
        <time>2018-03-15T10:38:09Z</time>
      </trkpt>
      <trkpt lat="46.64758" lon="-1.81939">
        <ele>33</ele>
        <time>2018-03-15T10:39:09Z</time>
      </trkpt>
      <trkpt lat="46.64758" lon="-1.81938">
        <ele>33</ele>
        <time>2018-03-15T10:40:09Z</time>
      </trkpt>
      <trkpt lat="46.64757" lon="-1.81937">
        <ele>33</ele>
        <time>2018-03-15T10:41:09Z</time>
      </trkpt>
      <trkpt lat="46.64757" lon="-1.81936">
        <ele>33</ele>
        <time>2018-03-15T10:42:09Z</time>
      </trkpt>
      <trkpt lat="46.64757" lon="-1.81935">
        <ele>33</ele>
        <time>2018-03-15T10:43:09Z</time>
      </trkpt>
      <trkpt lat="46.64757" lon="-1.81934">
        <ele>33</ele>
        <time>2018-03-15T10:44:09Z</time>
      </trkpt>
      <trkpt lat="46.64758" lon="-1.81934">
        <ele>33</ele>
        <time>2018-03-15T10:45:09Z</time>
      </trkpt>
      <trkpt lat="46.64758" lon="-1.81933">
        <ele>33</ele>
        <time>2018-03-15T10:46:09Z</time>
      </trkpt>
      <trkpt lat="46.64758" lon="-1.81932">
        <ele>33</ele>
        <time>2018-03-15T10:47:09Z</time>
      </trkpt>
      <trkpt lat="46.64758" lon="-1.81931">
        <ele>33</ele>
        <time>2018-03-15T10:48:09Z</time>
      </trkpt>
      <trkpt lat="46.64759" lon="-1.81931">
        <ele>33</ele>
        <time>2018-03-15T10:49:09Z</time>
      </trkpt>
      <trkpt lat="46.64759" lon="-1.8193">
        <ele>33</ele>
        <time>2018-03-15T10:50:09Z</time>
      </trkpt>
      <trkpt lat="46.64759" lon="-1.81929">
        <ele>33</ele>
        <time>2018-03-15T10:51:09Z</time>
      </trkpt>
      <trkpt lat="46.6476" lon="-1.81929">
        <ele>32</ele>
        <time>2018-03-15T10:52:09Z</time>
      </trkpt>
      <trkpt lat="46.6476" lon="-1.81928">
        <ele>32</ele>
        <time>2018-03-15T10:53:09Z</time>
      </trkpt>
      <trkpt lat="46.64761" lon="-1.81928">
        <ele>32</ele>
        <time>2018-03-15T10:54:09Z</time>
      </trkpt>
      <trkpt lat="46.64762" lon="-1.81928">
        <ele>32</ele>
        <time>2018-03-15T10:55:09Z</time>
      </trkpt>
      <trkpt lat="46.64762" lon="-1.81927">
        <ele>32</ele>
        <time>2018-03-15T10:56:09Z</time>
      </trkpt>
      <trkpt lat="46.64763" lon="-1.81927">
        <ele>32</ele>
        <time>2018-03-15T10:57:09Z</time>
      </trkpt>
      <trkpt lat="46.64764" lon="-1.81927">
        <ele>32</ele>
        <time>2018-03-15T10:58:09Z</time>
      </trkpt>
      <trkpt lat="46.64764" lon="-1.81928">
        <ele>32</ele>
        <time>2018-03-15T10:59:09Z</time>
      </trkpt>
      <trkpt lat="46.64777" lon="-1.81899">
        <ele>32</ele>
        <time>2018-03-15T11:00:09Z</time>
      </trkpt>
      <trkpt lat="46.64778" lon="-1.81898">
        <ele>32</ele>
        <time>2018-03-15T11:01:09Z</time>
      </trkpt>
      <trkpt lat="46.64778" lon="-1.81897">
        <ele>32</ele>
        <time>2018-03-15T11:02:09Z</time>
      </trkpt>
      <trkpt lat="46.64778" lon="-1.81896">
        <ele>32</ele>
        <time>2018-03-15T11:03:09Z</time>
      </trkpt>
      <trkpt lat="46.64779" lon="-1.81895">
        <ele>32</ele>
        <time>2018-03-15T11:04:09Z</time>
      </trkpt>
      <trkpt lat="46.64779" lon="-1.81894">
        <ele>32</ele>
        <time>2018-03-15T11:05:09Z</time>
      </trkpt>
      <trkpt lat="46.64779" lon="-1.81893">
        <ele>32</ele>
        <time>2018-03-15T11:06:09Z</time>
      </trkpt>
      <trkpt lat="46.64779" lon="-1.81892">
        <ele>32</ele>
        <time>2018-03-15T11:07:09Z</time>
      </trkpt>
      <trkpt lat="46.64779" lon="-1.81891">
        <ele>32</ele>
        <time>2018-03-15T11:08:09Z</time>
      </trkpt>
      <trkpt lat="46.64782" lon="-1.81775">
        <ele>32</ele>
        <time>2018-03-15T11:09:09Z</time>
      </trkpt>
      <trkpt lat="46.64782" lon="-1.81769">
        <ele>32</ele>
        <time>2018-03-15T11:10:09Z</time>
      </trkpt>
      <trkpt lat="46.64782" lon="-1.81745">
        <ele>32</ele>
        <time>2018-03-15T11:11:09Z</time>
      </trkpt>
      <trkpt lat="46.64783" lon="-1.81739">
        <ele>32</ele>
        <time>2018-03-15T11:12:09Z</time>
      </trkpt>
      <trkpt lat="46.64783" lon="-1.81725">
        <ele>32</ele>
        <time>2018-03-15T11:13:09Z</time>
      </trkpt>
      <trkpt lat="46.64785" lon="-1.81711">
        <ele>32</ele>
        <time>2018-03-15T11:14:09Z</time>
      </trkpt>
      <trkpt lat="46.6479" lon="-1.81687">
        <ele>32</ele>
        <time>2018-03-15T11:15:09Z</time>
      </trkpt>
      <trkpt lat="46.64792" lon="-1.81673">
        <ele>32</ele>
        <time>2018-03-15T11:16:09Z</time>
      </trkpt>
      <trkpt lat="46.64794" lon="-1.81666">
        <ele>32</ele>
        <time>2018-03-15T11:17:09Z</time>
      </trkpt>
      <trkpt lat="46.64796" lon="-1.81661">
        <ele>32</ele>
        <time>2018-03-15T11:18:09Z</time>
      </trkpt>
      <trkpt lat="46.64803" lon="-1.8164">
        <ele>32</ele>
        <time>2018-03-15T11:19:09Z</time>
      </trkpt>
      <trkpt lat="46.64804" lon="-1.81636">
        <ele>32</ele>
        <time>2018-03-15T11:20:09Z</time>
      </trkpt>
      <trkpt lat="46.64811" lon="-1.81613">
        <ele>32</ele>
        <time>2018-03-15T11:21:09Z</time>
      </trkpt>
      <trkpt lat="46.64818" lon="-1.81589">
        <ele>33</ele>
        <time>2018-03-15T11:22:09Z</time>
      </trkpt>
      <trkpt lat="46.6482" lon="-1.81583">
        <ele>33</ele>
        <time>2018-03-15T11:23:09Z</time>
      </trkpt>
      <trkpt lat="46.64824" lon="-1.81567">
        <ele>33</ele>
        <time>2018-03-15T11:24:09Z</time>
      </trkpt>
      <trkpt lat="46.64824" lon="-1.81558">
        <ele>33</ele>
        <time>2018-03-15T11:25:09Z</time>
      </trkpt>
      <trkpt lat="46.64824" lon="-1.81552">
        <ele>33</ele>
        <time>2018-03-15T11:26:09Z</time>
      </trkpt>
      <trkpt lat="46.64821" lon="-1.8154">
        <ele>33</ele>
        <time>2018-03-15T11:27:09Z</time>
      </trkpt>
      <trkpt lat="46.64818" lon="-1.81529">
        <ele>33</ele>
        <time>2018-03-15T11:28:09Z</time>
      </trkpt>
      <trkpt lat="46.64816" lon="-1.81518">
        <ele>33</ele>
        <time>2018-03-15T11:29:09Z</time>
      </trkpt>
      <trkpt lat="46.64807" lon="-1.8149">
        <ele>34</ele>
        <time>2018-03-15T11:30:09Z</time>
      </trkpt>
      <trkpt lat="46.64801" lon="-1.8147">
        <ele>34</ele>
        <time>2018-03-15T11:31:09Z</time>
      </trkpt>
      <trkpt lat="46.64797" lon="-1.81453">
        <ele>34</ele>
        <time>2018-03-15T11:32:09Z</time>
      </trkpt>
      <trkpt lat="46.64794" lon="-1.81439">
        <ele>34</ele>
        <time>2018-03-15T11:33:09Z</time>
      </trkpt>
      <trkpt lat="46.64793" lon="-1.81429">
        <ele>34</ele>
        <time>2018-03-15T11:34:09Z</time>
      </trkpt>
      <trkpt lat="46.64793" lon="-1.81422">
        <ele>34</ele>
        <time>2018-03-15T11:35:09Z</time>
      </trkpt>
      <trkpt lat="46.64793" lon="-1.81409">
        <ele>34</ele>
        <time>2018-03-15T11:36:09Z</time>
      </trkpt>
      <trkpt lat="46.64793" lon="-1.81392">
        <ele>34</ele>
        <time>2018-03-15T11:37:09Z</time>
      </trkpt>
      <trkpt lat="46.64795" lon="-1.81372">
        <ele>34</ele>
        <time>2018-03-15T11:38:09Z</time>
      </trkpt>
      <trkpt lat="46.64795" lon="-1.81357">
        <ele>34</ele>
        <time>2018-03-15T11:39:09Z</time>
      </trkpt>
      <trkpt lat="46.64796" lon="-1.81342">
        <ele>34</ele>
        <time>2018-03-15T11:40:09Z</time>
      </trkpt>
      <trkpt lat="46.64796" lon="-1.81325">
        <ele>34</ele>
        <time>2018-03-15T11:41:09Z</time>
      </trkpt>
      <trkpt lat="46.64797" lon="-1.81307">
        <ele>34</ele>
        <time>2018-03-15T11:42:09Z</time>
      </trkpt>
      <trkpt lat="46.64797" lon="-1.81295">
        <ele>35</ele>
        <time>2018-03-15T11:43:09Z</time>
      </trkpt>
      <trkpt lat="46.648" lon="-1.81271">
        <ele>35</ele>
        <time>2018-03-15T11:44:09Z</time>
      </trkpt>
      <trkpt lat="46.64805" lon="-1.81216">
        <ele>34</ele>
        <time>2018-03-15T11:45:09Z</time>
      </trkpt>
      <trkpt lat="46.64805" lon="-1.812">
        <ele>34</ele>
        <time>2018-03-15T11:46:09Z</time>
      </trkpt>
      <trkpt lat="46.64804" lon="-1.81189">
        <ele>34</ele>
        <time>2018-03-15T11:47:09Z</time>
      </trkpt>
      <trkpt lat="46.64804" lon="-1.81182">
        <ele>34</ele>
        <time>2018-03-15T11:48:09Z</time>
      </trkpt>
      <trkpt lat="46.64804" lon="-1.81164">
        <ele>33</ele>
        <time>2018-03-15T11:49:09Z</time>
      </trkpt>
      <trkpt lat="46.64804" lon="-1.81164">
        <ele>33</ele>
        <time>2018-03-15T11:50:09Z</time>
      </trkpt>
      <trkpt lat="46.64803" lon="-1.81163">
        <ele>34</ele>
        <time>2018-03-15T11:51:09Z</time>
      </trkpt>
      <trkpt lat="46.64803" lon="-1.81162">
        <ele>34</ele>
        <time>2018-03-15T11:52:09Z</time>
      </trkpt>
      <trkpt lat="46.64802" lon="-1.81161">
        <ele>34</ele>
        <time>2018-03-15T11:53:09Z</time>
      </trkpt>
      <trkpt lat="46.64801" lon="-1.81159">
        <ele>34</ele>
        <time>2018-03-15T11:54:09Z</time>
      </trkpt>
      <trkpt lat="46.648" lon="-1.81158">
        <ele>34</ele>
        <time>2018-03-15T11:55:09Z</time>
      </trkpt>
      <trkpt lat="46.648" lon="-1.81157">
        <ele>34</ele>
        <time>2018-03-15T11:56:09Z</time>
      </trkpt>
      <trkpt lat="46.64799" lon="-1.81155">
        <ele>34</ele>
        <time>2018-03-15T11:57:09Z</time>
      </trkpt>
      <trkpt lat="46.64799" lon="-1.81154">
        <ele>34</ele>
        <time>2018-03-15T11:58:09Z</time>
      </trkpt>
      <trkpt lat="46.64799" lon="-1.81151">
        <ele>34</ele>
        <time>2018-03-15T11:59:09Z</time>
      </trkpt>
      <trkpt lat="46.64799" lon="-1.81149">
        <ele>34</ele>
        <time>2018-03-15T12:00:09Z</time>
      </trkpt>
      <trkpt lat="46.64799" lon="-1.81147">
        <ele>34</ele>
        <time>2018-03-15T12:01:09Z</time>
      </trkpt>
      <trkpt lat="46.64799" lon="-1.81146">
        <ele>34</ele>
        <time>2018-03-15T12:02:09Z</time>
      </trkpt>
      <trkpt lat="46.64799" lon="-1.81144">
        <ele>34</ele>
        <time>2018-03-15T12:03:09Z</time>
      </trkpt>
      <trkpt lat="46.648" lon="-1.81142">
        <ele>34</ele>
        <time>2018-03-15T12:04:09Z</time>
      </trkpt>
      <trkpt lat="46.64801" lon="-1.81141">
        <ele>34</ele>
        <time>2018-03-15T12:05:09Z</time>
      </trkpt>
      <trkpt lat="46.64801" lon="-1.81139">
        <ele>34</ele>
        <time>2018-03-15T12:06:09Z</time>
      </trkpt>
      <trkpt lat="46.64802" lon="-1.81138">
        <ele>34</ele>
        <time>2018-03-15T12:07:09Z</time>
      </trkpt>
      <trkpt lat="46.64803" lon="-1.81136">
        <ele>34</ele>
        <time>2018-03-15T12:08:09Z</time>
      </trkpt>
      <trkpt lat="46.64804" lon="-1.81136">
        <ele>34</ele>
        <time>2018-03-15T12:09:09Z</time>
      </trkpt>
      <trkpt lat="46.64804" lon="-1.81135">
        <ele>34</ele>
        <time>2018-03-15T12:10:09Z</time>
      </trkpt>
      <trkpt lat="46.64805" lon="-1.81135">
        <ele>34</ele>
        <time>2018-03-15T12:11:09Z</time>
      </trkpt>
      <trkpt lat="46.64806" lon="-1.81134">
        <ele>34</ele>
        <time>2018-03-15T12:12:09Z</time>
      </trkpt>
      <trkpt lat="46.64807" lon="-1.81133">
        <ele>34</ele>
        <time>2018-03-15T12:13:09Z</time>
      </trkpt>
      <trkpt lat="46.64808" lon="-1.81133">
        <ele>34</ele>
        <time>2018-03-15T12:14:09Z</time>
      </trkpt>
      <trkpt lat="46.6481" lon="-1.81132">
        <ele>34</ele>
        <time>2018-03-15T12:15:09Z</time>
      </trkpt>
      <trkpt lat="46.64811" lon="-1.81132">
        <ele>34</ele>
        <time>2018-03-15T12:16:09Z</time>
      </trkpt>
      <trkpt lat="46.64812" lon="-1.81132">
        <ele>34</ele>
        <time>2018-03-15T12:17:09Z</time>
      </trkpt>
      <trkpt lat="46.64813" lon="-1.81133">
        <ele>34</ele>
        <time>2018-03-15T12:18:09Z</time>
      </trkpt>
      <trkpt lat="46.64815" lon="-1.81133">
        <ele>34</ele>
        <time>2018-03-15T12:19:09Z</time>
      </trkpt>
      <trkpt lat="46.64816" lon="-1.81134">
        <ele>33</ele>
        <time>2018-03-15T12:20:09Z</time>
      </trkpt>
      <trkpt lat="46.64817" lon="-1.81134">
        <ele>33</ele>
        <time>2018-03-15T12:21:09Z</time>
      </trkpt>
      <trkpt lat="46.64818" lon="-1.81135">
        <ele>33</ele>
        <time>2018-03-15T12:22:09Z</time>
      </trkpt>
      <trkpt lat="46.6482" lon="-1.81138">
        <ele>33</ele>
        <time>2018-03-15T12:23:09Z</time>
      </trkpt>
      <trkpt lat="46.64821" lon="-1.81138">
        <ele>33</ele>
        <time>2018-03-15T12:24:09Z</time>
      </trkpt>
      <trkpt lat="46.64821" lon="-1.81139">
        <ele>33</ele>
        <time>2018-03-15T12:25:09Z</time>
      </trkpt>
      <trkpt lat="46.64822" lon="-1.8114">
        <ele>33</ele>
        <time>2018-03-15T12:26:09Z</time>
      </trkpt>
      <trkpt lat="46.64822" lon="-1.81141">
        <ele>33</ele>
        <time>2018-03-15T12:27:09Z</time>
      </trkpt>
      <trkpt lat="46.64822" lon="-1.81142">
        <ele>33</ele>
        <time>2018-03-15T12:28:09Z</time>
      </trkpt>
      <trkpt lat="46.64823" lon="-1.81143">
        <ele>33</ele>
        <time>2018-03-15T12:29:09Z</time>
      </trkpt>
      <trkpt lat="46.64823" lon="-1.81144">
        <ele>33</ele>
        <time>2018-03-15T12:30:09Z</time>
      </trkpt>
      <trkpt lat="46.64823" lon="-1.81146">
        <ele>33</ele>
        <time>2018-03-15T12:31:09Z</time>
      </trkpt>
      <trkpt lat="46.64827" lon="-1.81149">
        <ele>33</ele>
        <time>2018-03-15T12:32:09Z</time>
      </trkpt>
      <trkpt lat="46.6483" lon="-1.81153">
        <ele>32</ele>
        <time>2018-03-15T12:33:09Z</time>
      </trkpt>
      <trkpt lat="46.64835" lon="-1.81162">
        <ele>32</ele>
        <time>2018-03-15T12:34:09Z</time>
      </trkpt>
      <trkpt lat="46.64838" lon="-1.81167">
        <ele>32</ele>
        <time>2018-03-15T12:35:09Z</time>
      </trkpt>
      <trkpt lat="46.64852" lon="-1.81183">
        <ele>33</ele>
        <time>2018-03-15T12:36:09Z</time>
      </trkpt>
      <trkpt lat="46.64867" lon="-1.81202">
        <ele>33</ele>
        <time>2018-03-15T12:37:09Z</time>
      </trkpt>
      <trkpt lat="46.64884" lon="-1.81224">
        <ele>33</ele>
        <time>2018-03-15T12:38:09Z</time>
      </trkpt>
      <trkpt lat="46.64898" lon="-1.81244">
        <ele>33</ele>
        <time>2018-03-15T12:39:09Z</time>
      </trkpt>
      <trkpt lat="46.6492" lon="-1.81274">
        <ele>31</ele>
        <time>2018-03-15T12:40:09Z</time>
      </trkpt>
      <trkpt lat="46.6494" lon="-1.81303">
        <ele>29</ele>
        <time>2018-03-15T12:41:09Z</time>
      </trkpt>
      <trkpt lat="46.64956" lon="-1.81325">
        <ele>28</ele>
        <time>2018-03-15T12:42:09Z</time>
      </trkpt>
      <trkpt lat="46.64972" lon="-1.81347">
        <ele>27</ele>
        <time>2018-03-15T12:43:09Z</time>
      </trkpt>
      <trkpt lat="46.64981" lon="-1.8136">
        <ele>26</ele>
        <time>2018-03-15T12:44:09Z</time>
      </trkpt>
      <trkpt lat="46.64993" lon="-1.81374">
        <ele>25</ele>
        <time>2018-03-15T12:45:09Z</time>
      </trkpt>
      <trkpt lat="46.65006" lon="-1.81385">
        <ele>24</ele>
        <time>2018-03-15T12:46:09Z</time>
      </trkpt>
      <trkpt lat="46.65014" lon="-1.8139">
        <ele>23</ele>
        <time>2018-03-15T12:47:09Z</time>
      </trkpt>
      <trkpt lat="46.65023" lon="-1.81396">
        <ele>22</ele>
        <time>2018-03-15T12:48:09Z</time>
      </trkpt>
      <trkpt lat="46.65032" lon="-1.81399">
        <ele>21</ele>
        <time>2018-03-15T12:49:09Z</time>
      </trkpt>
      <trkpt lat="46.65041" lon="-1.81402">
        <ele>20</ele>
        <time>2018-03-15T12:50:09Z</time>
      </trkpt>
      <trkpt lat="46.6505" lon="-1.81402">
        <ele>19</ele>
        <time>2018-03-15T12:51:09Z</time>
      </trkpt>
      <trkpt lat="46.65056" lon="-1.81403">
        <ele>18</ele>
        <time>2018-03-15T12:52:09Z</time>
      </trkpt>
      <trkpt lat="46.65062" lon="-1.81402">
        <ele>18</ele>
        <time>2018-03-15T12:53:09Z</time>
      </trkpt>
      <trkpt lat="46.65081" lon="-1.81398">
        <ele>16</ele>
        <time>2018-03-15T12:54:09Z</time>
      </trkpt>
      <trkpt lat="46.65097" lon="-1.81393">
        <ele>15</ele>
        <time>2018-03-15T12:55:09Z</time>
      </trkpt>
      <trkpt lat="46.65102" lon="-1.81391">
        <ele>15</ele>
        <time>2018-03-15T12:56:09Z</time>
      </trkpt>
      <trkpt lat="46.6511" lon="-1.81388">
        <ele>14</ele>
        <time>2018-03-15T12:57:09Z</time>
      </trkpt>
      <trkpt lat="46.65132" lon="-1.8138">
        <ele>13</ele>
        <time>2018-03-15T12:58:09Z</time>
      </trkpt>
      <trkpt lat="46.6514" lon="-1.81377">
        <ele>13</ele>
        <time>2018-03-15T12:59:09Z</time>
      </trkpt>
      <trkpt lat="46.6516" lon="-1.81369">
        <ele>11</ele>
        <time>2018-03-15T13:00:09Z</time>
      </trkpt>
      <trkpt lat="46.65167" lon="-1.81367">
        <ele>11</ele>
        <time>2018-03-15T13:01:09Z</time>
      </trkpt>
      <trkpt lat="46.65199" lon="-1.81355">
        <ele>10</ele>
        <time>2018-03-15T13:02:09Z</time>
      </trkpt>
      <trkpt lat="46.65216" lon="-1.81349">
        <ele>9</ele>
        <time>2018-03-15T13:03:09Z</time>
      </trkpt>
      <trkpt lat="46.65243" lon="-1.81339">
        <ele>8</ele>
        <time>2018-03-15T13:04:09Z</time>
      </trkpt>
      <trkpt lat="46.65259" lon="-1.81334">
        <ele>8</ele>
        <time>2018-03-15T13:05:09Z</time>
      </trkpt>
      <trkpt lat="46.6527" lon="-1.8133">
        <ele>7</ele>
        <time>2018-03-15T13:06:09Z</time>
      </trkpt>
      <trkpt lat="46.65291" lon="-1.81322">
        <ele>6</ele>
        <time>2018-03-15T13:07:09Z</time>
      </trkpt>
      <trkpt lat="46.65302" lon="-1.81319">
        <ele>6</ele>
        <time>2018-03-15T13:08:09Z</time>
      </trkpt>
      <trkpt lat="46.65311" lon="-1.81317">
        <ele>6</ele>
        <time>2018-03-15T13:09:09Z</time>
      </trkpt>
      <trkpt lat="46.65328" lon="-1.81312">
        <ele>5</ele>
        <time>2018-03-15T13:10:09Z</time>
      </trkpt>
      <trkpt lat="46.65328" lon="-1.81312">
        <ele>5</ele>
        <time>2018-03-15T13:11:09Z</time>
      </trkpt>
      <trkpt lat="46.65339" lon="-1.81296">
        <ele>5</ele>
        <time>2018-03-15T13:12:09Z</time>
      </trkpt>
      <trkpt lat="46.65345" lon="-1.8129">
        <ele>5</ele>
        <time>2018-03-15T13:13:09Z</time>
      </trkpt>
      <trkpt lat="46.65349" lon="-1.81287">
        <ele>5</ele>
        <time>2018-03-15T13:14:09Z</time>
      </trkpt>
      <trkpt lat="46.6536" lon="-1.81269">
        <ele>5</ele>
        <time>2018-03-15T13:15:09Z</time>
      </trkpt>
      <trkpt lat="46.65373" lon="-1.81251">
        <ele>5</ele>
        <time>2018-03-15T13:16:09Z</time>
      </trkpt>
      <trkpt lat="46.65378" lon="-1.81243">
        <ele>6</ele>
        <time>2018-03-15T13:17:09Z</time>
      </trkpt>
      <trkpt lat="46.65388" lon="-1.81228">
        <ele>6</ele>
        <time>2018-03-15T13:18:09Z</time>
      </trkpt>
      <trkpt lat="46.65397" lon="-1.81213">
        <ele>6</ele>
        <time>2018-03-15T13:19:09Z</time>
      </trkpt>
      <trkpt lat="46.65415" lon="-1.81193">
        <ele>7</ele>
        <time>2018-03-15T13:20:09Z</time>
      </trkpt>
      <trkpt lat="46.6543" lon="-1.81177">
        <ele>8</ele>
        <time>2018-03-15T13:21:09Z</time>
      </trkpt>
      <trkpt lat="46.65444" lon="-1.81163">
        <ele>9</ele>
        <time>2018-03-15T13:22:09Z</time>
      </trkpt>
      <trkpt lat="46.65452" lon="-1.81156">
        <ele>9</ele>
        <time>2018-03-15T13:23:09Z</time>
      </trkpt>
      <trkpt lat="46.65469" lon="-1.8114">
        <ele>11</ele>
        <time>2018-03-15T13:24:09Z</time>
      </trkpt>
      <trkpt lat="46.6547" lon="-1.81139">
        <ele>11</ele>
        <time>2018-03-15T13:25:09Z</time>
      </trkpt>
      <trkpt lat="46.65494" lon="-1.81119">
        <ele>13</ele>
        <time>2018-03-15T13:26:09Z</time>
      </trkpt>
      <trkpt lat="46.65511" lon="-1.81105">
        <ele>14</ele>
        <time>2018-03-15T13:27:09Z</time>
      </trkpt>
      <trkpt lat="46.65534" lon="-1.81085">
        <ele>16</ele>
        <time>2018-03-15T13:28:09Z</time>
      </trkpt>
      <trkpt lat="46.6556" lon="-1.81064">
        <ele>17</ele>
        <time>2018-03-15T13:29:09Z</time>
      </trkpt>
      <trkpt lat="46.65565" lon="-1.8106">
        <ele>18</ele>
        <time>2018-03-15T13:30:09Z</time>
      </trkpt>
      <trkpt lat="46.65578" lon="-1.81051">
        <ele>18</ele>
        <time>2018-03-15T13:31:09Z</time>
      </trkpt>
      <trkpt lat="46.65592" lon="-1.81042">
        <ele>19</ele>
        <time>2018-03-15T13:32:09Z</time>
      </trkpt>
      <trkpt lat="46.65619" lon="-1.8103">
        <ele>20</ele>
        <time>2018-03-15T13:33:09Z</time>
      </trkpt>
      <trkpt lat="46.65628" lon="-1.81025">
        <ele>21</ele>
        <time>2018-03-15T13:34:09Z</time>
      </trkpt>
      <trkpt lat="46.65648" lon="-1.81017">
        <ele>21</ele>
        <time>2018-03-15T13:35:09Z</time>
      </trkpt>
      <trkpt lat="46.65677" lon="-1.81006">
        <ele>22</ele>
        <time>2018-03-15T13:36:09Z</time>
      </trkpt>
      <trkpt lat="46.6569" lon="-1.81001">
        <ele>22</ele>
        <time>2018-03-15T13:37:09Z</time>
      </trkpt>
      <trkpt lat="46.65718" lon="-1.80992">
        <ele>23</ele>
        <time>2018-03-15T13:38:09Z</time>
      </trkpt>
      <trkpt lat="46.65763" lon="-1.80975">
        <ele>22</ele>
        <time>2018-03-15T13:39:09Z</time>
      </trkpt>
      <trkpt lat="46.65802" lon="-1.80961">
        <ele>21</ele>
        <time>2018-03-15T13:40:09Z</time>
      </trkpt>
      <trkpt lat="46.65849" lon="-1.80944">
        <ele>19</ele>
        <time>2018-03-15T13:41:09Z</time>
      </trkpt>
      <trkpt lat="46.65887" lon="-1.80931">
        <ele>18</ele>
        <time>2018-03-15T13:42:09Z</time>
      </trkpt>
      <trkpt lat="46.65914" lon="-1.80922">
        <ele>16</ele>
        <time>2018-03-15T13:43:09Z</time>
      </trkpt>
      <trkpt lat="46.65935" lon="-1.80913">
        <ele>17</ele>
        <time>2018-03-15T13:44:09Z</time>
      </trkpt>
      <trkpt lat="46.65942" lon="-1.80911">
        <ele>17</ele>
        <time>2018-03-15T13:45:09Z</time>
      </trkpt>
      <trkpt lat="46.65967" lon="-1.80899">
        <ele>18</ele>
        <time>2018-03-15T13:46:09Z</time>
      </trkpt>
      <trkpt lat="46.65981" lon="-1.80893">
        <ele>19</ele>
        <time>2018-03-15T13:47:09Z</time>
      </trkpt>
      <trkpt lat="46.65988" lon="-1.80888">
        <ele>19</ele>
        <time>2018-03-15T13:48:09Z</time>
      </trkpt>
      <trkpt lat="46.66007" lon="-1.80876">
        <ele>20</ele>
        <time>2018-03-15T13:49:09Z</time>
      </trkpt>
      <trkpt lat="46.66033" lon="-1.80858">
        <ele>21</ele>
        <time>2018-03-15T13:50:09Z</time>
      </trkpt>
      <trkpt lat="46.66057" lon="-1.80838">
        <ele>23</ele>
        <time>2018-03-15T13:51:09Z</time>
      </trkpt>
      <trkpt lat="46.66079" lon="-1.80825">
        <ele>25</ele>
        <time>2018-03-15T13:52:09Z</time>
      </trkpt>
      <trkpt lat="46.66105" lon="-1.80803">
        <ele>26</ele>
        <time>2018-03-15T13:53:09Z</time>
      </trkpt>
      <trkpt lat="46.66138" lon="-1.80775">
        <ele>28</ele>
        <time>2018-03-15T13:54:09Z</time>
      </trkpt>
      <trkpt lat="46.66171" lon="-1.80741">
        <ele>30</ele>
        <time>2018-03-15T13:55:09Z</time>
      </trkpt>
      <trkpt lat="46.6621" lon="-1.80697">
        <ele>32</ele>
        <time>2018-03-15T13:56:09Z</time>
      </trkpt>
      <trkpt lat="46.66255" lon="-1.80646">
        <ele>33</ele>
        <time>2018-03-15T13:57:09Z</time>
      </trkpt>
      <trkpt lat="46.66296" lon="-1.80602">
        <ele>34</ele>
        <time>2018-03-15T13:58:09Z</time>
      </trkpt>
      <trkpt lat="46.66332" lon="-1.80562">
        <ele>35</ele>
        <time>2018-03-15T13:59:09Z</time>
      </trkpt>
      <trkpt lat="46.66375" lon="-1.80515">
        <ele>36</ele>
        <time>2018-03-15T14:00:09Z</time>
      </trkpt>
      <trkpt lat="46.66413" lon="-1.80473">
        <ele>36</ele>
        <time>2018-03-15T14:01:09Z</time>
      </trkpt>
      <trkpt lat="46.66452" lon="-1.8043">
        <ele>36</ele>
        <time>2018-03-15T14:02:09Z</time>
      </trkpt>
      <trkpt lat="46.66489" lon="-1.80389">
        <ele>37</ele>
        <time>2018-03-15T14:03:09Z</time>
      </trkpt>
      <trkpt lat="46.66505" lon="-1.8037">
        <ele>38</ele>
        <time>2018-03-15T14:04:09Z</time>
      </trkpt>
      <trkpt lat="46.66512" lon="-1.80361">
        <ele>38</ele>
        <time>2018-03-15T14:05:09Z</time>
      </trkpt>
      <trkpt lat="46.66519" lon="-1.8035">
        <ele>38</ele>
        <time>2018-03-15T14:06:09Z</time>
      </trkpt>
      <trkpt lat="46.6653" lon="-1.80332">
        <ele>38</ele>
        <time>2018-03-15T14:07:09Z</time>
      </trkpt>
      <trkpt lat="46.66541" lon="-1.80309">
        <ele>38</ele>
        <time>2018-03-15T14:08:09Z</time>
      </trkpt>
      <trkpt lat="46.66553" lon="-1.80279">
        <ele>38</ele>
        <time>2018-03-15T14:09:09Z</time>
      </trkpt>
      <trkpt lat="46.66567" lon="-1.80237">
        <ele>39</ele>
        <time>2018-03-15T14:10:09Z</time>
      </trkpt>
      <trkpt lat="46.66584" lon="-1.80188">
        <ele>39</ele>
        <time>2018-03-15T14:11:09Z</time>
      </trkpt>
      <trkpt lat="46.66599" lon="-1.80141">
        <ele>39</ele>
        <time>2018-03-15T14:12:09Z</time>
      </trkpt>
      <trkpt lat="46.66618" lon="-1.80087">
        <ele>39</ele>
        <time>2018-03-15T14:13:09Z</time>
      </trkpt>
      <trkpt lat="46.66632" lon="-1.80041">
        <ele>39</ele>
        <time>2018-03-15T14:14:09Z</time>
      </trkpt>
      <trkpt lat="46.66644" lon="-1.80009">
        <ele>40</ele>
        <time>2018-03-15T14:15:09Z</time>
      </trkpt>
      <trkpt lat="46.66652" lon="-1.79982">
        <ele>40</ele>
        <time>2018-03-15T14:16:09Z</time>
      </trkpt>
      <trkpt lat="46.66667" lon="-1.79927">
        <ele>40</ele>
        <time>2018-03-15T14:17:09Z</time>
      </trkpt>
      <trkpt lat="46.6668" lon="-1.79875">
        <ele>40</ele>
        <time>2018-03-15T14:18:09Z</time>
      </trkpt>
      <trkpt lat="46.66694" lon="-1.79817">
        <ele>41</ele>
        <time>2018-03-15T14:19:09Z</time>
      </trkpt>
      <trkpt lat="46.66715" lon="-1.79735">
        <ele>41</ele>
        <time>2018-03-15T14:20:09Z</time>
      </trkpt>
      <trkpt lat="46.66725" lon="-1.79698">
        <ele>40</ele>
        <time>2018-03-15T14:21:09Z</time>
      </trkpt>
      <trkpt lat="46.66733" lon="-1.79661">
        <ele>39</ele>
        <time>2018-03-15T14:22:09Z</time>
      </trkpt>
      <trkpt lat="46.66746" lon="-1.79613">
        <ele>40</ele>
        <time>2018-03-15T14:23:09Z</time>
      </trkpt>
      <trkpt lat="46.66757" lon="-1.79571">
        <ele>40</ele>
        <time>2018-03-15T14:24:09Z</time>
      </trkpt>
      <trkpt lat="46.66766" lon="-1.79541">
        <ele>40</ele>
        <time>2018-03-15T14:25:09Z</time>
      </trkpt>
      <trkpt lat="46.66769" lon="-1.79531">
        <ele>40</ele>
        <time>2018-03-15T14:26:09Z</time>
      </trkpt>
      <trkpt lat="46.66773" lon="-1.7952">
        <ele>40</ele>
        <time>2018-03-15T14:27:09Z</time>
      </trkpt>
      <trkpt lat="46.66782" lon="-1.795">
        <ele>41</ele>
        <time>2018-03-15T14:28:09Z</time>
      </trkpt>
      <trkpt lat="46.66796" lon="-1.7947">
        <ele>41</ele>
        <time>2018-03-15T14:29:09Z</time>
      </trkpt>
      <trkpt lat="46.66813" lon="-1.79439">
        <ele>41</ele>
        <time>2018-03-15T14:30:09Z</time>
      </trkpt>
      <trkpt lat="46.6683" lon="-1.79413">
        <ele>41</ele>
        <time>2018-03-15T14:31:09Z</time>
      </trkpt>
      <trkpt lat="46.66851" lon="-1.7938">
        <ele>40</ele>
        <time>2018-03-15T14:32:09Z</time>
      </trkpt>
      <trkpt lat="46.6686" lon="-1.79365">
        <ele>39</ele>
        <time>2018-03-15T14:33:09Z</time>
      </trkpt>
      <trkpt lat="46.6688" lon="-1.79336">
        <ele>38</ele>
        <time>2018-03-15T14:34:09Z</time>
      </trkpt>
      <trkpt lat="46.66906" lon="-1.79295">
        <ele>38</ele>
        <time>2018-03-15T14:35:09Z</time>
      </trkpt>
      <trkpt lat="46.66934" lon="-1.79253">
        <ele>38</ele>
        <time>2018-03-15T14:36:09Z</time>
      </trkpt>
      <trkpt lat="46.66963" lon="-1.79214">
        <ele>37</ele>
        <time>2018-03-15T14:37:09Z</time>
      </trkpt>
      <trkpt lat="46.67009" lon="-1.79151">
        <ele>35</ele>
        <time>2018-03-15T14:38:09Z</time>
      </trkpt>
      <trkpt lat="46.67045" lon="-1.79101">
        <ele>35</ele>
        <time>2018-03-15T14:39:09Z</time>
      </trkpt>
      <trkpt lat="46.67085" lon="-1.79047">
        <ele>34</ele>
        <time>2018-03-15T14:40:09Z</time>
      </trkpt>
      <trkpt lat="46.67124" lon="-1.78995">
        <ele>33</ele>
        <time>2018-03-15T14:41:09Z</time>
      </trkpt>
      <trkpt lat="46.67142" lon="-1.78968">
        <ele>33</ele>
        <time>2018-03-15T14:42:09Z</time>
      </trkpt>
      <trkpt lat="46.67152" lon="-1.78953">
        <ele>32</ele>
        <time>2018-03-15T14:43:09Z</time>
      </trkpt>
      <trkpt lat="46.67191" lon="-1.78901">
        <ele>33</ele>
        <time>2018-03-15T14:44:09Z</time>
      </trkpt>
      <trkpt lat="46.67234" lon="-1.7884">
        <ele>34</ele>
        <time>2018-03-15T14:45:09Z</time>
      </trkpt>
      <trkpt lat="46.67257" lon="-1.7881">
        <ele>34</ele>
        <time>2018-03-15T14:46:09Z</time>
      </trkpt>
      <trkpt lat="46.67272" lon="-1.7879">
        <ele>34</ele>
        <time>2018-03-15T14:47:09Z</time>
      </trkpt>
      <trkpt lat="46.67292" lon="-1.78763">
        <ele>33</ele>
        <time>2018-03-15T14:48:09Z</time>
      </trkpt>
      <trkpt lat="46.6731" lon="-1.78739">
        <ele>33</ele>
        <time>2018-03-15T14:49:09Z</time>
      </trkpt>
      <trkpt lat="46.67332" lon="-1.78709">
        <ele>34</ele>
        <time>2018-03-15T14:50:09Z</time>
      </trkpt>
      <trkpt lat="46.67355" lon="-1.78678">
        <ele>35</ele>
        <time>2018-03-15T14:51:09Z</time>
      </trkpt>
      <trkpt lat="46.6739" lon="-1.78629">
        <ele>35</ele>
        <time>2018-03-15T14:52:09Z</time>
      </trkpt>
      <trkpt lat="46.6742" lon="-1.7859">
        <ele>36</ele>
        <time>2018-03-15T14:53:09Z</time>
      </trkpt>
      <trkpt lat="46.67442" lon="-1.78559">
        <ele>36</ele>
        <time>2018-03-15T14:54:09Z</time>
      </trkpt>
      <trkpt lat="46.67445" lon="-1.78554">
        <ele>36</ele>
        <time>2018-03-15T14:55:09Z</time>
      </trkpt>
      <trkpt lat="46.67451" lon="-1.78547">
        <ele>36</ele>
        <time>2018-03-15T14:56:09Z</time>
      </trkpt>
      <trkpt lat="46.67466" lon="-1.78526">
        <ele>36</ele>
        <time>2018-03-15T14:57:09Z</time>
      </trkpt>
      <trkpt lat="46.67492" lon="-1.78492">
        <ele>36</ele>
        <time>2018-03-15T14:58:09Z</time>
      </trkpt>
      <trkpt lat="46.67526" lon="-1.78446">
        <ele>38</ele>
        <time>2018-03-15T14:59:09Z</time>
      </trkpt>
      <trkpt lat="46.67553" lon="-1.78408">
        <ele>39</ele>
        <time>2018-03-15T15:00:09Z</time>
      </trkpt>
      <trkpt lat="46.67586" lon="-1.78364">
        <ele>40</ele>
        <time>2018-03-15T15:01:09Z</time>
      </trkpt>
      <trkpt lat="46.6762" lon="-1.78317">
        <ele>41</ele>
        <time>2018-03-15T15:02:09Z</time>
      </trkpt>
      <trkpt lat="46.67664" lon="-1.78259">
        <ele>42</ele>
        <time>2018-03-15T15:03:09Z</time>
      </trkpt>
      <trkpt lat="46.67694" lon="-1.78218">
        <ele>42</ele>
        <time>2018-03-15T15:04:09Z</time>
      </trkpt>
      <trkpt lat="46.67715" lon="-1.7819">
        <ele>43</ele>
        <time>2018-03-15T15:05:09Z</time>
      </trkpt>
      <trkpt lat="46.67728" lon="-1.78173">
        <ele>43</ele>
        <time>2018-03-15T15:06:09Z</time>
      </trkpt>
      <trkpt lat="46.67753" lon="-1.78138">
        <ele>44</ele>
        <time>2018-03-15T15:07:09Z</time>
      </trkpt>
      <trkpt lat="46.67773" lon="-1.78109">
        <ele>44</ele>
        <time>2018-03-15T15:08:09Z</time>
      </trkpt>
      <trkpt lat="46.67796" lon="-1.7808">
        <ele>44</ele>
        <time>2018-03-15T15:09:09Z</time>
      </trkpt>
      <trkpt lat="46.67821" lon="-1.78044">
        <ele>45</ele>
        <time>2018-03-15T15:10:09Z</time>
      </trkpt>
      <trkpt lat="46.67845" lon="-1.78011">
        <ele>45</ele>
        <time>2018-03-15T15:11:09Z</time>
      </trkpt>
      <trkpt lat="46.67852" lon="-1.78001">
        <ele>45</ele>
        <time>2018-03-15T15:12:09Z</time>
      </trkpt>
      <trkpt lat="46.67874" lon="-1.77973">
        <ele>46</ele>
        <time>2018-03-15T15:13:09Z</time>
      </trkpt>
      <trkpt lat="46.67895" lon="-1.77943">
        <ele>46</ele>
        <time>2018-03-15T15:14:09Z</time>
      </trkpt>
      <trkpt lat="46.67917" lon="-1.77914">
        <ele>47</ele>
        <time>2018-03-15T15:15:09Z</time>
      </trkpt>
      <trkpt lat="46.67939" lon="-1.77884">
        <ele>47</ele>
        <time>2018-03-15T15:16:09Z</time>
      </trkpt>
      <trkpt lat="46.67964" lon="-1.77851">
        <ele>48</ele>
        <time>2018-03-15T15:17:09Z</time>
      </trkpt>
      <trkpt lat="46.67988" lon="-1.77817">
        <ele>49</ele>
        <time>2018-03-15T15:18:09Z</time>
      </trkpt>
      <trkpt lat="46.68012" lon="-1.77785">
        <ele>49</ele>
        <time>2018-03-15T15:19:09Z</time>
      </trkpt>
      <trkpt lat="46.68046" lon="-1.77739">
        <ele>49</ele>
        <time>2018-03-15T15:20:09Z</time>
      </trkpt>
      <trkpt lat="46.68063" lon="-1.77717">
        <ele>49</ele>
        <time>2018-03-15T15:21:09Z</time>
      </trkpt>
      <trkpt lat="46.68081" lon="-1.77694">
        <ele>49</ele>
        <time>2018-03-15T15:22:09Z</time>
      </trkpt>
      <trkpt lat="46.68098" lon="-1.77671">
        <ele>50</ele>
        <time>2018-03-15T15:23:09Z</time>
      </trkpt>
      <trkpt lat="46.68112" lon="-1.77655">
        <ele>50</ele>
        <time>2018-03-15T15:24:09Z</time>
      </trkpt>
      <trkpt lat="46.68125" lon="-1.77641">
        <ele>50</ele>
        <time>2018-03-15T15:25:09Z</time>
      </trkpt>
      <trkpt lat="46.6814" lon="-1.77627">
        <ele>50</ele>
        <time>2018-03-15T15:26:09Z</time>
      </trkpt>
      <trkpt lat="46.68155" lon="-1.77615">
        <ele>50</ele>
        <time>2018-03-15T15:27:09Z</time>
      </trkpt>
      <trkpt lat="46.68193" lon="-1.77584">
        <ele>50</ele>
        <time>2018-03-15T15:28:09Z</time>
      </trkpt>
      <trkpt lat="46.68229" lon="-1.77556">
        <ele>51</ele>
        <time>2018-03-15T15:29:09Z</time>
      </trkpt>
      <trkpt lat="46.68269" lon="-1.77524">
        <ele>51</ele>
        <time>2018-03-15T15:30:09Z</time>
      </trkpt>
      <trkpt lat="46.68299" lon="-1.775">
        <ele>51</ele>
        <time>2018-03-15T15:31:09Z</time>
      </trkpt>
      <trkpt lat="46.68317" lon="-1.77486">
        <ele>51</ele>
        <time>2018-03-15T15:32:09Z</time>
      </trkpt>
      <trkpt lat="46.68335" lon="-1.77471">
        <ele>52</ele>
        <time>2018-03-15T15:33:09Z</time>
      </trkpt>
      <trkpt lat="46.68357" lon="-1.77453">
        <ele>52</ele>
        <time>2018-03-15T15:34:09Z</time>
      </trkpt>
      <trkpt lat="46.68372" lon="-1.77439">
        <ele>52</ele>
        <time>2018-03-15T15:35:09Z</time>
      </trkpt>
      <trkpt lat="46.68389" lon="-1.77423">
        <ele>52</ele>
        <time>2018-03-15T15:36:09Z</time>
      </trkpt>
      <trkpt lat="46.68404" lon="-1.77409">
        <ele>52</ele>
        <time>2018-03-15T15:37:09Z</time>
      </trkpt>
      <trkpt lat="46.68424" lon="-1.77386">
        <ele>53</ele>
        <time>2018-03-15T15:38:09Z</time>
      </trkpt>
      <trkpt lat="46.68442" lon="-1.77365">
        <ele>54</ele>
        <time>2018-03-15T15:39:09Z</time>
      </trkpt>
      <trkpt lat="46.6846" lon="-1.77344">
        <ele>54</ele>
        <time>2018-03-15T15:40:09Z</time>
      </trkpt>
      <trkpt lat="46.68486" lon="-1.77314">
        <ele>55</ele>
        <time>2018-03-15T15:41:09Z</time>
      </trkpt>
      <trkpt lat="46.68511" lon="-1.77283">
        <ele>56</ele>
        <time>2018-03-15T15:42:09Z</time>
      </trkpt>
      <trkpt lat="46.68544" lon="-1.77245">
        <ele>57</ele>
        <time>2018-03-15T15:43:09Z</time>
      </trkpt>
      <trkpt lat="46.68572" lon="-1.7721">
        <ele>57</ele>
        <time>2018-03-15T15:44:09Z</time>
      </trkpt>
      <trkpt lat="46.68597" lon="-1.77181">
        <ele>57</ele>
        <time>2018-03-15T15:45:09Z</time>
      </trkpt>
      <trkpt lat="46.68715" lon="-1.77046">
        <ele>56</ele>
        <time>2018-03-15T15:46:09Z</time>
      </trkpt>
      <trkpt lat="46.688" lon="-1.76944">
        <ele>54</ele>
        <time>2018-03-15T15:47:09Z</time>
      </trkpt>
      <trkpt lat="46.688" lon="-1.76943">
        <ele>54</ele>
        <time>2018-03-15T15:48:09Z</time>
      </trkpt>
      <trkpt lat="46.68799" lon="-1.76943">
        <ele>54</ele>
        <time>2018-03-15T15:49:09Z</time>
      </trkpt>
      <trkpt lat="46.68799" lon="-1.76942">
        <ele>54</ele>
        <time>2018-03-15T15:50:09Z</time>
      </trkpt>
      <trkpt lat="46.68799" lon="-1.76941">
        <ele>54</ele>
        <time>2018-03-15T15:51:09Z</time>
      </trkpt>
      <trkpt lat="46.68799" lon="-1.7694">
        <ele>54</ele>
        <time>2018-03-15T15:52:09Z</time>
      </trkpt>
      <trkpt lat="46.68798" lon="-1.76939">
        <ele>54</ele>
        <time>2018-03-15T15:53:09Z</time>
      </trkpt>
      <trkpt lat="46.68798" lon="-1.76938">
        <ele>54</ele>
        <time>2018-03-15T15:54:09Z</time>
      </trkpt>
      <trkpt lat="46.68798" lon="-1.76937">
        <ele>54</ele>
        <time>2018-03-15T15:55:09Z</time>
      </trkpt>
      <trkpt lat="46.68798" lon="-1.76936">
        <ele>54</ele>
        <time>2018-03-15T15:56:09Z</time>
      </trkpt>
      <trkpt lat="46.68798" lon="-1.76935">
        <ele>54</ele>
        <time>2018-03-15T15:57:09Z</time>
      </trkpt>
      <trkpt lat="46.68799" lon="-1.76935">
        <ele>54</ele>
        <time>2018-03-15T15:58:09Z</time>
      </trkpt>
      <trkpt lat="46.68799" lon="-1.76934">
        <ele>54</ele>
        <time>2018-03-15T15:59:09Z</time>
      </trkpt>
      <trkpt lat="46.68799" lon="-1.76933">
        <ele>54</ele>
        <time>2018-03-15T16:00:09Z</time>
      </trkpt>
      <trkpt lat="46.68799" lon="-1.76932">
        <ele>54</ele>
        <time>2018-03-15T16:01:09Z</time>
      </trkpt>
      <trkpt lat="46.68799" lon="-1.76931">
        <ele>54</ele>
        <time>2018-03-15T16:02:09Z</time>
      </trkpt>
      <trkpt lat="46.688" lon="-1.76931">
        <ele>54</ele>
        <time>2018-03-15T16:03:09Z</time>
      </trkpt>
      <trkpt lat="46.688" lon="-1.7693">
        <ele>54</ele>
        <time>2018-03-15T16:04:09Z</time>
      </trkpt>
      <trkpt lat="46.688" lon="-1.76929">
        <ele>54</ele>
        <time>2018-03-15T16:05:09Z</time>
      </trkpt>
      <trkpt lat="46.68801" lon="-1.76929">
        <ele>54</ele>
        <time>2018-03-15T16:06:09Z</time>
      </trkpt>
      <trkpt lat="46.68801" lon="-1.76928">
        <ele>54</ele>
        <time>2018-03-15T16:07:09Z</time>
      </trkpt>
      <trkpt lat="46.68802" lon="-1.76928">
        <ele>54</ele>
        <time>2018-03-15T16:08:09Z</time>
      </trkpt>
      <trkpt lat="46.68802" lon="-1.76927">
        <ele>54</ele>
        <time>2018-03-15T16:09:09Z</time>
      </trkpt>
      <trkpt lat="46.68803" lon="-1.76927">
        <ele>54</ele>
        <time>2018-03-15T16:10:09Z</time>
      </trkpt>
      <trkpt lat="46.68804" lon="-1.76927">
        <ele>54</ele>
        <time>2018-03-15T16:11:09Z</time>
      </trkpt>
      <trkpt lat="46.68804" lon="-1.76926">
        <ele>54</ele>
        <time>2018-03-15T16:12:09Z</time>
      </trkpt>
      <trkpt lat="46.68805" lon="-1.76926">
        <ele>54</ele>
        <time>2018-03-15T16:13:09Z</time>
      </trkpt>
      <trkpt lat="46.68806" lon="-1.76926">
        <ele>54</ele>
        <time>2018-03-15T16:14:09Z</time>
      </trkpt>
      <trkpt lat="46.68807" lon="-1.76926">
        <ele>54</ele>
        <time>2018-03-15T16:15:09Z</time>
      </trkpt>
      <trkpt lat="46.68808" lon="-1.76926">
        <ele>54</ele>
        <time>2018-03-15T16:16:09Z</time>
      </trkpt>
      <trkpt lat="46.68808" lon="-1.76927">
        <ele>54</ele>
        <time>2018-03-15T16:17:09Z</time>
      </trkpt>
      <trkpt lat="46.68809" lon="-1.76927">
        <ele>54</ele>
        <time>2018-03-15T16:18:09Z</time>
      </trkpt>
      <trkpt lat="46.6881" lon="-1.76928">
        <ele>54</ele>
        <time>2018-03-15T16:19:09Z</time>
      </trkpt>
      <trkpt lat="46.68811" lon="-1.76929">
        <ele>54</ele>
        <time>2018-03-15T16:20:09Z</time>
      </trkpt>
      <trkpt lat="46.68811" lon="-1.7693">
        <ele>54</ele>
        <time>2018-03-15T16:21:09Z</time>
      </trkpt>
      <trkpt lat="46.68812" lon="-1.7693">
        <ele>54</ele>
        <time>2018-03-15T16:22:09Z</time>
      </trkpt>
      <trkpt lat="46.68812" lon="-1.76931">
        <ele>54</ele>
        <time>2018-03-15T16:23:09Z</time>
      </trkpt>
      <trkpt lat="46.68812" lon="-1.76932">
        <ele>54</ele>
        <time>2018-03-15T16:24:09Z</time>
      </trkpt>
      <trkpt lat="46.68813" lon="-1.76932">
        <ele>54</ele>
        <time>2018-03-15T16:25:09Z</time>
      </trkpt>
      <trkpt lat="46.68864" lon="-1.76891">
        <ele>54</ele>
        <time>2018-03-15T16:26:09Z</time>
      </trkpt>
      <trkpt lat="46.68864" lon="-1.7689">
        <ele>54</ele>
        <time>2018-03-15T16:27:09Z</time>
      </trkpt>
      <trkpt lat="46.68864" lon="-1.76889">
        <ele>54</ele>
        <time>2018-03-15T16:28:09Z</time>
      </trkpt>
      <trkpt lat="46.68863" lon="-1.76889">
        <ele>54</ele>
        <time>2018-03-15T16:29:09Z</time>
      </trkpt>
      <trkpt lat="46.68863" lon="-1.76888">
        <ele>54</ele>
        <time>2018-03-15T16:30:09Z</time>
      </trkpt>
      <trkpt lat="46.68863" lon="-1.76887">
        <ele>54</ele>
        <time>2018-03-15T16:31:09Z</time>
      </trkpt>
      <trkpt lat="46.68863" lon="-1.76886">
        <ele>54</ele>
        <time>2018-03-15T16:32:09Z</time>
      </trkpt>
      <trkpt lat="46.68863" lon="-1.76885">
        <ele>54</ele>
        <time>2018-03-15T16:33:09Z</time>
      </trkpt>
      <trkpt lat="46.68863" lon="-1.76884">
        <ele>54</ele>
        <time>2018-03-15T16:34:09Z</time>
      </trkpt>
      <trkpt lat="46.68863" lon="-1.76883">
        <ele>54</ele>
        <time>2018-03-15T16:35:09Z</time>
      </trkpt>
      <trkpt lat="46.68864" lon="-1.76882">
        <ele>54</ele>
        <time>2018-03-15T16:36:09Z</time>
      </trkpt>
      <trkpt lat="46.68864" lon="-1.76881">
        <ele>54</ele>
        <time>2018-03-15T16:37:09Z</time>
      </trkpt>
      <trkpt lat="46.68864" lon="-1.7688">
        <ele>54</ele>
        <time>2018-03-15T16:38:09Z</time>
      </trkpt>
      <trkpt lat="46.68865" lon="-1.76879">
        <ele>54</ele>
        <time>2018-03-15T16:39:09Z</time>
      </trkpt>
      <trkpt lat="46.68865" lon="-1.76878">
        <ele>54</ele>
        <time>2018-03-15T16:40:09Z</time>
      </trkpt>
      <trkpt lat="46.68866" lon="-1.76878">
        <ele>54</ele>
        <time>2018-03-15T16:41:09Z</time>
      </trkpt>
      <trkpt lat="46.68866" lon="-1.76877">
        <ele>54</ele>
        <time>2018-03-15T16:42:09Z</time>
      </trkpt>
      <trkpt lat="46.68867" lon="-1.76877">
        <ele>54</ele>
        <time>2018-03-15T16:43:09Z</time>
      </trkpt>
      <trkpt lat="46.68867" lon="-1.76876">
        <ele>54</ele>
        <time>2018-03-15T16:44:09Z</time>
      </trkpt>
      <trkpt lat="46.68868" lon="-1.76875">
        <ele>54</ele>
        <time>2018-03-15T16:45:09Z</time>
      </trkpt>
      <trkpt lat="46.68869" lon="-1.76875">
        <ele>54</ele>
        <time>2018-03-15T16:46:09Z</time>
      </trkpt>
      <trkpt lat="46.68869" lon="-1.76874">
        <ele>54</ele>
        <time>2018-03-15T16:47:09Z</time>
      </trkpt>
      <trkpt lat="46.6887" lon="-1.76874">
        <ele>54</ele>
        <time>2018-03-15T16:48:09Z</time>
      </trkpt>
      <trkpt lat="46.68871" lon="-1.76874">
        <ele>54</ele>
        <time>2018-03-15T16:49:09Z</time>
      </trkpt>
      <trkpt lat="46.68872" lon="-1.76874">
        <ele>54</ele>
        <time>2018-03-15T16:50:09Z</time>
      </trkpt>
      <trkpt lat="46.68873" lon="-1.76874">
        <ele>54</ele>
        <time>2018-03-15T16:51:09Z</time>
      </trkpt>
      <trkpt lat="46.68874" lon="-1.76874">
        <ele>54</ele>
        <time>2018-03-15T16:52:09Z</time>
      </trkpt>
      <trkpt lat="46.68874" lon="-1.76875">
        <ele>54</ele>
        <time>2018-03-15T16:53:09Z</time>
      </trkpt>
      <trkpt lat="46.68875" lon="-1.76875">
        <ele>54</ele>
        <time>2018-03-15T16:54:09Z</time>
      </trkpt>
      <trkpt lat="46.68875" lon="-1.76876">
        <ele>54</ele>
        <time>2018-03-15T16:55:09Z</time>
      </trkpt>
      <trkpt lat="46.68876" lon="-1.76876">
        <ele>54</ele>
        <time>2018-03-15T16:56:09Z</time>
      </trkpt>
      <trkpt lat="46.68876" lon="-1.76877">
        <ele>54</ele>
        <time>2018-03-15T16:57:09Z</time>
      </trkpt>
      <trkpt lat="46.68877" lon="-1.76877">
        <ele>54</ele>
        <time>2018-03-15T16:58:09Z</time>
      </trkpt>
      <trkpt lat="46.68877" lon="-1.76878">
        <ele>54</ele>
        <time>2018-03-15T16:59:09Z</time>
      </trkpt>
      <trkpt lat="46.68878" lon="-1.76879">
        <ele>54</ele>
        <time>2018-03-15T17:00:09Z</time>
      </trkpt>
      <trkpt lat="46.68891" lon="-1.76866">
        <ele>54</ele>
        <time>2018-03-15T17:01:09Z</time>
      </trkpt>
      <trkpt lat="46.68893" lon="-1.76863">
        <ele>54</ele>
        <time>2018-03-15T17:02:09Z</time>
      </trkpt>
      <trkpt lat="46.68913" lon="-1.76842">
        <ele>54</ele>
        <time>2018-03-15T17:03:09Z</time>
      </trkpt>
      <trkpt lat="46.68946" lon="-1.76813">
        <ele>54</ele>
        <time>2018-03-15T17:04:09Z</time>
      </trkpt>
      <trkpt lat="46.68964" lon="-1.76796">
        <ele>55</ele>
        <time>2018-03-15T17:05:09Z</time>
      </trkpt>
      <trkpt lat="46.68992" lon="-1.76782">
        <ele>56</ele>
        <time>2018-03-15T17:06:09Z</time>
      </trkpt>
      <trkpt lat="46.69024" lon="-1.76766">
        <ele>56</ele>
        <time>2018-03-15T17:07:09Z</time>
      </trkpt>
      <trkpt lat="46.69031" lon="-1.76763">
        <ele>56</ele>
        <time>2018-03-15T17:08:09Z</time>
      </trkpt>
      <trkpt lat="46.69039" lon="-1.76759">
        <ele>56</ele>
        <time>2018-03-15T17:09:09Z</time>
      </trkpt>
      <trkpt lat="46.6905" lon="-1.76753">
        <ele>56</ele>
        <time>2018-03-15T17:10:09Z</time>
      </trkpt>
      <trkpt lat="46.69064" lon="-1.76747">
        <ele>55</ele>
        <time>2018-03-15T17:11:09Z</time>
      </trkpt>
      <trkpt lat="46.69069" lon="-1.76744">
        <ele>55</ele>
        <time>2018-03-15T17:12:09Z</time>
      </trkpt>
      <trkpt lat="46.69079" lon="-1.76741">
        <ele>55</ele>
        <time>2018-03-15T17:13:09Z</time>
      </trkpt>
      <trkpt lat="46.69083" lon="-1.7674">
        <ele>55</ele>
        <time>2018-03-15T17:14:09Z</time>
      </trkpt>
      <trkpt lat="46.69097" lon="-1.76737">
        <ele>55</ele>
        <time>2018-03-15T17:15:09Z</time>
      </trkpt>
      <trkpt lat="46.69113" lon="-1.76734">
        <ele>55</ele>
        <time>2018-03-15T17:16:09Z</time>
      </trkpt>
      <trkpt lat="46.69132" lon="-1.76732">
        <ele>55</ele>
        <time>2018-03-15T17:17:09Z</time>
      </trkpt>
      <trkpt lat="46.69139" lon="-1.76731">
        <ele>55</ele>
        <time>2018-03-15T17:18:09Z</time>
      </trkpt>
      <trkpt lat="46.69143" lon="-1.7673">
        <ele>55</ele>
        <time>2018-03-15T17:19:09Z</time>
      </trkpt>
      <trkpt lat="46.69151" lon="-1.76728">
        <ele>54</ele>
        <time>2018-03-15T17:20:09Z</time>
      </trkpt>
      <trkpt lat="46.69162" lon="-1.76726">
        <ele>54</ele>
        <time>2018-03-15T17:21:09Z</time>
      </trkpt>
      <trkpt lat="46.69166" lon="-1.76724">
        <ele>54</ele>
        <time>2018-03-15T17:22:09Z</time>
      </trkpt>
      <trkpt lat="46.69178" lon="-1.7672">
        <ele>54</ele>
        <time>2018-03-15T17:23:09Z</time>
      </trkpt>
      <trkpt lat="46.69182" lon="-1.76719">
        <ele>54</ele>
        <time>2018-03-15T17:24:09Z</time>
      </trkpt>
      <trkpt lat="46.69195" lon="-1.76713">
        <ele>54</ele>
        <time>2018-03-15T17:25:09Z</time>
      </trkpt>
      <trkpt lat="46.69212" lon="-1.76706">
        <ele>53</ele>
        <time>2018-03-15T17:26:09Z</time>
      </trkpt>
      <trkpt lat="46.69228" lon="-1.76697">
        <ele>53</ele>
        <time>2018-03-15T17:27:09Z</time>
      </trkpt>
      <trkpt lat="46.6925" lon="-1.76686">
        <ele>53</ele>
        <time>2018-03-15T17:28:09Z</time>
      </trkpt>
      <trkpt lat="46.69272" lon="-1.76675">
        <ele>52</ele>
        <time>2018-03-15T17:29:09Z</time>
      </trkpt>
      <trkpt lat="46.69301" lon="-1.7666">
        <ele>52</ele>
        <time>2018-03-15T17:30:09Z</time>
      </trkpt>
      <trkpt lat="46.69319" lon="-1.76651">
        <ele>51</ele>
        <time>2018-03-15T17:31:09Z</time>
      </trkpt>
      <trkpt lat="46.69338" lon="-1.76641">
        <ele>51</ele>
        <time>2018-03-15T17:32:09Z</time>
      </trkpt>
      <trkpt lat="46.69346" lon="-1.76637">
        <ele>51</ele>
        <time>2018-03-15T17:33:09Z</time>
      </trkpt>
      <trkpt lat="46.6937" lon="-1.76624">
        <ele>50</ele>
        <time>2018-03-15T17:34:09Z</time>
      </trkpt>
      <trkpt lat="46.69385" lon="-1.76617">
        <ele>50</ele>
        <time>2018-03-15T17:35:09Z</time>
      </trkpt>
      <trkpt lat="46.69404" lon="-1.76606">
        <ele>49</ele>
        <time>2018-03-15T17:36:09Z</time>
      </trkpt>
      <trkpt lat="46.69412" lon="-1.766">
        <ele>49</ele>
        <time>2018-03-15T17:37:09Z</time>
      </trkpt>
      <trkpt lat="46.69419" lon="-1.76595">
        <ele>49</ele>
        <time>2018-03-15T17:38:09Z</time>
      </trkpt>
      <trkpt lat="46.69424" lon="-1.76591">
        <ele>49</ele>
        <time>2018-03-15T17:39:09Z</time>
      </trkpt>
      <trkpt lat="46.69436" lon="-1.76583">
        <ele>48</ele>
        <time>2018-03-15T17:40:09Z</time>
      </trkpt>
      <trkpt lat="46.69436" lon="-1.76583">
        <ele>48</ele>
        <time>2018-03-15T17:41:09Z</time>
      </trkpt>
      <trkpt lat="46.69437" lon="-1.76565">
        <ele>48</ele>
        <time>2018-03-15T17:42:09Z</time>
      </trkpt>
      <trkpt lat="46.69436" lon="-1.7655">
        <ele>49</ele>
        <time>2018-03-15T17:43:09Z</time>
      </trkpt>
      <trkpt lat="46.69436" lon="-1.76532">
        <ele>49</ele>
        <time>2018-03-15T17:44:09Z</time>
      </trkpt>
      <trkpt lat="46.69436" lon="-1.76532">
        <ele>49</ele>
        <time>2018-03-15T17:45:09Z</time>
      </trkpt>
      <trkpt lat="46.69436" lon="-1.7655">
        <ele>49</ele>
        <time>2018-03-15T17:46:09Z</time>
      </trkpt>
      <trkpt lat="46.69437" lon="-1.76565">
        <ele>48</ele>
        <time>2018-03-15T17:47:09Z</time>
      </trkpt>
      <trkpt lat="46.69436" lon="-1.76583">
        <ele>48</ele>
        <time>2018-03-15T17:48:09Z</time>
      </trkpt>
      <trkpt lat="46.69436" lon="-1.76583">
        <ele>48</ele>
        <time>2018-03-15T17:49:09Z</time>
      </trkpt>
      <trkpt lat="46.69438" lon="-1.76581">
        <ele>48</ele>
        <time>2018-03-15T17:50:09Z</time>
      </trkpt>
      <trkpt lat="46.69441" lon="-1.76578">
        <ele>48</ele>
        <time>2018-03-15T17:51:09Z</time>
      </trkpt>
      <trkpt lat="46.69451" lon="-1.7657">
        <ele>48</ele>
        <time>2018-03-15T17:52:09Z</time>
      </trkpt>
      <trkpt lat="46.69464" lon="-1.76557">
        <ele>47</ele>
        <time>2018-03-15T17:53:09Z</time>
      </trkpt>
      <trkpt lat="46.6948" lon="-1.76543">
        <ele>47</ele>
        <time>2018-03-15T17:54:09Z</time>
      </trkpt>
      <trkpt lat="46.69496" lon="-1.76528">
        <ele>46</ele>
        <time>2018-03-15T17:55:09Z</time>
      </trkpt>
      <trkpt lat="46.69509" lon="-1.76516">
        <ele>46</ele>
        <time>2018-03-15T17:56:09Z</time>
      </trkpt>
      <trkpt lat="46.69524" lon="-1.76501">
        <ele>45</ele>
        <time>2018-03-15T17:57:09Z</time>
      </trkpt>
      <trkpt lat="46.69539" lon="-1.76488">
        <ele>44</ele>
        <time>2018-03-15T17:58:09Z</time>
      </trkpt>
      <trkpt lat="46.69552" lon="-1.76476">
        <ele>43</ele>
        <time>2018-03-15T17:59:09Z</time>
      </trkpt>
      <trkpt lat="46.69557" lon="-1.76471">
        <ele>42</ele>
        <time>2018-03-15T18:00:09Z</time>
      </trkpt>
      <trkpt lat="46.69579" lon="-1.76447">
        <ele>40</ele>
        <time>2018-03-15T18:01:09Z</time>
      </trkpt>
      <trkpt lat="46.69581" lon="-1.76444">
        <ele>40</ele>
        <time>2018-03-15T18:02:09Z</time>
      </trkpt>
      <trkpt lat="46.69594" lon="-1.76433">
        <ele>39</ele>
        <time>2018-03-15T18:03:09Z</time>
      </trkpt>
      <trkpt lat="46.69604" lon="-1.76425">
        <ele>38</ele>
        <time>2018-03-15T18:04:09Z</time>
      </trkpt>
      <trkpt lat="46.69605" lon="-1.76424">
        <ele>38</ele>
        <time>2018-03-15T18:05:09Z</time>
      </trkpt>
      <trkpt lat="46.69618" lon="-1.76414">
        <ele>38</ele>
        <time>2018-03-15T18:06:09Z</time>
      </trkpt>
      <trkpt lat="46.6963" lon="-1.76405">
        <ele>37</ele>
        <time>2018-03-15T18:07:09Z</time>
      </trkpt>
      <trkpt lat="46.69638" lon="-1.764">
        <ele>37</ele>
        <time>2018-03-15T18:08:09Z</time>
      </trkpt>
      <trkpt lat="46.69642" lon="-1.76397">
        <ele>37</ele>
        <time>2018-03-15T18:09:09Z</time>
      </trkpt>
      <trkpt lat="46.69652" lon="-1.76389">
        <ele>37</ele>
        <time>2018-03-15T18:10:09Z</time>
      </trkpt>
      <trkpt lat="46.69659" lon="-1.76384">
        <ele>36</ele>
        <time>2018-03-15T18:11:09Z</time>
      </trkpt>
      <trkpt lat="46.69663" lon="-1.7638">
        <ele>36</ele>
        <time>2018-03-15T18:12:09Z</time>
      </trkpt>
      <trkpt lat="46.69666" lon="-1.76379">
        <ele>36</ele>
        <time>2018-03-15T18:13:09Z</time>
      </trkpt>
      <trkpt lat="46.69681" lon="-1.76368">
        <ele>37</ele>
        <time>2018-03-15T18:14:09Z</time>
      </trkpt>
      <trkpt lat="46.69696" lon="-1.76359">
        <ele>38</ele>
        <time>2018-03-15T18:15:09Z</time>
      </trkpt>
      <trkpt lat="46.69708" lon="-1.76351">
        <ele>39</ele>
        <time>2018-03-15T18:16:09Z</time>
      </trkpt>
      <trkpt lat="46.69719" lon="-1.76346">
        <ele>40</ele>
        <time>2018-03-15T18:17:09Z</time>
      </trkpt>
      <trkpt lat="46.6973" lon="-1.76345">
        <ele>40</ele>
        <time>2018-03-15T18:18:09Z</time>
      </trkpt>
      <trkpt lat="46.6973" lon="-1.76345">
        <ele>40</ele>
        <time>2018-03-15T18:19:09Z</time>
      </trkpt>
      <trkpt lat="46.6973" lon="-1.76344">
        <ele>40</ele>
        <time>2018-03-15T18:20:09Z</time>
      </trkpt>
      <trkpt lat="46.6973" lon="-1.76343">
        <ele>40</ele>
        <time>2018-03-15T18:21:09Z</time>
      </trkpt>
      <trkpt lat="46.6973" lon="-1.76342">
        <ele>40</ele>
        <time>2018-03-15T18:22:09Z</time>
      </trkpt>
      <trkpt lat="46.69731" lon="-1.76341">
        <ele>41</ele>
        <time>2018-03-15T18:23:09Z</time>
      </trkpt>
      <trkpt lat="46.69731" lon="-1.7634">
        <ele>41</ele>
        <time>2018-03-15T18:24:09Z</time>
      </trkpt>
      <trkpt lat="46.69732" lon="-1.76339">
        <ele>41</ele>
        <time>2018-03-15T18:25:09Z</time>
      </trkpt>
      <trkpt lat="46.69732" lon="-1.76338">
        <ele>41</ele>
        <time>2018-03-15T18:26:09Z</time>
      </trkpt>
      <trkpt lat="46.69733" lon="-1.76338">
        <ele>41</ele>
        <time>2018-03-15T18:27:09Z</time>
      </trkpt>
      <trkpt lat="46.69733" lon="-1.76337">
        <ele>41</ele>
        <time>2018-03-15T18:28:09Z</time>
      </trkpt>
      <trkpt lat="46.69734" lon="-1.76337">
        <ele>41</ele>
        <time>2018-03-15T18:29:09Z</time>
      </trkpt>
      <trkpt lat="46.69735" lon="-1.76336">
        <ele>41</ele>
        <time>2018-03-15T18:30:09Z</time>
      </trkpt>
      <trkpt lat="46.69736" lon="-1.76336">
        <ele>41</ele>
        <time>2018-03-15T18:31:09Z</time>
      </trkpt>
      <trkpt lat="46.69737" lon="-1.76336">
        <ele>41</ele>
        <time>2018-03-15T18:32:09Z</time>
      </trkpt>
      <trkpt lat="46.69738" lon="-1.76336">
        <ele>41</ele>
        <time>2018-03-15T18:33:09Z</time>
      </trkpt>
      <trkpt lat="46.69739" lon="-1.76336">
        <ele>41</ele>
        <time>2018-03-15T18:34:09Z</time>
      </trkpt>
      <trkpt lat="46.69742" lon="-1.76322">
        <ele>42</ele>
        <time>2018-03-15T18:35:09Z</time>
      </trkpt>
      <trkpt lat="46.69743" lon="-1.76301">
        <ele>42</ele>
        <time>2018-03-15T18:36:09Z</time>
      </trkpt>
      <trkpt lat="46.69745" lon="-1.76282">
        <ele>42</ele>
        <time>2018-03-15T18:37:09Z</time>
      </trkpt>
      <trkpt lat="46.69746" lon="-1.76271">
        <ele>42</ele>
        <time>2018-03-15T18:38:09Z</time>
      </trkpt>
      <trkpt lat="46.69746" lon="-1.76266">
        <ele>43</ele>
        <time>2018-03-15T18:39:09Z</time>
      </trkpt>
      <trkpt lat="46.6975" lon="-1.76245">
        <ele>43</ele>
        <time>2018-03-15T18:40:09Z</time>
      </trkpt>
      <trkpt lat="46.69753" lon="-1.76235">
        <ele>44</ele>
        <time>2018-03-15T18:41:09Z</time>
      </trkpt>
      <trkpt lat="46.69756" lon="-1.76225">
        <ele>45</ele>
        <time>2018-03-15T18:42:09Z</time>
      </trkpt>
      <trkpt lat="46.69759" lon="-1.76206">
        <ele>46</ele>
        <time>2018-03-15T18:43:09Z</time>
      </trkpt>
      <trkpt lat="46.69761" lon="-1.76192">
        <ele>47</ele>
        <time>2018-03-15T18:44:09Z</time>
      </trkpt>
      <trkpt lat="46.6976" lon="-1.76174">
        <ele>49</ele>
        <time>2018-03-15T18:45:09Z</time>
      </trkpt>
      <trkpt lat="46.69759" lon="-1.76164">
        <ele>49</ele>
        <time>2018-03-15T18:46:09Z</time>
      </trkpt>
      <trkpt lat="46.69758" lon="-1.76148">
        <ele>49</ele>
        <time>2018-03-15T18:47:09Z</time>
      </trkpt>
      <trkpt lat="46.69758" lon="-1.76148">
        <ele>49</ele>
        <time>2018-03-15T18:48:09Z</time>
      </trkpt>
      <trkpt lat="46.69773" lon="-1.76141">
        <ele>49</ele>
        <time>2018-03-15T18:49:09Z</time>
      </trkpt>
      <trkpt lat="46.69787" lon="-1.76136">
        <ele>49</ele>
        <time>2018-03-15T18:50:09Z</time>
      </trkpt>
      <trkpt lat="46.69808" lon="-1.76126">
        <ele>49</ele>
        <time>2018-03-15T18:51:09Z</time>
      </trkpt>
      <trkpt lat="46.69817" lon="-1.76124">
        <ele>49</ele>
        <time>2018-03-15T18:52:09Z</time>
      </trkpt>
      <trkpt lat="46.69826" lon="-1.76121">
        <ele>49</ele>
        <time>2018-03-15T18:53:09Z</time>
      </trkpt>
      <trkpt lat="46.6983" lon="-1.7612">
        <ele>49</ele>
        <time>2018-03-15T18:54:09Z</time>
      </trkpt>
      <trkpt lat="46.69838" lon="-1.76119">
        <ele>49</ele>
        <time>2018-03-15T18:55:09Z</time>
      </trkpt>
      <trkpt lat="46.69842" lon="-1.76118">
        <ele>49</ele>
        <time>2018-03-15T18:56:09Z</time>
      </trkpt>
      <trkpt lat="46.69857" lon="-1.76118">
        <ele>49</ele>
        <time>2018-03-15T18:57:09Z</time>
      </trkpt>
      <trkpt lat="46.69867" lon="-1.7612">
        <ele>49</ele>
        <time>2018-03-15T18:58:09Z</time>
      </trkpt>
      <trkpt lat="46.69873" lon="-1.76122">
        <ele>49</ele>
        <time>2018-03-15T18:59:09Z</time>
      </trkpt>
      <trkpt lat="46.69877" lon="-1.76122">
        <ele>48</ele>
        <time>2018-03-15T19:00:09Z</time>
      </trkpt>
      <trkpt lat="46.69892" lon="-1.76123">
        <ele>48</ele>
        <time>2018-03-15T19:01:09Z</time>
      </trkpt>
      <trkpt lat="46.69904" lon="-1.7612">
        <ele>48</ele>
        <time>2018-03-15T19:02:09Z</time>
      </trkpt>
      <trkpt lat="46.6993" lon="-1.76112">
        <ele>48</ele>
        <time>2018-03-15T19:03:09Z</time>
      </trkpt>
      <trkpt lat="46.69958" lon="-1.76101">
        <ele>48</ele>
        <time>2018-03-15T19:04:09Z</time>
      </trkpt>
      <trkpt lat="46.69971" lon="-1.76096">
        <ele>49</ele>
        <time>2018-03-15T19:05:09Z</time>
      </trkpt>
      <trkpt lat="46.70005" lon="-1.76083">
        <ele>49</ele>
        <time>2018-03-15T19:06:09Z</time>
      </trkpt>
      <trkpt lat="46.70033" lon="-1.76073">
        <ele>49</ele>
        <time>2018-03-15T19:07:09Z</time>
      </trkpt>
      <trkpt lat="46.70079" lon="-1.76054">
        <ele>49</ele>
        <time>2018-03-15T19:08:09Z</time>
      </trkpt>
      <trkpt lat="46.70099" lon="-1.76044">
        <ele>50</ele>
        <time>2018-03-15T19:09:09Z</time>
      </trkpt>
      <trkpt lat="46.70131" lon="-1.7602">
        <ele>51</ele>
        <time>2018-03-15T19:10:09Z</time>
      </trkpt>
      <trkpt lat="46.70171" lon="-1.75989">
        <ele>52</ele>
        <time>2018-03-15T19:11:09Z</time>
      </trkpt>
      <trkpt lat="46.70203" lon="-1.75966">
        <ele>52</ele>
        <time>2018-03-15T19:12:09Z</time>
      </trkpt>
      <trkpt lat="46.70207" lon="-1.75963">
        <ele>52</ele>
        <time>2018-03-15T19:13:09Z</time>
      </trkpt>
      <trkpt lat="46.70221" lon="-1.75952">
        <ele>52</ele>
        <time>2018-03-15T19:14:09Z</time>
      </trkpt>
      <trkpt lat="46.70252" lon="-1.75929">
        <ele>53</ele>
        <time>2018-03-15T19:15:09Z</time>
      </trkpt>
      <trkpt lat="46.70278" lon="-1.75907">
        <ele>54</ele>
        <time>2018-03-15T19:16:09Z</time>
      </trkpt>
      <trkpt lat="46.70302" lon="-1.75884">
        <ele>55</ele>
        <time>2018-03-15T19:17:09Z</time>
      </trkpt>
      <trkpt lat="46.70303" lon="-1.75883">
        <ele>55</ele>
        <time>2018-03-15T19:18:09Z</time>
      </trkpt>
      <trkpt lat="46.70324" lon="-1.75861">
        <ele>55</ele>
        <time>2018-03-15T19:19:09Z</time>
      </trkpt>
      <trkpt lat="46.70329" lon="-1.75855">
        <ele>56</ele>
        <time>2018-03-15T19:20:09Z</time>
      </trkpt>
      <trkpt lat="46.70357" lon="-1.75821">
        <ele>56</ele>
        <time>2018-03-15T19:21:09Z</time>
      </trkpt>
      <trkpt lat="46.70367" lon="-1.75808">
        <ele>57</ele>
        <time>2018-03-15T19:22:09Z</time>
      </trkpt>
      <trkpt lat="46.7038" lon="-1.75792">
        <ele>57</ele>
        <time>2018-03-15T19:23:09Z</time>
      </trkpt>
      <trkpt lat="46.70395" lon="-1.75775">
        <ele>57</ele>
        <time>2018-03-15T19:24:09Z</time>
      </trkpt>
      <trkpt lat="46.70412" lon="-1.75757">
        <ele>57</ele>
        <time>2018-03-15T19:25:09Z</time>
      </trkpt>
      <trkpt lat="46.70427" lon="-1.75745">
        <ele>57</ele>
        <time>2018-03-15T19:26:09Z</time>
      </trkpt>
      <trkpt lat="46.70429" lon="-1.75743">
        <ele>57</ele>
        <time>2018-03-15T19:27:09Z</time>
      </trkpt>
      <trkpt lat="46.70444" lon="-1.75732">
        <ele>56</ele>
        <time>2018-03-15T19:28:09Z</time>
      </trkpt>
      <trkpt lat="46.70458" lon="-1.75723">
        <ele>56</ele>
        <time>2018-03-15T19:29:09Z</time>
      </trkpt>
      <trkpt lat="46.70465" lon="-1.75718">
        <ele>56</ele>
        <time>2018-03-15T19:30:09Z</time>
      </trkpt>
      <trkpt lat="46.70493" lon="-1.75701">
        <ele>55</ele>
        <time>2018-03-15T19:31:09Z</time>
      </trkpt>
      <trkpt lat="46.70514" lon="-1.75686">
        <ele>55</ele>
        <time>2018-03-15T19:32:09Z</time>
      </trkpt>
      <trkpt lat="46.70542" lon="-1.75663">
        <ele>55</ele>
        <time>2018-03-15T19:33:09Z</time>
      </trkpt>
      <trkpt lat="46.70565" lon="-1.75646">
        <ele>55</ele>
        <time>2018-03-15T19:34:09Z</time>
      </trkpt>
      <trkpt lat="46.70633" lon="-1.75602">
        <ele>54</ele>
        <time>2018-03-15T19:35:09Z</time>
      </trkpt>
      <trkpt lat="46.70658" lon="-1.75585">
        <ele>53</ele>
        <time>2018-03-15T19:36:09Z</time>
      </trkpt>
      <trkpt lat="46.70687" lon="-1.75564">
        <ele>53</ele>
        <time>2018-03-15T19:37:09Z</time>
      </trkpt>
      <trkpt lat="46.70704" lon="-1.7555">
        <ele>53</ele>
        <time>2018-03-15T19:38:09Z</time>
      </trkpt>
      <trkpt lat="46.7072" lon="-1.75538">
        <ele>53</ele>
        <time>2018-03-15T19:39:09Z</time>
      </trkpt>
      <trkpt lat="46.70728" lon="-1.75531">
        <ele>53</ele>
        <time>2018-03-15T19:40:09Z</time>
      </trkpt>
      <trkpt lat="46.70755" lon="-1.75509">
        <ele>53</ele>
        <time>2018-03-15T19:41:09Z</time>
      </trkpt>
      <trkpt lat="46.70775" lon="-1.75492">
        <ele>53</ele>
        <time>2018-03-15T19:42:09Z</time>
      </trkpt>
      <trkpt lat="46.70795" lon="-1.75468">
        <ele>53</ele>
        <time>2018-03-15T19:43:09Z</time>
      </trkpt>
      <trkpt lat="46.70817" lon="-1.75441">
        <ele>54</ele>
        <time>2018-03-15T19:44:09Z</time>
      </trkpt>
      <trkpt lat="46.70854" lon="-1.75392">
        <ele>54</ele>
        <time>2018-03-15T19:45:09Z</time>
      </trkpt>
      <trkpt lat="46.70882" lon="-1.75354">
        <ele>53</ele>
        <time>2018-03-15T19:46:09Z</time>
      </trkpt>
      <trkpt lat="46.70889" lon="-1.75346">
        <ele>53</ele>
        <time>2018-03-15T19:47:09Z</time>
      </trkpt>
      <trkpt lat="46.70953" lon="-1.75272">
        <ele>52</ele>
        <time>2018-03-15T19:48:09Z</time>
      </trkpt>
      <trkpt lat="46.70994" lon="-1.75227">
        <ele>50</ele>
        <time>2018-03-15T19:49:09Z</time>
      </trkpt>
      <trkpt lat="46.71028" lon="-1.75186">
        <ele>49</ele>
        <time>2018-03-15T19:50:09Z</time>
      </trkpt>
      <trkpt lat="46.71044" lon="-1.75162">
        <ele>48</ele>
        <time>2018-03-15T19:51:09Z</time>
      </trkpt>
      <trkpt lat="46.71058" lon="-1.75143">
        <ele>47</ele>
        <time>2018-03-15T19:52:09Z</time>
      </trkpt>
      <trkpt lat="46.71073" lon="-1.75125">
        <ele>46</ele>
        <time>2018-03-15T19:53:09Z</time>
      </trkpt>
      <trkpt lat="46.71089" lon="-1.75109">
        <ele>45</ele>
        <time>2018-03-15T19:54:09Z</time>
      </trkpt>
      <trkpt lat="46.71106" lon="-1.75098">
        <ele>45</ele>
        <time>2018-03-15T19:55:09Z</time>
      </trkpt>
      <trkpt lat="46.71132" lon="-1.75082">
        <ele>44</ele>
        <time>2018-03-15T19:56:09Z</time>
      </trkpt>
      <trkpt lat="46.71159" lon="-1.75069">
        <ele>43</ele>
        <time>2018-03-15T19:57:09Z</time>
      </trkpt>
      <trkpt lat="46.71189" lon="-1.75053">
        <ele>43</ele>
        <time>2018-03-15T19:58:09Z</time>
      </trkpt>
      <trkpt lat="46.71215" lon="-1.75039">
        <ele>42</ele>
        <time>2018-03-15T19:59:09Z</time>
      </trkpt>
      <trkpt lat="46.71247" lon="-1.7502">
        <ele>42</ele>
        <time>2018-03-15T20:00:09Z</time>
      </trkpt>
      <trkpt lat="46.71258" lon="-1.75015">
        <ele>42</ele>
        <time>2018-03-15T20:01:09Z</time>
      </trkpt>
      <trkpt lat="46.71275" lon="-1.75005">
        <ele>41</ele>
        <time>2018-03-15T20:02:09Z</time>
      </trkpt>
      <trkpt lat="46.71286" lon="-1.74996">
        <ele>41</ele>
        <time>2018-03-15T20:03:09Z</time>
      </trkpt>
      <trkpt lat="46.71298" lon="-1.74984">
        <ele>41</ele>
        <time>2018-03-15T20:04:09Z</time>
      </trkpt>
      <trkpt lat="46.7131" lon="-1.74972">
        <ele>40</ele>
        <time>2018-03-15T20:05:09Z</time>
      </trkpt>
      <trkpt lat="46.71312" lon="-1.74968">
        <ele>40</ele>
        <time>2018-03-15T20:06:09Z</time>
      </trkpt>
      <trkpt lat="46.71317" lon="-1.74964">
        <ele>40</ele>
        <time>2018-03-15T20:07:09Z</time>
      </trkpt>
      <trkpt lat="46.71338" lon="-1.74949">
        <ele>39</ele>
        <time>2018-03-15T20:08:09Z</time>
      </trkpt>
      <trkpt lat="46.71355" lon="-1.7494">
        <ele>40</ele>
        <time>2018-03-15T20:09:09Z</time>
      </trkpt>
      <trkpt lat="46.7137" lon="-1.74933">
        <ele>40</ele>
        <time>2018-03-15T20:10:09Z</time>
      </trkpt>
      <trkpt lat="46.71375" lon="-1.74933">
        <ele>40</ele>
        <time>2018-03-15T20:11:09Z</time>
      </trkpt>
      <trkpt lat="46.71379" lon="-1.74932">
        <ele>40</ele>
        <time>2018-03-15T20:12:09Z</time>
      </trkpt>
      <trkpt lat="46.71389" lon="-1.7493">
        <ele>40</ele>
        <time>2018-03-15T20:13:09Z</time>
      </trkpt>
      <trkpt lat="46.71404" lon="-1.74929">
        <ele>40</ele>
        <time>2018-03-15T20:14:09Z</time>
      </trkpt>
      <trkpt lat="46.71421" lon="-1.74928">
        <ele>41</ele>
        <time>2018-03-15T20:15:09Z</time>
      </trkpt>
      <trkpt lat="46.71447" lon="-1.74921">
        <ele>42</ele>
        <time>2018-03-15T20:16:09Z</time>
      </trkpt>
      <trkpt lat="46.71462" lon="-1.74913">
        <ele>43</ele>
        <time>2018-03-15T20:17:09Z</time>
      </trkpt>
      <trkpt lat="46.71473" lon="-1.74905">
        <ele>43</ele>
        <time>2018-03-15T20:18:09Z</time>
      </trkpt>
      <trkpt lat="46.71479" lon="-1.74902">
        <ele>43</ele>
        <time>2018-03-15T20:19:09Z</time>
      </trkpt>
      <trkpt lat="46.71486" lon="-1.74895">
        <ele>43</ele>
        <time>2018-03-15T20:20:09Z</time>
      </trkpt>
      <trkpt lat="46.71502" lon="-1.74882">
        <ele>44</ele>
        <time>2018-03-15T20:21:09Z</time>
      </trkpt>
      <trkpt lat="46.71521" lon="-1.74869">
        <ele>44</ele>
        <time>2018-03-15T20:22:09Z</time>
      </trkpt>
      <trkpt lat="46.71546" lon="-1.74854">
        <ele>44</ele>
        <time>2018-03-15T20:23:09Z</time>
      </trkpt>
      <trkpt lat="46.71578" lon="-1.74837">
        <ele>44</ele>
        <time>2018-03-15T20:24:09Z</time>
      </trkpt>
      <trkpt lat="46.71616" lon="-1.74817">
        <ele>44</ele>
        <time>2018-03-15T20:25:09Z</time>
      </trkpt>
      <trkpt lat="46.71654" lon="-1.74797">
        <ele>44</ele>
        <time>2018-03-15T20:26:09Z</time>
      </trkpt>
      <trkpt lat="46.71686" lon="-1.74781">
        <ele>43</ele>
        <time>2018-03-15T20:27:09Z</time>
      </trkpt>
      <trkpt lat="46.71732" lon="-1.74757">
        <ele>42</ele>
        <time>2018-03-15T20:28:09Z</time>
      </trkpt>
      <trkpt lat="46.71747" lon="-1.74749">
        <ele>42</ele>
        <time>2018-03-15T20:29:09Z</time>
      </trkpt>
      <trkpt lat="46.718" lon="-1.74721">
        <ele>40</ele>
        <time>2018-03-15T20:30:09Z</time>
      </trkpt>
      <trkpt lat="46.71855" lon="-1.7469">
        <ele>38</ele>
        <time>2018-03-15T20:31:09Z</time>
      </trkpt>
      <trkpt lat="46.71884" lon="-1.74674">
        <ele>38</ele>
        <time>2018-03-15T20:32:09Z</time>
      </trkpt>
      <trkpt lat="46.71898" lon="-1.74666">
        <ele>37</ele>
        <time>2018-03-15T20:33:09Z</time>
      </trkpt>
      <trkpt lat="46.71936" lon="-1.74645">
        <ele>36</ele>
        <time>2018-03-15T20:34:09Z</time>
      </trkpt>
      <trkpt lat="46.71949" lon="-1.74635">
        <ele>35</ele>
        <time>2018-03-15T20:35:09Z</time>
      </trkpt>
      <trkpt lat="46.7197" lon="-1.74624">
        <ele>34</ele>
        <time>2018-03-15T20:36:09Z</time>
      </trkpt>
      <trkpt lat="46.71978" lon="-1.7462">
        <ele>34</ele>
        <time>2018-03-15T20:37:09Z</time>
      </trkpt>
      <trkpt lat="46.71981" lon="-1.74619">
        <ele>34</ele>
        <time>2018-03-15T20:38:09Z</time>
      </trkpt>
      <trkpt lat="46.71987" lon="-1.74617">
        <ele>34</ele>
        <time>2018-03-15T20:39:09Z</time>
      </trkpt>
      <trkpt lat="46.72011" lon="-1.74607">
        <ele>33</ele>
        <time>2018-03-15T20:40:09Z</time>
      </trkpt>
      <trkpt lat="46.72056" lon="-1.74591">
        <ele>33</ele>
        <time>2018-03-15T20:41:09Z</time>
      </trkpt>
      <trkpt lat="46.72101" lon="-1.74576">
        <ele>34</ele>
        <time>2018-03-15T20:42:09Z</time>
      </trkpt>
      <trkpt lat="46.72128" lon="-1.74567">
        <ele>34</ele>
        <time>2018-03-15T20:43:09Z</time>
      </trkpt>
      <trkpt lat="46.72138" lon="-1.74564">
        <ele>35</ele>
        <time>2018-03-15T20:44:09Z</time>
      </trkpt>
      <trkpt lat="46.72142" lon="-1.74563">
        <ele>35</ele>
        <time>2018-03-15T20:45:09Z</time>
      </trkpt>
      <trkpt lat="46.72159" lon="-1.7456">
        <ele>35</ele>
        <time>2018-03-15T20:46:09Z</time>
      </trkpt>
      <trkpt lat="46.72181" lon="-1.74558">
        <ele>36</ele>
        <time>2018-03-15T20:47:09Z</time>
      </trkpt>
      <trkpt lat="46.72207" lon="-1.74559">
        <ele>36</ele>
        <time>2018-03-15T20:48:09Z</time>
      </trkpt>
      <trkpt lat="46.72249" lon="-1.74562">
        <ele>36</ele>
        <time>2018-03-15T20:49:09Z</time>
      </trkpt>
      <trkpt lat="46.72276" lon="-1.74564">
        <ele>38</ele>
        <time>2018-03-15T20:50:09Z</time>
      </trkpt>
      <trkpt lat="46.72314" lon="-1.74564">
        <ele>39</ele>
        <time>2018-03-15T20:51:09Z</time>
      </trkpt>
      <trkpt lat="46.72354" lon="-1.74563">
        <ele>41</ele>
        <time>2018-03-15T20:52:09Z</time>
      </trkpt>
      <trkpt lat="46.72383" lon="-1.74562">
        <ele>42</ele>
        <time>2018-03-15T20:53:09Z</time>
      </trkpt>
      <trkpt lat="46.72421" lon="-1.7456">
        <ele>43</ele>
        <time>2018-03-15T20:54:09Z</time>
      </trkpt>
      <trkpt lat="46.72447" lon="-1.74559">
        <ele>43</ele>
        <time>2018-03-15T20:55:09Z</time>
      </trkpt>
      <trkpt lat="46.72474" lon="-1.74556">
        <ele>43</ele>
        <time>2018-03-15T20:56:09Z</time>
      </trkpt>
      <trkpt lat="46.72514" lon="-1.74551">
        <ele>43</ele>
        <time>2018-03-15T20:57:09Z</time>
      </trkpt>
      <trkpt lat="46.72534" lon="-1.74549">
        <ele>43</ele>
        <time>2018-03-15T20:58:09Z</time>
      </trkpt>
      <trkpt lat="46.72568" lon="-1.74544">
        <ele>43</ele>
        <time>2018-03-15T20:59:09Z</time>
      </trkpt>
      <trkpt lat="46.72592" lon="-1.74542">
        <ele>42</ele>
        <time>2018-03-15T21:00:09Z</time>
      </trkpt>
      <trkpt lat="46.72599" lon="-1.74541">
        <ele>42</ele>
        <time>2018-03-15T21:01:09Z</time>
      </trkpt>
      <trkpt lat="46.72615" lon="-1.7454">
        <ele>42</ele>
        <time>2018-03-15T21:02:09Z</time>
      </trkpt>
      <trkpt lat="46.72628" lon="-1.74539">
        <ele>42</ele>
        <time>2018-03-15T21:03:09Z</time>
      </trkpt>
      <trkpt lat="46.72642" lon="-1.74539">
        <ele>41</ele>
        <time>2018-03-15T21:04:09Z</time>
      </trkpt>
      <trkpt lat="46.72652" lon="-1.7454">
        <ele>41</ele>
        <time>2018-03-15T21:05:09Z</time>
      </trkpt>
      <trkpt lat="46.72666" lon="-1.74542">
        <ele>41</ele>
        <time>2018-03-15T21:06:09Z</time>
      </trkpt>
      <trkpt lat="46.72678" lon="-1.74544">
        <ele>41</ele>
        <time>2018-03-15T21:07:09Z</time>
      </trkpt>
      <trkpt lat="46.72753" lon="-1.74558">
        <ele>39</ele>
        <time>2018-03-15T21:08:09Z</time>
      </trkpt>
      <trkpt lat="46.72857" lon="-1.74578">
        <ele>38</ele>
        <time>2018-03-15T21:09:09Z</time>
      </trkpt>
      <trkpt lat="46.72944" lon="-1.74595">
        <ele>36</ele>
        <time>2018-03-15T21:10:09Z</time>
      </trkpt>
      <trkpt lat="46.72998" lon="-1.74605">
        <ele>36</ele>
        <time>2018-03-15T21:11:09Z</time>
      </trkpt>
      <trkpt lat="46.73083" lon="-1.74621">
        <ele>38</ele>
        <time>2018-03-15T21:12:09Z</time>
      </trkpt>
      <trkpt lat="46.73136" lon="-1.74631">
        <ele>40</ele>
        <time>2018-03-15T21:13:09Z</time>
      </trkpt>
      <trkpt lat="46.73181" lon="-1.7464">
        <ele>42</ele>
        <time>2018-03-15T21:14:09Z</time>
      </trkpt>
      <trkpt lat="46.73217" lon="-1.74647">
        <ele>43</ele>
        <time>2018-03-15T21:15:09Z</time>
      </trkpt>
      <trkpt lat="46.73284" lon="-1.74661">
        <ele>44</ele>
        <time>2018-03-15T21:16:09Z</time>
      </trkpt>
      <trkpt lat="46.73323" lon="-1.7467">
        <ele>45</ele>
        <time>2018-03-15T21:17:09Z</time>
      </trkpt>
      <trkpt lat="46.73348" lon="-1.74675">
        <ele>45</ele>
        <time>2018-03-15T21:18:09Z</time>
      </trkpt>
      <trkpt lat="46.73369" lon="-1.74678">
        <ele>45</ele>
        <time>2018-03-15T21:19:09Z</time>
      </trkpt>
      <trkpt lat="46.734" lon="-1.7468">
        <ele>45</ele>
        <time>2018-03-15T21:20:09Z</time>
      </trkpt>
      <trkpt lat="46.73433" lon="-1.74684">
        <ele>45</ele>
        <time>2018-03-15T21:21:09Z</time>
      </trkpt>
      <trkpt lat="46.73514" lon="-1.74687">
        <ele>44</ele>
        <time>2018-03-15T21:22:09Z</time>
      </trkpt>
      <trkpt lat="46.7357" lon="-1.74688">
        <ele>43</ele>
        <time>2018-03-15T21:23:09Z</time>
      </trkpt>
      <trkpt lat="46.73667" lon="-1.74686">
        <ele>43</ele>
        <time>2018-03-15T21:24:09Z</time>
      </trkpt>
      <trkpt lat="46.73754" lon="-1.74682">
        <ele>41</ele>
        <time>2018-03-15T21:25:09Z</time>
      </trkpt>
      <trkpt lat="46.73876" lon="-1.7468">
        <ele>38</ele>
        <time>2018-03-15T21:26:09Z</time>
      </trkpt>
      <trkpt lat="46.73908" lon="-1.74678">
        <ele>38</ele>
        <time>2018-03-15T21:27:09Z</time>
      </trkpt>
      <trkpt lat="46.73914" lon="-1.74669">
        <ele>38</ele>
        <time>2018-03-15T21:28:09Z</time>
      </trkpt>
      <trkpt lat="46.73916" lon="-1.74666">
        <ele>38</ele>
        <time>2018-03-15T21:29:09Z</time>
      </trkpt>
      <trkpt lat="46.73917" lon="-1.74663">
        <ele>38</ele>
        <time>2018-03-15T21:30:09Z</time>
      </trkpt>
      <trkpt lat="46.73918" lon="-1.74659">
        <ele>38</ele>
        <time>2018-03-15T21:31:09Z</time>
      </trkpt>
      <trkpt lat="46.73919" lon="-1.74654">
        <ele>38</ele>
        <time>2018-03-15T21:32:09Z</time>
      </trkpt>
      <trkpt lat="46.73919" lon="-1.74654">
        <ele>38</ele>
        <time>2018-03-15T21:33:09Z</time>
      </trkpt>
      <trkpt lat="46.73922" lon="-1.74654">
        <ele>38</ele>
        <time>2018-03-15T21:34:09Z</time>
      </trkpt>
      <trkpt lat="46.7393" lon="-1.74655">
        <ele>38</ele>
        <time>2018-03-15T21:35:09Z</time>
      </trkpt>
      <trkpt lat="46.73938" lon="-1.74655">
        <ele>38</ele>
        <time>2018-03-15T21:36:09Z</time>
      </trkpt>
      <trkpt lat="46.73952" lon="-1.74656">
        <ele>37</ele>
        <time>2018-03-15T21:37:09Z</time>
      </trkpt>
      <trkpt lat="46.73957" lon="-1.74655">
        <ele>37</ele>
        <time>2018-03-15T21:38:09Z</time>
      </trkpt>
      <trkpt lat="46.7396" lon="-1.74655">
        <ele>37</ele>
        <time>2018-03-15T21:39:09Z</time>
      </trkpt>
      <trkpt lat="46.73968" lon="-1.74654">
        <ele>37</ele>
        <time>2018-03-15T21:40:09Z</time>
      </trkpt>
      <trkpt lat="46.74032" lon="-1.74638">
        <ele>36</ele>
        <time>2018-03-15T21:41:09Z</time>
      </trkpt>
      <trkpt lat="46.74046" lon="-1.74636">
        <ele>36</ele>
        <time>2018-03-15T21:42:09Z</time>
      </trkpt>
      <trkpt lat="46.74065" lon="-1.74635">
        <ele>36</ele>
        <time>2018-03-15T21:43:09Z</time>
      </trkpt>
      <trkpt lat="46.74088" lon="-1.74637">
        <ele>36</ele>
        <time>2018-03-15T21:44:09Z</time>
      </trkpt>
      <trkpt lat="46.74113" lon="-1.7464">
        <ele>36</ele>
        <time>2018-03-15T21:45:09Z</time>
      </trkpt>
      <trkpt lat="46.74118" lon="-1.7464">
        <ele>36</ele>
        <time>2018-03-15T21:46:09Z</time>
      </trkpt>
      <trkpt lat="46.74151" lon="-1.74646">
        <ele>36</ele>
        <time>2018-03-15T21:47:09Z</time>
      </trkpt>
      <trkpt lat="46.74172" lon="-1.74652">
        <ele>36</ele>
        <time>2018-03-15T21:48:09Z</time>
      </trkpt>
      <trkpt lat="46.742" lon="-1.7466">
        <ele>34</ele>
        <time>2018-03-15T21:49:09Z</time>
      </trkpt>
      <trkpt lat="46.74217" lon="-1.74665">
        <ele>34</ele>
        <time>2018-03-15T21:50:09Z</time>
      </trkpt>
      <trkpt lat="46.74233" lon="-1.74669">
        <ele>33</ele>
        <time>2018-03-15T21:51:09Z</time>
      </trkpt>
      <trkpt lat="46.74242" lon="-1.74671">
        <ele>32</ele>
        <time>2018-03-15T21:52:09Z</time>
      </trkpt>
      <trkpt lat="46.74247" lon="-1.74672">
        <ele>32</ele>
        <time>2018-03-15T21:53:09Z</time>
      </trkpt>
      <trkpt lat="46.74256" lon="-1.74673">
        <ele>32</ele>
        <time>2018-03-15T21:54:09Z</time>
      </trkpt>
      <trkpt lat="46.74267" lon="-1.74673">
        <ele>32</ele>
        <time>2018-03-15T21:55:09Z</time>
      </trkpt>
      <trkpt lat="46.74279" lon="-1.74673">
        <ele>32</ele>
        <time>2018-03-15T21:56:09Z</time>
      </trkpt>
      <trkpt lat="46.74296" lon="-1.74669">
        <ele>31</ele>
        <time>2018-03-15T21:57:09Z</time>
      </trkpt>
      <trkpt lat="46.74322" lon="-1.74664">
        <ele>31</ele>
        <time>2018-03-15T21:58:09Z</time>
      </trkpt>
      <trkpt lat="46.74375" lon="-1.74651">
        <ele>30</ele>
        <time>2018-03-15T21:59:09Z</time>
      </trkpt>
      <trkpt lat="46.74454" lon="-1.74632">
        <ele>28</ele>
        <time>2018-03-15T22:00:09Z</time>
      </trkpt>
      <trkpt lat="46.74508" lon="-1.74621">
        <ele>26</ele>
        <time>2018-03-15T22:01:09Z</time>
      </trkpt>
      <trkpt lat="46.74533" lon="-1.74615">
        <ele>26</ele>
        <time>2018-03-15T22:02:09Z</time>
      </trkpt>
      <trkpt lat="46.74542" lon="-1.74612">
        <ele>25</ele>
        <time>2018-03-15T22:03:09Z</time>
      </trkpt>
      <trkpt lat="46.74548" lon="-1.7461">
        <ele>25</ele>
        <time>2018-03-15T22:04:09Z</time>
      </trkpt>
      <trkpt lat="46.74551" lon="-1.74609">
        <ele>25</ele>
        <time>2018-03-15T22:05:09Z</time>
      </trkpt>
      <trkpt lat="46.74567" lon="-1.74604">
        <ele>25</ele>
        <time>2018-03-15T22:06:09Z</time>
      </trkpt>
      <trkpt lat="46.74573" lon="-1.74601">
        <ele>25</ele>
        <time>2018-03-15T22:07:09Z</time>
      </trkpt>
      <trkpt lat="46.74578" lon="-1.74598">
        <ele>24</ele>
        <time>2018-03-15T22:08:09Z</time>
      </trkpt>
      <trkpt lat="46.74584" lon="-1.74594">
        <ele>24</ele>
        <time>2018-03-15T22:09:09Z</time>
      </trkpt>
      <trkpt lat="46.74597" lon="-1.74586">
        <ele>24</ele>
        <time>2018-03-15T22:10:09Z</time>
      </trkpt>
      <trkpt lat="46.74603" lon="-1.74581">
        <ele>24</ele>
        <time>2018-03-15T22:11:09Z</time>
      </trkpt>
      <trkpt lat="46.74606" lon="-1.74576">
        <ele>23</ele>
        <time>2018-03-15T22:12:09Z</time>
      </trkpt>
      <trkpt lat="46.74617" lon="-1.74563">
        <ele>22</ele>
        <time>2018-03-15T22:13:09Z</time>
      </trkpt>
      <trkpt lat="46.74631" lon="-1.74544">
        <ele>21</ele>
        <time>2018-03-15T22:14:09Z</time>
      </trkpt>
      <trkpt lat="46.74667" lon="-1.74493">
        <ele>20</ele>
        <time>2018-03-15T22:15:09Z</time>
      </trkpt>
      <trkpt lat="46.74688" lon="-1.74462">
        <ele>19</ele>
        <time>2018-03-15T22:16:09Z</time>
      </trkpt>
      <trkpt lat="46.74699" lon="-1.74442">
        <ele>18</ele>
        <time>2018-03-15T22:17:09Z</time>
      </trkpt>
      <trkpt lat="46.74707" lon="-1.74428">
        <ele>18</ele>
        <time>2018-03-15T22:18:09Z</time>
      </trkpt>
      <trkpt lat="46.74715" lon="-1.74412">
        <ele>17</ele>
        <time>2018-03-15T22:19:09Z</time>
      </trkpt>
      <trkpt lat="46.74719" lon="-1.74402">
        <ele>17</ele>
        <time>2018-03-15T22:20:09Z</time>
      </trkpt>
      <trkpt lat="46.74724" lon="-1.74388">
        <ele>17</ele>
        <time>2018-03-15T22:21:09Z</time>
      </trkpt>
      <trkpt lat="46.74729" lon="-1.74372">
        <ele>16</ele>
        <time>2018-03-15T22:22:09Z</time>
      </trkpt>
      <trkpt lat="46.74732" lon="-1.74359">
        <ele>16</ele>
        <time>2018-03-15T22:23:09Z</time>
      </trkpt>
      <trkpt lat="46.74735" lon="-1.74347">
        <ele>15</ele>
        <time>2018-03-15T22:24:09Z</time>
      </trkpt>
      <trkpt lat="46.74738" lon="-1.74327">
        <ele>14</ele>
        <time>2018-03-15T22:25:09Z</time>
      </trkpt>
      <trkpt lat="46.74739" lon="-1.74314">
        <ele>14</ele>
        <time>2018-03-15T22:26:09Z</time>
      </trkpt>
      <trkpt lat="46.7474" lon="-1.743">
        <ele>14</ele>
        <time>2018-03-15T22:27:09Z</time>
      </trkpt>
      <trkpt lat="46.74741" lon="-1.74282">
        <ele>14</ele>
        <time>2018-03-15T22:28:09Z</time>
      </trkpt>
      <trkpt lat="46.74742" lon="-1.74239">
        <ele>14</ele>
        <time>2018-03-15T22:29:09Z</time>
      </trkpt>
      <trkpt lat="46.74741" lon="-1.74229">
        <ele>14</ele>
        <time>2018-03-15T22:30:09Z</time>
      </trkpt>
      <trkpt lat="46.7474" lon="-1.74216">
        <ele>13</ele>
        <time>2018-03-15T22:31:09Z</time>
      </trkpt>
      <trkpt lat="46.74738" lon="-1.74205">
        <ele>13</ele>
        <time>2018-03-15T22:32:09Z</time>
      </trkpt>
      <trkpt lat="46.74736" lon="-1.74196">
        <ele>13</ele>
        <time>2018-03-15T22:33:09Z</time>
      </trkpt>
      <trkpt lat="46.74734" lon="-1.74192">
        <ele>13</ele>
        <time>2018-03-15T22:34:09Z</time>
      </trkpt>
      <trkpt lat="46.74732" lon="-1.74188">
        <ele>13</ele>
        <time>2018-03-15T22:35:09Z</time>
      </trkpt>
      <trkpt lat="46.74729" lon="-1.74181">
        <ele>13</ele>
        <time>2018-03-15T22:36:09Z</time>
      </trkpt>
      <trkpt lat="46.74733" lon="-1.74169">
        <ele>13</ele>
        <time>2018-03-15T22:37:09Z</time>
      </trkpt>
      <trkpt lat="46.74735" lon="-1.74165">
        <ele>12</ele>
        <time>2018-03-15T22:38:09Z</time>
      </trkpt>
      <trkpt lat="46.74736" lon="-1.74163">
        <ele>12</ele>
        <time>2018-03-15T22:39:09Z</time>
      </trkpt>
      <trkpt lat="46.74756" lon="-1.74143">
        <ele>11</ele>
        <time>2018-03-15T22:40:09Z</time>
      </trkpt>
      <trkpt lat="46.74762" lon="-1.74138">
        <ele>12</ele>
        <time>2018-03-15T22:41:09Z</time>
      </trkpt>
      <trkpt lat="46.7477" lon="-1.74131">
        <ele>12</ele>
        <time>2018-03-15T22:42:09Z</time>
      </trkpt>
      <trkpt lat="46.74778" lon="-1.74124">
        <ele>13</ele>
        <time>2018-03-15T22:43:09Z</time>
      </trkpt>
      <trkpt lat="46.74787" lon="-1.74117">
        <ele>13</ele>
        <time>2018-03-15T22:44:09Z</time>
      </trkpt>
      <trkpt lat="46.748" lon="-1.74108">
        <ele>14</ele>
        <time>2018-03-15T22:45:09Z</time>
      </trkpt>
      <trkpt lat="46.74805" lon="-1.74105">
        <ele>14</ele>
        <time>2018-03-15T22:46:09Z</time>
      </trkpt>
      <trkpt lat="46.74807" lon="-1.74104">
        <ele>15</ele>
        <time>2018-03-15T22:47:09Z</time>
      </trkpt>
      <trkpt lat="46.7481" lon="-1.74103">
        <ele>15</ele>
        <time>2018-03-15T22:48:09Z</time>
      </trkpt>
      <trkpt lat="46.74816" lon="-1.741">
        <ele>15</ele>
        <time>2018-03-15T22:49:09Z</time>
      </trkpt>
      <trkpt lat="46.74838" lon="-1.7409">
        <ele>17</ele>
        <time>2018-03-15T22:50:09Z</time>
      </trkpt>
      <trkpt lat="46.74839" lon="-1.74089">
        <ele>17</ele>
        <time>2018-03-15T22:51:09Z</time>
      </trkpt>
      <trkpt lat="46.74841" lon="-1.74088">
        <ele>17</ele>
        <time>2018-03-15T22:52:09Z</time>
      </trkpt>
      <trkpt lat="46.74851" lon="-1.74084">
        <ele>18</ele>
        <time>2018-03-15T22:53:09Z</time>
      </trkpt>
      <trkpt lat="46.74855" lon="-1.74083">
        <ele>19</ele>
        <time>2018-03-15T22:54:09Z</time>
      </trkpt>
      <trkpt lat="46.74862" lon="-1.7408">
        <ele>19</ele>
        <time>2018-03-15T22:55:09Z</time>
      </trkpt>
      <trkpt lat="46.74934" lon="-1.74049">
        <ele>25</ele>
        <time>2018-03-15T22:56:09Z</time>
      </trkpt>
      <trkpt lat="46.74938" lon="-1.74047">
        <ele>25</ele>
        <time>2018-03-15T22:57:09Z</time>
      </trkpt>
      <trkpt lat="46.74942" lon="-1.74045">
        <ele>25</ele>
        <time>2018-03-15T22:58:09Z</time>
      </trkpt>
      <trkpt lat="46.74963" lon="-1.74029">
        <ele>27</ele>
        <time>2018-03-15T22:59:09Z</time>
      </trkpt>
      <trkpt lat="46.74966" lon="-1.74027">
        <ele>27</ele>
        <time>2018-03-15T23:00:09Z</time>
      </trkpt>
      <trkpt lat="46.74973" lon="-1.7402">
        <ele>27</ele>
        <time>2018-03-15T23:01:09Z</time>
      </trkpt>
      <trkpt lat="46.74973" lon="-1.7402">
        <ele>27</ele>
        <time>2018-03-15T23:02:09Z</time>
      </trkpt>
      <trkpt lat="46.74944" lon="-1.73979">
        <ele>28</ele>
        <time>2018-03-15T23:03:09Z</time>
      </trkpt>
      <trkpt lat="46.74941" lon="-1.73975">
        <ele>28</ele>
        <time>2018-03-15T23:04:09Z</time>
      </trkpt>
      <trkpt lat="46.74937" lon="-1.73972">
        <ele>28</ele>
        <time>2018-03-15T23:05:09Z</time>
      </trkpt>
      <trkpt lat="46.74933" lon="-1.7397">
        <ele>28</ele>
        <time>2018-03-15T23:06:09Z</time>
      </trkpt>
      <trkpt lat="46.7493" lon="-1.73969">
        <ele>27</ele>
        <time>2018-03-15T23:07:09Z</time>
      </trkpt>
      <trkpt lat="46.74925" lon="-1.73968">
        <ele>27</ele>
        <time>2018-03-15T23:08:09Z</time>
      </trkpt>
      <trkpt lat="46.74921" lon="-1.73967">
        <ele>27</ele>
        <time>2018-03-15T23:09:09Z</time>
      </trkpt>
      <trkpt lat="46.74917" lon="-1.73966">
        <ele>27</ele>
        <time>2018-03-15T23:10:09Z</time>
      </trkpt>
      <trkpt lat="46.74912" lon="-1.73965">
        <ele>27</ele>
        <time>2018-03-15T23:11:09Z</time>
      </trkpt>
      <trkpt lat="46.74908" lon="-1.73962">
        <ele>27</ele>
        <time>2018-03-15T23:12:09Z</time>
      </trkpt>
      <trkpt lat="46.74904" lon="-1.73959">
        <ele>27</ele>
        <time>2018-03-15T23:13:09Z</time>
      </trkpt>
      <trkpt lat="46.74897" lon="-1.73949">
        <ele>28</ele>
        <time>2018-03-15T23:14:09Z</time>
      </trkpt>
      <trkpt lat="46.7489" lon="-1.73938">
        <ele>28</ele>
        <time>2018-03-15T23:15:09Z</time>
      </trkpt>
      <trkpt lat="46.74885" lon="-1.73926">
        <ele>29</ele>
        <time>2018-03-15T23:16:09Z</time>
      </trkpt>
      <trkpt lat="46.74882" lon="-1.7392">
        <ele>29</ele>
        <time>2018-03-15T23:17:09Z</time>
      </trkpt>
      <trkpt lat="46.74876" lon="-1.73908">
        <ele>29</ele>
        <time>2018-03-15T23:18:09Z</time>
      </trkpt>
      <trkpt lat="46.74875" lon="-1.73905">
        <ele>29</ele>
        <time>2018-03-15T23:19:09Z</time>
      </trkpt>
      <trkpt lat="46.74872" lon="-1.73903">
        <ele>29</ele>
        <time>2018-03-15T23:20:09Z</time>
      </trkpt>
      <trkpt lat="46.74871" lon="-1.73902">
        <ele>29</ele>
        <time>2018-03-15T23:21:09Z</time>
      </trkpt>
      <trkpt lat="46.74864" lon="-1.73883">
        <ele>30</ele>
        <time>2018-03-15T23:22:09Z</time>
      </trkpt>
      <trkpt lat="46.74864" lon="-1.73883">
        <ele>30</ele>
        <time>2018-03-15T23:23:09Z</time>
      </trkpt>
      <trkpt lat="46.74863" lon="-1.73883">
        <ele>30</ele>
        <time>2018-03-15T23:24:09Z</time>
      </trkpt>
      <trkpt lat="46.74863" lon="-1.73882">
        <ele>30</ele>
        <time>2018-03-15T23:25:09Z</time>
      </trkpt>
      <trkpt lat="46.74862" lon="-1.73882">
        <ele>30</ele>
        <time>2018-03-15T23:26:09Z</time>
      </trkpt>
      <trkpt lat="46.74861" lon="-1.73881">
        <ele>30</ele>
        <time>2018-03-15T23:27:09Z</time>
      </trkpt>
      <trkpt lat="46.7486" lon="-1.73881">
        <ele>30</ele>
        <time>2018-03-15T23:28:09Z</time>
      </trkpt>
      <trkpt lat="46.7486" lon="-1.7388">
        <ele>30</ele>
        <time>2018-03-15T23:29:09Z</time>
      </trkpt>
      <trkpt lat="46.74859" lon="-1.73879">
        <ele>30</ele>
        <time>2018-03-15T23:30:09Z</time>
      </trkpt>
      <trkpt lat="46.74859" lon="-1.73878">
        <ele>30</ele>
        <time>2018-03-15T23:31:09Z</time>
      </trkpt>
      <trkpt lat="46.74858" lon="-1.73878">
        <ele>30</ele>
        <time>2018-03-15T23:32:09Z</time>
      </trkpt>
      <trkpt lat="46.74858" lon="-1.73877">
        <ele>30</ele>
        <time>2018-03-15T23:33:09Z</time>
      </trkpt>
      <trkpt lat="46.74858" lon="-1.73876">
        <ele>30</ele>
        <time>2018-03-15T23:34:09Z</time>
      </trkpt>
      <trkpt lat="46.74858" lon="-1.73875">
        <ele>30</ele>
        <time>2018-03-15T23:35:09Z</time>
      </trkpt>
      <trkpt lat="46.74857" lon="-1.73875">
        <ele>30</ele>
        <time>2018-03-15T23:36:09Z</time>
      </trkpt>
      <trkpt lat="46.74857" lon="-1.73874">
        <ele>30</ele>
        <time>2018-03-15T23:37:09Z</time>
      </trkpt>
      <trkpt lat="46.74857" lon="-1.73873">
        <ele>30</ele>
        <time>2018-03-15T23:38:09Z</time>
      </trkpt>
      <trkpt lat="46.74857" lon="-1.73872">
        <ele>30</ele>
        <time>2018-03-15T23:39:09Z</time>
      </trkpt>
      <trkpt lat="46.74857" lon="-1.73871">
        <ele>30</ele>
        <time>2018-03-15T23:40:09Z</time>
      </trkpt>
      <trkpt lat="46.74857" lon="-1.7387">
        <ele>30</ele>
        <time>2018-03-15T23:41:09Z</time>
      </trkpt>
      <trkpt lat="46.74858" lon="-1.7387">
        <ele>30</ele>
        <time>2018-03-15T23:42:09Z</time>
      </trkpt>
      <trkpt lat="46.74858" lon="-1.73869">
        <ele>30</ele>
        <time>2018-03-15T23:43:09Z</time>
      </trkpt>
      <trkpt lat="46.74858" lon="-1.73868">
        <ele>30</ele>
        <time>2018-03-15T23:44:09Z</time>
      </trkpt>
      <trkpt lat="46.74858" lon="-1.73867">
        <ele>30</ele>
        <time>2018-03-15T23:45:09Z</time>
      </trkpt>
      <trkpt lat="46.74859" lon="-1.73867">
        <ele>30</ele>
        <time>2018-03-15T23:46:09Z</time>
      </trkpt>
      <trkpt lat="46.74859" lon="-1.73866">
        <ele>30</ele>
        <time>2018-03-15T23:47:09Z</time>
      </trkpt>
      <trkpt lat="46.7486" lon="-1.73865">
        <ele>30</ele>
        <time>2018-03-15T23:48:09Z</time>
      </trkpt>
      <trkpt lat="46.74861" lon="-1.73864">
        <ele>30</ele>
        <time>2018-03-15T23:49:09Z</time>
      </trkpt>
      <trkpt lat="46.74862" lon="-1.73864">
        <ele>30</ele>
        <time>2018-03-15T23:50:09Z</time>
      </trkpt>
      <trkpt lat="46.74862" lon="-1.73863">
        <ele>30</ele>
        <time>2018-03-15T23:51:09Z</time>
      </trkpt>
      <trkpt lat="46.74863" lon="-1.73863">
        <ele>30</ele>
        <time>2018-03-15T23:52:09Z</time>
      </trkpt>
      <trkpt lat="46.74864" lon="-1.73863">
        <ele>30</ele>
        <time>2018-03-15T23:53:09Z</time>
      </trkpt>
      <trkpt lat="46.74865" lon="-1.73863">
        <ele>31</ele>
        <time>2018-03-15T23:54:09Z</time>
      </trkpt>
      <trkpt lat="46.74866" lon="-1.73863">
        <ele>31</ele>
        <time>2018-03-15T23:55:09Z</time>
      </trkpt>
      <trkpt lat="46.74867" lon="-1.73863">
        <ele>31</ele>
        <time>2018-03-15T23:56:09Z</time>
      </trkpt>
      <trkpt lat="46.74868" lon="-1.73863">
        <ele>31</ele>
        <time>2018-03-15T23:57:09Z</time>
      </trkpt>
      <trkpt lat="46.74873" lon="-1.7386">
        <ele>31</ele>
        <time>2018-03-15T23:58:09Z</time>
      </trkpt>
      <trkpt lat="46.74877" lon="-1.73856">
        <ele>31</ele>
        <time>2018-03-15T23:59:09Z</time>
      </trkpt>
      <trkpt lat="46.74883" lon="-1.73854">
        <ele>32</ele>
        <time>2018-03-16T00:00:09Z</time>
      </trkpt>
      <trkpt lat="46.74908" lon="-1.73846">
        <ele>33</ele>
        <time>2018-03-16T00:01:09Z</time>
      </trkpt>
      <trkpt lat="46.74991" lon="-1.73849">
        <ele>38</ele>
        <time>2018-03-16T00:02:09Z</time>
      </trkpt>
      <trkpt lat="46.75012" lon="-1.73852">
        <ele>38</ele>
        <time>2018-03-16T00:03:09Z</time>
      </trkpt>
      <trkpt lat="46.75026" lon="-1.73853">
        <ele>39</ele>
        <time>2018-03-16T00:04:09Z</time>
      </trkpt>
      <trkpt lat="46.75035" lon="-1.73853">
        <ele>39</ele>
        <time>2018-03-16T00:05:09Z</time>
      </trkpt>
      <trkpt lat="46.75041" lon="-1.73853">
        <ele>40</ele>
        <time>2018-03-16T00:06:09Z</time>
      </trkpt>
      <trkpt lat="46.75118" lon="-1.73846">
        <ele>43</ele>
        <time>2018-03-16T00:07:09Z</time>
      </trkpt>
      <trkpt lat="46.75133" lon="-1.73845">
        <ele>44</ele>
        <time>2018-03-16T00:08:09Z</time>
      </trkpt>
      <trkpt lat="46.75153" lon="-1.73848">
        <ele>45</ele>
        <time>2018-03-16T00:09:09Z</time>
      </trkpt>
      <trkpt lat="46.75169" lon="-1.73854">
        <ele>46</ele>
        <time>2018-03-16T00:10:09Z</time>
      </trkpt>
      <trkpt lat="46.75183" lon="-1.73862">
        <ele>46</ele>
        <time>2018-03-16T00:11:09Z</time>
      </trkpt>
      <trkpt lat="46.75201" lon="-1.73873">
        <ele>46</ele>
        <time>2018-03-16T00:12:09Z</time>
      </trkpt>
      <trkpt lat="46.75211" lon="-1.73882">
        <ele>46</ele>
        <time>2018-03-16T00:13:09Z</time>
      </trkpt>
      <trkpt lat="46.75224" lon="-1.73894">
        <ele>47</ele>
        <time>2018-03-16T00:14:09Z</time>
      </trkpt>
      <trkpt lat="46.75235" lon="-1.73904">
        <ele>47</ele>
        <time>2018-03-16T00:15:09Z</time>
      </trkpt>
      <trkpt lat="46.75244" lon="-1.73911">
        <ele>47</ele>
        <time>2018-03-16T00:16:09Z</time>
      </trkpt>
      <trkpt lat="46.75248" lon="-1.73913">
        <ele>47</ele>
        <time>2018-03-16T00:17:09Z</time>
      </trkpt>
      <trkpt lat="46.75253" lon="-1.73914">
        <ele>47</ele>
        <time>2018-03-16T00:18:09Z</time>
      </trkpt>
      <trkpt lat="46.75258" lon="-1.73915">
        <ele>47</ele>
        <time>2018-03-16T00:19:09Z</time>
      </trkpt>
      <trkpt lat="46.75263" lon="-1.73915">
        <ele>47</ele>
        <time>2018-03-16T00:20:09Z</time>
      </trkpt>
      <trkpt lat="46.75274" lon="-1.73913">
        <ele>48</ele>
        <time>2018-03-16T00:21:09Z</time>
      </trkpt>
      <trkpt lat="46.75299" lon="-1.73904">
        <ele>49</ele>
        <time>2018-03-16T00:22:09Z</time>
      </trkpt>
      <trkpt lat="46.75331" lon="-1.73893">
        <ele>50</ele>
        <time>2018-03-16T00:23:09Z</time>
      </trkpt>
      <trkpt lat="46.75363" lon="-1.73882">
        <ele>51</ele>
        <time>2018-03-16T00:24:09Z</time>
      </trkpt>
      <trkpt lat="46.75372" lon="-1.73879">
        <ele>51</ele>
        <time>2018-03-16T00:25:09Z</time>
      </trkpt>
      <trkpt lat="46.7539" lon="-1.73874">
        <ele>51</ele>
        <time>2018-03-16T00:26:09Z</time>
      </trkpt>
      <trkpt lat="46.75403" lon="-1.73874">
        <ele>51</ele>
        <time>2018-03-16T00:27:09Z</time>
      </trkpt>
      <trkpt lat="46.75412" lon="-1.73876">
        <ele>51</ele>
        <time>2018-03-16T00:28:09Z</time>
      </trkpt>
      <trkpt lat="46.75417" lon="-1.73881">
        <ele>51</ele>
        <time>2018-03-16T00:29:09Z</time>
      </trkpt>
      <trkpt lat="46.75422" lon="-1.73885">
        <ele>51</ele>
        <time>2018-03-16T00:30:09Z</time>
      </trkpt>
      <trkpt lat="46.75427" lon="-1.7389">
        <ele>51</ele>
        <time>2018-03-16T00:31:09Z</time>
      </trkpt>
      <trkpt lat="46.75432" lon="-1.73897">
        <ele>51</ele>
        <time>2018-03-16T00:32:09Z</time>
      </trkpt>
      <trkpt lat="46.75437" lon="-1.73906">
        <ele>51</ele>
        <time>2018-03-16T00:33:09Z</time>
      </trkpt>
      <trkpt lat="46.75441" lon="-1.73914">
        <ele>51</ele>
        <time>2018-03-16T00:34:09Z</time>
      </trkpt>
      <trkpt lat="46.75444" lon="-1.73921">
        <ele>51</ele>
        <time>2018-03-16T00:35:09Z</time>
      </trkpt>
      <trkpt lat="46.75447" lon="-1.7393">
        <ele>51</ele>
        <time>2018-03-16T00:36:09Z</time>
      </trkpt>
      <trkpt lat="46.75449" lon="-1.73937">
        <ele>51</ele>
        <time>2018-03-16T00:37:09Z</time>
      </trkpt>
      <trkpt lat="46.75451" lon="-1.73946">
        <ele>51</ele>
        <time>2018-03-16T00:38:09Z</time>
      </trkpt>
      <trkpt lat="46.75452" lon="-1.73955">
        <ele>51</ele>
        <time>2018-03-16T00:39:09Z</time>
      </trkpt>
      <trkpt lat="46.75453" lon="-1.73966">
        <ele>51</ele>
        <time>2018-03-16T00:40:09Z</time>
      </trkpt>
      <trkpt lat="46.75453" lon="-1.73976">
        <ele>50</ele>
        <time>2018-03-16T00:41:09Z</time>
      </trkpt>
      <trkpt lat="46.75452" lon="-1.73986">
        <ele>50</ele>
        <time>2018-03-16T00:42:09Z</time>
      </trkpt>
      <trkpt lat="46.7545" lon="-1.73997">
        <ele>50</ele>
        <time>2018-03-16T00:43:09Z</time>
      </trkpt>
      <trkpt lat="46.75444" lon="-1.74021">
        <ele>49</ele>
        <time>2018-03-16T00:44:09Z</time>
      </trkpt>
      <trkpt lat="46.75439" lon="-1.74041">
        <ele>49</ele>
        <time>2018-03-16T00:45:09Z</time>
      </trkpt>
      <trkpt lat="46.75429" lon="-1.74078">
        <ele>48</ele>
        <time>2018-03-16T00:46:09Z</time>
      </trkpt>
      <trkpt lat="46.75426" lon="-1.74088">
        <ele>47</ele>
        <time>2018-03-16T00:47:09Z</time>
      </trkpt>
      <trkpt lat="46.75419" lon="-1.74114">
        <ele>47</ele>
        <time>2018-03-16T00:48:09Z</time>
      </trkpt>
      <trkpt lat="46.75416" lon="-1.74127">
        <ele>47</ele>
        <time>2018-03-16T00:49:09Z</time>
      </trkpt>
      <trkpt lat="46.75413" lon="-1.7414">
        <ele>47</ele>
        <time>2018-03-16T00:50:09Z</time>
      </trkpt>
      <trkpt lat="46.75409" lon="-1.74165">
        <ele>47</ele>
        <time>2018-03-16T00:51:09Z</time>
      </trkpt>
      <trkpt lat="46.75406" lon="-1.74183">
        <ele>47</ele>
        <time>2018-03-16T00:52:09Z</time>
      </trkpt>
      <trkpt lat="46.75405" lon="-1.74199">
        <ele>47</ele>
        <time>2018-03-16T00:53:09Z</time>
      </trkpt>
      <trkpt lat="46.75403" lon="-1.74216">
        <ele>47</ele>
        <time>2018-03-16T00:54:09Z</time>
      </trkpt>
      <trkpt lat="46.75402" lon="-1.7423">
        <ele>47</ele>
        <time>2018-03-16T00:55:09Z</time>
      </trkpt>
      <trkpt lat="46.75398" lon="-1.74335">
        <ele>49</ele>
        <time>2018-03-16T00:56:09Z</time>
      </trkpt>
      <trkpt lat="46.75397" lon="-1.74371">
        <ele>49</ele>
        <time>2018-03-16T00:57:09Z</time>
      </trkpt>
      <trkpt lat="46.75396" lon="-1.74398">
        <ele>49</ele>
        <time>2018-03-16T00:58:09Z</time>
      </trkpt>
      <trkpt lat="46.75398" lon="-1.7444">
        <ele>48</ele>
        <time>2018-03-16T00:59:09Z</time>
      </trkpt>
      <trkpt lat="46.754" lon="-1.7448">
        <ele>48</ele>
        <time>2018-03-16T01:00:09Z</time>
      </trkpt>
      <trkpt lat="46.75405" lon="-1.7454">
        <ele>47</ele>
        <time>2018-03-16T01:01:09Z</time>
      </trkpt>
      <trkpt lat="46.75409" lon="-1.74588">
        <ele>47</ele>
        <time>2018-03-16T01:02:09Z</time>
      </trkpt>
      <trkpt lat="46.75413" lon="-1.74627">
        <ele>47</ele>
        <time>2018-03-16T01:03:09Z</time>
      </trkpt>
      <trkpt lat="46.75419" lon="-1.74671">
        <ele>47</ele>
        <time>2018-03-16T01:04:09Z</time>
      </trkpt>
      <trkpt lat="46.75423" lon="-1.74693">
        <ele>47</ele>
        <time>2018-03-16T01:05:09Z</time>
      </trkpt>
      <trkpt lat="46.75426" lon="-1.74706">
        <ele>48</ele>
        <time>2018-03-16T01:06:09Z</time>
      </trkpt>
      <trkpt lat="46.75429" lon="-1.74721">
        <ele>48</ele>
        <time>2018-03-16T01:07:09Z</time>
      </trkpt>
      <trkpt lat="46.75436" lon="-1.74747">
        <ele>48</ele>
        <time>2018-03-16T01:08:09Z</time>
      </trkpt>
      <trkpt lat="46.75443" lon="-1.74769">
        <ele>48</ele>
        <time>2018-03-16T01:09:09Z</time>
      </trkpt>
      <trkpt lat="46.75455" lon="-1.74802">
        <ele>48</ele>
        <time>2018-03-16T01:10:09Z</time>
      </trkpt>
      <trkpt lat="46.75475" lon="-1.74847">
        <ele>48</ele>
        <time>2018-03-16T01:11:09Z</time>
      </trkpt>
      <trkpt lat="46.75485" lon="-1.7487">
        <ele>48</ele>
        <time>2018-03-16T01:12:09Z</time>
      </trkpt>
      <trkpt lat="46.75496" lon="-1.74893">
        <ele>48</ele>
        <time>2018-03-16T01:13:09Z</time>
      </trkpt>
      <trkpt lat="46.75519" lon="-1.74944">
        <ele>48</ele>
        <time>2018-03-16T01:14:09Z</time>
      </trkpt>
      <trkpt lat="46.75535" lon="-1.74979">
        <ele>48</ele>
        <time>2018-03-16T01:15:09Z</time>
      </trkpt>
      <trkpt lat="46.75567" lon="-1.7505">
        <ele>47</ele>
        <time>2018-03-16T01:16:09Z</time>
      </trkpt>
      <trkpt lat="46.75589" lon="-1.75098">
        <ele>47</ele>
        <time>2018-03-16T01:17:09Z</time>
      </trkpt>
      <trkpt lat="46.75601" lon="-1.75126">
        <ele>46</ele>
        <time>2018-03-16T01:18:09Z</time>
      </trkpt>
      <trkpt lat="46.75618" lon="-1.7516">
        <ele>44</ele>
        <time>2018-03-16T01:19:09Z</time>
      </trkpt>
      <trkpt lat="46.75631" lon="-1.75183">
        <ele>44</ele>
        <time>2018-03-16T01:20:09Z</time>
      </trkpt>
      <trkpt lat="46.75645" lon="-1.75206">
        <ele>43</ele>
        <time>2018-03-16T01:21:09Z</time>
      </trkpt>
      <trkpt lat="46.75658" lon="-1.75227">
        <ele>42</ele>
        <time>2018-03-16T01:22:09Z</time>
      </trkpt>
      <trkpt lat="46.75675" lon="-1.75248">
        <ele>41</ele>
        <time>2018-03-16T01:23:09Z</time>
      </trkpt>
      <trkpt lat="46.75686" lon="-1.7526">
        <ele>40</ele>
        <time>2018-03-16T01:24:09Z</time>
      </trkpt>
      <trkpt lat="46.75693" lon="-1.75267">
        <ele>39</ele>
        <time>2018-03-16T01:25:09Z</time>
      </trkpt>
      <trkpt lat="46.757" lon="-1.75273">
        <ele>38</ele>
        <time>2018-03-16T01:26:09Z</time>
      </trkpt>
      <trkpt lat="46.75707" lon="-1.75279">
        <ele>37</ele>
        <time>2018-03-16T01:27:09Z</time>
      </trkpt>
      <trkpt lat="46.75715" lon="-1.75284">
        <ele>37</ele>
        <time>2018-03-16T01:28:09Z</time>
      </trkpt>
      <trkpt lat="46.75724" lon="-1.75289">
        <ele>36</ele>
        <time>2018-03-16T01:29:09Z</time>
      </trkpt>
      <trkpt lat="46.75733" lon="-1.75293">
        <ele>35</ele>
        <time>2018-03-16T01:30:09Z</time>
      </trkpt>
      <trkpt lat="46.75766" lon="-1.75303">
        <ele>33</ele>
        <time>2018-03-16T01:31:09Z</time>
      </trkpt>
      <trkpt lat="46.75787" lon="-1.75307">
        <ele>31</ele>
        <time>2018-03-16T01:32:09Z</time>
      </trkpt>
      <trkpt lat="46.75812" lon="-1.75313">
        <ele>29</ele>
        <time>2018-03-16T01:33:09Z</time>
      </trkpt>
      <trkpt lat="46.75829" lon="-1.75318">
        <ele>28</ele>
        <time>2018-03-16T01:34:09Z</time>
      </trkpt>
      <trkpt lat="46.75842" lon="-1.75323">
        <ele>27</ele>
        <time>2018-03-16T01:35:09Z</time>
      </trkpt>
      <trkpt lat="46.75849" lon="-1.75326">
        <ele>26</ele>
        <time>2018-03-16T01:36:09Z</time>
      </trkpt>
      <trkpt lat="46.75855" lon="-1.75329">
        <ele>25</ele>
        <time>2018-03-16T01:37:09Z</time>
      </trkpt>
      <trkpt lat="46.7586" lon="-1.75335">
        <ele>25</ele>
        <time>2018-03-16T01:38:09Z</time>
      </trkpt>
      <trkpt lat="46.75864" lon="-1.7534">
        <ele>24</ele>
        <time>2018-03-16T01:39:09Z</time>
      </trkpt>
      <trkpt lat="46.75867" lon="-1.75344">
        <ele>24</ele>
        <time>2018-03-16T01:40:09Z</time>
      </trkpt>
      <trkpt lat="46.7587" lon="-1.75351">
        <ele>24</ele>
        <time>2018-03-16T01:41:09Z</time>
      </trkpt>
      <trkpt lat="46.75872" lon="-1.75359">
        <ele>24</ele>
        <time>2018-03-16T01:42:09Z</time>
      </trkpt>
      <trkpt lat="46.75875" lon="-1.75376">
        <ele>24</ele>
        <time>2018-03-16T01:43:09Z</time>
      </trkpt>
      <trkpt lat="46.75876" lon="-1.75389">
        <ele>23</ele>
        <time>2018-03-16T01:44:09Z</time>
      </trkpt>
      <trkpt lat="46.75881" lon="-1.75469">
        <ele>22</ele>
        <time>2018-03-16T01:45:09Z</time>
      </trkpt>
      <trkpt lat="46.75882" lon="-1.75487">
        <ele>21</ele>
        <time>2018-03-16T01:46:09Z</time>
      </trkpt>
      <trkpt lat="46.75883" lon="-1.75496">
        <ele>21</ele>
        <time>2018-03-16T01:47:09Z</time>
      </trkpt>
      <trkpt lat="46.75884" lon="-1.75507">
        <ele>21</ele>
        <time>2018-03-16T01:48:09Z</time>
      </trkpt>
      <trkpt lat="46.75886" lon="-1.75523">
        <ele>21</ele>
        <time>2018-03-16T01:49:09Z</time>
      </trkpt>
      <trkpt lat="46.75888" lon="-1.75531">
        <ele>22</ele>
        <time>2018-03-16T01:50:09Z</time>
      </trkpt>
      <trkpt lat="46.7589" lon="-1.75538">
        <ele>22</ele>
        <time>2018-03-16T01:51:09Z</time>
      </trkpt>
      <trkpt lat="46.75894" lon="-1.75543">
        <ele>22</ele>
        <time>2018-03-16T01:52:09Z</time>
      </trkpt>
      <trkpt lat="46.75897" lon="-1.75548">
        <ele>22</ele>
        <time>2018-03-16T01:53:09Z</time>
      </trkpt>
      <trkpt lat="46.75901" lon="-1.75551">
        <ele>22</ele>
        <time>2018-03-16T01:54:09Z</time>
      </trkpt>
      <trkpt lat="46.75906" lon="-1.75555">
        <ele>22</ele>
        <time>2018-03-16T01:55:09Z</time>
      </trkpt>
      <trkpt lat="46.75911" lon="-1.75557">
        <ele>22</ele>
        <time>2018-03-16T01:56:09Z</time>
      </trkpt>
      <trkpt lat="46.75916" lon="-1.75558">
        <ele>22</ele>
        <time>2018-03-16T01:57:09Z</time>
      </trkpt>
      <trkpt lat="46.75923" lon="-1.75559">
        <ele>23</ele>
        <time>2018-03-16T01:58:09Z</time>
      </trkpt>
      <trkpt lat="46.75929" lon="-1.75559">
        <ele>24</ele>
        <time>2018-03-16T01:59:09Z</time>
      </trkpt>
      <trkpt lat="46.75936" lon="-1.75558">
        <ele>25</ele>
        <time>2018-03-16T02:00:09Z</time>
      </trkpt>
      <trkpt lat="46.75941" lon="-1.75556">
        <ele>26</ele>
        <time>2018-03-16T02:01:09Z</time>
      </trkpt>
      <trkpt lat="46.75946" lon="-1.75555">
        <ele>27</ele>
        <time>2018-03-16T02:02:09Z</time>
      </trkpt>
      <trkpt lat="46.7595" lon="-1.75552">
        <ele>27</ele>
        <time>2018-03-16T02:03:09Z</time>
      </trkpt>
      <trkpt lat="46.75959" lon="-1.75545">
        <ele>28</ele>
        <time>2018-03-16T02:04:09Z</time>
      </trkpt>
      <trkpt lat="46.75964" lon="-1.7554">
        <ele>29</ele>
        <time>2018-03-16T02:05:09Z</time>
      </trkpt>
      <trkpt lat="46.75967" lon="-1.75534">
        <ele>29</ele>
        <time>2018-03-16T02:06:09Z</time>
      </trkpt>
      <trkpt lat="46.7597" lon="-1.75527">
        <ele>29</ele>
        <time>2018-03-16T02:07:09Z</time>
      </trkpt>
      <trkpt lat="46.75972" lon="-1.7552">
        <ele>29</ele>
        <time>2018-03-16T02:08:09Z</time>
      </trkpt>
      <trkpt lat="46.75974" lon="-1.75512">
        <ele>29</ele>
        <time>2018-03-16T02:09:09Z</time>
      </trkpt>
      <trkpt lat="46.75974" lon="-1.75505">
        <ele>28</ele>
        <time>2018-03-16T02:10:09Z</time>
      </trkpt>
      <trkpt lat="46.75975" lon="-1.7549">
        <ele>28</ele>
        <time>2018-03-16T02:11:09Z</time>
      </trkpt>
      <trkpt lat="46.75975" lon="-1.75474">
        <ele>28</ele>
        <time>2018-03-16T02:12:09Z</time>
      </trkpt>
      <trkpt lat="46.75976" lon="-1.75465">
        <ele>28</ele>
        <time>2018-03-16T02:13:09Z</time>
      </trkpt>
      <trkpt lat="46.75977" lon="-1.75458">
        <ele>28</ele>
        <time>2018-03-16T02:14:09Z</time>
      </trkpt>
      <trkpt lat="46.75978" lon="-1.7545">
        <ele>28</ele>
        <time>2018-03-16T02:15:09Z</time>
      </trkpt>
      <trkpt lat="46.75981" lon="-1.75442">
        <ele>28</ele>
        <time>2018-03-16T02:16:09Z</time>
      </trkpt>
      <trkpt lat="46.75984" lon="-1.75434">
        <ele>28</ele>
        <time>2018-03-16T02:17:09Z</time>
      </trkpt>
      <trkpt lat="46.75988" lon="-1.75427">
        <ele>29</ele>
        <time>2018-03-16T02:18:09Z</time>
      </trkpt>
      <trkpt lat="46.75992" lon="-1.75421">
        <ele>29</ele>
        <time>2018-03-16T02:19:09Z</time>
      </trkpt>
      <trkpt lat="46.75997" lon="-1.75416">
        <ele>30</ele>
        <time>2018-03-16T02:20:09Z</time>
      </trkpt>
      <trkpt lat="46.76002" lon="-1.75412">
        <ele>30</ele>
        <time>2018-03-16T02:21:09Z</time>
      </trkpt>
      <trkpt lat="46.76006" lon="-1.75409">
        <ele>30</ele>
        <time>2018-03-16T02:22:09Z</time>
      </trkpt>
      <trkpt lat="46.76009" lon="-1.75408">
        <ele>30</ele>
        <time>2018-03-16T02:23:09Z</time>
      </trkpt>
      <trkpt lat="46.76017" lon="-1.75405">
        <ele>30</ele>
        <time>2018-03-16T02:24:09Z</time>
      </trkpt>
      <trkpt lat="46.76025" lon="-1.75404">
        <ele>31</ele>
        <time>2018-03-16T02:25:09Z</time>
      </trkpt>
      <trkpt lat="46.76033" lon="-1.75404">
        <ele>31</ele>
        <time>2018-03-16T02:26:09Z</time>
      </trkpt>
      <trkpt lat="46.76041" lon="-1.75405">
        <ele>32</ele>
        <time>2018-03-16T02:27:09Z</time>
      </trkpt>
      <trkpt lat="46.76066" lon="-1.75412">
        <ele>34</ele>
        <time>2018-03-16T02:28:09Z</time>
      </trkpt>
      <trkpt lat="46.76091" lon="-1.7542">
        <ele>35</ele>
        <time>2018-03-16T02:29:09Z</time>
      </trkpt>
      <trkpt lat="46.76123" lon="-1.7543">
        <ele>35</ele>
        <time>2018-03-16T02:30:09Z</time>
      </trkpt>
      <trkpt lat="46.76135" lon="-1.75434">
        <ele>35</ele>
        <time>2018-03-16T02:31:09Z</time>
      </trkpt>
      <trkpt lat="46.76143" lon="-1.75437">
        <ele>35</ele>
        <time>2018-03-16T02:32:09Z</time>
      </trkpt>
      <trkpt lat="46.76151" lon="-1.75442">
        <ele>36</ele>
        <time>2018-03-16T02:33:09Z</time>
      </trkpt>
      <trkpt lat="46.76158" lon="-1.75446">
        <ele>36</ele>
        <time>2018-03-16T02:34:09Z</time>
      </trkpt>
      <trkpt lat="46.76163" lon="-1.7545">
        <ele>36</ele>
        <time>2018-03-16T02:35:09Z</time>
      </trkpt>
      <trkpt lat="46.76171" lon="-1.75456">
        <ele>37</ele>
        <time>2018-03-16T02:36:09Z</time>
      </trkpt>
      <trkpt lat="46.76179" lon="-1.75464">
        <ele>37</ele>
        <time>2018-03-16T02:37:09Z</time>
      </trkpt>
      <trkpt lat="46.76188" lon="-1.75474">
        <ele>38</ele>
        <time>2018-03-16T02:38:09Z</time>
      </trkpt>
      <trkpt lat="46.76193" lon="-1.75482">
        <ele>39</ele>
        <time>2018-03-16T02:39:09Z</time>
      </trkpt>
      <trkpt lat="46.76198" lon="-1.7549">
        <ele>40</ele>
        <time>2018-03-16T02:40:09Z</time>
      </trkpt>
      <trkpt lat="46.76206" lon="-1.75504">
        <ele>41</ele>
        <time>2018-03-16T02:41:09Z</time>
      </trkpt>
      <trkpt lat="46.76214" lon="-1.75516">
        <ele>42</ele>
        <time>2018-03-16T02:42:09Z</time>
      </trkpt>
      <trkpt lat="46.76219" lon="-1.75524">
        <ele>42</ele>
        <time>2018-03-16T02:43:09Z</time>
      </trkpt>
      <trkpt lat="46.76224" lon="-1.75531">
        <ele>42</ele>
        <time>2018-03-16T02:44:09Z</time>
      </trkpt>
      <trkpt lat="46.7623" lon="-1.75539">
        <ele>43</ele>
        <time>2018-03-16T02:45:09Z</time>
      </trkpt>
      <trkpt lat="46.76238" lon="-1.75547">
        <ele>43</ele>
        <time>2018-03-16T02:46:09Z</time>
      </trkpt>
      <trkpt lat="46.76246" lon="-1.75553">
        <ele>44</ele>
        <time>2018-03-16T02:47:09Z</time>
      </trkpt>
      <trkpt lat="46.76259" lon="-1.7556">
        <ele>44</ele>
        <time>2018-03-16T02:48:09Z</time>
      </trkpt>
      <trkpt lat="46.76274" lon="-1.75565">
        <ele>45</ele>
        <time>2018-03-16T02:49:09Z</time>
      </trkpt>
      <trkpt lat="46.7629" lon="-1.7557">
        <ele>45</ele>
        <time>2018-03-16T02:50:09Z</time>
      </trkpt>
      <trkpt lat="46.76303" lon="-1.75574">
        <ele>46</ele>
        <time>2018-03-16T02:51:09Z</time>
      </trkpt>
      <trkpt lat="46.76319" lon="-1.75581">
        <ele>47</ele>
        <time>2018-03-16T02:52:09Z</time>
      </trkpt>
      <trkpt lat="46.76334" lon="-1.75589">
        <ele>47</ele>
        <time>2018-03-16T02:53:09Z</time>
      </trkpt>
      <trkpt lat="46.76355" lon="-1.75601">
        <ele>48</ele>
        <time>2018-03-16T02:54:09Z</time>
      </trkpt>
      <trkpt lat="46.76392" lon="-1.75623">
        <ele>49</ele>
        <time>2018-03-16T02:55:09Z</time>
      </trkpt>
      <trkpt lat="46.76414" lon="-1.75636">
        <ele>50</ele>
        <time>2018-03-16T02:56:09Z</time>
      </trkpt>
      <trkpt lat="46.76426" lon="-1.75646">
        <ele>51</ele>
        <time>2018-03-16T02:57:09Z</time>
      </trkpt>
      <trkpt lat="46.76433" lon="-1.75652">
        <ele>51</ele>
        <time>2018-03-16T02:58:09Z</time>
      </trkpt>
      <trkpt lat="46.76439" lon="-1.75658">
        <ele>51</ele>
        <time>2018-03-16T02:59:09Z</time>
      </trkpt>
      <trkpt lat="46.76445" lon="-1.75666">
        <ele>51</ele>
        <time>2018-03-16T03:00:09Z</time>
      </trkpt>
      <trkpt lat="46.76451" lon="-1.75674">
        <ele>51</ele>
        <time>2018-03-16T03:01:09Z</time>
      </trkpt>
      <trkpt lat="46.76456" lon="-1.75683">
        <ele>51</ele>
        <time>2018-03-16T03:02:09Z</time>
      </trkpt>
      <trkpt lat="46.76461" lon="-1.75693">
        <ele>51</ele>
        <time>2018-03-16T03:03:09Z</time>
      </trkpt>
      <trkpt lat="46.76466" lon="-1.75703">
        <ele>51</ele>
        <time>2018-03-16T03:04:09Z</time>
      </trkpt>
      <trkpt lat="46.7648" lon="-1.75732">
        <ele>52</ele>
        <time>2018-03-16T03:05:09Z</time>
      </trkpt>
      <trkpt lat="46.76506" lon="-1.7579">
        <ele>51</ele>
        <time>2018-03-16T03:06:09Z</time>
      </trkpt>
      <trkpt lat="46.76534" lon="-1.75852">
        <ele>50</ele>
        <time>2018-03-16T03:07:09Z</time>
      </trkpt>
      <trkpt lat="46.76583" lon="-1.75965">
        <ele>52</ele>
        <time>2018-03-16T03:08:09Z</time>
      </trkpt>
      <trkpt lat="46.76599" lon="-1.76004">
        <ele>52</ele>
        <time>2018-03-16T03:09:09Z</time>
      </trkpt>
      <trkpt lat="46.76632" lon="-1.76078">
        <ele>53</ele>
        <time>2018-03-16T03:10:09Z</time>
      </trkpt>
      <trkpt lat="46.7667" lon="-1.76164">
        <ele>55</ele>
        <time>2018-03-16T03:11:09Z</time>
      </trkpt>
      <trkpt lat="46.76686" lon="-1.76202">
        <ele>55</ele>
        <time>2018-03-16T03:12:09Z</time>
      </trkpt>
      <trkpt lat="46.76705" lon="-1.76244">
        <ele>55</ele>
        <time>2018-03-16T03:13:09Z</time>
      </trkpt>
      <trkpt lat="46.76714" lon="-1.76264">
        <ele>55</ele>
        <time>2018-03-16T03:14:09Z</time>
      </trkpt>
      <trkpt lat="46.76721" lon="-1.76277">
        <ele>55</ele>
        <time>2018-03-16T03:15:09Z</time>
      </trkpt>
      <trkpt lat="46.76727" lon="-1.76287">
        <ele>55</ele>
        <time>2018-03-16T03:16:09Z</time>
      </trkpt>
      <trkpt lat="46.76735" lon="-1.76299">
        <ele>56</ele>
        <time>2018-03-16T03:17:09Z</time>
      </trkpt>
      <trkpt lat="46.76744" lon="-1.76311">
        <ele>56</ele>
        <time>2018-03-16T03:18:09Z</time>
      </trkpt>
      <trkpt lat="46.76751" lon="-1.76319">
        <ele>56</ele>
        <time>2018-03-16T03:19:09Z</time>
      </trkpt>
      <trkpt lat="46.76762" lon="-1.76331">
        <ele>57</ele>
        <time>2018-03-16T03:20:09Z</time>
      </trkpt>
      <trkpt lat="46.768" lon="-1.76363">
        <ele>56</ele>
        <time>2018-03-16T03:21:09Z</time>
      </trkpt>
      <trkpt lat="46.7681" lon="-1.76371">
        <ele>56</ele>
        <time>2018-03-16T03:22:09Z</time>
      </trkpt>
      <trkpt lat="46.76818" lon="-1.76377">
        <ele>56</ele>
        <time>2018-03-16T03:23:09Z</time>
      </trkpt>
      <trkpt lat="46.76834" lon="-1.76388">
        <ele>56</ele>
        <time>2018-03-16T03:24:09Z</time>
      </trkpt>
      <trkpt lat="46.76847" lon="-1.76396">
        <ele>56</ele>
        <time>2018-03-16T03:25:09Z</time>
      </trkpt>
      <trkpt lat="46.76863" lon="-1.76406">
        <ele>56</ele>
        <time>2018-03-16T03:26:09Z</time>
      </trkpt>
      <trkpt lat="46.76883" lon="-1.76416">
        <ele>56</ele>
        <time>2018-03-16T03:27:09Z</time>
      </trkpt>
      <trkpt lat="46.76898" lon="-1.76424">
        <ele>56</ele>
        <time>2018-03-16T03:28:09Z</time>
      </trkpt>
      <trkpt lat="46.76916" lon="-1.76432">
        <ele>56</ele>
        <time>2018-03-16T03:29:09Z</time>
      </trkpt>
      <trkpt lat="46.76946" lon="-1.76446">
        <ele>56</ele>
        <time>2018-03-16T03:30:09Z</time>
      </trkpt>
      <trkpt lat="46.76965" lon="-1.76455">
        <ele>55</ele>
        <time>2018-03-16T03:31:09Z</time>
      </trkpt>
      <trkpt lat="46.76985" lon="-1.76464">
        <ele>55</ele>
        <time>2018-03-16T03:32:09Z</time>
      </trkpt>
      <trkpt lat="46.77023" lon="-1.76482">
        <ele>55</ele>
        <time>2018-03-16T03:33:09Z</time>
      </trkpt>
      <trkpt lat="46.77073" lon="-1.76505">
        <ele>57</ele>
        <time>2018-03-16T03:34:09Z</time>
      </trkpt>
      <trkpt lat="46.77155" lon="-1.76543">
        <ele>57</ele>
        <time>2018-03-16T03:35:09Z</time>
      </trkpt>
      <trkpt lat="46.7723" lon="-1.76577">
        <ele>55</ele>
        <time>2018-03-16T03:36:09Z</time>
      </trkpt>
      <trkpt lat="46.7729" lon="-1.76605">
        <ele>55</ele>
        <time>2018-03-16T03:37:09Z</time>
      </trkpt>
      <trkpt lat="46.77342" lon="-1.76629">
        <ele>54</ele>
        <time>2018-03-16T03:38:09Z</time>
      </trkpt>
      <trkpt lat="46.7738" lon="-1.76645">
        <ele>55</ele>
        <time>2018-03-16T03:39:09Z</time>
      </trkpt>
      <trkpt lat="46.774" lon="-1.76653">
        <ele>55</ele>
        <time>2018-03-16T03:40:09Z</time>
      </trkpt>
      <trkpt lat="46.77411" lon="-1.76656">
        <ele>55</ele>
        <time>2018-03-16T03:41:09Z</time>
      </trkpt>
      <trkpt lat="46.77432" lon="-1.76663">
        <ele>55</ele>
        <time>2018-03-16T03:42:09Z</time>
      </trkpt>
      <trkpt lat="46.77448" lon="-1.76667">
        <ele>55</ele>
        <time>2018-03-16T03:43:09Z</time>
      </trkpt>
      <trkpt lat="46.77473" lon="-1.76674">
        <ele>54</ele>
        <time>2018-03-16T03:44:09Z</time>
      </trkpt>
      <trkpt lat="46.77516" lon="-1.76685">
        <ele>54</ele>
        <time>2018-03-16T03:45:09Z</time>
      </trkpt>
      <trkpt lat="46.77517" lon="-1.76685">
        <ele>54</ele>
        <time>2018-03-16T03:46:09Z</time>
      </trkpt>
      <trkpt lat="46.77563" lon="-1.76695">
        <ele>52</ele>
        <time>2018-03-16T03:47:09Z</time>
      </trkpt>
      <trkpt lat="46.77605" lon="-1.76705">
        <ele>52</ele>
        <time>2018-03-16T03:48:09Z</time>
      </trkpt>
      <trkpt lat="46.77626" lon="-1.7671">
        <ele>53</ele>
        <time>2018-03-16T03:49:09Z</time>
      </trkpt>
      <trkpt lat="46.77653" lon="-1.76716">
        <ele>53</ele>
        <time>2018-03-16T03:50:09Z</time>
      </trkpt>
      <trkpt lat="46.77665" lon="-1.76719">
        <ele>53</ele>
        <time>2018-03-16T03:51:09Z</time>
      </trkpt>
      <trkpt lat="46.77712" lon="-1.7673">
        <ele>52</ele>
        <time>2018-03-16T03:52:09Z</time>
      </trkpt>
      <trkpt lat="46.77748" lon="-1.76739">
        <ele>51</ele>
        <time>2018-03-16T03:53:09Z</time>
      </trkpt>
      <trkpt lat="46.77777" lon="-1.76746">
        <ele>51</ele>
        <time>2018-03-16T03:54:09Z</time>
      </trkpt>
      <trkpt lat="46.7789" lon="-1.76771">
        <ele>51</ele>
        <time>2018-03-16T03:55:09Z</time>
      </trkpt>
      <trkpt lat="46.77903" lon="-1.76774">
        <ele>51</ele>
        <time>2018-03-16T03:56:09Z</time>
      </trkpt>
      <trkpt lat="46.7792" lon="-1.7678">
        <ele>51</ele>
        <time>2018-03-16T03:57:09Z</time>
      </trkpt>
      <trkpt lat="46.77935" lon="-1.76785">
        <ele>50</ele>
        <time>2018-03-16T03:58:09Z</time>
      </trkpt>
      <trkpt lat="46.77941" lon="-1.76788">
        <ele>50</ele>
        <time>2018-03-16T03:59:09Z</time>
      </trkpt>
      <trkpt lat="46.77954" lon="-1.76794">
        <ele>50</ele>
        <time>2018-03-16T04:00:09Z</time>
      </trkpt>
      <trkpt lat="46.77967" lon="-1.76801">
        <ele>50</ele>
        <time>2018-03-16T04:01:09Z</time>
      </trkpt>
      <trkpt lat="46.77985" lon="-1.76813">
        <ele>49</ele>
        <time>2018-03-16T04:02:09Z</time>
      </trkpt>
      <trkpt lat="46.77994" lon="-1.76818">
        <ele>49</ele>
        <time>2018-03-16T04:03:09Z</time>
      </trkpt>
      <trkpt lat="46.78013" lon="-1.76831">
        <ele>49</ele>
        <time>2018-03-16T04:04:09Z</time>
      </trkpt>
      <trkpt lat="46.7804" lon="-1.76853">
        <ele>49</ele>
        <time>2018-03-16T04:05:09Z</time>
      </trkpt>
      <trkpt lat="46.78062" lon="-1.76873">
        <ele>49</ele>
        <time>2018-03-16T04:06:09Z</time>
      </trkpt>
      <trkpt lat="46.78063" lon="-1.76874">
        <ele>49</ele>
        <time>2018-03-16T04:07:09Z</time>
      </trkpt>
      <trkpt lat="46.78093" lon="-1.76905">
        <ele>48</ele>
        <time>2018-03-16T04:08:09Z</time>
      </trkpt>
      <trkpt lat="46.78114" lon="-1.76927">
        <ele>47</ele>
        <time>2018-03-16T04:09:09Z</time>
      </trkpt>
      <trkpt lat="46.78136" lon="-1.76951">
        <ele>47</ele>
        <time>2018-03-16T04:10:09Z</time>
      </trkpt>
      <trkpt lat="46.7814" lon="-1.76955">
        <ele>46</ele>
        <time>2018-03-16T04:11:09Z</time>
      </trkpt>
      <trkpt lat="46.78183" lon="-1.77">
        <ele>46</ele>
        <time>2018-03-16T04:12:09Z</time>
      </trkpt>
      <trkpt lat="46.78197" lon="-1.77015">
        <ele>47</ele>
        <time>2018-03-16T04:13:09Z</time>
      </trkpt>
      <trkpt lat="46.78201" lon="-1.77019">
        <ele>47</ele>
        <time>2018-03-16T04:14:09Z</time>
      </trkpt>
      <trkpt lat="46.78245" lon="-1.77068">
        <ele>48</ele>
        <time>2018-03-16T04:15:09Z</time>
      </trkpt>
      <trkpt lat="46.78285" lon="-1.7711">
        <ele>47</ele>
        <time>2018-03-16T04:16:09Z</time>
      </trkpt>
      <trkpt lat="46.78318" lon="-1.77147">
        <ele>47</ele>
        <time>2018-03-16T04:17:09Z</time>
      </trkpt>
      <trkpt lat="46.78349" lon="-1.7718">
        <ele>47</ele>
        <time>2018-03-16T04:18:09Z</time>
      </trkpt>
      <trkpt lat="46.78394" lon="-1.77229">
        <ele>47</ele>
        <time>2018-03-16T04:19:09Z</time>
      </trkpt>
      <trkpt lat="46.78426" lon="-1.77263">
        <ele>47</ele>
        <time>2018-03-16T04:20:09Z</time>
      </trkpt>
      <trkpt lat="46.78455" lon="-1.77293">
        <ele>47</ele>
        <time>2018-03-16T04:21:09Z</time>
      </trkpt>
      <trkpt lat="46.78502" lon="-1.77343">
        <ele>47</ele>
        <time>2018-03-16T04:22:09Z</time>
      </trkpt>
      <trkpt lat="46.78544" lon="-1.77388">
        <ele>46</ele>
        <time>2018-03-16T04:23:09Z</time>
      </trkpt>
      <trkpt lat="46.78587" lon="-1.77433">
        <ele>46</ele>
        <time>2018-03-16T04:24:09Z</time>
      </trkpt>
      <trkpt lat="46.78624" lon="-1.77475">
        <ele>45</ele>
        <time>2018-03-16T04:25:09Z</time>
      </trkpt>
      <trkpt lat="46.78672" lon="-1.77529">
        <ele>45</ele>
        <time>2018-03-16T04:26:09Z</time>
      </trkpt>
      <trkpt lat="46.78756" lon="-1.77629">
        <ele>44</ele>
        <time>2018-03-16T04:27:09Z</time>
      </trkpt>
      <trkpt lat="46.78793" lon="-1.77674">
        <ele>43</ele>
        <time>2018-03-16T04:28:09Z</time>
      </trkpt>
      <trkpt lat="46.78932" lon="-1.77853">
        <ele>40</ele>
        <time>2018-03-16T04:29:09Z</time>
      </trkpt>
      <trkpt lat="46.78986" lon="-1.77922">
        <ele>39</ele>
        <time>2018-03-16T04:30:09Z</time>
      </trkpt>
      <trkpt lat="46.79057" lon="-1.78013">
        <ele>37</ele>
        <time>2018-03-16T04:31:09Z</time>
      </trkpt>
      <trkpt lat="46.7913" lon="-1.78108">
        <ele>35</ele>
        <time>2018-03-16T04:32:09Z</time>
      </trkpt>
      <trkpt lat="46.7916" lon="-1.78145">
        <ele>35</ele>
        <time>2018-03-16T04:33:09Z</time>
      </trkpt>
      <trkpt lat="46.7917" lon="-1.78159">
        <ele>35</ele>
        <time>2018-03-16T04:34:09Z</time>
      </trkpt>
      <trkpt lat="46.79189" lon="-1.78184">
        <ele>35</ele>
        <time>2018-03-16T04:35:09Z</time>
      </trkpt>
      <trkpt lat="46.79212" lon="-1.78213">
        <ele>35</ele>
        <time>2018-03-16T04:36:09Z</time>
      </trkpt>
      <trkpt lat="46.79234" lon="-1.78241">
        <ele>35</ele>
        <time>2018-03-16T04:37:09Z</time>
      </trkpt>
      <trkpt lat="46.79264" lon="-1.7828">
        <ele>35</ele>
        <time>2018-03-16T04:38:09Z</time>
      </trkpt>
      <trkpt lat="46.79317" lon="-1.78348">
        <ele>35</ele>
        <time>2018-03-16T04:39:09Z</time>
      </trkpt>
      <trkpt lat="46.79375" lon="-1.78424">
        <ele>32</ele>
        <time>2018-03-16T04:40:09Z</time>
      </trkpt>
      <trkpt lat="46.79418" lon="-1.7848">
        <ele>32</ele>
        <time>2018-03-16T04:41:09Z</time>
      </trkpt>
      <trkpt lat="46.79454" lon="-1.78527">
        <ele>32</ele>
        <time>2018-03-16T04:42:09Z</time>
      </trkpt>
      <trkpt lat="46.79491" lon="-1.78575">
        <ele>31</ele>
        <time>2018-03-16T04:43:09Z</time>
      </trkpt>
      <trkpt lat="46.79524" lon="-1.78618">
        <ele>31</ele>
        <time>2018-03-16T04:44:09Z</time>
      </trkpt>
      <trkpt lat="46.79561" lon="-1.78666">
        <ele>30</ele>
        <time>2018-03-16T04:45:09Z</time>
      </trkpt>
      <trkpt lat="46.79613" lon="-1.78734">
        <ele>29</ele>
        <time>2018-03-16T04:46:09Z</time>
      </trkpt>
      <trkpt lat="46.79691" lon="-1.78837">
        <ele>29</ele>
        <time>2018-03-16T04:47:09Z</time>
      </trkpt>
      <trkpt lat="46.79692" lon="-1.78838">
        <ele>29</ele>
        <time>2018-03-16T04:48:09Z</time>
      </trkpt>
      <trkpt lat="46.79772" lon="-1.7894">
        <ele>30</ele>
        <time>2018-03-16T04:49:09Z</time>
      </trkpt>
      <trkpt lat="46.79804" lon="-1.78983">
        <ele>29</ele>
        <time>2018-03-16T04:50:09Z</time>
      </trkpt>
      <trkpt lat="46.7981" lon="-1.78991">
        <ele>29</ele>
        <time>2018-03-16T04:51:09Z</time>
      </trkpt>
      <trkpt lat="46.79864" lon="-1.79063">
        <ele>28</ele>
        <time>2018-03-16T04:52:09Z</time>
      </trkpt>
      <trkpt lat="46.79919" lon="-1.79138">
        <ele>28</ele>
        <time>2018-03-16T04:53:09Z</time>
      </trkpt>
      <trkpt lat="46.7994" lon="-1.79166">
        <ele>27</ele>
        <time>2018-03-16T04:54:09Z</time>
      </trkpt>
      <trkpt lat="46.79955" lon="-1.79184">
        <ele>27</ele>
        <time>2018-03-16T04:55:09Z</time>
      </trkpt>
      <trkpt lat="46.79955" lon="-1.79184">
        <ele>27</ele>
        <time>2018-03-16T04:56:09Z</time>
      </trkpt>
      <trkpt lat="46.79962" lon="-1.7919">
        <ele>27</ele>
        <time>2018-03-16T04:57:09Z</time>
      </trkpt>
      <trkpt lat="46.79966" lon="-1.79193">
        <ele>27</ele>
        <time>2018-03-16T04:58:09Z</time>
      </trkpt>
      <trkpt lat="46.79969" lon="-1.79197">
        <ele>27</ele>
        <time>2018-03-16T04:59:09Z</time>
      </trkpt>
      <trkpt lat="46.79972" lon="-1.79201">
        <ele>27</ele>
        <time>2018-03-16T05:00:09Z</time>
      </trkpt>
      <trkpt lat="46.79978" lon="-1.7921">
        <ele>26</ele>
        <time>2018-03-16T05:01:09Z</time>
      </trkpt>
      <trkpt lat="46.79987" lon="-1.79223">
        <ele>26</ele>
        <time>2018-03-16T05:02:09Z</time>
      </trkpt>
      <trkpt lat="46.79989" lon="-1.79226">
        <ele>26</ele>
        <time>2018-03-16T05:03:09Z</time>
      </trkpt>
      <trkpt lat="46.80025" lon="-1.79277">
        <ele>25</ele>
        <time>2018-03-16T05:04:09Z</time>
      </trkpt>
      <trkpt lat="46.80066" lon="-1.79337">
        <ele>24</ele>
        <time>2018-03-16T05:05:09Z</time>
      </trkpt>
      <trkpt lat="46.80112" lon="-1.79405">
        <ele>24</ele>
        <time>2018-03-16T05:06:09Z</time>
      </trkpt>
      <trkpt lat="46.80155" lon="-1.79467">
        <ele>25</ele>
        <time>2018-03-16T05:07:09Z</time>
      </trkpt>
      <trkpt lat="46.80201" lon="-1.79534">
        <ele>25</ele>
        <time>2018-03-16T05:08:09Z</time>
      </trkpt>
      <trkpt lat="46.80232" lon="-1.79579">
        <ele>25</ele>
        <time>2018-03-16T05:09:09Z</time>
      </trkpt>
      <trkpt lat="46.80236" lon="-1.79585">
        <ele>25</ele>
        <time>2018-03-16T05:10:09Z</time>
      </trkpt>
      <trkpt lat="46.80242" lon="-1.79593">
        <ele>25</ele>
        <time>2018-03-16T05:11:09Z</time>
      </trkpt>
      <trkpt lat="46.80249" lon="-1.79604">
        <ele>25</ele>
        <time>2018-03-16T05:12:09Z</time>
      </trkpt>
      <trkpt lat="46.80256" lon="-1.79614">
        <ele>25</ele>
        <time>2018-03-16T05:13:09Z</time>
      </trkpt>
      <trkpt lat="46.80262" lon="-1.79623">
        <ele>25</ele>
        <time>2018-03-16T05:14:09Z</time>
      </trkpt>
      <trkpt lat="46.80274" lon="-1.7964">
        <ele>25</ele>
        <time>2018-03-16T05:15:09Z</time>
      </trkpt>
      <trkpt lat="46.80291" lon="-1.79665">
        <ele>25</ele>
        <time>2018-03-16T05:16:09Z</time>
      </trkpt>
      <trkpt lat="46.80322" lon="-1.7971">
        <ele>24</ele>
        <time>2018-03-16T05:17:09Z</time>
      </trkpt>
      <trkpt lat="46.80347" lon="-1.79747">
        <ele>24</ele>
        <time>2018-03-16T05:18:09Z</time>
      </trkpt>
      <trkpt lat="46.80358" lon="-1.79764">
        <ele>23</ele>
        <time>2018-03-16T05:19:09Z</time>
      </trkpt>
      <trkpt lat="46.80391" lon="-1.79812">
        <ele>20</ele>
        <time>2018-03-16T05:20:09Z</time>
      </trkpt>
      <trkpt lat="46.80415" lon="-1.79847">
        <ele>19</ele>
        <time>2018-03-16T05:21:09Z</time>
      </trkpt>
      <trkpt lat="46.80431" lon="-1.7987">
        <ele>19</ele>
        <time>2018-03-16T05:22:09Z</time>
      </trkpt>
      <trkpt lat="46.80432" lon="-1.79871">
        <ele>19</ele>
        <time>2018-03-16T05:23:09Z</time>
      </trkpt>
      <trkpt lat="46.80442" lon="-1.79886">
        <ele>19</ele>
        <time>2018-03-16T05:24:09Z</time>
      </trkpt>
      <trkpt lat="46.80455" lon="-1.79905">
        <ele>19</ele>
        <time>2018-03-16T05:25:09Z</time>
      </trkpt>
      <trkpt lat="46.80492" lon="-1.79959">
        <ele>20</ele>
        <time>2018-03-16T05:26:09Z</time>
      </trkpt>
      <trkpt lat="46.80516" lon="-1.79995">
        <ele>21</ele>
        <time>2018-03-16T05:27:09Z</time>
      </trkpt>
      <trkpt lat="46.80523" lon="-1.80004">
        <ele>21</ele>
        <time>2018-03-16T05:28:09Z</time>
      </trkpt>
      <trkpt lat="46.80523" lon="-1.80004">
        <ele>21</ele>
        <time>2018-03-16T05:29:09Z</time>
      </trkpt>
      <trkpt lat="46.80537" lon="-1.80024">
        <ele>21</ele>
        <time>2018-03-16T05:30:09Z</time>
      </trkpt>
      <trkpt lat="46.80561" lon="-1.80059">
        <ele>22</ele>
        <time>2018-03-16T05:31:09Z</time>
      </trkpt>
      <trkpt lat="46.80612" lon="-1.80133">
        <ele>23</ele>
        <time>2018-03-16T05:32:09Z</time>
      </trkpt>
      <trkpt lat="46.80648" lon="-1.80186">
        <ele>24</ele>
        <time>2018-03-16T05:33:09Z</time>
      </trkpt>
      <trkpt lat="46.8067" lon="-1.80216">
        <ele>25</ele>
        <time>2018-03-16T05:34:09Z</time>
      </trkpt>
      <trkpt lat="46.80679" lon="-1.80231">
        <ele>25</ele>
        <time>2018-03-16T05:35:09Z</time>
      </trkpt>
      <trkpt lat="46.80698" lon="-1.80258">
        <ele>25</ele>
        <time>2018-03-16T05:36:09Z</time>
      </trkpt>
      <trkpt lat="46.80718" lon="-1.80287">
        <ele>25</ele>
        <time>2018-03-16T05:37:09Z</time>
      </trkpt>
      <trkpt lat="46.80762" lon="-1.80347">
        <ele>24</ele>
        <time>2018-03-16T05:38:09Z</time>
      </trkpt>
      <trkpt lat="46.80795" lon="-1.80396">
        <ele>25</ele>
        <time>2018-03-16T05:39:09Z</time>
      </trkpt>
      <trkpt lat="46.80828" lon="-1.80444">
        <ele>25</ele>
        <time>2018-03-16T05:40:09Z</time>
      </trkpt>
      <trkpt lat="46.80854" lon="-1.80483">
        <ele>25</ele>
        <time>2018-03-16T05:41:09Z</time>
      </trkpt>
      <trkpt lat="46.80881" lon="-1.80521">
        <ele>26</ele>
        <time>2018-03-16T05:42:09Z</time>
      </trkpt>
      <trkpt lat="46.80908" lon="-1.8056">
        <ele>27</ele>
        <time>2018-03-16T05:43:09Z</time>
      </trkpt>
      <trkpt lat="46.80939" lon="-1.80604">
        <ele>28</ele>
        <time>2018-03-16T05:44:09Z</time>
      </trkpt>
      <trkpt lat="46.80964" lon="-1.80641">
        <ele>29</ele>
        <time>2018-03-16T05:45:09Z</time>
      </trkpt>
      <trkpt lat="46.81" lon="-1.80693">
        <ele>30</ele>
        <time>2018-03-16T05:46:09Z</time>
      </trkpt>
      <trkpt lat="46.81031" lon="-1.80737">
        <ele>32</ele>
        <time>2018-03-16T05:47:09Z</time>
      </trkpt>
      <trkpt lat="46.81058" lon="-1.80776">
        <ele>33</ele>
        <time>2018-03-16T05:48:09Z</time>
      </trkpt>
      <trkpt lat="46.81088" lon="-1.80818">
        <ele>35</ele>
        <time>2018-03-16T05:49:09Z</time>
      </trkpt>
      <trkpt lat="46.81114" lon="-1.80855">
        <ele>35</ele>
        <time>2018-03-16T05:50:09Z</time>
      </trkpt>
      <trkpt lat="46.81134" lon="-1.80885">
        <ele>35</ele>
        <time>2018-03-16T05:51:09Z</time>
      </trkpt>
      <trkpt lat="46.81149" lon="-1.80907">
        <ele>36</ele>
        <time>2018-03-16T05:52:09Z</time>
      </trkpt>
      <trkpt lat="46.81157" lon="-1.80919">
        <ele>36</ele>
        <time>2018-03-16T05:53:09Z</time>
      </trkpt>
      <trkpt lat="46.81163" lon="-1.80928">
        <ele>36</ele>
        <time>2018-03-16T05:54:09Z</time>
      </trkpt>
      <trkpt lat="46.81186" lon="-1.80959">
        <ele>36</ele>
        <time>2018-03-16T05:55:09Z</time>
      </trkpt>
      <trkpt lat="46.81195" lon="-1.80973">
        <ele>36</ele>
        <time>2018-03-16T05:56:09Z</time>
      </trkpt>
      <trkpt lat="46.81213" lon="-1.81">
        <ele>36</ele>
        <time>2018-03-16T05:57:09Z</time>
      </trkpt>
      <trkpt lat="46.81223" lon="-1.81017">
        <ele>36</ele>
        <time>2018-03-16T05:58:09Z</time>
      </trkpt>
      <trkpt lat="46.81237" lon="-1.81041">
        <ele>35</ele>
        <time>2018-03-16T05:59:09Z</time>
      </trkpt>
      <trkpt lat="46.81239" lon="-1.81045">
        <ele>35</ele>
        <time>2018-03-16T06:00:09Z</time>
      </trkpt>
      <trkpt lat="46.81258" lon="-1.81083">
        <ele>35</ele>
        <time>2018-03-16T06:01:09Z</time>
      </trkpt>
      <trkpt lat="46.81283" lon="-1.81131">
        <ele>36</ele>
        <time>2018-03-16T06:02:09Z</time>
      </trkpt>
      <trkpt lat="46.81302" lon="-1.8117">
        <ele>36</ele>
        <time>2018-03-16T06:03:09Z</time>
      </trkpt>
      <trkpt lat="46.81309" lon="-1.81184">
        <ele>35</ele>
        <time>2018-03-16T06:04:09Z</time>
      </trkpt>
      <trkpt lat="46.81309" lon="-1.81184">
        <ele>35</ele>
        <time>2018-03-16T06:05:09Z</time>
      </trkpt>
      <trkpt lat="46.81316" lon="-1.81197">
        <ele>35</ele>
        <time>2018-03-16T06:06:09Z</time>
      </trkpt>
      <trkpt lat="46.81314" lon="-1.81203">
        <ele>35</ele>
        <time>2018-03-16T06:07:09Z</time>
      </trkpt>
      <trkpt lat="46.81312" lon="-1.81211">
        <ele>35</ele>
        <time>2018-03-16T06:08:09Z</time>
      </trkpt>
      <trkpt lat="46.8131" lon="-1.81241">
        <ele>35</ele>
        <time>2018-03-16T06:09:09Z</time>
      </trkpt>
      <trkpt lat="46.81308" lon="-1.81332">
        <ele>35</ele>
        <time>2018-03-16T06:10:09Z</time>
      </trkpt>
      <trkpt lat="46.81308" lon="-1.8134">
        <ele>35</ele>
        <time>2018-03-16T06:11:09Z</time>
      </trkpt>
      <trkpt lat="46.81305" lon="-1.81368">
        <ele>35</ele>
        <time>2018-03-16T06:12:09Z</time>
      </trkpt>
      <trkpt lat="46.81304" lon="-1.81408">
        <ele>34</ele>
        <time>2018-03-16T06:13:09Z</time>
      </trkpt>
      <trkpt lat="46.81299" lon="-1.81485">
        <ele>34</ele>
        <time>2018-03-16T06:14:09Z</time>
      </trkpt>
      <trkpt lat="46.81289" lon="-1.81658">
        <ele>36</ele>
        <time>2018-03-16T06:15:09Z</time>
      </trkpt>
      <trkpt lat="46.81281" lon="-1.81787">
        <ele>38</ele>
        <time>2018-03-16T06:16:09Z</time>
      </trkpt>
      <trkpt lat="46.81277" lon="-1.81866">
        <ele>36</ele>
        <time>2018-03-16T06:17:09Z</time>
      </trkpt>
      <trkpt lat="46.81275" lon="-1.81901">
        <ele>36</ele>
        <time>2018-03-16T06:18:09Z</time>
      </trkpt>
      <trkpt lat="46.81274" lon="-1.81922">
        <ele>35</ele>
        <time>2018-03-16T06:19:09Z</time>
      </trkpt>
      <trkpt lat="46.81274" lon="-1.81938">
        <ele>35</ele>
        <time>2018-03-16T06:20:09Z</time>
      </trkpt>
      <trkpt lat="46.81274" lon="-1.81951">
        <ele>35</ele>
        <time>2018-03-16T06:21:09Z</time>
      </trkpt>
      <trkpt lat="46.81275" lon="-1.81963">
        <ele>35</ele>
        <time>2018-03-16T06:22:09Z</time>
      </trkpt>
      <trkpt lat="46.81276" lon="-1.81973">
        <ele>35</ele>
        <time>2018-03-16T06:23:09Z</time>
      </trkpt>
      <trkpt lat="46.8128" lon="-1.82002">
        <ele>35</ele>
        <time>2018-03-16T06:24:09Z</time>
      </trkpt>
      <trkpt lat="46.81288" lon="-1.82045">
        <ele>34</ele>
        <time>2018-03-16T06:25:09Z</time>
      </trkpt>
      <trkpt lat="46.81303" lon="-1.82121">
        <ele>34</ele>
        <time>2018-03-16T06:26:09Z</time>
      </trkpt>
      <trkpt lat="46.81316" lon="-1.82198">
        <ele>34</ele>
        <time>2018-03-16T06:27:09Z</time>
      </trkpt>
      <trkpt lat="46.81319" lon="-1.82215">
        <ele>34</ele>
        <time>2018-03-16T06:28:09Z</time>
      </trkpt>
      <trkpt lat="46.8132" lon="-1.82225">
        <ele>34</ele>
        <time>2018-03-16T06:29:09Z</time>
      </trkpt>
      <trkpt lat="46.81321" lon="-1.82234">
        <ele>34</ele>
        <time>2018-03-16T06:30:09Z</time>
      </trkpt>
      <trkpt lat="46.81323" lon="-1.82249">
        <ele>34</ele>
        <time>2018-03-16T06:31:09Z</time>
      </trkpt>
      <trkpt lat="46.81325" lon="-1.82282">
        <ele>34</ele>
        <time>2018-03-16T06:32:09Z</time>
      </trkpt>
      <trkpt lat="46.81328" lon="-1.82346">
        <ele>33</ele>
        <time>2018-03-16T06:33:09Z</time>
      </trkpt>
      <trkpt lat="46.81328" lon="-1.82367">
        <ele>33</ele>
        <time>2018-03-16T06:34:09Z</time>
      </trkpt>
      <trkpt lat="46.81328" lon="-1.82381">
        <ele>32</ele>
        <time>2018-03-16T06:35:09Z</time>
      </trkpt>
      <trkpt lat="46.81326" lon="-1.82397">
        <ele>32</ele>
        <time>2018-03-16T06:36:09Z</time>
      </trkpt>
      <trkpt lat="46.8132" lon="-1.82433">
        <ele>32</ele>
        <time>2018-03-16T06:37:09Z</time>
      </trkpt>
      <trkpt lat="46.81308" lon="-1.82482">
        <ele>32</ele>
        <time>2018-03-16T06:38:09Z</time>
      </trkpt>
      <trkpt lat="46.81301" lon="-1.82516">
        <ele>32</ele>
        <time>2018-03-16T06:39:09Z</time>
      </trkpt>
      <trkpt lat="46.81294" lon="-1.82557">
        <ele>32</ele>
        <time>2018-03-16T06:40:09Z</time>
      </trkpt>
      <trkpt lat="46.81288" lon="-1.82587">
        <ele>32</ele>
        <time>2018-03-16T06:41:09Z</time>
      </trkpt>
      <trkpt lat="46.81282" lon="-1.82624">
        <ele>31</ele>
        <time>2018-03-16T06:42:09Z</time>
      </trkpt>
      <trkpt lat="46.81279" lon="-1.82645">
        <ele>31</ele>
        <time>2018-03-16T06:43:09Z</time>
      </trkpt>
      <trkpt lat="46.81277" lon="-1.82662">
        <ele>31</ele>
        <time>2018-03-16T06:44:09Z</time>
      </trkpt>
      <trkpt lat="46.81276" lon="-1.8268">
        <ele>31</ele>
        <time>2018-03-16T06:45:09Z</time>
      </trkpt>
      <trkpt lat="46.81275" lon="-1.82698">
        <ele>31</ele>
        <time>2018-03-16T06:46:09Z</time>
      </trkpt>
      <trkpt lat="46.81275" lon="-1.82714">
        <ele>31</ele>
        <time>2018-03-16T06:47:09Z</time>
      </trkpt>
      <trkpt lat="46.81277" lon="-1.82733">
        <ele>31</ele>
        <time>2018-03-16T06:48:09Z</time>
      </trkpt>
      <trkpt lat="46.81278" lon="-1.82742">
        <ele>31</ele>
        <time>2018-03-16T06:49:09Z</time>
      </trkpt>
      <trkpt lat="46.81281" lon="-1.82781">
        <ele>30</ele>
        <time>2018-03-16T06:50:09Z</time>
      </trkpt>
      <trkpt lat="46.81281" lon="-1.82801">
        <ele>30</ele>
        <time>2018-03-16T06:51:09Z</time>
      </trkpt>
      <trkpt lat="46.81281" lon="-1.82817">
        <ele>30</ele>
        <time>2018-03-16T06:52:09Z</time>
      </trkpt>
      <trkpt lat="46.81281" lon="-1.82833">
        <ele>30</ele>
        <time>2018-03-16T06:53:09Z</time>
      </trkpt>
      <trkpt lat="46.81279" lon="-1.82854">
        <ele>30</ele>
        <time>2018-03-16T06:54:09Z</time>
      </trkpt>
      <trkpt lat="46.81278" lon="-1.82864">
        <ele>30</ele>
        <time>2018-03-16T06:55:09Z</time>
      </trkpt>
      <trkpt lat="46.81267" lon="-1.82937">
        <ele>30</ele>
        <time>2018-03-16T06:56:09Z</time>
      </trkpt>
      <trkpt lat="46.81259" lon="-1.82985">
        <ele>29</ele>
        <time>2018-03-16T06:57:09Z</time>
      </trkpt>
      <trkpt lat="46.81253" lon="-1.83021">
        <ele>29</ele>
        <time>2018-03-16T06:58:09Z</time>
      </trkpt>
      <trkpt lat="46.81248" lon="-1.83042">
        <ele>28</ele>
        <time>2018-03-16T06:59:09Z</time>
      </trkpt>
      <trkpt lat="46.81243" lon="-1.83066">
        <ele>28</ele>
        <time>2018-03-16T07:00:09Z</time>
      </trkpt>
      <trkpt lat="46.81227" lon="-1.83132">
        <ele>28</ele>
        <time>2018-03-16T07:01:09Z</time>
      </trkpt>
      <trkpt lat="46.81226" lon="-1.83139">
        <ele>28</ele>
        <time>2018-03-16T07:02:09Z</time>
      </trkpt>
      <trkpt lat="46.81213" lon="-1.83198">
        <ele>28</ele>
        <time>2018-03-16T07:03:09Z</time>
      </trkpt>
      <trkpt lat="46.81212" lon="-1.832">
        <ele>28</ele>
        <time>2018-03-16T07:04:09Z</time>
      </trkpt>
      <trkpt lat="46.81204" lon="-1.83237">
        <ele>28</ele>
        <time>2018-03-16T07:05:09Z</time>
      </trkpt>
      <trkpt lat="46.81194" lon="-1.83284">
        <ele>28</ele>
        <time>2018-03-16T07:06:09Z</time>
      </trkpt>
      <trkpt lat="46.81191" lon="-1.83298">
        <ele>28</ele>
        <time>2018-03-16T07:07:09Z</time>
      </trkpt>
      <trkpt lat="46.81185" lon="-1.83311">
        <ele>28</ele>
        <time>2018-03-16T07:08:09Z</time>
      </trkpt>
      <trkpt lat="46.81179" lon="-1.83325">
        <ele>28</ele>
        <time>2018-03-16T07:09:09Z</time>
      </trkpt>
      <trkpt lat="46.81175" lon="-1.83332">
        <ele>28</ele>
        <time>2018-03-16T07:10:09Z</time>
      </trkpt>
      <trkpt lat="46.81172" lon="-1.83338">
        <ele>28</ele>
        <time>2018-03-16T07:11:09Z</time>
      </trkpt>
      <trkpt lat="46.81153" lon="-1.83369">
        <ele>28</ele>
        <time>2018-03-16T07:12:09Z</time>
      </trkpt>
      <trkpt lat="46.81148" lon="-1.83377">
        <ele>28</ele>
        <time>2018-03-16T07:13:09Z</time>
      </trkpt>
      <trkpt lat="46.81146" lon="-1.83382">
        <ele>28</ele>
        <time>2018-03-16T07:14:09Z</time>
      </trkpt>
      <trkpt lat="46.81138" lon="-1.83396">
        <ele>27</ele>
        <time>2018-03-16T07:15:09Z</time>
      </trkpt>
      <trkpt lat="46.81132" lon="-1.83407">
        <ele>27</ele>
        <time>2018-03-16T07:16:09Z</time>
      </trkpt>
      <trkpt lat="46.8113" lon="-1.83413">
        <ele>27</ele>
        <time>2018-03-16T07:17:09Z</time>
      </trkpt>
      <trkpt lat="46.81123" lon="-1.83428">
        <ele>27</ele>
        <time>2018-03-16T07:18:09Z</time>
      </trkpt>
      <trkpt lat="46.81115" lon="-1.83452">
        <ele>26</ele>
        <time>2018-03-16T07:19:09Z</time>
      </trkpt>
      <trkpt lat="46.81111" lon="-1.83462">
        <ele>26</ele>
        <time>2018-03-16T07:20:09Z</time>
      </trkpt>
      <trkpt lat="46.8109" lon="-1.83522">
        <ele>23</ele>
        <time>2018-03-16T07:21:09Z</time>
      </trkpt>
      <trkpt lat="46.81068" lon="-1.83586">
        <ele>22</ele>
        <time>2018-03-16T07:22:09Z</time>
      </trkpt>
      <trkpt lat="46.81034" lon="-1.8368">
        <ele>24</ele>
        <time>2018-03-16T07:23:09Z</time>
      </trkpt>
      <trkpt lat="46.81015" lon="-1.83731">
        <ele>24</ele>
        <time>2018-03-16T07:24:09Z</time>
      </trkpt>
      <trkpt lat="46.81004" lon="-1.83767">
        <ele>24</ele>
        <time>2018-03-16T07:25:09Z</time>
      </trkpt>
      <trkpt lat="46.81001" lon="-1.83778">
        <ele>23</ele>
        <time>2018-03-16T07:26:09Z</time>
      </trkpt>
      <trkpt lat="46.80998" lon="-1.8379">
        <ele>23</ele>
        <time>2018-03-16T07:27:09Z</time>
      </trkpt>
      <trkpt lat="46.80988" lon="-1.83838">
        <ele>20</ele>
        <time>2018-03-16T07:28:09Z</time>
      </trkpt>
      <trkpt lat="46.80971" lon="-1.83921">
        <ele>18</ele>
        <time>2018-03-16T07:29:09Z</time>
      </trkpt>
      <trkpt lat="46.80967" lon="-1.83944">
        <ele>18</ele>
        <time>2018-03-16T07:30:09Z</time>
      </trkpt>
      <trkpt lat="46.80945" lon="-1.84056">
        <ele>18</ele>
        <time>2018-03-16T07:31:09Z</time>
      </trkpt>
      <trkpt lat="46.80937" lon="-1.84098">
        <ele>18</ele>
        <time>2018-03-16T07:32:09Z</time>
      </trkpt>
      <trkpt lat="46.80933" lon="-1.84115">
        <ele>18</ele>
        <time>2018-03-16T07:33:09Z</time>
      </trkpt>
      <trkpt lat="46.80928" lon="-1.84136">
        <ele>18</ele>
        <time>2018-03-16T07:34:09Z</time>
      </trkpt>
      <trkpt lat="46.80923" lon="-1.84158">
        <ele>18</ele>
        <time>2018-03-16T07:35:09Z</time>
      </trkpt>
      <trkpt lat="46.80918" lon="-1.84181">
        <ele>18</ele>
        <time>2018-03-16T07:36:09Z</time>
      </trkpt>
      <trkpt lat="46.80914" lon="-1.84196">
        <ele>18</ele>
        <time>2018-03-16T07:37:09Z</time>
      </trkpt>
      <trkpt lat="46.8091" lon="-1.84211">
        <ele>18</ele>
        <time>2018-03-16T07:38:09Z</time>
      </trkpt>
      <trkpt lat="46.80904" lon="-1.84227">
        <ele>18</ele>
        <time>2018-03-16T07:39:09Z</time>
      </trkpt>
      <trkpt lat="46.80893" lon="-1.84256">
        <ele>17</ele>
        <time>2018-03-16T07:40:09Z</time>
      </trkpt>
      <trkpt lat="46.80891" lon="-1.84263">
        <ele>18</ele>
        <time>2018-03-16T07:41:09Z</time>
      </trkpt>
      <trkpt lat="46.80879" lon="-1.84292">
        <ele>18</ele>
        <time>2018-03-16T07:42:09Z</time>
      </trkpt>
      <trkpt lat="46.80866" lon="-1.84325">
        <ele>18</ele>
        <time>2018-03-16T07:43:09Z</time>
      </trkpt>
      <trkpt lat="46.80841" lon="-1.84385">
        <ele>19</ele>
        <time>2018-03-16T07:44:09Z</time>
      </trkpt>
      <trkpt lat="46.80819" lon="-1.84439">
        <ele>18</ele>
        <time>2018-03-16T07:45:09Z</time>
      </trkpt>
      <trkpt lat="46.80804" lon="-1.8448">
        <ele>18</ele>
        <time>2018-03-16T07:46:09Z</time>
      </trkpt>
      <trkpt lat="46.80795" lon="-1.84503">
        <ele>18</ele>
        <time>2018-03-16T07:47:09Z</time>
      </trkpt>
      <trkpt lat="46.80788" lon="-1.84519">
        <ele>17</ele>
        <time>2018-03-16T07:48:09Z</time>
      </trkpt>
      <trkpt lat="46.80783" lon="-1.84535">
        <ele>17</ele>
        <time>2018-03-16T07:49:09Z</time>
      </trkpt>
      <trkpt lat="46.8078" lon="-1.84546">
        <ele>17</ele>
        <time>2018-03-16T07:50:09Z</time>
      </trkpt>
      <trkpt lat="46.8078" lon="-1.84546">
        <ele>17</ele>
        <time>2018-03-16T07:51:09Z</time>
      </trkpt>
      <trkpt lat="46.80776" lon="-1.84565">
        <ele>17</ele>
        <time>2018-03-16T07:52:09Z</time>
      </trkpt>
      <trkpt lat="46.80775" lon="-1.84574">
        <ele>16</ele>
        <time>2018-03-16T07:53:09Z</time>
      </trkpt>
      <trkpt lat="46.80773" lon="-1.84589">
        <ele>16</ele>
        <time>2018-03-16T07:54:09Z</time>
      </trkpt>
      <trkpt lat="46.8077" lon="-1.84641">
        <ele>15</ele>
        <time>2018-03-16T07:55:09Z</time>
      </trkpt>
      <trkpt lat="46.80765" lon="-1.84701">
        <ele>16</ele>
        <time>2018-03-16T07:56:09Z</time>
      </trkpt>
      <trkpt lat="46.80762" lon="-1.84757">
        <ele>19</ele>
        <time>2018-03-16T07:57:09Z</time>
      </trkpt>
      <trkpt lat="46.80759" lon="-1.84802">
        <ele>19</ele>
        <time>2018-03-16T07:58:09Z</time>
      </trkpt>
      <trkpt lat="46.80757" lon="-1.84842">
        <ele>19</ele>
        <time>2018-03-16T07:59:09Z</time>
      </trkpt>
      <trkpt lat="46.80755" lon="-1.84876">
        <ele>17</ele>
        <time>2018-03-16T08:00:09Z</time>
      </trkpt>
      <trkpt lat="46.80754" lon="-1.84913">
        <ele>15</ele>
        <time>2018-03-16T08:01:09Z</time>
      </trkpt>
      <trkpt lat="46.80754" lon="-1.84928">
        <ele>15</ele>
        <time>2018-03-16T08:02:09Z</time>
      </trkpt>
      <trkpt lat="46.80753" lon="-1.85008">
        <ele>14</ele>
        <time>2018-03-16T08:03:09Z</time>
      </trkpt>
      <trkpt lat="46.80754" lon="-1.85082">
        <ele>14</ele>
        <time>2018-03-16T08:04:09Z</time>
      </trkpt>
      <trkpt lat="46.80755" lon="-1.85145">
        <ele>15</ele>
        <time>2018-03-16T08:05:09Z</time>
      </trkpt>
      <trkpt lat="46.80756" lon="-1.8517">
        <ele>16</ele>
        <time>2018-03-16T08:06:09Z</time>
      </trkpt>
      <trkpt lat="46.80756" lon="-1.85185">
        <ele>15</ele>
        <time>2018-03-16T08:07:09Z</time>
      </trkpt>
      <trkpt lat="46.80758" lon="-1.85198">
        <ele>15</ele>
        <time>2018-03-16T08:08:09Z</time>
      </trkpt>
      <trkpt lat="46.80759" lon="-1.85203">
        <ele>15</ele>
        <time>2018-03-16T08:09:09Z</time>
      </trkpt>
      <trkpt lat="46.80765" lon="-1.8524">
        <ele>14</ele>
        <time>2018-03-16T08:10:09Z</time>
      </trkpt>
      <trkpt lat="46.80767" lon="-1.85256">
        <ele>14</ele>
        <time>2018-03-16T08:11:09Z</time>
      </trkpt>
      <trkpt lat="46.80769" lon="-1.85273">
        <ele>13</ele>
        <time>2018-03-16T08:12:09Z</time>
      </trkpt>
      <trkpt lat="46.8077" lon="-1.85293">
        <ele>13</ele>
        <time>2018-03-16T08:13:09Z</time>
      </trkpt>
      <trkpt lat="46.8077" lon="-1.85318">
        <ele>13</ele>
        <time>2018-03-16T08:14:09Z</time>
      </trkpt>
      <trkpt lat="46.80771" lon="-1.85352">
        <ele>12</ele>
        <time>2018-03-16T08:15:09Z</time>
      </trkpt>
      <trkpt lat="46.80771" lon="-1.85411">
        <ele>13</ele>
        <time>2018-03-16T08:16:09Z</time>
      </trkpt>
      <trkpt lat="46.8077" lon="-1.85451">
        <ele>12</ele>
        <time>2018-03-16T08:17:09Z</time>
      </trkpt>
      <trkpt lat="46.80769" lon="-1.85483">
        <ele>12</ele>
        <time>2018-03-16T08:18:09Z</time>
      </trkpt>
      <trkpt lat="46.80768" lon="-1.85498">
        <ele>12</ele>
        <time>2018-03-16T08:19:09Z</time>
      </trkpt>
      <trkpt lat="46.80767" lon="-1.85559">
        <ele>12</ele>
        <time>2018-03-16T08:20:09Z</time>
      </trkpt>
      <trkpt lat="46.80767" lon="-1.85573">
        <ele>12</ele>
        <time>2018-03-16T08:21:09Z</time>
      </trkpt>
      <trkpt lat="46.80769" lon="-1.85648">
        <ele>12</ele>
        <time>2018-03-16T08:22:09Z</time>
      </trkpt>
      <trkpt lat="46.80769" lon="-1.85677">
        <ele>13</ele>
        <time>2018-03-16T08:23:09Z</time>
      </trkpt>
      <trkpt lat="46.80771" lon="-1.85755">
        <ele>14</ele>
        <time>2018-03-16T08:24:09Z</time>
      </trkpt>
      <trkpt lat="46.80773" lon="-1.85819">
        <ele>12</ele>
        <time>2018-03-16T08:25:09Z</time>
      </trkpt>
      <trkpt lat="46.80774" lon="-1.85885">
        <ele>12</ele>
        <time>2018-03-16T08:26:09Z</time>
      </trkpt>
      <trkpt lat="46.80774" lon="-1.85898">
        <ele>12</ele>
        <time>2018-03-16T08:27:09Z</time>
      </trkpt>
      <trkpt lat="46.80771" lon="-1.85971">
        <ele>12</ele>
        <time>2018-03-16T08:28:09Z</time>
      </trkpt>
      <trkpt lat="46.8077" lon="-1.86049">
        <ele>13</ele>
        <time>2018-03-16T08:29:09Z</time>
      </trkpt>
      <trkpt lat="46.8077" lon="-1.86113">
        <ele>14</ele>
        <time>2018-03-16T08:30:09Z</time>
      </trkpt>
      <trkpt lat="46.8077" lon="-1.86118">
        <ele>14</ele>
        <time>2018-03-16T08:31:09Z</time>
      </trkpt>
      <trkpt lat="46.8077" lon="-1.86181">
        <ele>14</ele>
        <time>2018-03-16T08:32:09Z</time>
      </trkpt>
      <trkpt lat="46.80769" lon="-1.86196">
        <ele>14</ele>
        <time>2018-03-16T08:33:09Z</time>
      </trkpt>
      <trkpt lat="46.80765" lon="-1.8624">
        <ele>14</ele>
        <time>2018-03-16T08:34:09Z</time>
      </trkpt>
      <trkpt lat="46.8076" lon="-1.8629">
        <ele>14</ele>
        <time>2018-03-16T08:35:09Z</time>
      </trkpt>
      <trkpt lat="46.80749" lon="-1.86381">
        <ele>16</ele>
        <time>2018-03-16T08:36:09Z</time>
      </trkpt>
      <trkpt lat="46.8074" lon="-1.86464">
        <ele>19</ele>
        <time>2018-03-16T08:37:09Z</time>
      </trkpt>
      <trkpt lat="46.80735" lon="-1.86488">
        <ele>20</ele>
        <time>2018-03-16T08:38:09Z</time>
      </trkpt>
      <trkpt lat="46.80728" lon="-1.86508">
        <ele>20</ele>
        <time>2018-03-16T08:39:09Z</time>
      </trkpt>
      <trkpt lat="46.80714" lon="-1.8654">
        <ele>21</ele>
        <time>2018-03-16T08:40:09Z</time>
      </trkpt>
      <trkpt lat="46.80661" lon="-1.8666">
        <ele>23</ele>
        <time>2018-03-16T08:41:09Z</time>
      </trkpt>
      <trkpt lat="46.80655" lon="-1.86673">
        <ele>23</ele>
        <time>2018-03-16T08:42:09Z</time>
      </trkpt>
      <trkpt lat="46.80639" lon="-1.8671">
        <ele>23</ele>
        <time>2018-03-16T08:43:09Z</time>
      </trkpt>
      <trkpt lat="46.80625" lon="-1.8674">
        <ele>23</ele>
        <time>2018-03-16T08:44:09Z</time>
      </trkpt>
      <trkpt lat="46.80611" lon="-1.8677">
        <ele>23</ele>
        <time>2018-03-16T08:45:09Z</time>
      </trkpt>
      <trkpt lat="46.80609" lon="-1.86775">
        <ele>23</ele>
        <time>2018-03-16T08:46:09Z</time>
      </trkpt>
      <trkpt lat="46.80599" lon="-1.86798">
        <ele>24</ele>
        <time>2018-03-16T08:47:09Z</time>
      </trkpt>
      <trkpt lat="46.8059" lon="-1.86824">
        <ele>24</ele>
        <time>2018-03-16T08:48:09Z</time>
      </trkpt>
      <trkpt lat="46.80587" lon="-1.86837">
        <ele>24</ele>
        <time>2018-03-16T08:49:09Z</time>
      </trkpt>
      <trkpt lat="46.80579" lon="-1.86865">
        <ele>23</ele>
        <time>2018-03-16T08:50:09Z</time>
      </trkpt>
      <trkpt lat="46.80572" lon="-1.86897">
        <ele>22</ele>
        <time>2018-03-16T08:51:09Z</time>
      </trkpt>
      <trkpt lat="46.80569" lon="-1.8691">
        <ele>22</ele>
        <time>2018-03-16T08:52:09Z</time>
      </trkpt>
      <trkpt lat="46.80562" lon="-1.86941">
        <ele>22</ele>
        <time>2018-03-16T08:53:09Z</time>
      </trkpt>
      <trkpt lat="46.8056" lon="-1.86952">
        <ele>22</ele>
        <time>2018-03-16T08:54:09Z</time>
      </trkpt>
      <trkpt lat="46.80553" lon="-1.8698">
        <ele>22</ele>
        <time>2018-03-16T08:55:09Z</time>
      </trkpt>
      <trkpt lat="46.80542" lon="-1.87032">
        <ele>21</ele>
        <time>2018-03-16T08:56:09Z</time>
      </trkpt>
      <trkpt lat="46.80531" lon="-1.87088">
        <ele>21</ele>
        <time>2018-03-16T08:57:09Z</time>
      </trkpt>
      <trkpt lat="46.80519" lon="-1.87141">
        <ele>21</ele>
        <time>2018-03-16T08:58:09Z</time>
      </trkpt>
      <trkpt lat="46.8051" lon="-1.87178">
        <ele>21</ele>
        <time>2018-03-16T08:59:09Z</time>
      </trkpt>
      <trkpt lat="46.80494" lon="-1.87239">
        <ele>20</ele>
        <time>2018-03-16T09:00:09Z</time>
      </trkpt>
      <trkpt lat="46.80481" lon="-1.87279">
        <ele>20</ele>
        <time>2018-03-16T09:01:09Z</time>
      </trkpt>
      <trkpt lat="46.8046" lon="-1.87344">
        <ele>20</ele>
        <time>2018-03-16T09:02:09Z</time>
      </trkpt>
      <trkpt lat="46.80451" lon="-1.87368">
        <ele>19</ele>
        <time>2018-03-16T09:03:09Z</time>
      </trkpt>
      <trkpt lat="46.80445" lon="-1.87383">
        <ele>20</ele>
        <time>2018-03-16T09:04:09Z</time>
      </trkpt>
      <trkpt lat="46.80425" lon="-1.87444">
        <ele>20</ele>
        <time>2018-03-16T09:05:09Z</time>
      </trkpt>
      <trkpt lat="46.80402" lon="-1.87511">
        <ele>21</ele>
        <time>2018-03-16T09:06:09Z</time>
      </trkpt>
      <trkpt lat="46.80388" lon="-1.8755">
        <ele>21</ele>
        <time>2018-03-16T09:07:09Z</time>
      </trkpt>
      <trkpt lat="46.80388" lon="-1.8755">
        <ele>21</ele>
        <time>2018-03-16T09:08:09Z</time>
      </trkpt>
      <trkpt lat="46.80401" lon="-1.87575">
        <ele>20</ele>
        <time>2018-03-16T09:09:09Z</time>
      </trkpt>
      <trkpt lat="46.80408" lon="-1.87588">
        <ele>20</ele>
        <time>2018-03-16T09:10:09Z</time>
      </trkpt>
      <trkpt lat="46.80415" lon="-1.87602">
        <ele>20</ele>
        <time>2018-03-16T09:11:09Z</time>
      </trkpt>
      <trkpt lat="46.80423" lon="-1.87618">
        <ele>20</ele>
        <time>2018-03-16T09:12:09Z</time>
      </trkpt>
      <trkpt lat="46.8043" lon="-1.87635">
        <ele>20</ele>
        <time>2018-03-16T09:13:09Z</time>
      </trkpt>
      <trkpt lat="46.80435" lon="-1.87652">
        <ele>21</ele>
        <time>2018-03-16T09:14:09Z</time>
      </trkpt>
      <trkpt lat="46.80446" lon="-1.87685">
        <ele>21</ele>
        <time>2018-03-16T09:15:09Z</time>
      </trkpt>
      <trkpt lat="46.8046" lon="-1.8773">
        <ele>21</ele>
        <time>2018-03-16T09:16:09Z</time>
      </trkpt>
      <trkpt lat="46.80483" lon="-1.87808">
        <ele>20</ele>
        <time>2018-03-16T09:17:09Z</time>
      </trkpt>
      <trkpt lat="46.80495" lon="-1.87845">
        <ele>20</ele>
        <time>2018-03-16T09:18:09Z</time>
      </trkpt>
      <trkpt lat="46.80501" lon="-1.87862">
        <ele>20</ele>
        <time>2018-03-16T09:19:09Z</time>
      </trkpt>
      <trkpt lat="46.80509" lon="-1.87883">
        <ele>20</ele>
        <time>2018-03-16T09:20:09Z</time>
      </trkpt>
      <trkpt lat="46.80517" lon="-1.87901">
        <ele>20</ele>
        <time>2018-03-16T09:21:09Z</time>
      </trkpt>
      <trkpt lat="46.80524" lon="-1.87916">
        <ele>20</ele>
        <time>2018-03-16T09:22:09Z</time>
      </trkpt>
      <trkpt lat="46.80538" lon="-1.87944">
        <ele>20</ele>
        <time>2018-03-16T09:23:09Z</time>
      </trkpt>
      <trkpt lat="46.80561" lon="-1.87991">
        <ele>19</ele>
        <time>2018-03-16T09:24:09Z</time>
      </trkpt>
      <trkpt lat="46.80568" lon="-1.87999">
        <ele>18</ele>
        <time>2018-03-16T09:25:09Z</time>
      </trkpt>
      <trkpt lat="46.80581" lon="-1.8801">
        <ele>18</ele>
        <time>2018-03-16T09:26:09Z</time>
      </trkpt>
      <trkpt lat="46.8059" lon="-1.88016">
        <ele>17</ele>
        <time>2018-03-16T09:27:09Z</time>
      </trkpt>
      <trkpt lat="46.80597" lon="-1.88023">
        <ele>17</ele>
        <time>2018-03-16T09:28:09Z</time>
      </trkpt>
      <trkpt lat="46.806" lon="-1.88029">
        <ele>17</ele>
        <time>2018-03-16T09:29:09Z</time>
      </trkpt>
      <trkpt lat="46.80601" lon="-1.88032">
        <ele>16</ele>
        <time>2018-03-16T09:30:09Z</time>
      </trkpt>
      <trkpt lat="46.80603" lon="-1.88036">
        <ele>16</ele>
        <time>2018-03-16T09:31:09Z</time>
      </trkpt>
      <trkpt lat="46.80603" lon="-1.88036">
        <ele>16</ele>
        <time>2018-03-16T09:32:09Z</time>
      </trkpt>
      <trkpt lat="46.80605" lon="-1.88043">
        <ele>16</ele>
        <time>2018-03-16T09:33:09Z</time>
      </trkpt>
      <trkpt lat="46.80604" lon="-1.88052">
        <ele>16</ele>
        <time>2018-03-16T09:34:09Z</time>
      </trkpt>
      <trkpt lat="46.80604" lon="-1.88059">
        <ele>16</ele>
        <time>2018-03-16T09:35:09Z</time>
      </trkpt>
      <trkpt lat="46.80602" lon="-1.88066">
        <ele>16</ele>
        <time>2018-03-16T09:36:09Z</time>
      </trkpt>
      <trkpt lat="46.806" lon="-1.88076">
        <ele>16</ele>
        <time>2018-03-16T09:37:09Z</time>
      </trkpt>
      <trkpt lat="46.80595" lon="-1.88101">
        <ele>16</ele>
        <time>2018-03-16T09:38:09Z</time>
      </trkpt>
      <trkpt lat="46.8059" lon="-1.88125">
        <ele>15</ele>
        <time>2018-03-16T09:39:09Z</time>
      </trkpt>
      <trkpt lat="46.80575" lon="-1.88198">
        <ele>13</ele>
        <time>2018-03-16T09:40:09Z</time>
      </trkpt>
      <trkpt lat="46.80568" lon="-1.88229">
        <ele>13</ele>
        <time>2018-03-16T09:41:09Z</time>
      </trkpt>
      <trkpt lat="46.80565" lon="-1.8825">
        <ele>12</ele>
        <time>2018-03-16T09:42:09Z</time>
      </trkpt>
      <trkpt lat="46.80562" lon="-1.88271">
        <ele>12</ele>
        <time>2018-03-16T09:43:09Z</time>
      </trkpt>
      <trkpt lat="46.80561" lon="-1.88299">
        <ele>11</ele>
        <time>2018-03-16T09:44:09Z</time>
      </trkpt>
      <trkpt lat="46.8056" lon="-1.88356">
        <ele>11</ele>
        <time>2018-03-16T09:45:09Z</time>
      </trkpt>
      <trkpt lat="46.80561" lon="-1.88435">
        <ele>12</ele>
        <time>2018-03-16T09:46:09Z</time>
      </trkpt>
      <trkpt lat="46.80564" lon="-1.88536">
        <ele>14</ele>
        <time>2018-03-16T09:47:09Z</time>
      </trkpt>
      <trkpt lat="46.80565" lon="-1.8859">
        <ele>14</ele>
        <time>2018-03-16T09:48:09Z</time>
      </trkpt>
      <trkpt lat="46.80565" lon="-1.88597">
        <ele>14</ele>
        <time>2018-03-16T09:49:09Z</time>
      </trkpt>
      <trkpt lat="46.80568" lon="-1.88688">
        <ele>15</ele>
        <time>2018-03-16T09:50:09Z</time>
      </trkpt>
      <trkpt lat="46.80569" lon="-1.88763">
        <ele>16</ele>
        <time>2018-03-16T09:51:09Z</time>
      </trkpt>
      <trkpt lat="46.80569" lon="-1.88794">
        <ele>17</ele>
        <time>2018-03-16T09:52:09Z</time>
      </trkpt>
      <trkpt lat="46.80568" lon="-1.88808">
        <ele>18</ele>
        <time>2018-03-16T09:53:09Z</time>
      </trkpt>
      <trkpt lat="46.80566" lon="-1.88821">
        <ele>18</ele>
        <time>2018-03-16T09:54:09Z</time>
      </trkpt>
      <trkpt lat="46.80562" lon="-1.88839">
        <ele>19</ele>
        <time>2018-03-16T09:55:09Z</time>
      </trkpt>
      <trkpt lat="46.80557" lon="-1.88852">
        <ele>19</ele>
        <time>2018-03-16T09:56:09Z</time>
      </trkpt>
      <trkpt lat="46.80552" lon="-1.88862">
        <ele>19</ele>
        <time>2018-03-16T09:57:09Z</time>
      </trkpt>
      <trkpt lat="46.80543" lon="-1.88874">
        <ele>19</ele>
        <time>2018-03-16T09:58:09Z</time>
      </trkpt>
      <trkpt lat="46.80533" lon="-1.88887">
        <ele>19</ele>
        <time>2018-03-16T09:59:09Z</time>
      </trkpt>
      <trkpt lat="46.80533" lon="-1.88887">
        <ele>19</ele>
        <time>2018-03-16T10:00:09Z</time>
      </trkpt>
      <trkpt lat="46.80541" lon="-1.88904">
        <ele>19</ele>
        <time>2018-03-16T10:01:09Z</time>
      </trkpt>
      <trkpt lat="46.80556" lon="-1.88938">
        <ele>20</ele>
        <time>2018-03-16T10:02:09Z</time>
      </trkpt>
      <trkpt lat="46.80561" lon="-1.88953">
        <ele>20</ele>
        <time>2018-03-16T10:03:09Z</time>
      </trkpt>
      <trkpt lat="46.80564" lon="-1.88963">
        <ele>20</ele>
        <time>2018-03-16T10:04:09Z</time>
      </trkpt>
      <trkpt lat="46.80566" lon="-1.88977">
        <ele>20</ele>
        <time>2018-03-16T10:05:09Z</time>
      </trkpt>
      <trkpt lat="46.80567" lon="-1.88992">
        <ele>20</ele>
        <time>2018-03-16T10:06:09Z</time>
      </trkpt>
      <trkpt lat="46.80566" lon="-1.89011">
        <ele>20</ele>
        <time>2018-03-16T10:07:09Z</time>
      </trkpt>
      <trkpt lat="46.80563" lon="-1.89045">
        <ele>20</ele>
        <time>2018-03-16T10:08:09Z</time>
      </trkpt>
      <trkpt lat="46.80557" lon="-1.89097">
        <ele>21</ele>
        <time>2018-03-16T10:09:09Z</time>
      </trkpt>
      <trkpt lat="46.80551" lon="-1.89144">
        <ele>21</ele>
        <time>2018-03-16T10:10:09Z</time>
      </trkpt>
      <trkpt lat="46.80545" lon="-1.89196">
        <ele>22</ele>
        <time>2018-03-16T10:11:09Z</time>
      </trkpt>
      <trkpt lat="46.80542" lon="-1.89221">
        <ele>22</ele>
        <time>2018-03-16T10:12:09Z</time>
      </trkpt>
      <trkpt lat="46.8054" lon="-1.89227">
        <ele>22</ele>
        <time>2018-03-16T10:13:09Z</time>
      </trkpt>
      <trkpt lat="46.80537" lon="-1.89245">
        <ele>22</ele>
        <time>2018-03-16T10:14:09Z</time>
      </trkpt>
      <trkpt lat="46.80532" lon="-1.89265">
        <ele>22</ele>
        <time>2018-03-16T10:15:09Z</time>
      </trkpt>
      <trkpt lat="46.80527" lon="-1.89283">
        <ele>22</ele>
        <time>2018-03-16T10:16:09Z</time>
      </trkpt>
      <trkpt lat="46.80519" lon="-1.89312">
        <ele>22</ele>
        <time>2018-03-16T10:17:09Z</time>
      </trkpt>
      <trkpt lat="46.80511" lon="-1.89342">
        <ele>22</ele>
        <time>2018-03-16T10:18:09Z</time>
      </trkpt>
      <trkpt lat="46.80506" lon="-1.89356">
        <ele>22</ele>
        <time>2018-03-16T10:19:09Z</time>
      </trkpt>
      <trkpt lat="46.805" lon="-1.89376">
        <ele>21</ele>
        <time>2018-03-16T10:20:09Z</time>
      </trkpt>
      <trkpt lat="46.80492" lon="-1.89397">
        <ele>21</ele>
        <time>2018-03-16T10:21:09Z</time>
      </trkpt>
      <trkpt lat="46.80483" lon="-1.89418">
        <ele>21</ele>
        <time>2018-03-16T10:22:09Z</time>
      </trkpt>
      <trkpt lat="46.80475" lon="-1.89438">
        <ele>21</ele>
        <time>2018-03-16T10:23:09Z</time>
      </trkpt>
      <trkpt lat="46.80475" lon="-1.8944">
        <ele>21</ele>
        <time>2018-03-16T10:24:09Z</time>
      </trkpt>
      <trkpt lat="46.80467" lon="-1.89457">
        <ele>20</ele>
        <time>2018-03-16T10:25:09Z</time>
      </trkpt>
      <trkpt lat="46.80467" lon="-1.89459">
        <ele>20</ele>
        <time>2018-03-16T10:26:09Z</time>
      </trkpt>
      <trkpt lat="46.80454" lon="-1.89484">
        <ele>20</ele>
        <time>2018-03-16T10:27:09Z</time>
      </trkpt>
      <trkpt lat="46.80437" lon="-1.8952">
        <ele>20</ele>
        <time>2018-03-16T10:28:09Z</time>
      </trkpt>
      <trkpt lat="46.80428" lon="-1.8954">
        <ele>21</ele>
        <time>2018-03-16T10:29:09Z</time>
      </trkpt>
      <trkpt lat="46.80416" lon="-1.89563">
        <ele>21</ele>
        <time>2018-03-16T10:30:09Z</time>
      </trkpt>
      <trkpt lat="46.80392" lon="-1.89614">
        <ele>20</ele>
        <time>2018-03-16T10:31:09Z</time>
      </trkpt>
      <trkpt lat="46.80386" lon="-1.89639">
        <ele>19</ele>
        <time>2018-03-16T10:32:09Z</time>
      </trkpt>
      <trkpt lat="46.80386" lon="-1.89639">
        <ele>19</ele>
        <time>2018-03-16T10:33:09Z</time>
      </trkpt>
      <trkpt lat="46.80387" lon="-1.89641">
        <ele>19</ele>
        <time>2018-03-16T10:34:09Z</time>
      </trkpt>
      <trkpt lat="46.80387" lon="-1.89643">
        <ele>19</ele>
        <time>2018-03-16T10:35:09Z</time>
      </trkpt>
      <trkpt lat="46.80387" lon="-1.89646">
        <ele>19</ele>
        <time>2018-03-16T10:36:09Z</time>
      </trkpt>
      <trkpt lat="46.80387" lon="-1.89649">
        <ele>19</ele>
        <time>2018-03-16T10:37:09Z</time>
      </trkpt>
      <trkpt lat="46.80387" lon="-1.89652">
        <ele>19</ele>
        <time>2018-03-16T10:38:09Z</time>
      </trkpt>
      <trkpt lat="46.80387" lon="-1.89654">
        <ele>19</ele>
        <time>2018-03-16T10:39:09Z</time>
      </trkpt>
      <trkpt lat="46.80385" lon="-1.89657">
        <ele>19</ele>
        <time>2018-03-16T10:40:09Z</time>
      </trkpt>
      <trkpt lat="46.80383" lon="-1.8966">
        <ele>19</ele>
        <time>2018-03-16T10:41:09Z</time>
      </trkpt>
      <trkpt lat="46.80381" lon="-1.89661">
        <ele>19</ele>
        <time>2018-03-16T10:42:09Z</time>
      </trkpt>
      <trkpt lat="46.80372" lon="-1.89679">
        <ele>19</ele>
        <time>2018-03-16T10:43:09Z</time>
      </trkpt>
      <trkpt lat="46.80363" lon="-1.89715">
        <ele>19</ele>
        <time>2018-03-16T10:44:09Z</time>
      </trkpt>
      <trkpt lat="46.80353" lon="-1.89758">
        <ele>18</ele>
        <time>2018-03-16T10:45:09Z</time>
      </trkpt>
      <trkpt lat="46.80346" lon="-1.89785">
        <ele>19</ele>
        <time>2018-03-16T10:46:09Z</time>
      </trkpt>
      <trkpt lat="46.80321" lon="-1.89887">
        <ele>19</ele>
        <time>2018-03-16T10:47:09Z</time>
      </trkpt>
      <trkpt lat="46.80314" lon="-1.89916">
        <ele>19</ele>
        <time>2018-03-16T10:48:09Z</time>
      </trkpt>
      <trkpt lat="46.80297" lon="-1.89985">
        <ele>20</ele>
        <time>2018-03-16T10:49:09Z</time>
      </trkpt>
      <trkpt lat="46.80286" lon="-1.90028">
        <ele>20</ele>
        <time>2018-03-16T10:50:09Z</time>
      </trkpt>
      <trkpt lat="46.80282" lon="-1.90045">
        <ele>19</ele>
        <time>2018-03-16T10:51:09Z</time>
      </trkpt>
      <trkpt lat="46.8027" lon="-1.90099">
        <ele>18</ele>
        <time>2018-03-16T10:52:09Z</time>
      </trkpt>
      <trkpt lat="46.80263" lon="-1.90128">
        <ele>18</ele>
        <time>2018-03-16T10:53:09Z</time>
      </trkpt>
      <trkpt lat="46.80259" lon="-1.90155">
        <ele>17</ele>
        <time>2018-03-16T10:54:09Z</time>
      </trkpt>
      <trkpt lat="46.80254" lon="-1.90187">
        <ele>17</ele>
        <time>2018-03-16T10:55:09Z</time>
      </trkpt>
      <trkpt lat="46.80249" lon="-1.90235">
        <ele>17</ele>
        <time>2018-03-16T10:56:09Z</time>
      </trkpt>
      <trkpt lat="46.80241" lon="-1.90357">
        <ele>17</ele>
        <time>2018-03-16T10:57:09Z</time>
      </trkpt>
      <trkpt lat="46.8024" lon="-1.90393">
        <ele>16</ele>
        <time>2018-03-16T10:58:09Z</time>
      </trkpt>
      <trkpt lat="46.8024" lon="-1.90425">
        <ele>16</ele>
        <time>2018-03-16T10:59:09Z</time>
      </trkpt>
      <trkpt lat="46.8024" lon="-1.90445">
        <ele>16</ele>
        <time>2018-03-16T11:00:09Z</time>
      </trkpt>
      <trkpt lat="46.80241" lon="-1.90463">
        <ele>15</ele>
        <time>2018-03-16T11:01:09Z</time>
      </trkpt>
      <trkpt lat="46.80241" lon="-1.9047">
        <ele>15</ele>
        <time>2018-03-16T11:02:09Z</time>
      </trkpt>
      <trkpt lat="46.80241" lon="-1.90472">
        <ele>15</ele>
        <time>2018-03-16T11:03:09Z</time>
      </trkpt>
      <trkpt lat="46.80243" lon="-1.90501">
        <ele>15</ele>
        <time>2018-03-16T11:04:09Z</time>
      </trkpt>
      <trkpt lat="46.80248" lon="-1.90557">
        <ele>15</ele>
        <time>2018-03-16T11:05:09Z</time>
      </trkpt>
      <trkpt lat="46.80256" lon="-1.90649">
        <ele>14</ele>
        <time>2018-03-16T11:06:09Z</time>
      </trkpt>
      <trkpt lat="46.80257" lon="-1.90671">
        <ele>14</ele>
        <time>2018-03-16T11:07:09Z</time>
      </trkpt>
      <trkpt lat="46.80258" lon="-1.90693">
        <ele>13</ele>
        <time>2018-03-16T11:08:09Z</time>
      </trkpt>
      <trkpt lat="46.8026" lon="-1.90727">
        <ele>13</ele>
        <time>2018-03-16T11:09:09Z</time>
      </trkpt>
      <trkpt lat="46.80261" lon="-1.90764">
        <ele>12</ele>
        <time>2018-03-16T11:10:09Z</time>
      </trkpt>
      <trkpt lat="46.80264" lon="-1.90802">
        <ele>12</ele>
        <time>2018-03-16T11:11:09Z</time>
      </trkpt>
      <trkpt lat="46.80268" lon="-1.90855">
        <ele>12</ele>
        <time>2018-03-16T11:12:09Z</time>
      </trkpt>
      <trkpt lat="46.80271" lon="-1.90899">
        <ele>12</ele>
        <time>2018-03-16T11:13:09Z</time>
      </trkpt>
      <trkpt lat="46.80271" lon="-1.9091">
        <ele>12</ele>
        <time>2018-03-16T11:14:09Z</time>
      </trkpt>
      <trkpt lat="46.80267" lon="-1.90923">
        <ele>12</ele>
        <time>2018-03-16T11:15:09Z</time>
      </trkpt>
      <trkpt lat="46.80267" lon="-1.90923">
        <ele>12</ele>
        <time>2018-03-16T11:16:09Z</time>
      </trkpt>
      <trkpt lat="46.80272" lon="-1.90939">
        <ele>12</ele>
        <time>2018-03-16T11:17:09Z</time>
      </trkpt>
      <trkpt lat="46.80273" lon="-1.9094">
        <ele>12</ele>
        <time>2018-03-16T11:18:09Z</time>
      </trkpt>
      <trkpt lat="46.80276" lon="-1.90948">
        <ele>12</ele>
        <time>2018-03-16T11:19:09Z</time>
      </trkpt>
      <trkpt lat="46.8028" lon="-1.90962">
        <ele>12</ele>
        <time>2018-03-16T11:20:09Z</time>
      </trkpt>
      <trkpt lat="46.80285" lon="-1.9098">
        <ele>12</ele>
        <time>2018-03-16T11:21:09Z</time>
      </trkpt>
      <trkpt lat="46.80288" lon="-1.90996">
        <ele>12</ele>
        <time>2018-03-16T11:22:09Z</time>
      </trkpt>
      <trkpt lat="46.80288" lon="-1.90998">
        <ele>11</ele>
        <time>2018-03-16T11:23:09Z</time>
      </trkpt>
      <trkpt lat="46.80292" lon="-1.91027">
        <ele>11</ele>
        <time>2018-03-16T11:24:09Z</time>
      </trkpt>
      <trkpt lat="46.80295" lon="-1.91048">
        <ele>10</ele>
        <time>2018-03-16T11:25:09Z</time>
      </trkpt>
      <trkpt lat="46.80298" lon="-1.91076">
        <ele>9</ele>
        <time>2018-03-16T11:26:09Z</time>
      </trkpt>
      <trkpt lat="46.80298" lon="-1.91077">
        <ele>9</ele>
        <time>2018-03-16T11:27:09Z</time>
      </trkpt>
      <trkpt lat="46.80307" lon="-1.9116">
        <ele>8</ele>
        <time>2018-03-16T11:28:09Z</time>
      </trkpt>
      <trkpt lat="46.80315" lon="-1.91235">
        <ele>8</ele>
        <time>2018-03-16T11:29:09Z</time>
      </trkpt>
      <trkpt lat="46.80318" lon="-1.9126">
        <ele>8</ele>
        <time>2018-03-16T11:30:09Z</time>
      </trkpt>
      <trkpt lat="46.80318" lon="-1.91265">
        <ele>8</ele>
        <time>2018-03-16T11:31:09Z</time>
      </trkpt>
      <trkpt lat="46.80321" lon="-1.91277">
        <ele>8</ele>
        <time>2018-03-16T11:32:09Z</time>
      </trkpt>
      <trkpt lat="46.80323" lon="-1.91291">
        <ele>8</ele>
        <time>2018-03-16T11:33:09Z</time>
      </trkpt>
      <trkpt lat="46.80327" lon="-1.9131">
        <ele>8</ele>
        <time>2018-03-16T11:34:09Z</time>
      </trkpt>
      <trkpt lat="46.80333" lon="-1.91328">
        <ele>8</ele>
        <time>2018-03-16T11:35:09Z</time>
      </trkpt>
      <trkpt lat="46.80339" lon="-1.91346">
        <ele>8</ele>
        <time>2018-03-16T11:36:09Z</time>
      </trkpt>
      <trkpt lat="46.80346" lon="-1.91361">
        <ele>8</ele>
        <time>2018-03-16T11:37:09Z</time>
      </trkpt>
      <trkpt lat="46.80351" lon="-1.91372">
        <ele>8</ele>
        <time>2018-03-16T11:38:09Z</time>
      </trkpt>
      <trkpt lat="46.80354" lon="-1.91379">
        <ele>8</ele>
        <time>2018-03-16T11:39:09Z</time>
      </trkpt>
      <trkpt lat="46.80366" lon="-1.91399">
        <ele>8</ele>
        <time>2018-03-16T11:40:09Z</time>
      </trkpt>
      <trkpt lat="46.80384" lon="-1.91425">
        <ele>8</ele>
        <time>2018-03-16T11:41:09Z</time>
      </trkpt>
      <trkpt lat="46.80398" lon="-1.91445">
        <ele>8</ele>
        <time>2018-03-16T11:42:09Z</time>
      </trkpt>
      <trkpt lat="46.80412" lon="-1.91464">
        <ele>8</ele>
        <time>2018-03-16T11:43:09Z</time>
      </trkpt>
      <trkpt lat="46.80458" lon="-1.91527">
        <ele>8</ele>
        <time>2018-03-16T11:44:09Z</time>
      </trkpt>
      <trkpt lat="46.80475" lon="-1.91547">
        <ele>8</ele>
        <time>2018-03-16T11:45:09Z</time>
      </trkpt>
      <trkpt lat="46.80488" lon="-1.91562">
        <ele>8</ele>
        <time>2018-03-16T11:46:09Z</time>
      </trkpt>
      <trkpt lat="46.8051" lon="-1.91583">
        <ele>8</ele>
        <time>2018-03-16T11:47:09Z</time>
      </trkpt>
      <trkpt lat="46.80542" lon="-1.91609">
        <ele>7</ele>
        <time>2018-03-16T11:48:09Z</time>
      </trkpt>
      <trkpt lat="46.80555" lon="-1.91623">
        <ele>7</ele>
        <time>2018-03-16T11:49:09Z</time>
      </trkpt>
      <trkpt lat="46.80569" lon="-1.91638">
        <ele>6</ele>
        <time>2018-03-16T11:50:09Z</time>
      </trkpt>
      <trkpt lat="46.80575" lon="-1.91647">
        <ele>6</ele>
        <time>2018-03-16T11:51:09Z</time>
      </trkpt>
      <trkpt lat="46.80582" lon="-1.91662">
        <ele>6</ele>
        <time>2018-03-16T11:52:09Z</time>
      </trkpt>
      <trkpt lat="46.80585" lon="-1.91669">
        <ele>6</ele>
        <time>2018-03-16T11:53:09Z</time>
      </trkpt>
      <trkpt lat="46.80591" lon="-1.91683">
        <ele>6</ele>
        <time>2018-03-16T11:54:09Z</time>
      </trkpt>
      <trkpt lat="46.80596" lon="-1.91699">
        <ele>5</ele>
        <time>2018-03-16T11:55:09Z</time>
      </trkpt>
      <trkpt lat="46.806" lon="-1.91717">
        <ele>5</ele>
        <time>2018-03-16T11:56:09Z</time>
      </trkpt>
      <trkpt lat="46.80604" lon="-1.91749">
        <ele>5</ele>
        <time>2018-03-16T11:57:09Z</time>
      </trkpt>
      <trkpt lat="46.80607" lon="-1.91785">
        <ele>5</ele>
        <time>2018-03-16T11:58:09Z</time>
      </trkpt>
      <trkpt lat="46.8061" lon="-1.91803">
        <ele>5</ele>
        <time>2018-03-16T11:59:09Z</time>
      </trkpt>
      <trkpt lat="46.80613" lon="-1.91824">
        <ele>5</ele>
        <time>2018-03-16T12:00:09Z</time>
      </trkpt>
      <trkpt lat="46.80617" lon="-1.91842">
        <ele>5</ele>
        <time>2018-03-16T12:01:09Z</time>
      </trkpt>
      <trkpt lat="46.8062" lon="-1.91857">
        <ele>5</ele>
        <time>2018-03-16T12:02:09Z</time>
      </trkpt>
      <trkpt lat="46.80621" lon="-1.91862">
        <ele>5</ele>
        <time>2018-03-16T12:03:09Z</time>
      </trkpt>
      <trkpt lat="46.80627" lon="-1.91883">
        <ele>5</ele>
        <time>2018-03-16T12:04:09Z</time>
      </trkpt>
      <trkpt lat="46.80634" lon="-1.91902">
        <ele>5</ele>
        <time>2018-03-16T12:05:09Z</time>
      </trkpt>
      <trkpt lat="46.8064" lon="-1.91921">
        <ele>5</ele>
        <time>2018-03-16T12:06:09Z</time>
      </trkpt>
      <trkpt lat="46.80652" lon="-1.91948">
        <ele>5</ele>
        <time>2018-03-16T12:07:09Z</time>
      </trkpt>
      <trkpt lat="46.80676" lon="-1.91991">
        <ele>4</ele>
        <time>2018-03-16T12:08:09Z</time>
      </trkpt>
      <trkpt lat="46.807" lon="-1.92035">
        <ele>4</ele>
        <time>2018-03-16T12:09:09Z</time>
      </trkpt>
      <trkpt lat="46.80734" lon="-1.92103">
        <ele>4</ele>
        <time>2018-03-16T12:10:09Z</time>
      </trkpt>
      <trkpt lat="46.80767" lon="-1.92165">
        <ele>4</ele>
        <time>2018-03-16T12:11:09Z</time>
      </trkpt>
      <trkpt lat="46.80773" lon="-1.92177">
        <ele>4</ele>
        <time>2018-03-16T12:12:09Z</time>
      </trkpt>
      <trkpt lat="46.80775" lon="-1.9218">
        <ele>4</ele>
        <time>2018-03-16T12:13:09Z</time>
      </trkpt>
      <trkpt lat="46.80781" lon="-1.92196">
        <ele>4</ele>
        <time>2018-03-16T12:14:09Z</time>
      </trkpt>
      <trkpt lat="46.80789" lon="-1.92216">
        <ele>4</ele>
        <time>2018-03-16T12:15:09Z</time>
      </trkpt>
      <trkpt lat="46.80796" lon="-1.92232">
        <ele>5</ele>
        <time>2018-03-16T12:16:09Z</time>
      </trkpt>
      <trkpt lat="46.80802" lon="-1.92248">
        <ele>5</ele>
        <time>2018-03-16T12:17:09Z</time>
      </trkpt>
      <trkpt lat="46.8081" lon="-1.92272">
        <ele>5</ele>
        <time>2018-03-16T12:18:09Z</time>
      </trkpt>
      <trkpt lat="46.80818" lon="-1.92297">
        <ele>5</ele>
        <time>2018-03-16T12:19:09Z</time>
      </trkpt>
      <trkpt lat="46.80824" lon="-1.92313">
        <ele>5</ele>
        <time>2018-03-16T12:20:09Z</time>
      </trkpt>
      <trkpt lat="46.80828" lon="-1.92327">
        <ele>5</ele>
        <time>2018-03-16T12:21:09Z</time>
      </trkpt>
      <trkpt lat="46.80831" lon="-1.92338">
        <ele>5</ele>
        <time>2018-03-16T12:22:09Z</time>
      </trkpt>
      <trkpt lat="46.80839" lon="-1.92364">
        <ele>5</ele>
        <time>2018-03-16T12:23:09Z</time>
      </trkpt>
      <trkpt lat="46.80844" lon="-1.92383">
        <ele>4</ele>
        <time>2018-03-16T12:24:09Z</time>
      </trkpt>
      <trkpt lat="46.80848" lon="-1.92404">
        <ele>4</ele>
        <time>2018-03-16T12:25:09Z</time>
      </trkpt>
      <trkpt lat="46.80851" lon="-1.92424">
        <ele>4</ele>
        <time>2018-03-16T12:26:09Z</time>
      </trkpt>
      <trkpt lat="46.80852" lon="-1.92442">
        <ele>3</ele>
        <time>2018-03-16T12:27:09Z</time>
      </trkpt>
      <trkpt lat="46.80853" lon="-1.92459">
        <ele>3</ele>
        <time>2018-03-16T12:28:09Z</time>
      </trkpt>
      <trkpt lat="46.80853" lon="-1.92462">
        <ele>3</ele>
        <time>2018-03-16T12:29:09Z</time>
      </trkpt>
      <trkpt lat="46.80853" lon="-1.92478">
        <ele>2</ele>
        <time>2018-03-16T12:30:09Z</time>
      </trkpt>
      <trkpt lat="46.80852" lon="-1.925">
        <ele>2</ele>
        <time>2018-03-16T12:31:09Z</time>
      </trkpt>
      <trkpt lat="46.8085" lon="-1.92539">
        <ele>1</ele>
        <time>2018-03-16T12:32:09Z</time>
      </trkpt>
      <trkpt lat="46.80849" lon="-1.92548">
        <ele>1</ele>
        <time>2018-03-16T12:33:09Z</time>
      </trkpt>
      <trkpt lat="46.80845" lon="-1.92603">
        <ele>2.2</ele>
        <time>2018-03-16T12:34:09Z</time>
      </trkpt>
      <trkpt lat="46.80845" lon="-1.92618">
        <ele>1.9</ele>
        <time>2018-03-16T12:35:09Z</time>
      </trkpt>
      <trkpt lat="46.80846" lon="-1.92633">
        <ele>1.6</ele>
        <time>2018-03-16T12:36:09Z</time>
      </trkpt>
      <trkpt lat="46.80848" lon="-1.92648">
        <ele>1.5</ele>
        <time>2018-03-16T12:37:09Z</time>
      </trkpt>
      <trkpt lat="46.8085" lon="-1.92663">
        <ele>1.4</ele>
        <time>2018-03-16T12:38:09Z</time>
      </trkpt>
      <trkpt lat="46.80854" lon="-1.92678">
        <ele>1.5</ele>
        <time>2018-03-16T12:39:09Z</time>
      </trkpt>
      <trkpt lat="46.80864" lon="-1.92712">
        <ele>1.9</ele>
        <time>2018-03-16T12:40:09Z</time>
      </trkpt>
      <trkpt lat="46.80874" lon="-1.92747">
        <ele>1.5</ele>
        <time>2018-03-16T12:41:09Z</time>
      </trkpt>
      <trkpt lat="46.80881" lon="-1.92775">
        <ele>1.9</ele>
        <time>2018-03-16T12:42:09Z</time>
      </trkpt>
      <trkpt lat="46.80885" lon="-1.92799">
        <ele>1.3</ele>
        <time>2018-03-16T12:43:09Z</time>
      </trkpt>
      <trkpt lat="46.80886" lon="-1.92822">
        <ele>1.1</ele>
        <time>2018-03-16T12:44:09Z</time>
      </trkpt>
      <trkpt lat="46.80885" lon="-1.92842">
        <ele>1.1</ele>
        <time>2018-03-16T12:45:09Z</time>
      </trkpt>
      <trkpt lat="46.80883" lon="-1.92863">
        <ele>1.2</ele>
        <time>2018-03-16T12:46:09Z</time>
      </trkpt>
      <trkpt lat="46.8088" lon="-1.92882">
        <ele>1.1</ele>
        <time>2018-03-16T12:47:09Z</time>
      </trkpt>
      <trkpt lat="46.80875" lon="-1.92901">
        <ele>1.4</ele>
        <time>2018-03-16T12:48:09Z</time>
      </trkpt>
      <trkpt lat="46.80868" lon="-1.92922">
        <ele>1</ele>
        <time>2018-03-16T12:49:09Z</time>
      </trkpt>
      <trkpt lat="46.80857" lon="-1.92955">
        <ele>1</ele>
        <time>2018-03-16T12:50:09Z</time>
      </trkpt>
      <trkpt lat="46.80836" lon="-1.9301">
        <ele>1</ele>
        <time>2018-03-16T12:51:09Z</time>
      </trkpt>
      <trkpt lat="46.80814" lon="-1.93072">
        <ele>1</ele>
        <time>2018-03-16T12:52:09Z</time>
      </trkpt>
      <trkpt lat="46.80805" lon="-1.93096">
        <ele>2.1</ele>
        <time>2018-03-16T12:53:09Z</time>
      </trkpt>
      <trkpt lat="46.80802" lon="-1.93104">
        <ele>1.5</ele>
        <time>2018-03-16T12:54:09Z</time>
      </trkpt>
      <trkpt lat="46.80799" lon="-1.9311">
        <ele>1.1</ele>
        <time>2018-03-16T12:55:09Z</time>
      </trkpt>
      <trkpt lat="46.80798" lon="-1.93115">
        <ele>1.1</ele>
        <time>2018-03-16T12:56:09Z</time>
      </trkpt>
      <trkpt lat="46.80797" lon="-1.93117">
        <ele>1.1</ele>
        <time>2018-03-16T12:57:09Z</time>
      </trkpt>
      <trkpt lat="46.80793" lon="-1.93132">
        <ele>1.4</ele>
        <time>2018-03-16T12:58:09Z</time>
      </trkpt>
      <trkpt lat="46.80789" lon="-1.93147">
        <ele>1.6</ele>
        <time>2018-03-16T12:59:09Z</time>
      </trkpt>
      <trkpt lat="46.80785" lon="-1.93165">
        <ele>2</ele>
        <time>2018-03-16T13:00:09Z</time>
      </trkpt>
      <trkpt lat="46.80781" lon="-1.93183">
        <ele>2</ele>
        <time>2018-03-16T13:01:09Z</time>
      </trkpt>
      <trkpt lat="46.80778" lon="-1.93203">
        <ele>2</ele>
        <time>2018-03-16T13:02:09Z</time>
      </trkpt>
      <trkpt lat="46.80776" lon="-1.93224">
        <ele>2</ele>
        <time>2018-03-16T13:03:09Z</time>
      </trkpt>
      <trkpt lat="46.80775" lon="-1.93249">
        <ele>1.9</ele>
        <time>2018-03-16T13:04:09Z</time>
      </trkpt>
      <trkpt lat="46.80774" lon="-1.93304">
        <ele>1</ele>
        <time>2018-03-16T13:05:09Z</time>
      </trkpt>
      <trkpt lat="46.80773" lon="-1.93346">
        <ele>1</ele>
        <time>2018-03-16T13:06:09Z</time>
      </trkpt>
      <trkpt lat="46.80772" lon="-1.93378">
        <ele>1</ele>
        <time>2018-03-16T13:07:09Z</time>
      </trkpt>
      <trkpt lat="46.80771" lon="-1.93409">
        <ele>1</ele>
        <time>2018-03-16T13:08:09Z</time>
      </trkpt>
      <trkpt lat="46.80769" lon="-1.93455">
        <ele>1</ele>
        <time>2018-03-16T13:09:09Z</time>
      </trkpt>
      <trkpt lat="46.80768" lon="-1.93481">
        <ele>1</ele>
        <time>2018-03-16T13:10:09Z</time>
      </trkpt>
      <trkpt lat="46.80767" lon="-1.93516">
        <ele>1</ele>
        <time>2018-03-16T13:11:09Z</time>
      </trkpt>
      <trkpt lat="46.80766" lon="-1.9355">
        <ele>1</ele>
        <time>2018-03-16T13:12:09Z</time>
      </trkpt>
      <trkpt lat="46.80764" lon="-1.93577">
        <ele>2</ele>
        <time>2018-03-16T13:13:09Z</time>
      </trkpt>
      <trkpt lat="46.80763" lon="-1.93592">
        <ele>2</ele>
        <time>2018-03-16T13:14:09Z</time>
      </trkpt>
      <trkpt lat="46.8076" lon="-1.93608">
        <ele>2</ele>
        <time>2018-03-16T13:15:09Z</time>
      </trkpt>
      <trkpt lat="46.80759" lon="-1.93616">
        <ele>2</ele>
        <time>2018-03-16T13:16:09Z</time>
      </trkpt>
      <trkpt lat="46.80751" lon="-1.93641">
        <ele>2</ele>
        <time>2018-03-16T13:17:09Z</time>
      </trkpt>
      <trkpt lat="46.80738" lon="-1.93674">
        <ele>2</ele>
        <time>2018-03-16T13:18:09Z</time>
      </trkpt>
      <trkpt lat="46.80725" lon="-1.93706">
        <ele>2</ele>
        <time>2018-03-16T13:19:09Z</time>
      </trkpt>
      <trkpt lat="46.80711" lon="-1.93739">
        <ele>1</ele>
        <time>2018-03-16T13:20:09Z</time>
      </trkpt>
      <trkpt lat="46.807" lon="-1.93766">
        <ele>1</ele>
        <time>2018-03-16T13:21:09Z</time>
      </trkpt>
      <trkpt lat="46.80691" lon="-1.93785">
        <ele>1</ele>
        <time>2018-03-16T13:22:09Z</time>
      </trkpt>
      <trkpt lat="46.8068" lon="-1.93812">
        <ele>1.6</ele>
        <time>2018-03-16T13:23:09Z</time>
      </trkpt>
      <trkpt lat="46.80677" lon="-1.93821">
        <ele>1.8</ele>
        <time>2018-03-16T13:24:09Z</time>
      </trkpt>
      <trkpt lat="46.80671" lon="-1.93836">
        <ele>2</ele>
        <time>2018-03-16T13:25:09Z</time>
      </trkpt>
      <trkpt lat="46.80666" lon="-1.93852">
        <ele>2</ele>
        <time>2018-03-16T13:26:09Z</time>
      </trkpt>
      <trkpt lat="46.80661" lon="-1.93872">
        <ele>1.6</ele>
        <time>2018-03-16T13:27:09Z</time>
      </trkpt>
      <trkpt lat="46.80657" lon="-1.93896">
        <ele>1</ele>
        <time>2018-03-16T13:28:09Z</time>
      </trkpt>
      <trkpt lat="46.80653" lon="-1.93929">
        <ele>1</ele>
        <time>2018-03-16T13:29:09Z</time>
      </trkpt>
      <trkpt lat="46.8065" lon="-1.93966">
        <ele>1.5</ele>
        <time>2018-03-16T13:30:09Z</time>
      </trkpt>
      <trkpt lat="46.80647" lon="-1.94004">
        <ele>1.7</ele>
        <time>2018-03-16T13:31:09Z</time>
      </trkpt>
      <trkpt lat="46.80645" lon="-1.94036">
        <ele>1.8</ele>
        <time>2018-03-16T13:32:09Z</time>
      </trkpt>
      <trkpt lat="46.80642" lon="-1.94074">
        <ele>2</ele>
        <time>2018-03-16T13:33:09Z</time>
      </trkpt>
      <trkpt lat="46.80638" lon="-1.94119">
        <ele>1</ele>
        <time>2018-03-16T13:34:09Z</time>
      </trkpt>
      <trkpt lat="46.80635" lon="-1.9416">
        <ele>1</ele>
        <time>2018-03-16T13:35:09Z</time>
      </trkpt>
      <trkpt lat="46.80633" lon="-1.9419">
        <ele>1</ele>
        <time>2018-03-16T13:36:09Z</time>
      </trkpt>
      <trkpt lat="46.80629" lon="-1.94244">
        <ele>1</ele>
        <time>2018-03-16T13:37:09Z</time>
      </trkpt>
      <trkpt lat="46.80625" lon="-1.94294">
        <ele>2</ele>
        <time>2018-03-16T13:38:09Z</time>
      </trkpt>
      <trkpt lat="46.80621" lon="-1.94336">
        <ele>2</ele>
        <time>2018-03-16T13:39:09Z</time>
      </trkpt>
      <trkpt lat="46.80618" lon="-1.94386">
        <ele>1.8</ele>
        <time>2018-03-16T13:40:09Z</time>
      </trkpt>
      <trkpt lat="46.80614" lon="-1.94432">
        <ele>2</ele>
        <time>2018-03-16T13:41:09Z</time>
      </trkpt>
      <trkpt lat="46.80612" lon="-1.94462">
        <ele>2</ele>
        <time>2018-03-16T13:42:09Z</time>
      </trkpt>
      <trkpt lat="46.80608" lon="-1.94516">
        <ele>2</ele>
        <time>2018-03-16T13:43:09Z</time>
      </trkpt>
      <trkpt lat="46.80603" lon="-1.94575">
        <ele>1.2</ele>
        <time>2018-03-16T13:44:09Z</time>
      </trkpt>
      <trkpt lat="46.806" lon="-1.94613">
        <ele>1</ele>
        <time>2018-03-16T13:45:09Z</time>
      </trkpt>
      <trkpt lat="46.80596" lon="-1.94663">
        <ele>1</ele>
        <time>2018-03-16T13:46:09Z</time>
      </trkpt>
      <trkpt lat="46.80593" lon="-1.94712">
        <ele>1</ele>
        <time>2018-03-16T13:47:09Z</time>
      </trkpt>
      <trkpt lat="46.8059" lon="-1.94749">
        <ele>2</ele>
        <time>2018-03-16T13:48:09Z</time>
      </trkpt>
      <trkpt lat="46.8059" lon="-1.94754">
        <ele>1</ele>
        <time>2018-03-16T13:49:09Z</time>
      </trkpt>
      <trkpt lat="46.80588" lon="-1.94779">
        <ele>1</ele>
        <time>2018-03-16T13:50:09Z</time>
      </trkpt>
      <trkpt lat="46.80584" lon="-1.94805">
        <ele>1</ele>
        <time>2018-03-16T13:51:09Z</time>
      </trkpt>
      <trkpt lat="46.80578" lon="-1.94832">
        <ele>1</ele>
        <time>2018-03-16T13:52:09Z</time>
      </trkpt>
      <trkpt lat="46.80568" lon="-1.94861">
        <ele>1</ele>
        <time>2018-03-16T13:53:09Z</time>
      </trkpt>
      <trkpt lat="46.80566" lon="-1.94868">
        <ele>1</ele>
        <time>2018-03-16T13:54:09Z</time>
      </trkpt>
      <trkpt lat="46.80561" lon="-1.9488">
        <ele>1</ele>
        <time>2018-03-16T13:55:09Z</time>
      </trkpt>
      <trkpt lat="46.8055" lon="-1.94908">
        <ele>1</ele>
        <time>2018-03-16T13:56:09Z</time>
      </trkpt>
      <trkpt lat="46.80536" lon="-1.94945">
        <ele>2</ele>
        <time>2018-03-16T13:57:09Z</time>
      </trkpt>
      <trkpt lat="46.80523" lon="-1.9498">
        <ele>1</ele>
        <time>2018-03-16T13:58:09Z</time>
      </trkpt>
      <trkpt lat="46.80512" lon="-1.95008">
        <ele>1</ele>
        <time>2018-03-16T13:59:09Z</time>
      </trkpt>
      <trkpt lat="46.80499" lon="-1.95041">
        <ele>1</ele>
        <time>2018-03-16T14:00:09Z</time>
      </trkpt>
      <trkpt lat="46.80489" lon="-1.95069">
        <ele>2</ele>
        <time>2018-03-16T14:01:09Z</time>
      </trkpt>
      <trkpt lat="46.80477" lon="-1.95099">
        <ele>2</ele>
        <time>2018-03-16T14:02:09Z</time>
      </trkpt>
      <trkpt lat="46.80465" lon="-1.95136">
        <ele>1</ele>
        <time>2018-03-16T14:03:09Z</time>
      </trkpt>
      <trkpt lat="46.80452" lon="-1.9518">
        <ele>1.9</ele>
        <time>2018-03-16T14:04:09Z</time>
      </trkpt>
      <trkpt lat="46.80436" lon="-1.95231">
        <ele>1.3</ele>
        <time>2018-03-16T14:05:09Z</time>
      </trkpt>
      <trkpt lat="46.80427" lon="-1.95265">
        <ele>1.8</ele>
        <time>2018-03-16T14:06:09Z</time>
      </trkpt>
      <trkpt lat="46.80419" lon="-1.95289">
        <ele>2</ele>
        <time>2018-03-16T14:07:09Z</time>
      </trkpt>
      <trkpt lat="46.80411" lon="-1.95312">
        <ele>1.8</ele>
        <time>2018-03-16T14:08:09Z</time>
      </trkpt>
      <trkpt lat="46.80403" lon="-1.9534">
        <ele>1</ele>
        <time>2018-03-16T14:09:09Z</time>
      </trkpt>
      <trkpt lat="46.80389" lon="-1.95384">
        <ele>1</ele>
        <time>2018-03-16T14:10:09Z</time>
      </trkpt>
      <trkpt lat="46.80373" lon="-1.95436">
        <ele>1.3</ele>
        <time>2018-03-16T14:11:09Z</time>
      </trkpt>
      <trkpt lat="46.80355" lon="-1.95493">
        <ele>1.3</ele>
        <time>2018-03-16T14:12:09Z</time>
      </trkpt>
      <trkpt lat="46.80339" lon="-1.95545">
        <ele>1.8</ele>
        <time>2018-03-16T14:13:09Z</time>
      </trkpt>
      <trkpt lat="46.80323" lon="-1.95594">
        <ele>1.8</ele>
        <time>2018-03-16T14:14:09Z</time>
      </trkpt>
      <trkpt lat="46.8031" lon="-1.95636">
        <ele>2</ele>
        <time>2018-03-16T14:15:09Z</time>
      </trkpt>
      <trkpt lat="46.80297" lon="-1.95677">
        <ele>2</ele>
        <time>2018-03-16T14:16:09Z</time>
      </trkpt>
      <trkpt lat="46.80291" lon="-1.95697">
        <ele>2</ele>
        <time>2018-03-16T14:17:09Z</time>
      </trkpt>
      <trkpt lat="46.80288" lon="-1.95704">
        <ele>1.9</ele>
        <time>2018-03-16T14:18:09Z</time>
      </trkpt>
      <trkpt lat="46.80285" lon="-1.95713">
        <ele>1.8</ele>
        <time>2018-03-16T14:19:09Z</time>
      </trkpt>
      <trkpt lat="46.8028" lon="-1.95733">
        <ele>2.3</ele>
        <time>2018-03-16T14:20:09Z</time>
      </trkpt>
      <trkpt lat="46.80275" lon="-1.95756">
        <ele>1</ele>
        <time>2018-03-16T14:21:09Z</time>
      </trkpt>
      <trkpt lat="46.80271" lon="-1.95781">
        <ele>1</ele>
        <time>2018-03-16T14:22:09Z</time>
      </trkpt>
      <trkpt lat="46.80268" lon="-1.95806">
        <ele>1</ele>
        <time>2018-03-16T14:23:09Z</time>
      </trkpt>
      <trkpt lat="46.80266" lon="-1.95828">
        <ele>1</ele>
        <time>2018-03-16T14:24:09Z</time>
      </trkpt>
      <trkpt lat="46.80264" lon="-1.95854">
        <ele>1</ele>
        <time>2018-03-16T14:25:09Z</time>
      </trkpt>
      <trkpt lat="46.8026" lon="-1.95909">
        <ele>1</ele>
        <time>2018-03-16T14:26:09Z</time>
      </trkpt>
      <trkpt lat="46.80254" lon="-1.95975">
        <ele>2</ele>
        <time>2018-03-16T14:27:09Z</time>
      </trkpt>
      <trkpt lat="46.80248" lon="-1.96048">
        <ele>2</ele>
        <time>2018-03-16T14:28:09Z</time>
      </trkpt>
      <trkpt lat="46.80244" lon="-1.96102">
        <ele>1</ele>
        <time>2018-03-16T14:29:09Z</time>
      </trkpt>
      <trkpt lat="46.80242" lon="-1.96122">
        <ele>1</ele>
        <time>2018-03-16T14:30:09Z</time>
      </trkpt>
      <trkpt lat="46.80241" lon="-1.96142">
        <ele>1</ele>
        <time>2018-03-16T14:31:09Z</time>
      </trkpt>
      <trkpt lat="46.80242" lon="-1.9617">
        <ele>2</ele>
        <time>2018-03-16T14:32:09Z</time>
      </trkpt>
      <trkpt lat="46.80244" lon="-1.96202">
        <ele>2</ele>
        <time>2018-03-16T14:33:09Z</time>
      </trkpt>
      <trkpt lat="46.8025" lon="-1.96237">
        <ele>1</ele>
        <time>2018-03-16T14:34:09Z</time>
      </trkpt>
      <trkpt lat="46.80258" lon="-1.96268">
        <ele>1</ele>
        <time>2018-03-16T14:35:09Z</time>
      </trkpt>
      <trkpt lat="46.80265" lon="-1.96289">
        <ele>1</ele>
        <time>2018-03-16T14:36:09Z</time>
      </trkpt>
      <trkpt lat="46.8027" lon="-1.96305">
        <ele>1</ele>
        <time>2018-03-16T14:37:09Z</time>
      </trkpt>
      <trkpt lat="46.80282" lon="-1.96344">
        <ele>1</ele>
        <time>2018-03-16T14:38:09Z</time>
      </trkpt>
      <trkpt lat="46.80289" lon="-1.96365">
        <ele>1</ele>
        <time>2018-03-16T14:39:09Z</time>
      </trkpt>
      <trkpt lat="46.80298" lon="-1.96393">
        <ele>1</ele>
        <time>2018-03-16T14:40:09Z</time>
      </trkpt>
      <trkpt lat="46.80311" lon="-1.96432">
        <ele>2</ele>
        <time>2018-03-16T14:41:09Z</time>
      </trkpt>
      <trkpt lat="46.80323" lon="-1.96471">
        <ele>2</ele>
        <time>2018-03-16T14:42:09Z</time>
      </trkpt>
      <trkpt lat="46.80333" lon="-1.96502">
        <ele>3</ele>
        <time>2018-03-16T14:43:09Z</time>
      </trkpt>
      <trkpt lat="46.80343" lon="-1.96535">
        <ele>3</ele>
        <time>2018-03-16T14:44:09Z</time>
      </trkpt>
      <trkpt lat="46.80352" lon="-1.96566">
        <ele>2</ele>
        <time>2018-03-16T14:45:09Z</time>
      </trkpt>
      <trkpt lat="46.80354" lon="-1.96574">
        <ele>2</ele>
        <time>2018-03-16T14:46:09Z</time>
      </trkpt>
      <trkpt lat="46.80356" lon="-1.96583">
        <ele>2</ele>
        <time>2018-03-16T14:47:09Z</time>
      </trkpt>
      <trkpt lat="46.80524" lon="-1.97308">
        <ele>1</ele>
        <time>2018-03-16T14:48:09Z</time>
      </trkpt>
      <trkpt lat="46.80527" lon="-1.97318">
        <ele>1</ele>
        <time>2018-03-16T14:49:09Z</time>
      </trkpt>
      <trkpt lat="46.80537" lon="-1.97346">
        <ele>1</ele>
        <time>2018-03-16T14:50:09Z</time>
      </trkpt>
      <trkpt lat="46.80554" lon="-1.97385">
        <ele>2</ele>
        <time>2018-03-16T14:51:09Z</time>
      </trkpt>
      <trkpt lat="46.80585" lon="-1.97457">
        <ele>2</ele>
        <time>2018-03-16T14:52:09Z</time>
      </trkpt>
      <trkpt lat="46.80599" lon="-1.97498">
        <ele>2</ele>
        <time>2018-03-16T14:53:09Z</time>
      </trkpt>
      <trkpt lat="46.80603" lon="-1.97512">
        <ele>1</ele>
        <time>2018-03-16T14:54:09Z</time>
      </trkpt>
      <trkpt lat="46.80607" lon="-1.97531">
        <ele>1</ele>
        <time>2018-03-16T14:55:09Z</time>
      </trkpt>
      <trkpt lat="46.8061" lon="-1.97549">
        <ele>1</ele>
        <time>2018-03-16T14:56:09Z</time>
      </trkpt>
      <trkpt lat="46.80612" lon="-1.97567">
        <ele>1</ele>
        <time>2018-03-16T14:57:09Z</time>
      </trkpt>
      <trkpt lat="46.80614" lon="-1.97596">
        <ele>1</ele>
        <time>2018-03-16T14:58:09Z</time>
      </trkpt>
      <trkpt lat="46.80615" lon="-1.97615">
        <ele>1</ele>
        <time>2018-03-16T14:59:09Z</time>
      </trkpt>
      <trkpt lat="46.80612" lon="-1.97659">
        <ele>1</ele>
        <time>2018-03-16T15:00:09Z</time>
      </trkpt>
      <trkpt lat="46.80611" lon="-1.97672">
        <ele>1</ele>
        <time>2018-03-16T15:01:09Z</time>
      </trkpt>
      <trkpt lat="46.80607" lon="-1.97705">
        <ele>1</ele>
        <time>2018-03-16T15:02:09Z</time>
      </trkpt>
      <trkpt lat="46.80602" lon="-1.97728">
        <ele>1</ele>
        <time>2018-03-16T15:03:09Z</time>
      </trkpt>
      <trkpt lat="46.80593" lon="-1.97774">
        <ele>1</ele>
        <time>2018-03-16T15:04:09Z</time>
      </trkpt>
      <trkpt lat="46.80583" lon="-1.97807">
        <ele>1</ele>
        <time>2018-03-16T15:05:09Z</time>
      </trkpt>
      <trkpt lat="46.80571" lon="-1.97842">
        <ele>1</ele>
        <time>2018-03-16T15:06:09Z</time>
      </trkpt>
      <trkpt lat="46.80549" lon="-1.97909">
        <ele>1</ele>
        <time>2018-03-16T15:07:09Z</time>
      </trkpt>
      <trkpt lat="46.80528" lon="-1.97968">
        <ele>1</ele>
        <time>2018-03-16T15:08:09Z</time>
      </trkpt>
      <trkpt lat="46.80525" lon="-1.97978">
        <ele>1</ele>
        <time>2018-03-16T15:09:09Z</time>
      </trkpt>
      <trkpt lat="46.80513" lon="-1.98009">
        <ele>1</ele>
        <time>2018-03-16T15:10:09Z</time>
      </trkpt>
      <trkpt lat="46.80497" lon="-1.98037">
        <ele>1</ele>
        <time>2018-03-16T15:11:09Z</time>
      </trkpt>
      <trkpt lat="46.80479" lon="-1.98066">
        <ele>1</ele>
        <time>2018-03-16T15:12:09Z</time>
      </trkpt>
      <trkpt lat="46.80413" lon="-1.98157">
        <ele>2</ele>
        <time>2018-03-16T15:13:09Z</time>
      </trkpt>
      <trkpt lat="46.80368" lon="-1.98222">
        <ele>2</ele>
        <time>2018-03-16T15:14:09Z</time>
      </trkpt>
      <trkpt lat="46.80368" lon="-1.98222">
        <ele>2</ele>
        <time>2018-03-16T15:15:09Z</time>
      </trkpt>
      <trkpt lat="46.80354" lon="-1.98206">
        <ele>2</ele>
        <time>2018-03-16T15:16:09Z</time>
      </trkpt>
      <trkpt lat="46.8033" lon="-1.98178">
        <ele>1</ele>
        <time>2018-03-16T15:17:09Z</time>
      </trkpt>
      <trkpt lat="46.80307" lon="-1.98155">
        <ele>1</ele>
        <time>2018-03-16T15:18:09Z</time>
      </trkpt>
      <trkpt lat="46.80291" lon="-1.98135">
        <ele>2</ele>
        <time>2018-03-16T15:19:09Z</time>
      </trkpt>
      <trkpt lat="46.8029" lon="-1.98133">
        <ele>2</ele>
        <time>2018-03-16T15:20:09Z</time>
      </trkpt>
      <trkpt lat="46.80276" lon="-1.98119">
        <ele>2</ele>
        <time>2018-03-16T15:21:09Z</time>
      </trkpt>
      <trkpt lat="46.80262" lon="-1.98105">
        <ele>2</ele>
        <time>2018-03-16T15:22:09Z</time>
      </trkpt>
      <trkpt lat="46.80244" lon="-1.98094">
        <ele>2</ele>
        <time>2018-03-16T15:23:09Z</time>
      </trkpt>
      <trkpt lat="46.80226" lon="-1.98085">
        <ele>2</ele>
        <time>2018-03-16T15:24:09Z</time>
      </trkpt>
      <trkpt lat="46.80212" lon="-1.9808">
        <ele>2</ele>
        <time>2018-03-16T15:25:09Z</time>
      </trkpt>
      <trkpt lat="46.80188" lon="-1.9807">
        <ele>2</ele>
        <time>2018-03-16T15:26:09Z</time>
      </trkpt>
      <trkpt lat="46.8016" lon="-1.98058">
        <ele>1</ele>
        <time>2018-03-16T15:27:09Z</time>
      </trkpt>
      <trkpt lat="46.8014" lon="-1.9805">
        <ele>1</ele>
        <time>2018-03-16T15:28:09Z</time>
      </trkpt>
      <trkpt lat="46.80128" lon="-1.98045">
        <ele>1</ele>
        <time>2018-03-16T15:29:09Z</time>
      </trkpt>
      <trkpt lat="46.80126" lon="-1.98045">
        <ele>1</ele>
        <time>2018-03-16T15:30:09Z</time>
      </trkpt>
      <trkpt lat="46.80097" lon="-1.98034">
        <ele>2</ele>
        <time>2018-03-16T15:31:09Z</time>
      </trkpt>
      <trkpt lat="46.80063" lon="-1.98017">
        <ele>2</ele>
        <time>2018-03-16T15:32:09Z</time>
      </trkpt>
      <trkpt lat="46.80035" lon="-1.98003">
        <ele>2.7</ele>
        <time>2018-03-16T15:33:09Z</time>
      </trkpt>
      <trkpt lat="46.80027" lon="-1.97997">
        <ele>2.9</ele>
        <time>2018-03-16T15:34:09Z</time>
      </trkpt>
      <trkpt lat="46.80002" lon="-1.97973">
        <ele>2</ele>
        <time>2018-03-16T15:35:09Z</time>
      </trkpt>
      <trkpt lat="46.79974" lon="-1.9794">
        <ele>2</ele>
        <time>2018-03-16T15:36:09Z</time>
      </trkpt>
      <trkpt lat="46.79972" lon="-1.97938">
        <ele>2</ele>
        <time>2018-03-16T15:37:09Z</time>
      </trkpt>
      <trkpt lat="46.79941" lon="-1.97903">
        <ele>2</ele>
        <time>2018-03-16T15:38:09Z</time>
      </trkpt>
      <trkpt lat="46.79912" lon="-1.97874">
        <ele>2</ele>
        <time>2018-03-16T15:39:09Z</time>
      </trkpt>
      <trkpt lat="46.79879" lon="-1.97853">
        <ele>2</ele>
        <time>2018-03-16T15:40:09Z</time>
      </trkpt>
      <trkpt lat="46.79845" lon="-1.97834">
        <ele>2</ele>
        <time>2018-03-16T15:41:09Z</time>
      </trkpt>
      <trkpt lat="46.79818" lon="-1.97823">
        <ele>2</ele>
        <time>2018-03-16T15:42:09Z</time>
      </trkpt>
      <trkpt lat="46.79791" lon="-1.97817">
        <ele>2</ele>
        <time>2018-03-16T15:43:09Z</time>
      </trkpt>
      <trkpt lat="46.7977" lon="-1.97818">
        <ele>1</ele>
        <time>2018-03-16T15:44:09Z</time>
      </trkpt>
      <trkpt lat="46.79753" lon="-1.97822">
        <ele>1</ele>
        <time>2018-03-16T15:45:09Z</time>
      </trkpt>
      <trkpt lat="46.79728" lon="-1.97832">
        <ele>1</ele>
        <time>2018-03-16T15:46:09Z</time>
      </trkpt>
      <trkpt lat="46.79705" lon="-1.97841">
        <ele>1</ele>
        <time>2018-03-16T15:47:09Z</time>
      </trkpt>
      <trkpt lat="46.79681" lon="-1.97851">
        <ele>1</ele>
        <time>2018-03-16T15:48:09Z</time>
      </trkpt>
      <trkpt lat="46.79642" lon="-1.97867">
        <ele>1</ele>
        <time>2018-03-16T15:49:09Z</time>
      </trkpt>
      <trkpt lat="46.79616" lon="-1.97877">
        <ele>2</ele>
        <time>2018-03-16T15:50:09Z</time>
      </trkpt>
      <trkpt lat="46.7959" lon="-1.97887">
        <ele>2</ele>
        <time>2018-03-16T15:51:09Z</time>
      </trkpt>
      <trkpt lat="46.79571" lon="-1.97892">
        <ele>2</ele>
        <time>2018-03-16T15:52:09Z</time>
      </trkpt>
      <trkpt lat="46.79557" lon="-1.97895">
        <ele>2</ele>
        <time>2018-03-16T15:53:09Z</time>
      </trkpt>
      <trkpt lat="46.79537" lon="-1.97898">
        <ele>1.8</ele>
        <time>2018-03-16T15:54:09Z</time>
      </trkpt>
      <trkpt lat="46.7949" lon="-1.97903">
        <ele>1.8</ele>
        <time>2018-03-16T15:55:09Z</time>
      </trkpt>
      <trkpt lat="46.79423" lon="-1.97912">
        <ele>2</ele>
        <time>2018-03-16T15:56:09Z</time>
      </trkpt>
      <trkpt lat="46.79351" lon="-1.9792">
        <ele>1</ele>
        <time>2018-03-16T15:57:09Z</time>
      </trkpt>
      <trkpt lat="46.79312" lon="-1.97923">
        <ele>1</ele>
        <time>2018-03-16T15:58:09Z</time>
      </trkpt>
      <trkpt lat="46.793" lon="-1.97923">
        <ele>1</ele>
        <time>2018-03-16T15:59:09Z</time>
      </trkpt>
      <trkpt lat="46.79294" lon="-1.97921">
        <ele>1</ele>
        <time>2018-03-16T16:00:09Z</time>
      </trkpt>
      <trkpt lat="46.79291" lon="-1.9792">
        <ele>1</ele>
        <time>2018-03-16T16:01:09Z</time>
      </trkpt>
      <trkpt lat="46.79287" lon="-1.97918">
        <ele>1</ele>
        <time>2018-03-16T16:02:09Z</time>
      </trkpt>
      <trkpt lat="46.79277" lon="-1.97913">
        <ele>1</ele>
        <time>2018-03-16T16:03:09Z</time>
      </trkpt>
      <trkpt lat="46.79273" lon="-1.9791">
        <ele>1</ele>
        <time>2018-03-16T16:04:09Z</time>
      </trkpt>
      <trkpt lat="46.79268" lon="-1.97907">
        <ele>1</ele>
        <time>2018-03-16T16:05:09Z</time>
      </trkpt>
      <trkpt lat="46.79261" lon="-1.97899">
        <ele>1</ele>
        <time>2018-03-16T16:06:09Z</time>
      </trkpt>
      <trkpt lat="46.79256" lon="-1.97893">
        <ele>1</ele>
        <time>2018-03-16T16:07:09Z</time>
      </trkpt>
      <trkpt lat="46.79245" lon="-1.97877">
        <ele>1</ele>
        <time>2018-03-16T16:08:09Z</time>
      </trkpt>
      <trkpt lat="46.79227" lon="-1.97845">
        <ele>1</ele>
        <time>2018-03-16T16:09:09Z</time>
      </trkpt>
      <trkpt lat="46.79202" lon="-1.97797">
        <ele>1</ele>
        <time>2018-03-16T16:10:09Z</time>
      </trkpt>
      <trkpt lat="46.79154" lon="-1.97705">
        <ele>2</ele>
        <time>2018-03-16T16:11:09Z</time>
      </trkpt>
      <trkpt lat="46.79132" lon="-1.97662">
        <ele>1.8</ele>
        <time>2018-03-16T16:12:09Z</time>
      </trkpt>
      <trkpt lat="46.79111" lon="-1.97621">
        <ele>1</ele>
        <time>2018-03-16T16:13:09Z</time>
      </trkpt>
      <trkpt lat="46.79076" lon="-1.97554">
        <ele>1</ele>
        <time>2018-03-16T16:14:09Z</time>
      </trkpt>
      <trkpt lat="46.7907" lon="-1.97542">
        <ele>1</ele>
        <time>2018-03-16T16:15:09Z</time>
      </trkpt>
      <trkpt lat="46.79053" lon="-1.9751">
        <ele>1</ele>
        <time>2018-03-16T16:16:09Z</time>
      </trkpt>
      <trkpt lat="46.7903" lon="-1.97473">
        <ele>1</ele>
        <time>2018-03-16T16:17:09Z</time>
      </trkpt>
      <trkpt lat="46.79006" lon="-1.97445">
        <ele>2</ele>
        <time>2018-03-16T16:18:09Z</time>
      </trkpt>
      <trkpt lat="46.78983" lon="-1.97425">
        <ele>2</ele>
        <time>2018-03-16T16:19:09Z</time>
      </trkpt>
      <trkpt lat="46.78968" lon="-1.97414">
        <ele>2</ele>
        <time>2018-03-16T16:20:09Z</time>
      </trkpt>
      <trkpt lat="46.78959" lon="-1.97409">
        <ele>2</ele>
        <time>2018-03-16T16:21:09Z</time>
      </trkpt>
      <trkpt lat="46.78935" lon="-1.97397">
        <ele>2</ele>
        <time>2018-03-16T16:22:09Z</time>
      </trkpt>
      <trkpt lat="46.78896" lon="-1.97382">
        <ele>3</ele>
        <time>2018-03-16T16:23:09Z</time>
      </trkpt>
      <trkpt lat="46.78843" lon="-1.97362">
        <ele>5</ele>
        <time>2018-03-16T16:24:09Z</time>
      </trkpt>
      <trkpt lat="46.78761" lon="-1.97331">
        <ele>3</ele>
        <time>2018-03-16T16:25:09Z</time>
      </trkpt>
      <trkpt lat="46.78708" lon="-1.97311">
        <ele>3</ele>
        <time>2018-03-16T16:26:09Z</time>
      </trkpt>
      <trkpt lat="46.78647" lon="-1.97287">
        <ele>3</ele>
        <time>2018-03-16T16:27:09Z</time>
      </trkpt>
      <trkpt lat="46.78638" lon="-1.97284">
        <ele>3</ele>
        <time>2018-03-16T16:28:09Z</time>
      </trkpt>
      <trkpt lat="46.78612" lon="-1.97274">
        <ele>4</ele>
        <time>2018-03-16T16:29:09Z</time>
      </trkpt>
      <trkpt lat="46.78587" lon="-1.97263">
        <ele>5</ele>
        <time>2018-03-16T16:30:09Z</time>
      </trkpt>
      <trkpt lat="46.7852" lon="-1.97238">
        <ele>5</ele>
        <time>2018-03-16T16:31:09Z</time>
      </trkpt>
      <trkpt lat="46.78503" lon="-1.97232">
        <ele>4</ele>
        <time>2018-03-16T16:32:09Z</time>
      </trkpt>
      <trkpt lat="46.78465" lon="-1.97216">
        <ele>4</ele>
        <time>2018-03-16T16:33:09Z</time>
      </trkpt>
      <trkpt lat="46.78423" lon="-1.97197">
        <ele>5</ele>
        <time>2018-03-16T16:34:09Z</time>
      </trkpt>
      <trkpt lat="46.78307" lon="-1.97133">
        <ele>5</ele>
        <time>2018-03-16T16:35:09Z</time>
      </trkpt>
      <trkpt lat="46.78282" lon="-1.97119">
        <ele>4</ele>
        <time>2018-03-16T16:36:09Z</time>
      </trkpt>
      <trkpt lat="46.78249" lon="-1.971">
        <ele>3</ele>
        <time>2018-03-16T16:37:09Z</time>
      </trkpt>
      <trkpt lat="46.7822" lon="-1.97084">
        <ele>3</ele>
        <time>2018-03-16T16:38:09Z</time>
      </trkpt>
      <trkpt lat="46.78207" lon="-1.97077">
        <ele>3</ele>
        <time>2018-03-16T16:39:09Z</time>
      </trkpt>
      <trkpt lat="46.78183" lon="-1.97064">
        <ele>3</ele>
        <time>2018-03-16T16:40:09Z</time>
      </trkpt>
      <trkpt lat="46.78149" lon="-1.97046">
        <ele>4</ele>
        <time>2018-03-16T16:41:09Z</time>
      </trkpt>
      <trkpt lat="46.78108" lon="-1.97022">
        <ele>5</ele>
        <time>2018-03-16T16:42:09Z</time>
      </trkpt>
      <trkpt lat="46.78048" lon="-1.96989">
        <ele>5</ele>
        <time>2018-03-16T16:43:09Z</time>
      </trkpt>
      <trkpt lat="46.77993" lon="-1.96959">
        <ele>4</ele>
        <time>2018-03-16T16:44:09Z</time>
      </trkpt>
      <trkpt lat="46.7796" lon="-1.9694">
        <ele>4</ele>
        <time>2018-03-16T16:45:09Z</time>
      </trkpt>
      <trkpt lat="46.77938" lon="-1.96929">
        <ele>3</ele>
        <time>2018-03-16T16:46:09Z</time>
      </trkpt>
      <trkpt lat="46.77917" lon="-1.96918">
        <ele>3</ele>
        <time>2018-03-16T16:47:09Z</time>
      </trkpt>
      <trkpt lat="46.77886" lon="-1.96906">
        <ele>4</ele>
        <time>2018-03-16T16:48:09Z</time>
      </trkpt>
      <trkpt lat="46.77842" lon="-1.96888">
        <ele>5</ele>
        <time>2018-03-16T16:49:09Z</time>
      </trkpt>
      <trkpt lat="46.77818" lon="-1.96879">
        <ele>5</ele>
        <time>2018-03-16T16:50:09Z</time>
      </trkpt>
      <trkpt lat="46.77782" lon="-1.96865">
        <ele>4</ele>
        <time>2018-03-16T16:51:09Z</time>
      </trkpt>
      <trkpt lat="46.77755" lon="-1.96851">
        <ele>4</ele>
        <time>2018-03-16T16:52:09Z</time>
      </trkpt>
      <trkpt lat="46.77731" lon="-1.96834">
        <ele>4</ele>
        <time>2018-03-16T16:53:09Z</time>
      </trkpt>
      <trkpt lat="46.77701" lon="-1.9681">
        <ele>3</ele>
        <time>2018-03-16T16:54:09Z</time>
      </trkpt>
      <trkpt lat="46.77684" lon="-1.96793">
        <ele>3</ele>
        <time>2018-03-16T16:55:09Z</time>
      </trkpt>
      <trkpt lat="46.77571" lon="-1.96688">
        <ele>5</ele>
        <time>2018-03-16T16:56:09Z</time>
      </trkpt>
      <trkpt lat="46.77524" lon="-1.96644">
        <ele>6</ele>
        <time>2018-03-16T16:57:09Z</time>
      </trkpt>
      <trkpt lat="46.77518" lon="-1.96641">
        <ele>6</ele>
        <time>2018-03-16T16:58:09Z</time>
      </trkpt>
      <trkpt lat="46.77481" lon="-1.96606">
        <ele>6</ele>
        <time>2018-03-16T16:59:09Z</time>
      </trkpt>
      <trkpt lat="46.77477" lon="-1.96599">
        <ele>6</ele>
        <time>2018-03-16T17:00:09Z</time>
      </trkpt>
      <trkpt lat="46.77468" lon="-1.9659">
        <ele>6</ele>
        <time>2018-03-16T17:01:09Z</time>
      </trkpt>
      <trkpt lat="46.77467" lon="-1.96589">
        <ele>6</ele>
        <time>2018-03-16T17:02:09Z</time>
      </trkpt>
      <trkpt lat="46.77365" lon="-1.96485">
        <ele>4</ele>
        <time>2018-03-16T17:03:09Z</time>
      </trkpt>
      <trkpt lat="46.77363" lon="-1.96484">
        <ele>4</ele>
        <time>2018-03-16T17:04:09Z</time>
      </trkpt>
      <trkpt lat="46.77306" lon="-1.96428">
        <ele>5</ele>
        <time>2018-03-16T17:05:09Z</time>
      </trkpt>
      <trkpt lat="46.77281" lon="-1.96404">
        <ele>5</ele>
        <time>2018-03-16T17:06:09Z</time>
      </trkpt>
      <trkpt lat="46.77263" lon="-1.96387">
        <ele>4</ele>
        <time>2018-03-16T17:07:09Z</time>
      </trkpt>
      <trkpt lat="46.77211" lon="-1.96338">
        <ele>5</ele>
        <time>2018-03-16T17:08:09Z</time>
      </trkpt>
      <trkpt lat="46.77186" lon="-1.9632">
        <ele>6</ele>
        <time>2018-03-16T17:09:09Z</time>
      </trkpt>
      <trkpt lat="46.77166" lon="-1.96314">
        <ele>7</ele>
        <time>2018-03-16T17:10:09Z</time>
      </trkpt>
      <trkpt lat="46.77166" lon="-1.96319">
        <ele>7</ele>
        <time>2018-03-16T17:11:09Z</time>
      </trkpt>
      <trkpt lat="46.77166" lon="-1.96322">
        <ele>7</ele>
        <time>2018-03-16T17:12:09Z</time>
      </trkpt>
      <trkpt lat="46.77165" lon="-1.96324">
        <ele>7</ele>
        <time>2018-03-16T17:13:09Z</time>
      </trkpt>
      <trkpt lat="46.77164" lon="-1.96327">
        <ele>7</ele>
        <time>2018-03-16T17:14:09Z</time>
      </trkpt>
      <trkpt lat="46.77162" lon="-1.96328">
        <ele>7</ele>
        <time>2018-03-16T17:15:09Z</time>
      </trkpt>
      <trkpt lat="46.7716" lon="-1.9633">
        <ele>7</ele>
        <time>2018-03-16T17:16:09Z</time>
      </trkpt>
      <trkpt lat="46.77158" lon="-1.9633">
        <ele>7</ele>
        <time>2018-03-16T17:17:09Z</time>
      </trkpt>
      <trkpt lat="46.77156" lon="-1.96329">
        <ele>7</ele>
        <time>2018-03-16T17:18:09Z</time>
      </trkpt>
      <trkpt lat="46.77154" lon="-1.96328">
        <ele>7</ele>
        <time>2018-03-16T17:19:09Z</time>
      </trkpt>
      <trkpt lat="46.77153" lon="-1.96326">
        <ele>7</ele>
        <time>2018-03-16T17:20:09Z</time>
      </trkpt>
      <trkpt lat="46.77152" lon="-1.96324">
        <ele>7</ele>
        <time>2018-03-16T17:21:09Z</time>
      </trkpt>
      <trkpt lat="46.77151" lon="-1.9632">
        <ele>7</ele>
        <time>2018-03-16T17:22:09Z</time>
      </trkpt>
      <trkpt lat="46.77151" lon="-1.96317">
        <ele>6</ele>
        <time>2018-03-16T17:23:09Z</time>
      </trkpt>
      <trkpt lat="46.77151" lon="-1.96315">
        <ele>6</ele>
        <time>2018-03-16T17:24:09Z</time>
      </trkpt>
      <trkpt lat="46.77132" lon="-1.96302">
        <ele>6</ele>
        <time>2018-03-16T17:25:09Z</time>
      </trkpt>
      <trkpt lat="46.77103" lon="-1.96298">
        <ele>6</ele>
        <time>2018-03-16T17:26:09Z</time>
      </trkpt>
      <trkpt lat="46.77029" lon="-1.96289">
        <ele>4</ele>
        <time>2018-03-16T17:27:09Z</time>
      </trkpt>
      <trkpt lat="46.77023" lon="-1.96289">
        <ele>3</ele>
        <time>2018-03-16T17:28:09Z</time>
      </trkpt>
      <trkpt lat="46.76955" lon="-1.96283">
        <ele>3</ele>
        <time>2018-03-16T17:29:09Z</time>
      </trkpt>
      <trkpt lat="46.76928" lon="-1.96281">
        <ele>3</ele>
        <time>2018-03-16T17:30:09Z</time>
      </trkpt>
      <trkpt lat="46.76887" lon="-1.96274">
        <ele>4</ele>
        <time>2018-03-16T17:31:09Z</time>
      </trkpt>
      <trkpt lat="46.76872" lon="-1.96271">
        <ele>3</ele>
        <time>2018-03-16T17:32:09Z</time>
      </trkpt>
      <trkpt lat="46.76817" lon="-1.96263">
        <ele>3</ele>
        <time>2018-03-16T17:33:09Z</time>
      </trkpt>
      <trkpt lat="46.76785" lon="-1.96253">
        <ele>3</ele>
        <time>2018-03-16T17:34:09Z</time>
      </trkpt>
      <trkpt lat="46.76722" lon="-1.9623">
        <ele>3</ele>
        <time>2018-03-16T17:35:09Z</time>
      </trkpt>
      <trkpt lat="46.76618" lon="-1.96189">
        <ele>4</ele>
        <time>2018-03-16T17:36:09Z</time>
      </trkpt>
      <trkpt lat="46.76539" lon="-1.9616">
        <ele>3</ele>
        <time>2018-03-16T17:37:09Z</time>
      </trkpt>
      <trkpt lat="46.76513" lon="-1.9615">
        <ele>3</ele>
        <time>2018-03-16T17:38:09Z</time>
      </trkpt>
      <trkpt lat="46.76513" lon="-1.9615">
        <ele>3</ele>
        <time>2018-03-16T17:39:09Z</time>
      </trkpt>
      <trkpt lat="46.76483" lon="-1.96264">
        <ele>1</ele>
        <time>2018-03-16T17:40:09Z</time>
      </trkpt>
      <trkpt lat="46.76482" lon="-1.96269">
        <ele>1</ele>
        <time>2018-03-16T17:41:09Z</time>
      </trkpt>
      <trkpt lat="46.7646" lon="-1.96364">
        <ele>1</ele>
        <time>2018-03-16T17:42:09Z</time>
      </trkpt>
      <trkpt lat="46.7646" lon="-1.96366">
        <ele>1</ele>
        <time>2018-03-16T17:43:09Z</time>
      </trkpt>
      <trkpt lat="46.76436" lon="-1.96477">
        <ele>2.7</ele>
        <time>2018-03-16T17:44:09Z</time>
      </trkpt>
      <trkpt lat="46.76418" lon="-1.96548">
        <ele>2</ele>
        <time>2018-03-16T17:45:09Z</time>
      </trkpt>
      <trkpt lat="46.76414" lon="-1.96558">
        <ele>2</ele>
        <time>2018-03-16T17:46:09Z</time>
      </trkpt>
      <trkpt lat="46.7641" lon="-1.96561">
        <ele>2</ele>
        <time>2018-03-16T17:47:09Z</time>
      </trkpt>
      <trkpt lat="46.7641" lon="-1.96561">
        <ele>2</ele>
        <time>2018-03-16T17:48:09Z</time>
      </trkpt>
      <trkpt lat="46.76394" lon="-1.96575">
        <ele>2</ele>
        <time>2018-03-16T17:49:09Z</time>
      </trkpt>
      <trkpt lat="46.76372" lon="-1.96589">
        <ele>2</ele>
        <time>2018-03-16T17:50:09Z</time>
      </trkpt>
      <trkpt lat="46.76353" lon="-1.96596">
        <ele>2</ele>
        <time>2018-03-16T17:51:09Z</time>
      </trkpt>
      <trkpt lat="46.76339" lon="-1.96597">
        <ele>2</ele>
        <time>2018-03-16T17:52:09Z</time>
      </trkpt>
      <trkpt lat="46.76319" lon="-1.96594">
        <ele>2</ele>
        <time>2018-03-16T17:53:09Z</time>
      </trkpt>
      <trkpt lat="46.76313" lon="-1.96591">
        <ele>2</ele>
        <time>2018-03-16T17:54:09Z</time>
      </trkpt>
      <trkpt lat="46.76297" lon="-1.96582">
        <ele>2</ele>
        <time>2018-03-16T17:55:09Z</time>
      </trkpt>
      <trkpt lat="46.76269" lon="-1.96564">
        <ele>1</ele>
        <time>2018-03-16T17:56:09Z</time>
      </trkpt>
      <trkpt lat="46.76242" lon="-1.96546">
        <ele>1</ele>
        <time>2018-03-16T17:57:09Z</time>
      </trkpt>
      <trkpt lat="46.76215" lon="-1.96535">
        <ele>2</ele>
        <time>2018-03-16T17:58:09Z</time>
      </trkpt>
      <trkpt lat="46.76198" lon="-1.96535">
        <ele>2</ele>
        <time>2018-03-16T17:59:09Z</time>
      </trkpt>
      <trkpt lat="46.76183" lon="-1.96535">
        <ele>2</ele>
        <time>2018-03-16T18:00:09Z</time>
      </trkpt>
      <trkpt lat="46.76168" lon="-1.96539">
        <ele>2</ele>
        <time>2018-03-16T18:01:09Z</time>
      </trkpt>
      <trkpt lat="46.76161" lon="-1.96546">
        <ele>1</ele>
        <time>2018-03-16T18:02:09Z</time>
      </trkpt>
      <trkpt lat="46.7615" lon="-1.96555">
        <ele>1</ele>
        <time>2018-03-16T18:03:09Z</time>
      </trkpt>
      <trkpt lat="46.76134" lon="-1.96578">
        <ele>1</ele>
        <time>2018-03-16T18:04:09Z</time>
      </trkpt>
      <trkpt lat="46.76122" lon="-1.96595">
        <ele>1</ele>
        <time>2018-03-16T18:05:09Z</time>
      </trkpt>
      <trkpt lat="46.76109" lon="-1.96604">
        <ele>1</ele>
        <time>2018-03-16T18:06:09Z</time>
      </trkpt>
      <trkpt lat="46.76092" lon="-1.9661">
        <ele>1</ele>
        <time>2018-03-16T18:07:09Z</time>
      </trkpt>
      <trkpt lat="46.7608" lon="-1.96611">
        <ele>1</ele>
        <time>2018-03-16T18:08:09Z</time>
      </trkpt>
      <trkpt lat="46.76076" lon="-1.96611">
        <ele>1</ele>
        <time>2018-03-16T18:09:09Z</time>
      </trkpt>
      <trkpt lat="46.76037" lon="-1.96606">
        <ele>1</ele>
        <time>2018-03-16T18:10:09Z</time>
      </trkpt>
      <trkpt lat="46.75982" lon="-1.96594">
        <ele>1</ele>
        <time>2018-03-16T18:11:09Z</time>
      </trkpt>
      <trkpt lat="46.75932" lon="-1.96583">
        <ele>1</ele>
        <time>2018-03-16T18:12:09Z</time>
      </trkpt>
      <trkpt lat="46.75924" lon="-1.96583">
        <ele>1</ele>
        <time>2018-03-16T18:13:09Z</time>
      </trkpt>
      <trkpt lat="46.75875" lon="-1.96582">
        <ele>3</ele>
        <time>2018-03-16T18:14:09Z</time>
      </trkpt>
      <trkpt lat="46.75833" lon="-1.96582">
        <ele>2</ele>
        <time>2018-03-16T18:15:09Z</time>
      </trkpt>
      <trkpt lat="46.75808" lon="-1.96582">
        <ele>2</ele>
        <time>2018-03-16T18:16:09Z</time>
      </trkpt>
      <trkpt lat="46.7579" lon="-1.96584">
        <ele>2</ele>
        <time>2018-03-16T18:17:09Z</time>
      </trkpt>
      <trkpt lat="46.75773" lon="-1.96588">
        <ele>1.9</ele>
        <time>2018-03-16T18:18:09Z</time>
      </trkpt>
      <trkpt lat="46.75738" lon="-1.96606">
        <ele>2</ele>
        <time>2018-03-16T18:19:09Z</time>
      </trkpt>
      <trkpt lat="46.75705" lon="-1.96625">
        <ele>1</ele>
        <time>2018-03-16T18:20:09Z</time>
      </trkpt>
      <trkpt lat="46.75676" lon="-1.96647">
        <ele>2</ele>
        <time>2018-03-16T18:21:09Z</time>
      </trkpt>
      <trkpt lat="46.75656" lon="-1.96669">
        <ele>2</ele>
        <time>2018-03-16T18:22:09Z</time>
      </trkpt>
      <trkpt lat="46.75645" lon="-1.96682">
        <ele>2</ele>
        <time>2018-03-16T18:23:09Z</time>
      </trkpt>
      <trkpt lat="46.75634" lon="-1.96701">
        <ele>2</ele>
        <time>2018-03-16T18:24:09Z</time>
      </trkpt>
      <trkpt lat="46.75626" lon="-1.96723">
        <ele>2</ele>
        <time>2018-03-16T18:25:09Z</time>
      </trkpt>
      <trkpt lat="46.75616" lon="-1.96758">
        <ele>3</ele>
        <time>2018-03-16T18:26:09Z</time>
      </trkpt>
      <trkpt lat="46.75608" lon="-1.96796">
        <ele>5</ele>
        <time>2018-03-16T18:27:09Z</time>
      </trkpt>
      <trkpt lat="46.75603" lon="-1.96834">
        <ele>6</ele>
        <time>2018-03-16T18:28:09Z</time>
      </trkpt>
      <trkpt lat="46.756" lon="-1.96875">
        <ele>6</ele>
        <time>2018-03-16T18:29:09Z</time>
      </trkpt>
      <trkpt lat="46.75599" lon="-1.96892">
        <ele>7</ele>
        <time>2018-03-16T18:30:09Z</time>
      </trkpt>
      <trkpt lat="46.756" lon="-1.96913">
        <ele>7</ele>
        <time>2018-03-16T18:31:09Z</time>
      </trkpt>
      <trkpt lat="46.75602" lon="-1.96942">
        <ele>7</ele>
        <time>2018-03-16T18:32:09Z</time>
      </trkpt>
      <trkpt lat="46.75605" lon="-1.96979">
        <ele>7</ele>
        <time>2018-03-16T18:33:09Z</time>
      </trkpt>
      <trkpt lat="46.75623" lon="-1.97099">
        <ele>6</ele>
        <time>2018-03-16T18:34:09Z</time>
      </trkpt>
      <trkpt lat="46.75631" lon="-1.97183">
        <ele>5</ele>
        <time>2018-03-16T18:35:09Z</time>
      </trkpt>
      <trkpt lat="46.75638" lon="-1.97232">
        <ele>5</ele>
        <time>2018-03-16T18:36:09Z</time>
      </trkpt>
      <trkpt lat="46.75646" lon="-1.97308">
        <ele>6</ele>
        <time>2018-03-16T18:37:09Z</time>
      </trkpt>
      <trkpt lat="46.75649" lon="-1.97333">
        <ele>6</ele>
        <time>2018-03-16T18:38:09Z</time>
      </trkpt>
      <trkpt lat="46.75655" lon="-1.97364">
        <ele>5</ele>
        <time>2018-03-16T18:39:09Z</time>
      </trkpt>
      <trkpt lat="46.75666" lon="-1.97404">
        <ele>5</ele>
        <time>2018-03-16T18:40:09Z</time>
      </trkpt>
      <trkpt lat="46.75676" lon="-1.97433">
        <ele>5</ele>
        <time>2018-03-16T18:41:09Z</time>
      </trkpt>
      <trkpt lat="46.7569" lon="-1.97473">
        <ele>5</ele>
        <time>2018-03-16T18:42:09Z</time>
      </trkpt>
      <trkpt lat="46.75702" lon="-1.97511">
        <ele>6</ele>
        <time>2018-03-16T18:43:09Z</time>
      </trkpt>
      <trkpt lat="46.75712" lon="-1.97553">
        <ele>6</ele>
        <time>2018-03-16T18:44:09Z</time>
      </trkpt>
      <trkpt lat="46.75716" lon="-1.97588">
        <ele>6</ele>
        <time>2018-03-16T18:45:09Z</time>
      </trkpt>
      <trkpt lat="46.75718" lon="-1.97608">
        <ele>6</ele>
        <time>2018-03-16T18:46:09Z</time>
      </trkpt>
      <trkpt lat="46.75719" lon="-1.97632">
        <ele>7</ele>
        <time>2018-03-16T18:47:09Z</time>
      </trkpt>
      <trkpt lat="46.75718" lon="-1.97654">
        <ele>7</ele>
        <time>2018-03-16T18:48:09Z</time>
      </trkpt>
      <trkpt lat="46.75716" lon="-1.97676">
        <ele>7</ele>
        <time>2018-03-16T18:49:09Z</time>
      </trkpt>
      <trkpt lat="46.75716" lon="-1.97684">
        <ele>7</ele>
        <time>2018-03-16T18:50:09Z</time>
      </trkpt>
      <trkpt lat="46.75716" lon="-1.9769">
        <ele>7</ele>
        <time>2018-03-16T18:51:09Z</time>
      </trkpt>
      <trkpt lat="46.75716" lon="-1.97705">
        <ele>7</ele>
        <time>2018-03-16T18:52:09Z</time>
      </trkpt>
      <trkpt lat="46.75719" lon="-1.97736">
        <ele>7</ele>
        <time>2018-03-16T18:53:09Z</time>
      </trkpt>
      <trkpt lat="46.75728" lon="-1.97768">
        <ele>6</ele>
        <time>2018-03-16T18:54:09Z</time>
      </trkpt>
      <trkpt lat="46.75748" lon="-1.97826">
        <ele>5</ele>
        <time>2018-03-16T18:55:09Z</time>
      </trkpt>
      <trkpt lat="46.7578" lon="-1.97912">
        <ele>5</ele>
        <time>2018-03-16T18:56:09Z</time>
      </trkpt>
      <trkpt lat="46.75805" lon="-1.9798">
        <ele>5</ele>
        <time>2018-03-16T18:57:09Z</time>
      </trkpt>
      <trkpt lat="46.75816" lon="-1.98016">
        <ele>5</ele>
        <time>2018-03-16T18:58:09Z</time>
      </trkpt>
      <trkpt lat="46.75823" lon="-1.98045">
        <ele>5</ele>
        <time>2018-03-16T18:59:09Z</time>
      </trkpt>
      <trkpt lat="46.7583" lon="-1.98107">
        <ele>6</ele>
        <time>2018-03-16T19:00:09Z</time>
      </trkpt>
      <trkpt lat="46.75846" lon="-1.98192">
        <ele>6</ele>
        <time>2018-03-16T19:01:09Z</time>
      </trkpt>
      <trkpt lat="46.7585" lon="-1.98222">
        <ele>6</ele>
        <time>2018-03-16T19:02:09Z</time>
      </trkpt>
      <trkpt lat="46.75856" lon="-1.98259">
        <ele>5</ele>
        <time>2018-03-16T19:03:09Z</time>
      </trkpt>
      <trkpt lat="46.7586" lon="-1.98298">
        <ele>5</ele>
        <time>2018-03-16T19:04:09Z</time>
      </trkpt>
      <trkpt lat="46.75862" lon="-1.9835">
        <ele>5</ele>
        <time>2018-03-16T19:05:09Z</time>
      </trkpt>
      <trkpt lat="46.75862" lon="-1.98376">
        <ele>6</ele>
        <time>2018-03-16T19:06:09Z</time>
      </trkpt>
      <trkpt lat="46.75863" lon="-1.98409">
        <ele>7</ele>
        <time>2018-03-16T19:07:09Z</time>
      </trkpt>
      <trkpt lat="46.75863" lon="-1.98413">
        <ele>7</ele>
        <time>2018-03-16T19:08:09Z</time>
      </trkpt>
      <trkpt lat="46.75867" lon="-1.98446">
        <ele>7</ele>
        <time>2018-03-16T19:09:09Z</time>
      </trkpt>
      <trkpt lat="46.75878" lon="-1.98498">
        <ele>6</ele>
        <time>2018-03-16T19:10:09Z</time>
      </trkpt>
      <trkpt lat="46.75885" lon="-1.98542">
        <ele>6</ele>
        <time>2018-03-16T19:11:09Z</time>
      </trkpt>
      <trkpt lat="46.75895" lon="-1.98613">
        <ele>5</ele>
        <time>2018-03-16T19:12:09Z</time>
      </trkpt>
      <trkpt lat="46.75902" lon="-1.98684">
        <ele>5</ele>
        <time>2018-03-16T19:13:09Z</time>
      </trkpt>
      <trkpt lat="46.75909" lon="-1.98742">
        <ele>4</ele>
        <time>2018-03-16T19:14:09Z</time>
      </trkpt>
      <trkpt lat="46.7592" lon="-1.98787">
        <ele>4</ele>
        <time>2018-03-16T19:15:09Z</time>
      </trkpt>
      <trkpt lat="46.75932" lon="-1.98834">
        <ele>5</ele>
        <time>2018-03-16T19:16:09Z</time>
      </trkpt>
      <trkpt lat="46.75968" lon="-1.98939">
        <ele>4</ele>
        <time>2018-03-16T19:17:09Z</time>
      </trkpt>
      <trkpt lat="46.75976" lon="-1.98963">
        <ele>4</ele>
        <time>2018-03-16T19:18:09Z</time>
      </trkpt>
      <trkpt lat="46.75989" lon="-1.99011">
        <ele>4</ele>
        <time>2018-03-16T19:19:09Z</time>
      </trkpt>
      <trkpt lat="46.7599" lon="-1.99013">
        <ele>4</ele>
        <time>2018-03-16T19:20:09Z</time>
      </trkpt>
      <trkpt lat="46.76002" lon="-1.99088">
        <ele>4</ele>
        <time>2018-03-16T19:21:09Z</time>
      </trkpt>
      <trkpt lat="46.76009" lon="-1.99125">
        <ele>4</ele>
        <time>2018-03-16T19:22:09Z</time>
      </trkpt>
      <trkpt lat="46.76011" lon="-1.99136">
        <ele>3</ele>
        <time>2018-03-16T19:23:09Z</time>
      </trkpt>
      <trkpt lat="46.76015" lon="-1.99145">
        <ele>3</ele>
        <time>2018-03-16T19:24:09Z</time>
      </trkpt>
      <trkpt lat="46.76019" lon="-1.99156">
        <ele>3</ele>
        <time>2018-03-16T19:25:09Z</time>
      </trkpt>
      <trkpt lat="46.76024" lon="-1.99174">
        <ele>3</ele>
        <time>2018-03-16T19:26:09Z</time>
      </trkpt>
      <trkpt lat="46.76032" lon="-1.99201">
        <ele>3</ele>
        <time>2018-03-16T19:27:09Z</time>
      </trkpt>
      <trkpt lat="46.76034" lon="-1.99213">
        <ele>3</ele>
        <time>2018-03-16T19:28:09Z</time>
      </trkpt>
      <trkpt lat="46.76036" lon="-1.99223">
        <ele>3</ele>
        <time>2018-03-16T19:29:09Z</time>
      </trkpt>
      <trkpt lat="46.76037" lon="-1.99237">
        <ele>3</ele>
        <time>2018-03-16T19:30:09Z</time>
      </trkpt>
      <trkpt lat="46.76037" lon="-1.99237">
        <ele>3</ele>
        <time>2018-03-16T19:31:09Z</time>
      </trkpt>
      <trkpt lat="46.76067" lon="-1.99276">
        <ele>3</ele>
        <time>2018-03-16T19:32:09Z</time>
      </trkpt>
      <trkpt lat="46.76067" lon="-1.99276">
        <ele>3</ele>
        <time>2018-03-16T19:33:09Z</time>
      </trkpt>
      <trkpt lat="46.7606" lon="-1.99282">
        <ele>2</ele>
        <time>2018-03-16T19:34:09Z</time>
      </trkpt>
      <trkpt lat="46.76055" lon="-1.99287">
        <ele>2</ele>
        <time>2018-03-16T19:35:09Z</time>
      </trkpt>
      <trkpt lat="46.7605" lon="-1.99294">
        <ele>2</ele>
        <time>2018-03-16T19:36:09Z</time>
      </trkpt>
      <trkpt lat="46.76045" lon="-1.99302">
        <ele>2</ele>
        <time>2018-03-16T19:37:09Z</time>
      </trkpt>
      <trkpt lat="46.76039" lon="-1.99308">
        <ele>2</ele>
        <time>2018-03-16T19:38:09Z</time>
      </trkpt>
      <trkpt lat="46.76026" lon="-1.99323">
        <ele>2</ele>
        <time>2018-03-16T19:39:09Z</time>
      </trkpt>
      <trkpt lat="46.76012" lon="-1.99336">
        <ele>2</ele>
        <time>2018-03-16T19:40:09Z</time>
      </trkpt>
      <trkpt lat="46.75976" lon="-1.99368">
        <ele>2</ele>
        <time>2018-03-16T19:41:09Z</time>
      </trkpt>
      <trkpt lat="46.75943" lon="-1.99398">
        <ele>1</ele>
        <time>2018-03-16T19:42:09Z</time>
      </trkpt>
      <trkpt lat="46.75891" lon="-1.99448">
        <ele>1</ele>
        <time>2018-03-16T19:43:09Z</time>
      </trkpt>
      <trkpt lat="46.75873" lon="-1.9947">
        <ele>1</ele>
        <time>2018-03-16T19:44:09Z</time>
      </trkpt>
      <trkpt lat="46.75858" lon="-1.99492">
        <ele>1</ele>
        <time>2018-03-16T19:45:09Z</time>
      </trkpt>
      <trkpt lat="46.75829" lon="-1.99537">
        <ele>1</ele>
        <time>2018-03-16T19:46:09Z</time>
      </trkpt>
      <trkpt lat="46.75806" lon="-1.99571">
        <ele>1</ele>
        <time>2018-03-16T19:47:09Z</time>
      </trkpt>
      <trkpt lat="46.75784" lon="-1.99605">
        <ele>1</ele>
        <time>2018-03-16T19:48:09Z</time>
      </trkpt>
      <trkpt lat="46.75765" lon="-1.99633">
        <ele>1</ele>
        <time>2018-03-16T19:49:09Z</time>
      </trkpt>
      <trkpt lat="46.75743" lon="-1.99661">
        <ele>1</ele>
        <time>2018-03-16T19:50:09Z</time>
      </trkpt>
      <trkpt lat="46.75725" lon="-1.99682">
        <ele>1</ele>
        <time>2018-03-16T19:51:09Z</time>
      </trkpt>
      <trkpt lat="46.7571" lon="-1.99697">
        <ele>1</ele>
        <time>2018-03-16T19:52:09Z</time>
      </trkpt>
      <trkpt lat="46.75706" lon="-1.997">
        <ele>1</ele>
        <time>2018-03-16T19:53:09Z</time>
      </trkpt>
      <trkpt lat="46.75702" lon="-1.99702">
        <ele>1</ele>
        <time>2018-03-16T19:54:09Z</time>
      </trkpt>
      <trkpt lat="46.75699" lon="-1.99703">
        <ele>1</ele>
        <time>2018-03-16T19:55:09Z</time>
      </trkpt>
      <trkpt lat="46.75694" lon="-1.99704">
        <ele>1</ele>
        <time>2018-03-16T19:56:09Z</time>
      </trkpt>
      <trkpt lat="46.75676" lon="-1.99705">
        <ele>1</ele>
        <time>2018-03-16T19:57:09Z</time>
      </trkpt>
      <trkpt lat="46.7566" lon="-1.99705">
        <ele>1</ele>
        <time>2018-03-16T19:58:09Z</time>
      </trkpt>
      <trkpt lat="46.75643" lon="-1.99703">
        <ele>1</ele>
        <time>2018-03-16T19:59:09Z</time>
      </trkpt>
      <trkpt lat="46.75632" lon="-1.99704">
        <ele>1</ele>
        <time>2018-03-16T20:00:09Z</time>
      </trkpt>
      <trkpt lat="46.75623" lon="-1.99706">
        <ele>1</ele>
        <time>2018-03-16T20:01:09Z</time>
      </trkpt>
      <trkpt lat="46.7562" lon="-1.99709">
        <ele>1</ele>
        <time>2018-03-16T20:02:09Z</time>
      </trkpt>
      <trkpt lat="46.75618" lon="-1.99711">
        <ele>1</ele>
        <time>2018-03-16T20:03:09Z</time>
      </trkpt>
      <trkpt lat="46.75616" lon="-1.99714">
        <ele>1</ele>
        <time>2018-03-16T20:04:09Z</time>
      </trkpt>
      <trkpt lat="46.75614" lon="-1.99719">
        <ele>1</ele>
        <time>2018-03-16T20:05:09Z</time>
      </trkpt>
      <trkpt lat="46.75612" lon="-1.99723">
        <ele>1</ele>
        <time>2018-03-16T20:06:09Z</time>
      </trkpt>
      <trkpt lat="46.75611" lon="-1.99729">
        <ele>1</ele>
        <time>2018-03-16T20:07:09Z</time>
      </trkpt>
      <trkpt lat="46.75607" lon="-1.99757">
        <ele>1</ele>
        <time>2018-03-16T20:08:09Z</time>
      </trkpt>
      <trkpt lat="46.75602" lon="-1.99782">
        <ele>1</ele>
        <time>2018-03-16T20:09:09Z</time>
      </trkpt>
      <trkpt lat="46.75595" lon="-1.99814">
        <ele>1</ele>
        <time>2018-03-16T20:10:09Z</time>
      </trkpt>
      <trkpt lat="46.75589" lon="-1.99835">
        <ele>1</ele>
        <time>2018-03-16T20:11:09Z</time>
      </trkpt>
      <trkpt lat="46.75576" lon="-1.99877">
        <ele>1</ele>
        <time>2018-03-16T20:12:09Z</time>
      </trkpt>
      <trkpt lat="46.75566" lon="-1.99908">
        <ele>1</ele>
        <time>2018-03-16T20:13:09Z</time>
      </trkpt>
      <trkpt lat="46.75562" lon="-1.99922">
        <ele>1</ele>
        <time>2018-03-16T20:14:09Z</time>
      </trkpt>
      <trkpt lat="46.75546" lon="-1.99965">
        <ele>2</ele>
        <time>2018-03-16T20:15:09Z</time>
      </trkpt>
      <trkpt lat="46.75533" lon="-1.99993">
        <ele>2</ele>
        <time>2018-03-16T20:16:09Z</time>
      </trkpt>
      <trkpt lat="46.75523" lon="-2.00012">
        <ele>2</ele>
        <time>2018-03-16T20:17:09Z</time>
      </trkpt>
      <trkpt lat="46.7552" lon="-2.00019">
        <ele>2</ele>
        <time>2018-03-16T20:18:09Z</time>
      </trkpt>
      <trkpt lat="46.75519" lon="-2.00024">
        <ele>2</ele>
        <time>2018-03-16T20:19:09Z</time>
      </trkpt>
      <trkpt lat="46.75518" lon="-2.00029">
        <ele>2</ele>
        <time>2018-03-16T20:20:09Z</time>
      </trkpt>
      <trkpt lat="46.75514" lon="-2.00048">
        <ele>2</ele>
        <time>2018-03-16T20:21:09Z</time>
      </trkpt>
      <trkpt lat="46.75513" lon="-2.00064">
        <ele>2</ele>
        <time>2018-03-16T20:22:09Z</time>
      </trkpt>
      <trkpt lat="46.75511" lon="-2.00085">
        <ele>2</ele>
        <time>2018-03-16T20:23:09Z</time>
      </trkpt>
      <trkpt lat="46.75509" lon="-2.00094">
        <ele>2.3</ele>
        <time>2018-03-16T20:24:09Z</time>
      </trkpt>
      <trkpt lat="46.75508" lon="-2.00097">
        <ele>2.4</ele>
        <time>2018-03-16T20:25:09Z</time>
      </trkpt>
      <trkpt lat="46.75507" lon="-2.001">
        <ele>2.4</ele>
        <time>2018-03-16T20:26:09Z</time>
      </trkpt>
      <trkpt lat="46.75506" lon="-2.00103">
        <ele>2.6</ele>
        <time>2018-03-16T20:27:09Z</time>
      </trkpt>
      <trkpt lat="46.75495" lon="-2.00119">
        <ele>1</ele>
        <time>2018-03-16T20:28:09Z</time>
      </trkpt>
      <trkpt lat="46.75488" lon="-2.00129">
        <ele>1</ele>
        <time>2018-03-16T20:29:09Z</time>
      </trkpt>
      <trkpt lat="46.75488" lon="-2.00129">
        <ele>1</ele>
        <time>2018-03-16T20:30:09Z</time>
      </trkpt>
      <trkpt lat="46.7548" lon="-2.00154">
        <ele>1</ele>
        <time>2018-03-16T20:31:09Z</time>
      </trkpt>
      <trkpt lat="46.75471" lon="-2.0019">
        <ele>2</ele>
        <time>2018-03-16T20:32:09Z</time>
      </trkpt>
      <trkpt lat="46.7547" lon="-2.00199">
        <ele>2</ele>
        <time>2018-03-16T20:33:09Z</time>
      </trkpt>
      <trkpt lat="46.75463" lon="-2.00226">
        <ele>2</ele>
        <time>2018-03-16T20:34:09Z</time>
      </trkpt>
      <trkpt lat="46.75459" lon="-2.00245">
        <ele>2</ele>
        <time>2018-03-16T20:35:09Z</time>
      </trkpt>
      <trkpt lat="46.75457" lon="-2.0025">
        <ele>2</ele>
        <time>2018-03-16T20:36:09Z</time>
      </trkpt>
      <trkpt lat="46.75456" lon="-2.00259">
        <ele>2</ele>
        <time>2018-03-16T20:37:09Z</time>
      </trkpt>
      <trkpt lat="46.75456" lon="-2.00271">
        <ele>2</ele>
        <time>2018-03-16T20:38:09Z</time>
      </trkpt>
      <trkpt lat="46.75461" lon="-2.00282">
        <ele>2</ele>
        <time>2018-03-16T20:39:09Z</time>
      </trkpt>
      <trkpt lat="46.75468" lon="-2.00298">
        <ele>2</ele>
        <time>2018-03-16T20:40:09Z</time>
      </trkpt>
      <trkpt lat="46.75478" lon="-2.00317">
        <ele>2</ele>
        <time>2018-03-16T20:41:09Z</time>
      </trkpt>
      <trkpt lat="46.75487" lon="-2.00334">
        <ele>2</ele>
        <time>2018-03-16T20:42:09Z</time>
      </trkpt>
      <trkpt lat="46.75496" lon="-2.00351">
        <ele>2</ele>
        <time>2018-03-16T20:43:09Z</time>
      </trkpt>
      <trkpt lat="46.75502" lon="-2.00361">
        <ele>2</ele>
        <time>2018-03-16T20:44:09Z</time>
      </trkpt>
      <trkpt lat="46.75513" lon="-2.00389">
        <ele>3</ele>
        <time>2018-03-16T20:45:09Z</time>
      </trkpt>
      <trkpt lat="46.75519" lon="-2.0041">
        <ele>3</ele>
        <time>2018-03-16T20:46:09Z</time>
      </trkpt>
      <trkpt lat="46.75522" lon="-2.00443">
        <ele>3</ele>
        <time>2018-03-16T20:47:09Z</time>
      </trkpt>
      <trkpt lat="46.75523" lon="-2.00459">
        <ele>3</ele>
        <time>2018-03-16T20:48:09Z</time>
      </trkpt>
      <trkpt lat="46.75524" lon="-2.00493">
        <ele>3</ele>
        <time>2018-03-16T20:49:09Z</time>
      </trkpt>
      <trkpt lat="46.75524" lon="-2.00532">
        <ele>4</ele>
        <time>2018-03-16T20:50:09Z</time>
      </trkpt>
      <trkpt lat="46.75524" lon="-2.00566">
        <ele>4</ele>
        <time>2018-03-16T20:51:09Z</time>
      </trkpt>
      <trkpt lat="46.75524" lon="-2.0059">
        <ele>4</ele>
        <time>2018-03-16T20:52:09Z</time>
      </trkpt>
      <trkpt lat="46.75524" lon="-2.00594">
        <ele>4</ele>
        <time>2018-03-16T20:53:09Z</time>
      </trkpt>
      <trkpt lat="46.75525" lon="-2.00606">
        <ele>4</ele>
        <time>2018-03-16T20:54:09Z</time>
      </trkpt>
      <trkpt lat="46.75529" lon="-2.00627">
        <ele>4</ele>
        <time>2018-03-16T20:55:09Z</time>
      </trkpt>
      <trkpt lat="46.75531" lon="-2.00635">
        <ele>5</ele>
        <time>2018-03-16T20:56:09Z</time>
      </trkpt>
      <trkpt lat="46.75537" lon="-2.00654">
        <ele>5</ele>
        <time>2018-03-16T20:57:09Z</time>
      </trkpt>
      <trkpt lat="46.75543" lon="-2.00672">
        <ele>4</ele>
        <time>2018-03-16T20:58:09Z</time>
      </trkpt>
      <trkpt lat="46.75552" lon="-2.00688">
        <ele>4</ele>
        <time>2018-03-16T20:59:09Z</time>
      </trkpt>
      <trkpt lat="46.7556" lon="-2.00701">
        <ele>4</ele>
        <time>2018-03-16T21:00:09Z</time>
      </trkpt>
      <trkpt lat="46.75573" lon="-2.00709">
        <ele>3</ele>
        <time>2018-03-16T21:01:09Z</time>
      </trkpt>
      <trkpt lat="46.75585" lon="-2.00717">
        <ele>3</ele>
        <time>2018-03-16T21:02:09Z</time>
      </trkpt>
      <trkpt lat="46.75608" lon="-2.00734">
        <ele>3</ele>
        <time>2018-03-16T21:03:09Z</time>
      </trkpt>
      <trkpt lat="46.75645" lon="-2.00763">
        <ele>4</ele>
        <time>2018-03-16T21:04:09Z</time>
      </trkpt>
      <trkpt lat="46.75658" lon="-2.00774">
        <ele>5</ele>
        <time>2018-03-16T21:05:09Z</time>
      </trkpt>
      <trkpt lat="46.75671" lon="-2.00784">
        <ele>5</ele>
        <time>2018-03-16T21:06:09Z</time>
      </trkpt>
      <trkpt lat="46.7569" lon="-2.00798">
        <ele>5</ele>
        <time>2018-03-16T21:07:09Z</time>
      </trkpt>
      <trkpt lat="46.75708" lon="-2.00813">
        <ele>5</ele>
        <time>2018-03-16T21:08:09Z</time>
      </trkpt>
      <trkpt lat="46.75723" lon="-2.00823">
        <ele>5</ele>
        <time>2018-03-16T21:09:09Z</time>
      </trkpt>
      <trkpt lat="46.75727" lon="-2.00826">
        <ele>5</ele>
        <time>2018-03-16T21:10:09Z</time>
      </trkpt>
      <trkpt lat="46.75743" lon="-2.00836">
        <ele>5</ele>
        <time>2018-03-16T21:11:09Z</time>
      </trkpt>
      <trkpt lat="46.7576" lon="-2.00843">
        <ele>5</ele>
        <time>2018-03-16T21:12:09Z</time>
      </trkpt>
      <trkpt lat="46.75776" lon="-2.00848">
        <ele>5</ele>
        <time>2018-03-16T21:13:09Z</time>
      </trkpt>
      <trkpt lat="46.75795" lon="-2.00854">
        <ele>4</ele>
        <time>2018-03-16T21:14:09Z</time>
      </trkpt>
      <trkpt lat="46.75808" lon="-2.00858">
        <ele>4</ele>
        <time>2018-03-16T21:15:09Z</time>
      </trkpt>
      <trkpt lat="46.75822" lon="-2.00864">
        <ele>4</ele>
        <time>2018-03-16T21:16:09Z</time>
      </trkpt>
      <trkpt lat="46.75827" lon="-2.00867">
        <ele>4</ele>
        <time>2018-03-16T21:17:09Z</time>
      </trkpt>
      <trkpt lat="46.75842" lon="-2.00876">
        <ele>4</ele>
        <time>2018-03-16T21:18:09Z</time>
      </trkpt>
      <trkpt lat="46.75861" lon="-2.00888">
        <ele>4</ele>
        <time>2018-03-16T21:19:09Z</time>
      </trkpt>
      <trkpt lat="46.75867" lon="-2.00893">
        <ele>4</ele>
        <time>2018-03-16T21:20:09Z</time>
      </trkpt>
      <trkpt lat="46.75877" lon="-2.00899">
        <ele>3</ele>
        <time>2018-03-16T21:21:09Z</time>
      </trkpt>
      <trkpt lat="46.75893" lon="-2.00911">
        <ele>3</ele>
        <time>2018-03-16T21:22:09Z</time>
      </trkpt>
      <trkpt lat="46.75914" lon="-2.00923">
        <ele>3</ele>
        <time>2018-03-16T21:23:09Z</time>
      </trkpt>
      <trkpt lat="46.75932" lon="-2.00937">
        <ele>3</ele>
        <time>2018-03-16T21:24:09Z</time>
      </trkpt>
      <trkpt lat="46.7595" lon="-2.00948">
        <ele>4</ele>
        <time>2018-03-16T21:25:09Z</time>
      </trkpt>
      <trkpt lat="46.75968" lon="-2.00964">
        <ele>4</ele>
        <time>2018-03-16T21:26:09Z</time>
      </trkpt>
      <trkpt lat="46.75984" lon="-2.00982">
        <ele>5</ele>
        <time>2018-03-16T21:27:09Z</time>
      </trkpt>
      <trkpt lat="46.76005" lon="-2.01006">
        <ele>5</ele>
        <time>2018-03-16T21:28:09Z</time>
      </trkpt>
      <trkpt lat="46.76028" lon="-2.01034">
        <ele>4</ele>
        <time>2018-03-16T21:29:09Z</time>
      </trkpt>
      <trkpt lat="46.76049" lon="-2.01061">
        <ele>4</ele>
        <time>2018-03-16T21:30:09Z</time>
      </trkpt>
      <trkpt lat="46.76065" lon="-2.01084">
        <ele>3</ele>
        <time>2018-03-16T21:31:09Z</time>
      </trkpt>
      <trkpt lat="46.76065" lon="-2.01084">
        <ele>3</ele>
        <time>2018-03-16T21:32:09Z</time>
      </trkpt>
      <trkpt lat="46.7607" lon="-2.01091">
        <ele>4</ele>
        <time>2018-03-16T21:33:09Z</time>
      </trkpt>
      <trkpt lat="46.76083" lon="-2.01111">
        <ele>4</ele>
        <time>2018-03-16T21:34:09Z</time>
      </trkpt>
      <trkpt lat="46.76085" lon="-2.01115">
        <ele>4</ele>
        <time>2018-03-16T21:35:09Z</time>
      </trkpt>
      <trkpt lat="46.76088" lon="-2.01132">
        <ele>5</ele>
        <time>2018-03-16T21:36:09Z</time>
      </trkpt>
      <trkpt lat="46.76088" lon="-2.01132">
        <ele>5</ele>
        <time>2018-03-16T21:37:09Z</time>
      </trkpt>
      <trkpt lat="46.76056" lon="-2.0113">
        <ele>5</ele>
        <time>2018-03-16T21:38:09Z</time>
      </trkpt>
      <trkpt lat="46.76033" lon="-2.01132">
        <ele>6</ele>
        <time>2018-03-16T21:39:09Z</time>
      </trkpt>
      <trkpt lat="46.7602" lon="-2.01135">
        <ele>6</ele>
        <time>2018-03-16T21:40:09Z</time>
      </trkpt>
      <trkpt lat="46.75985" lon="-2.01141">
        <ele>6</ele>
        <time>2018-03-16T21:41:09Z</time>
      </trkpt>
      <trkpt lat="46.75953" lon="-2.01149">
        <ele>5</ele>
        <time>2018-03-16T21:42:09Z</time>
      </trkpt>
      <trkpt lat="46.75917" lon="-2.01158">
        <ele>4</ele>
        <time>2018-03-16T21:43:09Z</time>
      </trkpt>
      <trkpt lat="46.75898" lon="-2.0116">
        <ele>4</ele>
        <time>2018-03-16T21:44:09Z</time>
      </trkpt>
      <trkpt lat="46.75875" lon="-2.01164">
        <ele>4</ele>
        <time>2018-03-16T21:45:09Z</time>
      </trkpt>
      <trkpt lat="46.75864" lon="-2.01167">
        <ele>4</ele>
        <time>2018-03-16T21:46:09Z</time>
      </trkpt>
      <trkpt lat="46.7584" lon="-2.01172">
        <ele>4</ele>
        <time>2018-03-16T21:47:09Z</time>
      </trkpt>
      <trkpt lat="46.75817" lon="-2.0118">
        <ele>4</ele>
        <time>2018-03-16T21:48:09Z</time>
      </trkpt>
      <trkpt lat="46.75804" lon="-2.01185">
        <ele>5</ele>
        <time>2018-03-16T21:49:09Z</time>
      </trkpt>
      <trkpt lat="46.75778" lon="-2.01194">
        <ele>5</ele>
        <time>2018-03-16T21:50:09Z</time>
      </trkpt>
      <trkpt lat="46.75771" lon="-2.01196">
        <ele>5</ele>
        <time>2018-03-16T21:51:09Z</time>
      </trkpt>
      <trkpt lat="46.75753" lon="-2.01203">
        <ele>5</ele>
        <time>2018-03-16T21:52:09Z</time>
      </trkpt>
      <trkpt lat="46.75748" lon="-2.01205">
        <ele>5</ele>
        <time>2018-03-16T21:53:09Z</time>
      </trkpt>
      <trkpt lat="46.75733" lon="-2.01211">
        <ele>5</ele>
        <time>2018-03-16T21:54:09Z</time>
      </trkpt>
      <trkpt lat="46.75708" lon="-2.01221">
        <ele>5</ele>
        <time>2018-03-16T21:55:09Z</time>
      </trkpt>
      <trkpt lat="46.75683" lon="-2.0123">
        <ele>4</ele>
        <time>2018-03-16T21:56:09Z</time>
      </trkpt>
      <trkpt lat="46.75656" lon="-2.0124">
        <ele>4</ele>
        <time>2018-03-16T21:57:09Z</time>
      </trkpt>
      <trkpt lat="46.75636" lon="-2.01248">
        <ele>4</ele>
        <time>2018-03-16T21:58:09Z</time>
      </trkpt>
      <trkpt lat="46.75635" lon="-2.01248">
        <ele>4</ele>
        <time>2018-03-16T21:59:09Z</time>
      </trkpt>
      <trkpt lat="46.75613" lon="-2.01251">
        <ele>3</ele>
        <time>2018-03-16T22:00:09Z</time>
      </trkpt>
      <trkpt lat="46.75597" lon="-2.01259">
        <ele>3</ele>
        <time>2018-03-16T22:01:09Z</time>
      </trkpt>
      <trkpt lat="46.75583" lon="-2.01267">
        <ele>3</ele>
        <time>2018-03-16T22:02:09Z</time>
      </trkpt>
      <trkpt lat="46.75566" lon="-2.01275">
        <ele>3</ele>
        <time>2018-03-16T22:03:09Z</time>
      </trkpt>
      <trkpt lat="46.75554" lon="-2.01283">
        <ele>3</ele>
        <time>2018-03-16T22:04:09Z</time>
      </trkpt>
      <trkpt lat="46.75533" lon="-2.01301">
        <ele>3</ele>
        <time>2018-03-16T22:05:09Z</time>
      </trkpt>
      <trkpt lat="46.75507" lon="-2.01321">
        <ele>3</ele>
        <time>2018-03-16T22:06:09Z</time>
      </trkpt>
      <trkpt lat="46.75503" lon="-2.01324">
        <ele>3</ele>
        <time>2018-03-16T22:07:09Z</time>
      </trkpt>
      <trkpt lat="46.75465" lon="-2.01356">
        <ele>3</ele>
        <time>2018-03-16T22:08:09Z</time>
      </trkpt>
      <trkpt lat="46.75451" lon="-2.01367">
        <ele>3</ele>
        <time>2018-03-16T22:09:09Z</time>
      </trkpt>
      <trkpt lat="46.75424" lon="-2.01389">
        <ele>2</ele>
        <time>2018-03-16T22:10:09Z</time>
      </trkpt>
      <trkpt lat="46.75401" lon="-2.01406">
        <ele>2</ele>
        <time>2018-03-16T22:11:09Z</time>
      </trkpt>
      <trkpt lat="46.75386" lon="-2.01415">
        <ele>2</ele>
        <time>2018-03-16T22:12:09Z</time>
      </trkpt>
      <trkpt lat="46.75377" lon="-2.01426">
        <ele>2</ele>
        <time>2018-03-16T22:13:09Z</time>
      </trkpt>
      <trkpt lat="46.75361" lon="-2.01435">
        <ele>1</ele>
        <time>2018-03-16T22:14:09Z</time>
      </trkpt>
      <trkpt lat="46.75322" lon="-2.01458">
        <ele>1</ele>
        <time>2018-03-16T22:15:09Z</time>
      </trkpt>
      <trkpt lat="46.75284" lon="-2.01478">
        <ele>1</ele>
        <time>2018-03-16T22:16:09Z</time>
      </trkpt>
      <trkpt lat="46.75278" lon="-2.01481">
        <ele>1</ele>
        <time>2018-03-16T22:17:09Z</time>
      </trkpt>
      <trkpt lat="46.75272" lon="-2.01484">
        <ele>1</ele>
        <time>2018-03-16T22:18:09Z</time>
      </trkpt>
      <trkpt lat="46.75249" lon="-2.01496">
        <ele>2.8</ele>
        <time>2018-03-16T22:19:09Z</time>
      </trkpt>
      <trkpt lat="46.75233" lon="-2.01505">
        <ele>2.3</ele>
        <time>2018-03-16T22:20:09Z</time>
      </trkpt>
      <trkpt lat="46.75216" lon="-2.01515">
        <ele>1</ele>
        <time>2018-03-16T22:21:09Z</time>
      </trkpt>
      <trkpt lat="46.75212" lon="-2.01517">
        <ele>1</ele>
        <time>2018-03-16T22:22:09Z</time>
      </trkpt>
      <trkpt lat="46.75202" lon="-2.01523">
        <ele>1</ele>
        <time>2018-03-16T22:23:09Z</time>
      </trkpt>
      <trkpt lat="46.75177" lon="-2.01541">
        <ele>1</ele>
        <time>2018-03-16T22:24:09Z</time>
      </trkpt>
      <trkpt lat="46.75172" lon="-2.01545">
        <ele>1</ele>
        <time>2018-03-16T22:25:09Z</time>
      </trkpt>
      <trkpt lat="46.7517" lon="-2.01546">
        <ele>2</ele>
        <time>2018-03-16T22:26:09Z</time>
      </trkpt>
      <trkpt lat="46.75154" lon="-2.01559">
        <ele>2</ele>
        <time>2018-03-16T22:27:09Z</time>
      </trkpt>
      <trkpt lat="46.75139" lon="-2.01573">
        <ele>3</ele>
        <time>2018-03-16T22:28:09Z</time>
      </trkpt>
      <trkpt lat="46.75136" lon="-2.0158">
        <ele>3</ele>
        <time>2018-03-16T22:29:09Z</time>
      </trkpt>
      <trkpt lat="46.75134" lon="-2.01586">
        <ele>3</ele>
        <time>2018-03-16T22:30:09Z</time>
      </trkpt>
      <trkpt lat="46.75132" lon="-2.01601">
        <ele>3</ele>
        <time>2018-03-16T22:31:09Z</time>
      </trkpt>
      <trkpt lat="46.75132" lon="-2.01601">
        <ele>3</ele>
        <time>2018-03-16T22:32:09Z</time>
      </trkpt>
      <trkpt lat="46.75134" lon="-2.01607">
        <ele>3</ele>
        <time>2018-03-16T22:33:09Z</time>
      </trkpt>
      <trkpt lat="46.75134" lon="-2.0161">
        <ele>3</ele>
        <time>2018-03-16T22:34:09Z</time>
      </trkpt>
      <trkpt lat="46.75134" lon="-2.01615">
        <ele>3</ele>
        <time>2018-03-16T22:35:09Z</time>
      </trkpt>
      <trkpt lat="46.75133" lon="-2.0162">
        <ele>4</ele>
        <time>2018-03-16T22:36:09Z</time>
      </trkpt>
      <trkpt lat="46.7513" lon="-2.01624">
        <ele>4</ele>
        <time>2018-03-16T22:37:09Z</time>
      </trkpt>
      <trkpt lat="46.75126" lon="-2.01627">
        <ele>4</ele>
        <time>2018-03-16T22:38:09Z</time>
      </trkpt>
      <trkpt lat="46.7512" lon="-2.01629">
        <ele>4</ele>
        <time>2018-03-16T22:39:09Z</time>
      </trkpt>
      <trkpt lat="46.75116" lon="-2.01628">
        <ele>4</ele>
        <time>2018-03-16T22:40:09Z</time>
      </trkpt>
      <trkpt lat="46.75112" lon="-2.01626">
        <ele>4</ele>
        <time>2018-03-16T22:41:09Z</time>
      </trkpt>
      <trkpt lat="46.75109" lon="-2.01623">
        <ele>4</ele>
        <time>2018-03-16T22:42:09Z</time>
      </trkpt>
      <trkpt lat="46.75107" lon="-2.01618">
        <ele>4</ele>
        <time>2018-03-16T22:43:09Z</time>
      </trkpt>
      <trkpt lat="46.75106" lon="-2.01612">
        <ele>4</ele>
        <time>2018-03-16T22:44:09Z</time>
      </trkpt>
      <trkpt lat="46.75105" lon="-2.01607">
        <ele>4</ele>
        <time>2018-03-16T22:45:09Z</time>
      </trkpt>
      <trkpt lat="46.75106" lon="-2.01601">
        <ele>4</ele>
        <time>2018-03-16T22:46:09Z</time>
      </trkpt>
      <trkpt lat="46.75102" lon="-2.01593">
        <ele>4</ele>
        <time>2018-03-16T22:47:09Z</time>
      </trkpt>
      <trkpt lat="46.75099" lon="-2.01586">
        <ele>4</ele>
        <time>2018-03-16T22:48:09Z</time>
      </trkpt>
      <trkpt lat="46.75096" lon="-2.01579">
        <ele>4</ele>
        <time>2018-03-16T22:49:09Z</time>
      </trkpt>
      <trkpt lat="46.75084" lon="-2.01564">
        <ele>4</ele>
        <time>2018-03-16T22:50:09Z</time>
      </trkpt>
      <trkpt lat="46.75057" lon="-2.01531">
        <ele>4</ele>
        <time>2018-03-16T22:51:09Z</time>
      </trkpt>
      <trkpt lat="46.75037" lon="-2.01501">
        <ele>4</ele>
        <time>2018-03-16T22:52:09Z</time>
      </trkpt>
      <trkpt lat="46.75035" lon="-2.01499">
        <ele>4</ele>
        <time>2018-03-16T22:53:09Z</time>
      </trkpt>
      <trkpt lat="46.75018" lon="-2.01472">
        <ele>4</ele>
        <time>2018-03-16T22:54:09Z</time>
      </trkpt>
      <trkpt lat="46.74993" lon="-2.01431">
        <ele>4</ele>
        <time>2018-03-16T22:55:09Z</time>
      </trkpt>
      <trkpt lat="46.74972" lon="-2.01394">
        <ele>5</ele>
        <time>2018-03-16T22:56:09Z</time>
      </trkpt>
      <trkpt lat="46.74969" lon="-2.01389">
        <ele>5</ele>
        <time>2018-03-16T22:57:09Z</time>
      </trkpt>
      <trkpt lat="46.74958" lon="-2.01372">
        <ele>5</ele>
        <time>2018-03-16T22:58:09Z</time>
      </trkpt>
      <trkpt lat="46.74952" lon="-2.01363">
        <ele>6</ele>
        <time>2018-03-16T22:59:09Z</time>
      </trkpt>
      <trkpt lat="46.7495" lon="-2.01362">
        <ele>6</ele>
        <time>2018-03-16T23:00:09Z</time>
      </trkpt>
      <trkpt lat="46.74944" lon="-2.01355">
        <ele>6</ele>
        <time>2018-03-16T23:01:09Z</time>
      </trkpt>
      <trkpt lat="46.74927" lon="-2.01343">
        <ele>7</ele>
        <time>2018-03-16T23:02:09Z</time>
      </trkpt>
      <trkpt lat="46.74895" lon="-2.01325">
        <ele>7</ele>
        <time>2018-03-16T23:03:09Z</time>
      </trkpt>
      <trkpt lat="46.74863" lon="-2.01308">
        <ele>7</ele>
        <time>2018-03-16T23:04:09Z</time>
      </trkpt>
      <trkpt lat="46.74821" lon="-2.01285">
        <ele>6</ele>
        <time>2018-03-16T23:05:09Z</time>
      </trkpt>
      <trkpt lat="46.74784" lon="-2.01263">
        <ele>6</ele>
        <time>2018-03-16T23:06:09Z</time>
      </trkpt>
      <trkpt lat="46.74747" lon="-2.0124">
        <ele>7</ele>
        <time>2018-03-16T23:07:09Z</time>
      </trkpt>
      <trkpt lat="46.74723" lon="-2.01225">
        <ele>7</ele>
        <time>2018-03-16T23:08:09Z</time>
      </trkpt>
      <trkpt lat="46.74693" lon="-2.01205">
        <ele>8</ele>
        <time>2018-03-16T23:09:09Z</time>
      </trkpt>
      <trkpt lat="46.74682" lon="-2.01198">
        <ele>8</ele>
        <time>2018-03-16T23:10:09Z</time>
      </trkpt>
      <trkpt lat="46.74664" lon="-2.01183">
        <ele>8</ele>
        <time>2018-03-16T23:11:09Z</time>
      </trkpt>
      <trkpt lat="46.74646" lon="-2.01164">
        <ele>8</ele>
        <time>2018-03-16T23:12:09Z</time>
      </trkpt>
      <trkpt lat="46.74638" lon="-2.01154">
        <ele>8</ele>
        <time>2018-03-16T23:13:09Z</time>
      </trkpt>
      <trkpt lat="46.74613" lon="-2.01126">
        <ele>7</ele>
        <time>2018-03-16T23:14:09Z</time>
      </trkpt>
      <trkpt lat="46.74582" lon="-2.01089">
        <ele>4</ele>
        <time>2018-03-16T23:15:09Z</time>
      </trkpt>
      <trkpt lat="46.74564" lon="-2.01068">
        <ele>4</ele>
        <time>2018-03-16T23:16:09Z</time>
      </trkpt>
      <trkpt lat="46.74557" lon="-2.01058">
        <ele>4</ele>
        <time>2018-03-16T23:17:09Z</time>
      </trkpt>
      <trkpt lat="46.74538" lon="-2.01036">
        <ele>4</ele>
        <time>2018-03-16T23:18:09Z</time>
      </trkpt>
      <trkpt lat="46.74532" lon="-2.0103">
        <ele>5</ele>
        <time>2018-03-16T23:19:09Z</time>
      </trkpt>
      <trkpt lat="46.74512" lon="-2.01014">
        <ele>5</ele>
        <time>2018-03-16T23:20:09Z</time>
      </trkpt>
      <trkpt lat="46.74482" lon="-2.00986">
        <ele>4</ele>
        <time>2018-03-16T23:21:09Z</time>
      </trkpt>
      <trkpt lat="46.74463" lon="-2.00969">
        <ele>4</ele>
        <time>2018-03-16T23:22:09Z</time>
      </trkpt>
      <trkpt lat="46.74444" lon="-2.00952">
        <ele>4</ele>
        <time>2018-03-16T23:23:09Z</time>
      </trkpt>
      <trkpt lat="46.7439" lon="-2.00906">
        <ele>3</ele>
        <time>2018-03-16T23:24:09Z</time>
      </trkpt>
      <trkpt lat="46.74361" lon="-2.0088">
        <ele>3</ele>
        <time>2018-03-16T23:25:09Z</time>
      </trkpt>
      <trkpt lat="46.74345" lon="-2.00864">
        <ele>3</ele>
        <time>2018-03-16T23:26:09Z</time>
      </trkpt>
      <trkpt lat="46.74337" lon="-2.00853">
        <ele>3</ele>
        <time>2018-03-16T23:27:09Z</time>
      </trkpt>
      <trkpt lat="46.7433" lon="-2.00843">
        <ele>3</ele>
        <time>2018-03-16T23:28:09Z</time>
      </trkpt>
      <trkpt lat="46.74322" lon="-2.0083">
        <ele>3</ele>
        <time>2018-03-16T23:29:09Z</time>
      </trkpt>
      <trkpt lat="46.74312" lon="-2.00812">
        <ele>2</ele>
        <time>2018-03-16T23:30:09Z</time>
      </trkpt>
      <trkpt lat="46.74308" lon="-2.00805">
        <ele>2</ele>
        <time>2018-03-16T23:31:09Z</time>
      </trkpt>
      <trkpt lat="46.74301" lon="-2.00793">
        <ele>2</ele>
        <time>2018-03-16T23:32:09Z</time>
      </trkpt>
      <trkpt lat="46.74283" lon="-2.00765">
        <ele>2</ele>
        <time>2018-03-16T23:33:09Z</time>
      </trkpt>
      <trkpt lat="46.74275" lon="-2.00753">
        <ele>2</ele>
        <time>2018-03-16T23:34:09Z</time>
      </trkpt>
      <trkpt lat="46.7426" lon="-2.00726">
        <ele>2</ele>
        <time>2018-03-16T23:35:09Z</time>
      </trkpt>
      <trkpt lat="46.7425" lon="-2.00711">
        <ele>2</ele>
        <time>2018-03-16T23:36:09Z</time>
      </trkpt>
      <trkpt lat="46.74235" lon="-2.00689">
        <ele>3</ele>
        <time>2018-03-16T23:37:09Z</time>
      </trkpt>
      <trkpt lat="46.74191" lon="-2.00625">
        <ele>3</ele>
        <time>2018-03-16T23:38:09Z</time>
      </trkpt>
      <trkpt lat="46.74148" lon="-2.00565">
        <ele>3</ele>
        <time>2018-03-16T23:39:09Z</time>
      </trkpt>
      <trkpt lat="46.74143" lon="-2.00558">
        <ele>3</ele>
        <time>2018-03-16T23:40:09Z</time>
      </trkpt>
      <trkpt lat="46.74131" lon="-2.0054">
        <ele>3</ele>
        <time>2018-03-16T23:41:09Z</time>
      </trkpt>
      <trkpt lat="46.74124" lon="-2.00529">
        <ele>3</ele>
        <time>2018-03-16T23:42:09Z</time>
      </trkpt>
      <trkpt lat="46.74117" lon="-2.00519">
        <ele>3</ele>
        <time>2018-03-16T23:43:09Z</time>
      </trkpt>
      <trkpt lat="46.74114" lon="-2.00514">
        <ele>3</ele>
        <time>2018-03-16T23:44:09Z</time>
      </trkpt>
      <trkpt lat="46.74108" lon="-2.00504">
        <ele>3</ele>
        <time>2018-03-16T23:45:09Z</time>
      </trkpt>
      <trkpt lat="46.74103" lon="-2.00497">
        <ele>3</ele>
        <time>2018-03-16T23:46:09Z</time>
      </trkpt>
      <trkpt lat="46.74099" lon="-2.00488">
        <ele>3</ele>
        <time>2018-03-16T23:47:09Z</time>
      </trkpt>
      <trkpt lat="46.74096" lon="-2.00481">
        <ele>3</ele>
        <time>2018-03-16T23:48:09Z</time>
      </trkpt>
      <trkpt lat="46.74085" lon="-2.00458">
        <ele>3</ele>
        <time>2018-03-16T23:49:09Z</time>
      </trkpt>
      <trkpt lat="46.74078" lon="-2.00436">
        <ele>3</ele>
        <time>2018-03-16T23:50:09Z</time>
      </trkpt>
      <trkpt lat="46.74073" lon="-2.00423">
        <ele>3</ele>
        <time>2018-03-16T23:51:09Z</time>
      </trkpt>
      <trkpt lat="46.74067" lon="-2.00404">
        <ele>3</ele>
        <time>2018-03-16T23:52:09Z</time>
      </trkpt>
      <trkpt lat="46.74066" lon="-2.00393">
        <ele>3</ele>
        <time>2018-03-16T23:53:09Z</time>
      </trkpt>
      <trkpt lat="46.74065" lon="-2.00382">
        <ele>3</ele>
        <time>2018-03-16T23:54:09Z</time>
      </trkpt>
      <trkpt lat="46.74065" lon="-2.00368">
        <ele>3</ele>
        <time>2018-03-16T23:55:09Z</time>
      </trkpt>
      <trkpt lat="46.74067" lon="-2.00353">
        <ele>3</ele>
        <time>2018-03-16T23:56:09Z</time>
      </trkpt>
      <trkpt lat="46.7407" lon="-2.00339">
        <ele>2</ele>
        <time>2018-03-16T23:57:09Z</time>
      </trkpt>
      <trkpt lat="46.74075" lon="-2.00318">
        <ele>3</ele>
        <time>2018-03-16T23:58:09Z</time>
      </trkpt>
      <trkpt lat="46.74079" lon="-2.00302">
        <ele>3</ele>
        <time>2018-03-16T23:59:09Z</time>
      </trkpt>
      <trkpt lat="46.74085" lon="-2.00279">
        <ele>3</ele>
        <time>2018-03-17T00:00:09Z</time>
      </trkpt>
      <trkpt lat="46.74088" lon="-2.00267">
        <ele>4</ele>
        <time>2018-03-17T00:01:09Z</time>
      </trkpt>
      <trkpt lat="46.7411" lon="-2.00185">
        <ele>5</ele>
        <time>2018-03-17T00:02:09Z</time>
      </trkpt>
      <trkpt lat="46.74115" lon="-2.00164">
        <ele>5</ele>
        <time>2018-03-17T00:03:09Z</time>
      </trkpt>
      <trkpt lat="46.74119" lon="-2.00146">
        <ele>5</ele>
        <time>2018-03-17T00:04:09Z</time>
      </trkpt>
      <trkpt lat="46.74123" lon="-2.00124">
        <ele>6</ele>
        <time>2018-03-17T00:05:09Z</time>
      </trkpt>
      <trkpt lat="46.74127" lon="-2.001">
        <ele>6</ele>
        <time>2018-03-17T00:06:09Z</time>
      </trkpt>
      <trkpt lat="46.74134" lon="-2.0004">
        <ele>6</ele>
        <time>2018-03-17T00:07:09Z</time>
      </trkpt>
      <trkpt lat="46.74142" lon="-1.99944">
        <ele>6</ele>
        <time>2018-03-17T00:08:09Z</time>
      </trkpt>
      <trkpt lat="46.74143" lon="-1.99924">
        <ele>7</ele>
        <time>2018-03-17T00:09:09Z</time>
      </trkpt>
      <trkpt lat="46.74148" lon="-1.99843">
        <ele>7</ele>
        <time>2018-03-17T00:10:09Z</time>
      </trkpt>
      <trkpt lat="46.74154" lon="-1.99732">
        <ele>5</ele>
        <time>2018-03-17T00:11:09Z</time>
      </trkpt>
      <trkpt lat="46.74155" lon="-1.99686">
        <ele>5</ele>
        <time>2018-03-17T00:12:09Z</time>
      </trkpt>
      <trkpt lat="46.74157" lon="-1.99675">
        <ele>5</ele>
        <time>2018-03-17T00:13:09Z</time>
      </trkpt>
      <trkpt lat="46.74158" lon="-1.99666">
        <ele>5</ele>
        <time>2018-03-17T00:14:09Z</time>
      </trkpt>
      <trkpt lat="46.74162" lon="-1.99638">
        <ele>6</ele>
        <time>2018-03-17T00:15:09Z</time>
      </trkpt>
      <trkpt lat="46.74165" lon="-1.99622">
        <ele>6</ele>
        <time>2018-03-17T00:16:09Z</time>
      </trkpt>
      <trkpt lat="46.74174" lon="-1.9959">
        <ele>7</ele>
        <time>2018-03-17T00:17:09Z</time>
      </trkpt>
      <trkpt lat="46.74182" lon="-1.99559">
        <ele>6</ele>
        <time>2018-03-17T00:18:09Z</time>
      </trkpt>
      <trkpt lat="46.74192" lon="-1.99525">
        <ele>6</ele>
        <time>2018-03-17T00:19:09Z</time>
      </trkpt>
      <trkpt lat="46.742" lon="-1.99493">
        <ele>5</ele>
        <time>2018-03-17T00:20:09Z</time>
      </trkpt>
      <trkpt lat="46.74204" lon="-1.99474">
        <ele>5</ele>
        <time>2018-03-17T00:21:09Z</time>
      </trkpt>
      <trkpt lat="46.74206" lon="-1.99468">
        <ele>5</ele>
        <time>2018-03-17T00:22:09Z</time>
      </trkpt>
      <trkpt lat="46.74211" lon="-1.99436">
        <ele>5</ele>
        <time>2018-03-17T00:23:09Z</time>
      </trkpt>
      <trkpt lat="46.74216" lon="-1.99406">
        <ele>4</ele>
        <time>2018-03-17T00:24:09Z</time>
      </trkpt>
      <trkpt lat="46.74216" lon="-1.99393">
        <ele>5</ele>
        <time>2018-03-17T00:25:09Z</time>
      </trkpt>
      <trkpt lat="46.74216" lon="-1.99379">
        <ele>5</ele>
        <time>2018-03-17T00:26:09Z</time>
      </trkpt>
      <trkpt lat="46.74215" lon="-1.99361">
        <ele>5</ele>
        <time>2018-03-17T00:27:09Z</time>
      </trkpt>
      <trkpt lat="46.74215" lon="-1.99356">
        <ele>5</ele>
        <time>2018-03-17T00:28:09Z</time>
      </trkpt>
      <trkpt lat="46.74212" lon="-1.99342">
        <ele>5</ele>
        <time>2018-03-17T00:29:09Z</time>
      </trkpt>
      <trkpt lat="46.74204" lon="-1.99332">
        <ele>6</ele>
        <time>2018-03-17T00:30:09Z</time>
      </trkpt>
      <trkpt lat="46.74197" lon="-1.99324">
        <ele>6</ele>
        <time>2018-03-17T00:31:09Z</time>
      </trkpt>
      <trkpt lat="46.74197" lon="-1.99324">
        <ele>6</ele>
        <time>2018-03-17T00:32:09Z</time>
      </trkpt>
      <trkpt lat="46.74194" lon="-1.99324">
        <ele>6</ele>
        <time>2018-03-17T00:33:09Z</time>
      </trkpt>
      <trkpt lat="46.7419" lon="-1.99324">
        <ele>6</ele>
        <time>2018-03-17T00:34:09Z</time>
      </trkpt>
      <trkpt lat="46.74186" lon="-1.99322">
        <ele>6</ele>
        <time>2018-03-17T00:35:09Z</time>
      </trkpt>
      <trkpt lat="46.74183" lon="-1.9932">
        <ele>6</ele>
        <time>2018-03-17T00:36:09Z</time>
      </trkpt>
      <trkpt lat="46.74181" lon="-1.99317">
        <ele>6</ele>
        <time>2018-03-17T00:37:09Z</time>
      </trkpt>
      <trkpt lat="46.74179" lon="-1.99312">
        <ele>6</ele>
        <time>2018-03-17T00:38:09Z</time>
      </trkpt>
      <trkpt lat="46.74178" lon="-1.99309">
        <ele>6</ele>
        <time>2018-03-17T00:39:09Z</time>
      </trkpt>
      <trkpt lat="46.74178" lon="-1.99306">
        <ele>5</ele>
        <time>2018-03-17T00:40:09Z</time>
      </trkpt>
      <trkpt lat="46.74178" lon="-1.99301">
        <ele>5</ele>
        <time>2018-03-17T00:41:09Z</time>
      </trkpt>
      <trkpt lat="46.74171" lon="-1.99291">
        <ele>5</ele>
        <time>2018-03-17T00:42:09Z</time>
      </trkpt>
      <trkpt lat="46.74167" lon="-1.99285">
        <ele>5</ele>
        <time>2018-03-17T00:43:09Z</time>
      </trkpt>
      <trkpt lat="46.74161" lon="-1.99278">
        <ele>4</ele>
        <time>2018-03-17T00:44:09Z</time>
      </trkpt>
      <trkpt lat="46.74115" lon="-1.99274">
        <ele>5</ele>
        <time>2018-03-17T00:45:09Z</time>
      </trkpt>
      <trkpt lat="46.74086" lon="-1.9927">
        <ele>5</ele>
        <time>2018-03-17T00:46:09Z</time>
      </trkpt>
      <trkpt lat="46.74042" lon="-1.99266">
        <ele>7</ele>
        <time>2018-03-17T00:47:09Z</time>
      </trkpt>
      <trkpt lat="46.74037" lon="-1.99265">
        <ele>7</ele>
        <time>2018-03-17T00:48:09Z</time>
      </trkpt>
      <trkpt lat="46.74013" lon="-1.99261">
        <ele>8</ele>
        <time>2018-03-17T00:49:09Z</time>
      </trkpt>
      <trkpt lat="46.73992" lon="-1.99255">
        <ele>9</ele>
        <time>2018-03-17T00:50:09Z</time>
      </trkpt>
      <trkpt lat="46.7397" lon="-1.99247">
        <ele>9</ele>
        <time>2018-03-17T00:51:09Z</time>
      </trkpt>
      <trkpt lat="46.73956" lon="-1.9924">
        <ele>9</ele>
        <time>2018-03-17T00:52:09Z</time>
      </trkpt>
      <trkpt lat="46.73934" lon="-1.99226">
        <ele>8</ele>
        <time>2018-03-17T00:53:09Z</time>
      </trkpt>
      <trkpt lat="46.73916" lon="-1.99212">
        <ele>8</ele>
        <time>2018-03-17T00:54:09Z</time>
      </trkpt>
      <trkpt lat="46.73877" lon="-1.99173">
        <ele>7</ele>
        <time>2018-03-17T00:55:09Z</time>
      </trkpt>
      <trkpt lat="46.73849" lon="-1.99145">
        <ele>8</ele>
        <time>2018-03-17T00:56:09Z</time>
      </trkpt>
      <trkpt lat="46.73818" lon="-1.99114">
        <ele>8</ele>
        <time>2018-03-17T00:57:09Z</time>
      </trkpt>
      <trkpt lat="46.73778" lon="-1.99073">
        <ele>8</ele>
        <time>2018-03-17T00:58:09Z</time>
      </trkpt>
      <trkpt lat="46.73748" lon="-1.99044">
        <ele>8</ele>
        <time>2018-03-17T00:59:09Z</time>
      </trkpt>
      <trkpt lat="46.73719" lon="-1.99017">
        <ele>8</ele>
        <time>2018-03-17T01:00:09Z</time>
      </trkpt>
      <trkpt lat="46.73706" lon="-1.99004">
        <ele>9</ele>
        <time>2018-03-17T01:01:09Z</time>
      </trkpt>
      <trkpt lat="46.73664" lon="-1.98966">
        <ele>8</ele>
        <time>2018-03-17T01:02:09Z</time>
      </trkpt>
      <trkpt lat="46.73663" lon="-1.98965">
        <ele>8</ele>
        <time>2018-03-17T01:03:09Z</time>
      </trkpt>
      <trkpt lat="46.7365" lon="-1.98953">
        <ele>8</ele>
        <time>2018-03-17T01:04:09Z</time>
      </trkpt>
      <trkpt lat="46.7363" lon="-1.98933">
        <ele>7</ele>
        <time>2018-03-17T01:05:09Z</time>
      </trkpt>
      <trkpt lat="46.73597" lon="-1.98901">
        <ele>7</ele>
        <time>2018-03-17T01:06:09Z</time>
      </trkpt>
      <trkpt lat="46.73569" lon="-1.98872">
        <ele>7</ele>
        <time>2018-03-17T01:07:09Z</time>
      </trkpt>
      <trkpt lat="46.73544" lon="-1.98848">
        <ele>7</ele>
        <time>2018-03-17T01:08:09Z</time>
      </trkpt>
      <trkpt lat="46.73528" lon="-1.98834">
        <ele>8</ele>
        <time>2018-03-17T01:09:09Z</time>
      </trkpt>
      <trkpt lat="46.73504" lon="-1.98811">
        <ele>8</ele>
        <time>2018-03-17T01:10:09Z</time>
      </trkpt>
      <trkpt lat="46.73474" lon="-1.98783">
        <ele>9</ele>
        <time>2018-03-17T01:11:09Z</time>
      </trkpt>
      <trkpt lat="46.73447" lon="-1.98757">
        <ele>8</ele>
        <time>2018-03-17T01:12:09Z</time>
      </trkpt>
      <trkpt lat="46.73441" lon="-1.98751">
        <ele>8</ele>
        <time>2018-03-17T01:13:09Z</time>
      </trkpt>
      <trkpt lat="46.73425" lon="-1.98734">
        <ele>9</ele>
        <time>2018-03-17T01:14:09Z</time>
      </trkpt>
      <trkpt lat="46.73414" lon="-1.9872">
        <ele>9</ele>
        <time>2018-03-17T01:15:09Z</time>
      </trkpt>
      <trkpt lat="46.73407" lon="-1.98708">
        <ele>9</ele>
        <time>2018-03-17T01:16:09Z</time>
      </trkpt>
      <trkpt lat="46.73404" lon="-1.98702">
        <ele>9</ele>
        <time>2018-03-17T01:17:09Z</time>
      </trkpt>
      <trkpt lat="46.73401" lon="-1.98693">
        <ele>9</ele>
        <time>2018-03-17T01:18:09Z</time>
      </trkpt>
      <trkpt lat="46.73397" lon="-1.98679">
        <ele>9</ele>
        <time>2018-03-17T01:19:09Z</time>
      </trkpt>
      <trkpt lat="46.73394" lon="-1.98667">
        <ele>9</ele>
        <time>2018-03-17T01:20:09Z</time>
      </trkpt>
      <trkpt lat="46.73393" lon="-1.9866">
        <ele>9</ele>
        <time>2018-03-17T01:21:09Z</time>
      </trkpt>
      <trkpt lat="46.73392" lon="-1.98653">
        <ele>9</ele>
        <time>2018-03-17T01:22:09Z</time>
      </trkpt>
      <trkpt lat="46.73389" lon="-1.98637">
        <ele>9</ele>
        <time>2018-03-17T01:23:09Z</time>
      </trkpt>
      <trkpt lat="46.73389" lon="-1.98633">
        <ele>9</ele>
        <time>2018-03-17T01:24:09Z</time>
      </trkpt>
      <trkpt lat="46.73389" lon="-1.98623">
        <ele>9</ele>
        <time>2018-03-17T01:25:09Z</time>
      </trkpt>
      <trkpt lat="46.73388" lon="-1.9861">
        <ele>9</ele>
        <time>2018-03-17T01:26:09Z</time>
      </trkpt>
      <trkpt lat="46.73387" lon="-1.98593">
        <ele>9</ele>
        <time>2018-03-17T01:27:09Z</time>
      </trkpt>
      <trkpt lat="46.73386" lon="-1.98577">
        <ele>9</ele>
        <time>2018-03-17T01:28:09Z</time>
      </trkpt>
      <trkpt lat="46.73383" lon="-1.98564">
        <ele>9</ele>
        <time>2018-03-17T01:29:09Z</time>
      </trkpt>
      <trkpt lat="46.7338" lon="-1.98549">
        <ele>9</ele>
        <time>2018-03-17T01:30:09Z</time>
      </trkpt>
      <trkpt lat="46.73375" lon="-1.98535">
        <ele>9</ele>
        <time>2018-03-17T01:31:09Z</time>
      </trkpt>
      <trkpt lat="46.73369" lon="-1.98518">
        <ele>9</ele>
        <time>2018-03-17T01:32:09Z</time>
      </trkpt>
      <trkpt lat="46.73362" lon="-1.98501">
        <ele>9</ele>
        <time>2018-03-17T01:33:09Z</time>
      </trkpt>
      <trkpt lat="46.73356" lon="-1.9849">
        <ele>9</ele>
        <time>2018-03-17T01:34:09Z</time>
      </trkpt>
      <trkpt lat="46.73347" lon="-1.98478">
        <ele>10</ele>
        <time>2018-03-17T01:35:09Z</time>
      </trkpt>
      <trkpt lat="46.73336" lon="-1.98466">
        <ele>10</ele>
        <time>2018-03-17T01:36:09Z</time>
      </trkpt>
      <trkpt lat="46.73318" lon="-1.98447">
        <ele>10</ele>
        <time>2018-03-17T01:37:09Z</time>
      </trkpt>
      <trkpt lat="46.73291" lon="-1.9842">
        <ele>10</ele>
        <time>2018-03-17T01:38:09Z</time>
      </trkpt>
      <trkpt lat="46.73263" lon="-1.98394">
        <ele>10</ele>
        <time>2018-03-17T01:39:09Z</time>
      </trkpt>
      <trkpt lat="46.73238" lon="-1.9837">
        <ele>11</ele>
        <time>2018-03-17T01:40:09Z</time>
      </trkpt>
      <trkpt lat="46.73213" lon="-1.98346">
        <ele>11</ele>
        <time>2018-03-17T01:41:09Z</time>
      </trkpt>
      <trkpt lat="46.7319" lon="-1.98325">
        <ele>12</ele>
        <time>2018-03-17T01:42:09Z</time>
      </trkpt>
      <trkpt lat="46.73174" lon="-1.98312">
        <ele>12</ele>
        <time>2018-03-17T01:43:09Z</time>
      </trkpt>
      <trkpt lat="46.73162" lon="-1.98305">
        <ele>12</ele>
        <time>2018-03-17T01:44:09Z</time>
      </trkpt>
      <trkpt lat="46.73152" lon="-1.98299">
        <ele>12</ele>
        <time>2018-03-17T01:45:09Z</time>
      </trkpt>
      <trkpt lat="46.73138" lon="-1.98291">
        <ele>12</ele>
        <time>2018-03-17T01:46:09Z</time>
      </trkpt>
      <trkpt lat="46.73123" lon="-1.98284">
        <ele>11</ele>
        <time>2018-03-17T01:47:09Z</time>
      </trkpt>
      <trkpt lat="46.73108" lon="-1.98278">
        <ele>11</ele>
        <time>2018-03-17T01:48:09Z</time>
      </trkpt>
      <trkpt lat="46.73092" lon="-1.98272">
        <ele>11</ele>
        <time>2018-03-17T01:49:09Z</time>
      </trkpt>
      <trkpt lat="46.7307" lon="-1.98262">
        <ele>11</ele>
        <time>2018-03-17T01:50:09Z</time>
      </trkpt>
      <trkpt lat="46.73054" lon="-1.98256">
        <ele>11</ele>
        <time>2018-03-17T01:51:09Z</time>
      </trkpt>
      <trkpt lat="46.73021" lon="-1.98242">
        <ele>10</ele>
        <time>2018-03-17T01:52:09Z</time>
      </trkpt>
      <trkpt lat="46.72964" lon="-1.98218">
        <ele>11</ele>
        <time>2018-03-17T01:53:09Z</time>
      </trkpt>
      <trkpt lat="46.72862" lon="-1.98176">
        <ele>9</ele>
        <time>2018-03-17T01:54:09Z</time>
      </trkpt>
      <trkpt lat="46.72817" lon="-1.98158">
        <ele>9</ele>
        <time>2018-03-17T01:55:09Z</time>
      </trkpt>
      <trkpt lat="46.72793" lon="-1.98149">
        <ele>10</ele>
        <time>2018-03-17T01:56:09Z</time>
      </trkpt>
      <trkpt lat="46.72778" lon="-1.98142">
        <ele>10</ele>
        <time>2018-03-17T01:57:09Z</time>
      </trkpt>
      <trkpt lat="46.72761" lon="-1.98134">
        <ele>11</ele>
        <time>2018-03-17T01:58:09Z</time>
      </trkpt>
      <trkpt lat="46.72753" lon="-1.98131">
        <ele>11</ele>
        <time>2018-03-17T01:59:09Z</time>
      </trkpt>
      <trkpt lat="46.72738" lon="-1.98124">
        <ele>11</ele>
        <time>2018-03-17T02:00:09Z</time>
      </trkpt>
      <trkpt lat="46.72722" lon="-1.98115">
        <ele>11</ele>
        <time>2018-03-17T02:01:09Z</time>
      </trkpt>
      <trkpt lat="46.72704" lon="-1.98105">
        <ele>11</ele>
        <time>2018-03-17T02:02:09Z</time>
      </trkpt>
      <trkpt lat="46.72667" lon="-1.98081">
        <ele>10</ele>
        <time>2018-03-17T02:03:09Z</time>
      </trkpt>
      <trkpt lat="46.72619" lon="-1.98047">
        <ele>9</ele>
        <time>2018-03-17T02:04:09Z</time>
      </trkpt>
      <trkpt lat="46.72577" lon="-1.98018">
        <ele>8</ele>
        <time>2018-03-17T02:05:09Z</time>
      </trkpt>
      <trkpt lat="46.7254" lon="-1.97993">
        <ele>8</ele>
        <time>2018-03-17T02:06:09Z</time>
      </trkpt>
      <trkpt lat="46.72513" lon="-1.97975">
        <ele>8</ele>
        <time>2018-03-17T02:07:09Z</time>
      </trkpt>
      <trkpt lat="46.7249" lon="-1.97955">
        <ele>8</ele>
        <time>2018-03-17T02:08:09Z</time>
      </trkpt>
      <trkpt lat="46.7248" lon="-1.97945">
        <ele>8</ele>
        <time>2018-03-17T02:09:09Z</time>
      </trkpt>
      <trkpt lat="46.7247" lon="-1.97935">
        <ele>8</ele>
        <time>2018-03-17T02:10:09Z</time>
      </trkpt>
      <trkpt lat="46.72448" lon="-1.97908">
        <ele>8</ele>
        <time>2018-03-17T02:11:09Z</time>
      </trkpt>
      <trkpt lat="46.72432" lon="-1.97882">
        <ele>8</ele>
        <time>2018-03-17T02:12:09Z</time>
      </trkpt>
      <trkpt lat="46.72429" lon="-1.97876">
        <ele>7</ele>
        <time>2018-03-17T02:13:09Z</time>
      </trkpt>
      <trkpt lat="46.72421" lon="-1.97869">
        <ele>7</ele>
        <time>2018-03-17T02:14:09Z</time>
      </trkpt>
      <trkpt lat="46.72406" lon="-1.97849">
        <ele>7</ele>
        <time>2018-03-17T02:15:09Z</time>
      </trkpt>
      <trkpt lat="46.72405" lon="-1.97849">
        <ele>7</ele>
        <time>2018-03-17T02:16:09Z</time>
      </trkpt>
      <trkpt lat="46.72404" lon="-1.97849">
        <ele>7</ele>
        <time>2018-03-17T02:17:09Z</time>
      </trkpt>
      <trkpt lat="46.72403" lon="-1.97849">
        <ele>7</ele>
        <time>2018-03-17T02:18:09Z</time>
      </trkpt>
      <trkpt lat="46.72402" lon="-1.97849">
        <ele>7</ele>
        <time>2018-03-17T02:19:09Z</time>
      </trkpt>
      <trkpt lat="46.72401" lon="-1.97849">
        <ele>7</ele>
        <time>2018-03-17T02:20:09Z</time>
      </trkpt>
      <trkpt lat="46.72401" lon="-1.97848">
        <ele>7</ele>
        <time>2018-03-17T02:21:09Z</time>
      </trkpt>
      <trkpt lat="46.724" lon="-1.97848">
        <ele>7</ele>
        <time>2018-03-17T02:22:09Z</time>
      </trkpt>
      <trkpt lat="46.72399" lon="-1.97847">
        <ele>7</ele>
        <time>2018-03-17T02:23:09Z</time>
      </trkpt>
      <trkpt lat="46.72398" lon="-1.97845">
        <ele>7</ele>
        <time>2018-03-17T02:24:09Z</time>
      </trkpt>
      <trkpt lat="46.72397" lon="-1.97843">
        <ele>7</ele>
        <time>2018-03-17T02:25:09Z</time>
      </trkpt>
      <trkpt lat="46.72396" lon="-1.97841">
        <ele>7</ele>
        <time>2018-03-17T02:26:09Z</time>
      </trkpt>
      <trkpt lat="46.72396" lon="-1.9784">
        <ele>7</ele>
        <time>2018-03-17T02:27:09Z</time>
      </trkpt>
      <trkpt lat="46.72396" lon="-1.97839">
        <ele>7</ele>
        <time>2018-03-17T02:28:09Z</time>
      </trkpt>
      <trkpt lat="46.72396" lon="-1.97838">
        <ele>7</ele>
        <time>2018-03-17T02:29:09Z</time>
      </trkpt>
      <trkpt lat="46.72396" lon="-1.97837">
        <ele>7</ele>
        <time>2018-03-17T02:30:09Z</time>
      </trkpt>
      <trkpt lat="46.72395" lon="-1.97836">
        <ele>7</ele>
        <time>2018-03-17T02:31:09Z</time>
      </trkpt>
      <trkpt lat="46.72395" lon="-1.97835">
        <ele>7</ele>
        <time>2018-03-17T02:32:09Z</time>
      </trkpt>
      <trkpt lat="46.72396" lon="-1.97835">
        <ele>7</ele>
        <time>2018-03-17T02:33:09Z</time>
      </trkpt>
      <trkpt lat="46.72396" lon="-1.97834">
        <ele>7</ele>
        <time>2018-03-17T02:34:09Z</time>
      </trkpt>
      <trkpt lat="46.72396" lon="-1.97833">
        <ele>7</ele>
        <time>2018-03-17T02:35:09Z</time>
      </trkpt>
      <trkpt lat="46.72396" lon="-1.97832">
        <ele>7</ele>
        <time>2018-03-17T02:36:09Z</time>
      </trkpt>
      <trkpt lat="46.72396" lon="-1.97831">
        <ele>7</ele>
        <time>2018-03-17T02:37:09Z</time>
      </trkpt>
      <trkpt lat="46.72383" lon="-1.97806">
        <ele>7</ele>
        <time>2018-03-17T02:38:09Z</time>
      </trkpt>
      <trkpt lat="46.72381" lon="-1.97799">
        <ele>8</ele>
        <time>2018-03-17T02:39:09Z</time>
      </trkpt>
      <trkpt lat="46.72345" lon="-1.97737">
        <ele>9</ele>
        <time>2018-03-17T02:40:09Z</time>
      </trkpt>
      <trkpt lat="46.72306" lon="-1.97664">
        <ele>11</ele>
        <time>2018-03-17T02:41:09Z</time>
      </trkpt>
      <trkpt lat="46.72278" lon="-1.97612">
        <ele>12</ele>
        <time>2018-03-17T02:42:09Z</time>
      </trkpt>
      <trkpt lat="46.72268" lon="-1.97595">
        <ele>12</ele>
        <time>2018-03-17T02:43:09Z</time>
      </trkpt>
      <trkpt lat="46.72252" lon="-1.97565">
        <ele>12</ele>
        <time>2018-03-17T02:44:09Z</time>
      </trkpt>
      <trkpt lat="46.72229" lon="-1.97523">
        <ele>11</ele>
        <time>2018-03-17T02:45:09Z</time>
      </trkpt>
      <trkpt lat="46.72182" lon="-1.97442">
        <ele>10</ele>
        <time>2018-03-17T02:46:09Z</time>
      </trkpt>
      <trkpt lat="46.72144" lon="-1.97376">
        <ele>10</ele>
        <time>2018-03-17T02:47:09Z</time>
      </trkpt>
      <trkpt lat="46.72132" lon="-1.97353">
        <ele>10</ele>
        <time>2018-03-17T02:48:09Z</time>
      </trkpt>
      <trkpt lat="46.72114" lon="-1.97324">
        <ele>9</ele>
        <time>2018-03-17T02:49:09Z</time>
      </trkpt>
      <trkpt lat="46.72092" lon="-1.97285">
        <ele>9</ele>
        <time>2018-03-17T02:50:09Z</time>
      </trkpt>
      <trkpt lat="46.72062" lon="-1.97231">
        <ele>10</ele>
        <time>2018-03-17T02:51:09Z</time>
      </trkpt>
      <trkpt lat="46.72045" lon="-1.972">
        <ele>10</ele>
        <time>2018-03-17T02:52:09Z</time>
      </trkpt>
      <trkpt lat="46.72012" lon="-1.97137">
        <ele>11</ele>
        <time>2018-03-17T02:53:09Z</time>
      </trkpt>
      <trkpt lat="46.71999" lon="-1.97111">
        <ele>11</ele>
        <time>2018-03-17T02:54:09Z</time>
      </trkpt>
      <trkpt lat="46.7199" lon="-1.97098">
        <ele>12</ele>
        <time>2018-03-17T02:55:09Z</time>
      </trkpt>
      <trkpt lat="46.71969" lon="-1.97055">
        <ele>13</ele>
        <time>2018-03-17T02:56:09Z</time>
      </trkpt>
      <trkpt lat="46.71944" lon="-1.97005">
        <ele>14</ele>
        <time>2018-03-17T02:57:09Z</time>
      </trkpt>
      <trkpt lat="46.7193" lon="-1.96978">
        <ele>15</ele>
        <time>2018-03-17T02:58:09Z</time>
      </trkpt>
      <trkpt lat="46.71919" lon="-1.96958">
        <ele>15</ele>
        <time>2018-03-17T02:59:09Z</time>
      </trkpt>
      <trkpt lat="46.7189" lon="-1.96905">
        <ele>15</ele>
        <time>2018-03-17T03:00:09Z</time>
      </trkpt>
      <trkpt lat="46.71883" lon="-1.96894">
        <ele>15</ele>
        <time>2018-03-17T03:01:09Z</time>
      </trkpt>
      <trkpt lat="46.71868" lon="-1.96878">
        <ele>15</ele>
        <time>2018-03-17T03:02:09Z</time>
      </trkpt>
      <trkpt lat="46.71868" lon="-1.96878">
        <ele>15</ele>
        <time>2018-03-17T03:03:09Z</time>
      </trkpt>
      <trkpt lat="46.7186" lon="-1.96871">
        <ele>15</ele>
        <time>2018-03-17T03:04:09Z</time>
      </trkpt>
      <trkpt lat="46.71842" lon="-1.96866">
        <ele>15</ele>
        <time>2018-03-17T03:05:09Z</time>
      </trkpt>
      <trkpt lat="46.71833" lon="-1.96862">
        <ele>14</ele>
        <time>2018-03-17T03:06:09Z</time>
      </trkpt>
      <trkpt lat="46.71833" lon="-1.96862">
        <ele>14</ele>
        <time>2018-03-17T03:07:09Z</time>
      </trkpt>
      <trkpt lat="46.71826" lon="-1.96859">
        <ele>14</ele>
        <time>2018-03-17T03:08:09Z</time>
      </trkpt>
      <trkpt lat="46.71812" lon="-1.96843">
        <ele>14</ele>
        <time>2018-03-17T03:09:09Z</time>
      </trkpt>
      <trkpt lat="46.71808" lon="-1.96839">
        <ele>14</ele>
        <time>2018-03-17T03:10:09Z</time>
      </trkpt>
      <trkpt lat="46.71796" lon="-1.96835">
        <ele>14</ele>
        <time>2018-03-17T03:11:09Z</time>
      </trkpt>
      <trkpt lat="46.71781" lon="-1.9683">
        <ele>13</ele>
        <time>2018-03-17T03:12:09Z</time>
      </trkpt>
      <trkpt lat="46.71767" lon="-1.96825">
        <ele>13</ele>
        <time>2018-03-17T03:13:09Z</time>
      </trkpt>
      <trkpt lat="46.71755" lon="-1.9682">
        <ele>13</ele>
        <time>2018-03-17T03:14:09Z</time>
      </trkpt>
      <trkpt lat="46.71747" lon="-1.96817">
        <ele>13</ele>
        <time>2018-03-17T03:15:09Z</time>
      </trkpt>
      <trkpt lat="46.71738" lon="-1.96811">
        <ele>13</ele>
        <time>2018-03-17T03:16:09Z</time>
      </trkpt>
      <trkpt lat="46.71726" lon="-1.96803">
        <ele>13</ele>
        <time>2018-03-17T03:17:09Z</time>
      </trkpt>
      <trkpt lat="46.71712" lon="-1.96794">
        <ele>13</ele>
        <time>2018-03-17T03:18:09Z</time>
      </trkpt>
      <trkpt lat="46.71699" lon="-1.96786">
        <ele>13</ele>
        <time>2018-03-17T03:19:09Z</time>
      </trkpt>
      <trkpt lat="46.71689" lon="-1.96781">
        <ele>14</ele>
        <time>2018-03-17T03:20:09Z</time>
      </trkpt>
      <trkpt lat="46.7168" lon="-1.96777">
        <ele>14</ele>
        <time>2018-03-17T03:21:09Z</time>
      </trkpt>
      <trkpt lat="46.71672" lon="-1.96774">
        <ele>14</ele>
        <time>2018-03-17T03:22:09Z</time>
      </trkpt>
      <trkpt lat="46.71664" lon="-1.96774">
        <ele>14</ele>
        <time>2018-03-17T03:23:09Z</time>
      </trkpt>
      <trkpt lat="46.71657" lon="-1.96774">
        <ele>14</ele>
        <time>2018-03-17T03:24:09Z</time>
      </trkpt>
      <trkpt lat="46.7165" lon="-1.96775">
        <ele>14</ele>
        <time>2018-03-17T03:25:09Z</time>
      </trkpt>
      <trkpt lat="46.71643" lon="-1.96776">
        <ele>14</ele>
        <time>2018-03-17T03:26:09Z</time>
      </trkpt>
      <trkpt lat="46.71634" lon="-1.9678">
        <ele>14</ele>
        <time>2018-03-17T03:27:09Z</time>
      </trkpt>
      <trkpt lat="46.71615" lon="-1.96791">
        <ele>14</ele>
        <time>2018-03-17T03:28:09Z</time>
      </trkpt>
      <trkpt lat="46.71598" lon="-1.96802">
        <ele>14</ele>
        <time>2018-03-17T03:29:09Z</time>
      </trkpt>
      <trkpt lat="46.71593" lon="-1.96805">
        <ele>14</ele>
        <time>2018-03-17T03:30:09Z</time>
      </trkpt>
      <trkpt lat="46.71587" lon="-1.96807">
        <ele>14</ele>
        <time>2018-03-17T03:31:09Z</time>
      </trkpt>
      <trkpt lat="46.71581" lon="-1.96809">
        <ele>14</ele>
        <time>2018-03-17T03:32:09Z</time>
      </trkpt>
      <trkpt lat="46.71571" lon="-1.9681">
        <ele>14</ele>
        <time>2018-03-17T03:33:09Z</time>
      </trkpt>
      <trkpt lat="46.71558" lon="-1.96809">
        <ele>14</ele>
        <time>2018-03-17T03:34:09Z</time>
      </trkpt>
      <trkpt lat="46.71543" lon="-1.96807">
        <ele>14</ele>
        <time>2018-03-17T03:35:09Z</time>
      </trkpt>
      <trkpt lat="46.71528" lon="-1.96807">
        <ele>14</ele>
        <time>2018-03-17T03:36:09Z</time>
      </trkpt>
      <trkpt lat="46.71496" lon="-1.96806">
        <ele>13</ele>
        <time>2018-03-17T03:37:09Z</time>
      </trkpt>
      <trkpt lat="46.71474" lon="-1.96801">
        <ele>13</ele>
        <time>2018-03-17T03:38:09Z</time>
      </trkpt>
      <trkpt lat="46.71442" lon="-1.96789">
        <ele>13</ele>
        <time>2018-03-17T03:39:09Z</time>
      </trkpt>
      <trkpt lat="46.71424" lon="-1.96783">
        <ele>13</ele>
        <time>2018-03-17T03:40:09Z</time>
      </trkpt>
      <trkpt lat="46.71403" lon="-1.96777">
        <ele>14</ele>
        <time>2018-03-17T03:41:09Z</time>
      </trkpt>
      <trkpt lat="46.71403" lon="-1.96777">
        <ele>14</ele>
        <time>2018-03-17T03:42:09Z</time>
      </trkpt>
      <trkpt lat="46.71395" lon="-1.96774">
        <ele>14</ele>
        <time>2018-03-17T03:43:09Z</time>
      </trkpt>
      <trkpt lat="46.71382" lon="-1.96767">
        <ele>15</ele>
        <time>2018-03-17T03:44:09Z</time>
      </trkpt>
      <trkpt lat="46.7137" lon="-1.96762">
        <ele>15</ele>
        <time>2018-03-17T03:45:09Z</time>
      </trkpt>
      <trkpt lat="46.71362" lon="-1.96758">
        <ele>16</ele>
        <time>2018-03-17T03:46:09Z</time>
      </trkpt>
      <trkpt lat="46.71348" lon="-1.96755">
        <ele>16</ele>
        <time>2018-03-17T03:47:09Z</time>
      </trkpt>
      <trkpt lat="46.71332" lon="-1.96753">
        <ele>17</ele>
        <time>2018-03-17T03:48:09Z</time>
      </trkpt>
      <trkpt lat="46.7132" lon="-1.9675">
        <ele>17</ele>
        <time>2018-03-17T03:49:09Z</time>
      </trkpt>
      <trkpt lat="46.7131" lon="-1.96749">
        <ele>16</ele>
        <time>2018-03-17T03:50:09Z</time>
      </trkpt>
      <trkpt lat="46.713" lon="-1.9675">
        <ele>16</ele>
        <time>2018-03-17T03:51:09Z</time>
      </trkpt>
      <trkpt lat="46.71292" lon="-1.9675">
        <ele>16</ele>
        <time>2018-03-17T03:52:09Z</time>
      </trkpt>
      <trkpt lat="46.7128" lon="-1.96751">
        <ele>16</ele>
        <time>2018-03-17T03:53:09Z</time>
      </trkpt>
      <trkpt lat="46.71268" lon="-1.96753">
        <ele>15</ele>
        <time>2018-03-17T03:54:09Z</time>
      </trkpt>
      <trkpt lat="46.71248" lon="-1.9676">
        <ele>15</ele>
        <time>2018-03-17T03:55:09Z</time>
      </trkpt>
      <trkpt lat="46.71248" lon="-1.9676">
        <ele>15</ele>
        <time>2018-03-17T03:56:09Z</time>
      </trkpt>
      <trkpt lat="46.71239" lon="-1.96763">
        <ele>15</ele>
        <time>2018-03-17T03:57:09Z</time>
      </trkpt>
      <trkpt lat="46.71215" lon="-1.96763">
        <ele>15</ele>
        <time>2018-03-17T03:58:09Z</time>
      </trkpt>
      <trkpt lat="46.71179" lon="-1.96765">
        <ele>15</ele>
        <time>2018-03-17T03:59:09Z</time>
      </trkpt>
      <trkpt lat="46.71128" lon="-1.96765">
        <ele>14</ele>
        <time>2018-03-17T04:00:09Z</time>
      </trkpt>
      <trkpt lat="46.71081" lon="-1.96765">
        <ele>14</ele>
        <time>2018-03-17T04:01:09Z</time>
      </trkpt>
      <trkpt lat="46.71065" lon="-1.96766">
        <ele>14</ele>
        <time>2018-03-17T04:02:09Z</time>
      </trkpt>
      <trkpt lat="46.71039" lon="-1.96766">
        <ele>13</ele>
        <time>2018-03-17T04:03:09Z</time>
      </trkpt>
      <trkpt lat="46.71035" lon="-1.9677">
        <ele>13</ele>
        <time>2018-03-17T04:04:09Z</time>
      </trkpt>
      <trkpt lat="46.7103" lon="-1.96775">
        <ele>13</ele>
        <time>2018-03-17T04:05:09Z</time>
      </trkpt>
      <trkpt lat="46.71023" lon="-1.96781">
        <ele>13</ele>
        <time>2018-03-17T04:06:09Z</time>
      </trkpt>
      <trkpt lat="46.71023" lon="-1.96781">
        <ele>13</ele>
        <time>2018-03-17T04:07:09Z</time>
      </trkpt>
      <trkpt lat="46.71021" lon="-1.96786">
        <ele>13</ele>
        <time>2018-03-17T04:08:09Z</time>
      </trkpt>
      <trkpt lat="46.71019" lon="-1.96789">
        <ele>13</ele>
        <time>2018-03-17T04:09:09Z</time>
      </trkpt>
      <trkpt lat="46.71015" lon="-1.96791">
        <ele>13</ele>
        <time>2018-03-17T04:10:09Z</time>
      </trkpt>
      <trkpt lat="46.71012" lon="-1.96792">
        <ele>13</ele>
        <time>2018-03-17T04:11:09Z</time>
      </trkpt>
      <trkpt lat="46.71008" lon="-1.96792">
        <ele>13</ele>
        <time>2018-03-17T04:12:09Z</time>
      </trkpt>
      <trkpt lat="46.71004" lon="-1.96792">
        <ele>13</ele>
        <time>2018-03-17T04:13:09Z</time>
      </trkpt>
      <trkpt lat="46.71002" lon="-1.9679">
        <ele>13</ele>
        <time>2018-03-17T04:14:09Z</time>
      </trkpt>
      <trkpt lat="46.70999" lon="-1.96787">
        <ele>13</ele>
        <time>2018-03-17T04:15:09Z</time>
      </trkpt>
      <trkpt lat="46.70996" lon="-1.96783">
        <ele>13</ele>
        <time>2018-03-17T04:16:09Z</time>
      </trkpt>
      <trkpt lat="46.70994" lon="-1.96779">
        <ele>13</ele>
        <time>2018-03-17T04:17:09Z</time>
      </trkpt>
      <trkpt lat="46.70993" lon="-1.96774">
        <ele>13</ele>
        <time>2018-03-17T04:18:09Z</time>
      </trkpt>
      <trkpt lat="46.70993" lon="-1.9677">
        <ele>13</ele>
        <time>2018-03-17T04:19:09Z</time>
      </trkpt>
      <trkpt lat="46.70993" lon="-1.96765">
        <ele>13</ele>
        <time>2018-03-17T04:20:09Z</time>
      </trkpt>
      <trkpt lat="46.70994" lon="-1.96759">
        <ele>13</ele>
        <time>2018-03-17T04:21:09Z</time>
      </trkpt>
      <trkpt lat="46.7099" lon="-1.96745">
        <ele>13</ele>
        <time>2018-03-17T04:22:09Z</time>
      </trkpt>
      <trkpt lat="46.70986" lon="-1.96731">
        <ele>13</ele>
        <time>2018-03-17T04:23:09Z</time>
      </trkpt>
      <trkpt lat="46.70982" lon="-1.96719">
        <ele>13</ele>
        <time>2018-03-17T04:24:09Z</time>
      </trkpt>
      <trkpt lat="46.70981" lon="-1.96714">
        <ele>13</ele>
        <time>2018-03-17T04:25:09Z</time>
      </trkpt>
      <trkpt lat="46.70976" lon="-1.96705">
        <ele>13</ele>
        <time>2018-03-17T04:26:09Z</time>
      </trkpt>
      <trkpt lat="46.70973" lon="-1.96697">
        <ele>13</ele>
        <time>2018-03-17T04:27:09Z</time>
      </trkpt>
      <trkpt lat="46.70969" lon="-1.96685">
        <ele>13</ele>
        <time>2018-03-17T04:28:09Z</time>
      </trkpt>
      <trkpt lat="46.70963" lon="-1.96669">
        <ele>13</ele>
        <time>2018-03-17T04:29:09Z</time>
      </trkpt>
      <trkpt lat="46.70955" lon="-1.96651">
        <ele>13</ele>
        <time>2018-03-17T04:30:09Z</time>
      </trkpt>
      <trkpt lat="46.7095" lon="-1.9664">
        <ele>13</ele>
        <time>2018-03-17T04:31:09Z</time>
      </trkpt>
      <trkpt lat="46.70947" lon="-1.9663">
        <ele>13</ele>
        <time>2018-03-17T04:32:09Z</time>
      </trkpt>
      <trkpt lat="46.70943" lon="-1.96619">
        <ele>13</ele>
        <time>2018-03-17T04:33:09Z</time>
      </trkpt>
      <trkpt lat="46.70941" lon="-1.96605">
        <ele>13</ele>
        <time>2018-03-17T04:34:09Z</time>
      </trkpt>
      <trkpt lat="46.70939" lon="-1.96593">
        <ele>13</ele>
        <time>2018-03-17T04:35:09Z</time>
      </trkpt>
      <trkpt lat="46.70938" lon="-1.96578">
        <ele>13</ele>
        <time>2018-03-17T04:36:09Z</time>
      </trkpt>
      <trkpt lat="46.70938" lon="-1.96567">
        <ele>13</ele>
        <time>2018-03-17T04:37:09Z</time>
      </trkpt>
      <trkpt lat="46.70938" lon="-1.96557">
        <ele>13</ele>
        <time>2018-03-17T04:38:09Z</time>
      </trkpt>
      <trkpt lat="46.7094" lon="-1.96544">
        <ele>13</ele>
        <time>2018-03-17T04:39:09Z</time>
      </trkpt>
      <trkpt lat="46.70942" lon="-1.96531">
        <ele>13</ele>
        <time>2018-03-17T04:40:09Z</time>
      </trkpt>
      <trkpt lat="46.70946" lon="-1.96512">
        <ele>14</ele>
        <time>2018-03-17T04:41:09Z</time>
      </trkpt>
      <trkpt lat="46.7095" lon="-1.96493">
        <ele>14</ele>
        <time>2018-03-17T04:42:09Z</time>
      </trkpt>
      <trkpt lat="46.70955" lon="-1.9647">
        <ele>14</ele>
        <time>2018-03-17T04:43:09Z</time>
      </trkpt>
      <trkpt lat="46.70959" lon="-1.96453">
        <ele>14</ele>
        <time>2018-03-17T04:44:09Z</time>
      </trkpt>
      <trkpt lat="46.70963" lon="-1.96436">
        <ele>14</ele>
        <time>2018-03-17T04:45:09Z</time>
      </trkpt>
      <trkpt lat="46.70966" lon="-1.96422">
        <ele>14</ele>
        <time>2018-03-17T04:46:09Z</time>
      </trkpt>
      <trkpt lat="46.70969" lon="-1.96404">
        <ele>14</ele>
        <time>2018-03-17T04:47:09Z</time>
      </trkpt>
      <trkpt lat="46.70972" lon="-1.96386">
        <ele>13</ele>
        <time>2018-03-17T04:48:09Z</time>
      </trkpt>
      <trkpt lat="46.70975" lon="-1.96369">
        <ele>13</ele>
        <time>2018-03-17T04:49:09Z</time>
      </trkpt>
      <trkpt lat="46.70976" lon="-1.96356">
        <ele>13</ele>
        <time>2018-03-17T04:50:09Z</time>
      </trkpt>
      <trkpt lat="46.70978" lon="-1.9633">
        <ele>13</ele>
        <time>2018-03-17T04:51:09Z</time>
      </trkpt>
      <trkpt lat="46.70979" lon="-1.96306">
        <ele>13</ele>
        <time>2018-03-17T04:52:09Z</time>
      </trkpt>
      <trkpt lat="46.70979" lon="-1.96277">
        <ele>13</ele>
        <time>2018-03-17T04:53:09Z</time>
      </trkpt>
      <trkpt lat="46.70978" lon="-1.96247">
        <ele>13</ele>
        <time>2018-03-17T04:54:09Z</time>
      </trkpt>
      <trkpt lat="46.70978" lon="-1.96214">
        <ele>13</ele>
        <time>2018-03-17T04:55:09Z</time>
      </trkpt>
      <trkpt lat="46.70978" lon="-1.96188">
        <ele>13</ele>
        <time>2018-03-17T04:56:09Z</time>
      </trkpt>
      <trkpt lat="46.70977" lon="-1.96155">
        <ele>14</ele>
        <time>2018-03-17T04:57:09Z</time>
      </trkpt>
      <trkpt lat="46.70976" lon="-1.96132">
        <ele>15</ele>
        <time>2018-03-17T04:58:09Z</time>
      </trkpt>
      <trkpt lat="46.70976" lon="-1.96124">
        <ele>15</ele>
        <time>2018-03-17T04:59:09Z</time>
      </trkpt>
      <trkpt lat="46.70977" lon="-1.96114">
        <ele>15</ele>
        <time>2018-03-17T05:00:09Z</time>
      </trkpt>
      <trkpt lat="46.70977" lon="-1.96114">
        <ele>15</ele>
        <time>2018-03-17T05:01:09Z</time>
      </trkpt>
      <trkpt lat="46.70973" lon="-1.96112">
        <ele>16</ele>
        <time>2018-03-17T05:02:09Z</time>
      </trkpt>
      <trkpt lat="46.7097" lon="-1.96108">
        <ele>16</ele>
        <time>2018-03-17T05:03:09Z</time>
      </trkpt>
      <trkpt lat="46.70968" lon="-1.96102">
        <ele>16</ele>
        <time>2018-03-17T05:04:09Z</time>
      </trkpt>
      <trkpt lat="46.70967" lon="-1.96095">
        <ele>16</ele>
        <time>2018-03-17T05:05:09Z</time>
      </trkpt>
      <trkpt lat="46.70954" lon="-1.96093">
        <ele>16</ele>
        <time>2018-03-17T05:06:09Z</time>
      </trkpt>
      <trkpt lat="46.70938" lon="-1.96092">
        <ele>16</ele>
        <time>2018-03-17T05:07:09Z</time>
      </trkpt>
      <trkpt lat="46.7092" lon="-1.9609">
        <ele>16</ele>
        <time>2018-03-17T05:08:09Z</time>
      </trkpt>
      <trkpt lat="46.70896" lon="-1.96087">
        <ele>16</ele>
        <time>2018-03-17T05:09:09Z</time>
      </trkpt>
      <trkpt lat="46.70848" lon="-1.96082">
        <ele>15</ele>
        <time>2018-03-17T05:10:09Z</time>
      </trkpt>
      <trkpt lat="46.7081" lon="-1.96079">
        <ele>15</ele>
        <time>2018-03-17T05:11:09Z</time>
      </trkpt>
      <trkpt lat="46.70763" lon="-1.96074">
        <ele>16</ele>
        <time>2018-03-17T05:12:09Z</time>
      </trkpt>
      <trkpt lat="46.70722" lon="-1.96071">
        <ele>16</ele>
        <time>2018-03-17T05:13:09Z</time>
      </trkpt>
      <trkpt lat="46.70717" lon="-1.96071">
        <ele>16</ele>
        <time>2018-03-17T05:14:09Z</time>
      </trkpt>
      <trkpt lat="46.70684" lon="-1.96067">
        <ele>16</ele>
        <time>2018-03-17T05:15:09Z</time>
      </trkpt>
      <trkpt lat="46.70647" lon="-1.96064">
        <ele>16</ele>
        <time>2018-03-17T05:16:09Z</time>
      </trkpt>
      <trkpt lat="46.7063" lon="-1.96062">
        <ele>16</ele>
        <time>2018-03-17T05:17:09Z</time>
      </trkpt>
      <trkpt lat="46.70615" lon="-1.96059">
        <ele>16</ele>
        <time>2018-03-17T05:18:09Z</time>
      </trkpt>
      <trkpt lat="46.70579" lon="-1.96052">
        <ele>16</ele>
        <time>2018-03-17T05:19:09Z</time>
      </trkpt>
      <trkpt lat="46.70555" lon="-1.96046">
        <ele>16</ele>
        <time>2018-03-17T05:20:09Z</time>
      </trkpt>
      <trkpt lat="46.70533" lon="-1.96039">
        <ele>16</ele>
        <time>2018-03-17T05:21:09Z</time>
      </trkpt>
      <trkpt lat="46.70506" lon="-1.96029">
        <ele>15</ele>
        <time>2018-03-17T05:22:09Z</time>
      </trkpt>
      <trkpt lat="46.70475" lon="-1.96016">
        <ele>15</ele>
        <time>2018-03-17T05:23:09Z</time>
      </trkpt>
      <trkpt lat="46.70447" lon="-1.96003">
        <ele>16</ele>
        <time>2018-03-17T05:24:09Z</time>
      </trkpt>
      <trkpt lat="46.70419" lon="-1.95986">
        <ele>16</ele>
        <time>2018-03-17T05:25:09Z</time>
      </trkpt>
      <trkpt lat="46.70393" lon="-1.95972">
        <ele>15</ele>
        <time>2018-03-17T05:26:09Z</time>
      </trkpt>
      <trkpt lat="46.70369" lon="-1.95955">
        <ele>15</ele>
        <time>2018-03-17T05:27:09Z</time>
      </trkpt>
      <trkpt lat="46.7036" lon="-1.95948">
        <ele>15</ele>
        <time>2018-03-17T05:28:09Z</time>
      </trkpt>
      <trkpt lat="46.70359" lon="-1.95952">
        <ele>15</ele>
        <time>2018-03-17T05:29:09Z</time>
      </trkpt>
      <trkpt lat="46.70357" lon="-1.95956">
        <ele>15</ele>
        <time>2018-03-17T05:30:09Z</time>
      </trkpt>
      <trkpt lat="46.70354" lon="-1.95958">
        <ele>15</ele>
        <time>2018-03-17T05:31:09Z</time>
      </trkpt>
      <trkpt lat="46.7035" lon="-1.95958">
        <ele>15</ele>
        <time>2018-03-17T05:32:09Z</time>
      </trkpt>
      <trkpt lat="46.70349" lon="-1.95957">
        <ele>15</ele>
        <time>2018-03-17T05:33:09Z</time>
      </trkpt>
      <trkpt lat="46.70347" lon="-1.95955">
        <ele>15</ele>
        <time>2018-03-17T05:34:09Z</time>
      </trkpt>
      <trkpt lat="46.70344" lon="-1.95951">
        <ele>15</ele>
        <time>2018-03-17T05:35:09Z</time>
      </trkpt>
      <trkpt lat="46.70344" lon="-1.95946">
        <ele>14</ele>
        <time>2018-03-17T05:36:09Z</time>
      </trkpt>
      <trkpt lat="46.70344" lon="-1.95941">
        <ele>14</ele>
        <time>2018-03-17T05:37:09Z</time>
      </trkpt>
      <trkpt lat="46.70345" lon="-1.95938">
        <ele>14</ele>
        <time>2018-03-17T05:38:09Z</time>
      </trkpt>
      <trkpt lat="46.70333" lon="-1.95927">
        <ele>14</ele>
        <time>2018-03-17T05:39:09Z</time>
      </trkpt>
      <trkpt lat="46.70313" lon="-1.9591">
        <ele>14</ele>
        <time>2018-03-17T05:40:09Z</time>
      </trkpt>
      <trkpt lat="46.70302" lon="-1.95899">
        <ele>13</ele>
        <time>2018-03-17T05:41:09Z</time>
      </trkpt>
      <trkpt lat="46.70296" lon="-1.95894">
        <ele>13</ele>
        <time>2018-03-17T05:42:09Z</time>
      </trkpt>
      <trkpt lat="46.70274" lon="-1.95872">
        <ele>13</ele>
        <time>2018-03-17T05:43:09Z</time>
      </trkpt>
      <trkpt lat="46.70256" lon="-1.95852">
        <ele>12</ele>
        <time>2018-03-17T05:44:09Z</time>
      </trkpt>
      <trkpt lat="46.70241" lon="-1.95834">
        <ele>12</ele>
        <time>2018-03-17T05:45:09Z</time>
      </trkpt>
      <trkpt lat="46.70228" lon="-1.95813">
        <ele>12</ele>
        <time>2018-03-17T05:46:09Z</time>
      </trkpt>
      <trkpt lat="46.70217" lon="-1.95794">
        <ele>12</ele>
        <time>2018-03-17T05:47:09Z</time>
      </trkpt>
      <trkpt lat="46.70208" lon="-1.95777">
        <ele>12</ele>
        <time>2018-03-17T05:48:09Z</time>
      </trkpt>
      <trkpt lat="46.70197" lon="-1.95753">
        <ele>13</ele>
        <time>2018-03-17T05:49:09Z</time>
      </trkpt>
      <trkpt lat="46.70187" lon="-1.95726">
        <ele>12</ele>
        <time>2018-03-17T05:50:09Z</time>
      </trkpt>
      <trkpt lat="46.70181" lon="-1.95706">
        <ele>12</ele>
        <time>2018-03-17T05:51:09Z</time>
      </trkpt>
      <trkpt lat="46.70176" lon="-1.95686">
        <ele>12</ele>
        <time>2018-03-17T05:52:09Z</time>
      </trkpt>
      <trkpt lat="46.70175" lon="-1.95682">
        <ele>12</ele>
        <time>2018-03-17T05:53:09Z</time>
      </trkpt>
      <trkpt lat="46.70171" lon="-1.95673">
        <ele>12</ele>
        <time>2018-03-17T05:54:09Z</time>
      </trkpt>
      <trkpt lat="46.7017" lon="-1.95669">
        <ele>12</ele>
        <time>2018-03-17T05:55:09Z</time>
      </trkpt>
      <trkpt lat="46.70168" lon="-1.95666">
        <ele>12</ele>
        <time>2018-03-17T05:56:09Z</time>
      </trkpt>
      <trkpt lat="46.70166" lon="-1.9566">
        <ele>12</ele>
        <time>2018-03-17T05:57:09Z</time>
      </trkpt>
      <trkpt lat="46.70165" lon="-1.95657">
        <ele>12</ele>
        <time>2018-03-17T05:58:09Z</time>
      </trkpt>
      <trkpt lat="46.70164" lon="-1.95654">
        <ele>12</ele>
        <time>2018-03-17T05:59:09Z</time>
      </trkpt>
      <trkpt lat="46.70164" lon="-1.95654">
        <ele>12</ele>
        <time>2018-03-17T06:00:09Z</time>
      </trkpt>
      <trkpt lat="46.70163" lon="-1.95654">
        <ele>12</ele>
        <time>2018-03-17T06:01:09Z</time>
      </trkpt>
      <trkpt lat="46.70162" lon="-1.95654">
        <ele>12</ele>
        <time>2018-03-17T06:02:09Z</time>
      </trkpt>
      <trkpt lat="46.70161" lon="-1.95654">
        <ele>12</ele>
        <time>2018-03-17T06:03:09Z</time>
      </trkpt>
      <trkpt lat="46.7016" lon="-1.95654">
        <ele>12</ele>
        <time>2018-03-17T06:04:09Z</time>
      </trkpt>
      <trkpt lat="46.7016" lon="-1.95653">
        <ele>12</ele>
        <time>2018-03-17T06:05:09Z</time>
      </trkpt>
      <trkpt lat="46.70159" lon="-1.95653">
        <ele>12</ele>
        <time>2018-03-17T06:06:09Z</time>
      </trkpt>
      <trkpt lat="46.70159" lon="-1.95652">
        <ele>12</ele>
        <time>2018-03-17T06:07:09Z</time>
      </trkpt>
      <trkpt lat="46.70158" lon="-1.95652">
        <ele>12</ele>
        <time>2018-03-17T06:08:09Z</time>
      </trkpt>
      <trkpt lat="46.70158" lon="-1.95651">
        <ele>12</ele>
        <time>2018-03-17T06:09:09Z</time>
      </trkpt>
      <trkpt lat="46.70157" lon="-1.95651">
        <ele>12</ele>
        <time>2018-03-17T06:10:09Z</time>
      </trkpt>
      <trkpt lat="46.70157" lon="-1.9565">
        <ele>12</ele>
        <time>2018-03-17T06:11:09Z</time>
      </trkpt>
      <trkpt lat="46.70157" lon="-1.95649">
        <ele>12</ele>
        <time>2018-03-17T06:12:09Z</time>
      </trkpt>
      <trkpt lat="46.70156" lon="-1.95649">
        <ele>12</ele>
        <time>2018-03-17T06:13:09Z</time>
      </trkpt>
      <trkpt lat="46.70156" lon="-1.95648">
        <ele>12</ele>
        <time>2018-03-17T06:14:09Z</time>
      </trkpt>
      <trkpt lat="46.70156" lon="-1.95647">
        <ele>12</ele>
        <time>2018-03-17T06:15:09Z</time>
      </trkpt>
      <trkpt lat="46.70156" lon="-1.95646">
        <ele>12</ele>
        <time>2018-03-17T06:16:09Z</time>
      </trkpt>
      <trkpt lat="46.70156" lon="-1.95645">
        <ele>12</ele>
        <time>2018-03-17T06:17:09Z</time>
      </trkpt>
      <trkpt lat="46.70155" lon="-1.95644">
        <ele>12</ele>
        <time>2018-03-17T06:18:09Z</time>
      </trkpt>
      <trkpt lat="46.70155" lon="-1.95643">
        <ele>12</ele>
        <time>2018-03-17T06:19:09Z</time>
      </trkpt>
      <trkpt lat="46.70155" lon="-1.95642">
        <ele>12</ele>
        <time>2018-03-17T06:20:09Z</time>
      </trkpt>
      <trkpt lat="46.70156" lon="-1.95641">
        <ele>12</ele>
        <time>2018-03-17T06:21:09Z</time>
      </trkpt>
      <trkpt lat="46.70156" lon="-1.9564">
        <ele>12</ele>
        <time>2018-03-17T06:22:09Z</time>
      </trkpt>
      <trkpt lat="46.70156" lon="-1.95639">
        <ele>12</ele>
        <time>2018-03-17T06:23:09Z</time>
      </trkpt>
      <trkpt lat="46.70156" lon="-1.95638">
        <ele>11</ele>
        <time>2018-03-17T06:24:09Z</time>
      </trkpt>
      <trkpt lat="46.70156" lon="-1.95637">
        <ele>11</ele>
        <time>2018-03-17T06:25:09Z</time>
      </trkpt>
      <trkpt lat="46.70157" lon="-1.95637">
        <ele>11</ele>
        <time>2018-03-17T06:26:09Z</time>
      </trkpt>
      <trkpt lat="46.70157" lon="-1.95636">
        <ele>11</ele>
        <time>2018-03-17T06:27:09Z</time>
      </trkpt>
      <trkpt lat="46.70157" lon="-1.95635">
        <ele>11</ele>
        <time>2018-03-17T06:28:09Z</time>
      </trkpt>
      <trkpt lat="46.70158" lon="-1.95635">
        <ele>11</ele>
        <time>2018-03-17T06:29:09Z</time>
      </trkpt>
      <trkpt lat="46.70158" lon="-1.95634">
        <ele>11</ele>
        <time>2018-03-17T06:30:09Z</time>
      </trkpt>
      <trkpt lat="46.70159" lon="-1.95634">
        <ele>11</ele>
        <time>2018-03-17T06:31:09Z</time>
      </trkpt>
      <trkpt lat="46.70159" lon="-1.95633">
        <ele>11</ele>
        <time>2018-03-17T06:32:09Z</time>
      </trkpt>
      <trkpt lat="46.7016" lon="-1.95633">
        <ele>11</ele>
        <time>2018-03-17T06:33:09Z</time>
      </trkpt>
      <trkpt lat="46.7016" lon="-1.95632">
        <ele>11</ele>
        <time>2018-03-17T06:34:09Z</time>
      </trkpt>
      <trkpt lat="46.70161" lon="-1.95632">
        <ele>11</ele>
        <time>2018-03-17T06:35:09Z</time>
      </trkpt>
      <trkpt lat="46.70162" lon="-1.95624">
        <ele>11</ele>
        <time>2018-03-17T06:36:09Z</time>
      </trkpt>
      <trkpt lat="46.70163" lon="-1.9561">
        <ele>11</ele>
        <time>2018-03-17T06:37:09Z</time>
      </trkpt>
      <trkpt lat="46.70153" lon="-1.9555">
        <ele>10</ele>
        <time>2018-03-17T06:38:09Z</time>
      </trkpt>
      <trkpt lat="46.70143" lon="-1.95473">
        <ele>9</ele>
        <time>2018-03-17T06:39:09Z</time>
      </trkpt>
      <trkpt lat="46.70142" lon="-1.95447">
        <ele>9</ele>
        <time>2018-03-17T06:40:09Z</time>
      </trkpt>
      <trkpt lat="46.70147" lon="-1.95382">
        <ele>8</ele>
        <time>2018-03-17T06:41:09Z</time>
      </trkpt>
      <trkpt lat="46.70163" lon="-1.95279">
        <ele>6</ele>
        <time>2018-03-17T06:42:09Z</time>
      </trkpt>
      <trkpt lat="46.70167" lon="-1.95232">
        <ele>5</ele>
        <time>2018-03-17T06:43:09Z</time>
      </trkpt>
      <trkpt lat="46.70167" lon="-1.95226">
        <ele>5</ele>
        <time>2018-03-17T06:44:09Z</time>
      </trkpt>
      <trkpt lat="46.70168" lon="-1.95219">
        <ele>5</ele>
        <time>2018-03-17T06:45:09Z</time>
      </trkpt>
      <trkpt lat="46.70167" lon="-1.95198">
        <ele>6</ele>
        <time>2018-03-17T06:46:09Z</time>
      </trkpt>
      <trkpt lat="46.70166" lon="-1.95179">
        <ele>6</ele>
        <time>2018-03-17T06:47:09Z</time>
      </trkpt>
      <trkpt lat="46.70162" lon="-1.95161">
        <ele>6</ele>
        <time>2018-03-17T06:48:09Z</time>
      </trkpt>
      <trkpt lat="46.7016" lon="-1.95145">
        <ele>6</ele>
        <time>2018-03-17T06:49:09Z</time>
      </trkpt>
      <trkpt lat="46.70158" lon="-1.95126">
        <ele>6</ele>
        <time>2018-03-17T06:50:09Z</time>
      </trkpt>
      <trkpt lat="46.70157" lon="-1.95107">
        <ele>5</ele>
        <time>2018-03-17T06:51:09Z</time>
      </trkpt>
      <trkpt lat="46.70156" lon="-1.95089">
        <ele>5</ele>
        <time>2018-03-17T06:52:09Z</time>
      </trkpt>
      <trkpt lat="46.70156" lon="-1.95069">
        <ele>5</ele>
        <time>2018-03-17T06:53:09Z</time>
      </trkpt>
      <trkpt lat="46.70156" lon="-1.95069">
        <ele>5</ele>
        <time>2018-03-17T06:54:09Z</time>
      </trkpt>
      <trkpt lat="46.70155" lon="-1.95069">
        <ele>5</ele>
        <time>2018-03-17T06:55:09Z</time>
      </trkpt>
      <trkpt lat="46.70154" lon="-1.95069">
        <ele>5</ele>
        <time>2018-03-17T06:56:09Z</time>
      </trkpt>
      <trkpt lat="46.70153" lon="-1.95069">
        <ele>5</ele>
        <time>2018-03-17T06:57:09Z</time>
      </trkpt>
      <trkpt lat="46.70152" lon="-1.95069">
        <ele>5</ele>
        <time>2018-03-17T06:58:09Z</time>
      </trkpt>
      <trkpt lat="46.70152" lon="-1.95068">
        <ele>5</ele>
        <time>2018-03-17T06:59:09Z</time>
      </trkpt>
      <trkpt lat="46.70151" lon="-1.95068">
        <ele>5</ele>
        <time>2018-03-17T07:00:09Z</time>
      </trkpt>
      <trkpt lat="46.70151" lon="-1.95067">
        <ele>5</ele>
        <time>2018-03-17T07:01:09Z</time>
      </trkpt>
      <trkpt lat="46.7015" lon="-1.95067">
        <ele>5</ele>
        <time>2018-03-17T07:02:09Z</time>
      </trkpt>
      <trkpt lat="46.7015" lon="-1.95066">
        <ele>5</ele>
        <time>2018-03-17T07:03:09Z</time>
      </trkpt>
      <trkpt lat="46.70149" lon="-1.95066">
        <ele>5</ele>
        <time>2018-03-17T07:04:09Z</time>
      </trkpt>
      <trkpt lat="46.70149" lon="-1.95065">
        <ele>5</ele>
        <time>2018-03-17T07:05:09Z</time>
      </trkpt>
      <trkpt lat="46.70149" lon="-1.95064">
        <ele>5</ele>
        <time>2018-03-17T07:06:09Z</time>
      </trkpt>
      <trkpt lat="46.70149" lon="-1.95063">
        <ele>5</ele>
        <time>2018-03-17T07:07:09Z</time>
      </trkpt>
      <trkpt lat="46.70148" lon="-1.95063">
        <ele>5</ele>
        <time>2018-03-17T07:08:09Z</time>
      </trkpt>
      <trkpt lat="46.70148" lon="-1.95062">
        <ele>5</ele>
        <time>2018-03-17T07:09:09Z</time>
      </trkpt>
      <trkpt lat="46.70148" lon="-1.95061">
        <ele>5</ele>
        <time>2018-03-17T07:10:09Z</time>
      </trkpt>
      <trkpt lat="46.70148" lon="-1.9506">
        <ele>5</ele>
        <time>2018-03-17T07:11:09Z</time>
      </trkpt>
      <trkpt lat="46.70148" lon="-1.95059">
        <ele>5</ele>
        <time>2018-03-17T07:12:09Z</time>
      </trkpt>
      <trkpt lat="46.70148" lon="-1.95058">
        <ele>5</ele>
        <time>2018-03-17T07:13:09Z</time>
      </trkpt>
      <trkpt lat="46.70125" lon="-1.95054">
        <ele>5</ele>
        <time>2018-03-17T07:14:09Z</time>
      </trkpt>
      <trkpt lat="46.70103" lon="-1.9505">
        <ele>5</ele>
        <time>2018-03-17T07:15:09Z</time>
      </trkpt>
      <trkpt lat="46.70069" lon="-1.95044">
        <ele>6</ele>
        <time>2018-03-17T07:16:09Z</time>
      </trkpt>
      <trkpt lat="46.7005" lon="-1.95039">
        <ele>6</ele>
        <time>2018-03-17T07:17:09Z</time>
      </trkpt>
      <trkpt lat="46.70034" lon="-1.95036">
        <ele>7</ele>
        <time>2018-03-17T07:18:09Z</time>
      </trkpt>
      <trkpt lat="46.70019" lon="-1.9503">
        <ele>7</ele>
        <time>2018-03-17T07:19:09Z</time>
      </trkpt>
      <trkpt lat="46.70013" lon="-1.95027">
        <ele>7</ele>
        <time>2018-03-17T07:20:09Z</time>
      </trkpt>
      <trkpt lat="46.70007" lon="-1.95023">
        <ele>7</ele>
        <time>2018-03-17T07:21:09Z</time>
      </trkpt>
      <trkpt lat="46.69997" lon="-1.95014">
        <ele>7</ele>
        <time>2018-03-17T07:22:09Z</time>
      </trkpt>
      <trkpt lat="46.69981" lon="-1.94999">
        <ele>7</ele>
        <time>2018-03-17T07:23:09Z</time>
      </trkpt>
      <trkpt lat="46.69963" lon="-1.9498">
        <ele>8</ele>
        <time>2018-03-17T07:24:09Z</time>
      </trkpt>
      <trkpt lat="46.69949" lon="-1.94964">
        <ele>8</ele>
        <time>2018-03-17T07:25:09Z</time>
      </trkpt>
      <trkpt lat="46.69934" lon="-1.94944">
        <ele>8</ele>
        <time>2018-03-17T07:26:09Z</time>
      </trkpt>
      <trkpt lat="46.69918" lon="-1.94924">
        <ele>7</ele>
        <time>2018-03-17T07:27:09Z</time>
      </trkpt>
      <trkpt lat="46.69911" lon="-1.94912">
        <ele>7</ele>
        <time>2018-03-17T07:28:09Z</time>
      </trkpt>
      <trkpt lat="46.69896" lon="-1.94891">
        <ele>6</ele>
        <time>2018-03-17T07:29:09Z</time>
      </trkpt>
      <trkpt lat="46.69874" lon="-1.94856">
        <ele>6</ele>
        <time>2018-03-17T07:30:09Z</time>
      </trkpt>
      <trkpt lat="46.69867" lon="-1.94841">
        <ele>5</ele>
        <time>2018-03-17T07:31:09Z</time>
      </trkpt>
      <trkpt lat="46.6986" lon="-1.94828">
        <ele>5</ele>
        <time>2018-03-17T07:32:09Z</time>
      </trkpt>
      <trkpt lat="46.69848" lon="-1.94802">
        <ele>5</ele>
        <time>2018-03-17T07:33:09Z</time>
      </trkpt>
      <trkpt lat="46.69836" lon="-1.94769">
        <ele>5</ele>
        <time>2018-03-17T07:34:09Z</time>
      </trkpt>
      <trkpt lat="46.69828" lon="-1.94745">
        <ele>5</ele>
        <time>2018-03-17T07:35:09Z</time>
      </trkpt>
      <trkpt lat="46.69828" lon="-1.94745">
        <ele>5</ele>
        <time>2018-03-17T07:36:09Z</time>
      </trkpt>
      <trkpt lat="46.69826" lon="-1.94736">
        <ele>5</ele>
        <time>2018-03-17T07:37:09Z</time>
      </trkpt>
      <trkpt lat="46.69825" lon="-1.94732">
        <ele>5</ele>
        <time>2018-03-17T07:38:09Z</time>
      </trkpt>
      <trkpt lat="46.69819" lon="-1.94712">
        <ele>4</ele>
        <time>2018-03-17T07:39:09Z</time>
      </trkpt>
      <trkpt lat="46.69814" lon="-1.94695">
        <ele>4</ele>
        <time>2018-03-17T07:40:09Z</time>
      </trkpt>
      <trkpt lat="46.69809" lon="-1.94676">
        <ele>4</ele>
        <time>2018-03-17T07:41:09Z</time>
      </trkpt>
      <trkpt lat="46.69805" lon="-1.94657">
        <ele>4</ele>
        <time>2018-03-17T07:42:09Z</time>
      </trkpt>
      <trkpt lat="46.69799" lon="-1.94634">
        <ele>4</ele>
        <time>2018-03-17T07:43:09Z</time>
      </trkpt>
      <trkpt lat="46.6978" lon="-1.94548">
        <ele>3</ele>
        <time>2018-03-17T07:44:09Z</time>
      </trkpt>
      <trkpt lat="46.69765" lon="-1.94496">
        <ele>4</ele>
        <time>2018-03-17T07:45:09Z</time>
      </trkpt>
      <trkpt lat="46.69758" lon="-1.94477">
        <ele>4</ele>
        <time>2018-03-17T07:46:09Z</time>
      </trkpt>
      <trkpt lat="46.69753" lon="-1.94463">
        <ele>4</ele>
        <time>2018-03-17T07:47:09Z</time>
      </trkpt>
      <trkpt lat="46.69748" lon="-1.94448">
        <ele>2</ele>
        <time>2018-03-17T07:48:09Z</time>
      </trkpt>
      <trkpt lat="46.69745" lon="-1.9444">
        <ele>2</ele>
        <time>2018-03-17T07:49:09Z</time>
      </trkpt>
      <trkpt lat="46.69735" lon="-1.94411">
        <ele>3</ele>
        <time>2018-03-17T07:50:09Z</time>
      </trkpt>
      <trkpt lat="46.69732" lon="-1.944">
        <ele>4</ele>
        <time>2018-03-17T07:51:09Z</time>
      </trkpt>
      <trkpt lat="46.69727" lon="-1.94384">
        <ele>4</ele>
        <time>2018-03-17T07:52:09Z</time>
      </trkpt>
      <trkpt lat="46.69718" lon="-1.9436">
        <ele>4</ele>
        <time>2018-03-17T07:53:09Z</time>
      </trkpt>
      <trkpt lat="46.69709" lon="-1.94333">
        <ele>4</ele>
        <time>2018-03-17T07:54:09Z</time>
      </trkpt>
      <trkpt lat="46.69703" lon="-1.94314">
        <ele>4</ele>
        <time>2018-03-17T07:55:09Z</time>
      </trkpt>
      <trkpt lat="46.697" lon="-1.94303">
        <ele>4</ele>
        <time>2018-03-17T07:56:09Z</time>
      </trkpt>
      <trkpt lat="46.69696" lon="-1.94286">
        <ele>4</ele>
        <time>2018-03-17T07:57:09Z</time>
      </trkpt>
      <trkpt lat="46.69688" lon="-1.94251">
        <ele>4</ele>
        <time>2018-03-17T07:58:09Z</time>
      </trkpt>
      <trkpt lat="46.69675" lon="-1.94202">
        <ele>5</ele>
        <time>2018-03-17T07:59:09Z</time>
      </trkpt>
      <trkpt lat="46.6966" lon="-1.94143">
        <ele>4</ele>
        <time>2018-03-17T08:00:09Z</time>
      </trkpt>
      <trkpt lat="46.69658" lon="-1.94132">
        <ele>4</ele>
        <time>2018-03-17T08:01:09Z</time>
      </trkpt>
      <trkpt lat="46.69653" lon="-1.9411">
        <ele>3</ele>
        <time>2018-03-17T08:02:09Z</time>
      </trkpt>
      <trkpt lat="46.69653" lon="-1.9411">
        <ele>3</ele>
        <time>2018-03-17T08:03:09Z</time>
      </trkpt>
      <trkpt lat="46.69644" lon="-1.94108">
        <ele>3</ele>
        <time>2018-03-17T08:04:09Z</time>
      </trkpt>
      <trkpt lat="46.69639" lon="-1.94108">
        <ele>3</ele>
        <time>2018-03-17T08:05:09Z</time>
      </trkpt>
      <trkpt lat="46.69636" lon="-1.9411">
        <ele>3</ele>
        <time>2018-03-17T08:06:09Z</time>
      </trkpt>
      <trkpt lat="46.69633" lon="-1.94111">
        <ele>3</ele>
        <time>2018-03-17T08:07:09Z</time>
      </trkpt>
      <trkpt lat="46.69622" lon="-1.94114">
        <ele>3</ele>
        <time>2018-03-17T08:08:09Z</time>
      </trkpt>
      <trkpt lat="46.69618" lon="-1.94115">
        <ele>3</ele>
        <time>2018-03-17T08:09:09Z</time>
      </trkpt>
      <trkpt lat="46.69615" lon="-1.94114">
        <ele>3</ele>
        <time>2018-03-17T08:10:09Z</time>
      </trkpt>
      <trkpt lat="46.69612" lon="-1.94113">
        <ele>3</ele>
        <time>2018-03-17T08:11:09Z</time>
      </trkpt>
      <trkpt lat="46.6961" lon="-1.94112">
        <ele>3</ele>
        <time>2018-03-17T08:12:09Z</time>
      </trkpt>
      <trkpt lat="46.69608" lon="-1.9411">
        <ele>3</ele>
        <time>2018-03-17T08:13:09Z</time>
      </trkpt>
      <trkpt lat="46.69606" lon="-1.94105">
        <ele>3</ele>
        <time>2018-03-17T08:14:09Z</time>
      </trkpt>
      <trkpt lat="46.69593" lon="-1.94071">
        <ele>3</ele>
        <time>2018-03-17T08:15:09Z</time>
      </trkpt>
      <trkpt lat="46.69582" lon="-1.94047">
        <ele>3</ele>
        <time>2018-03-17T08:16:09Z</time>
      </trkpt>
      <trkpt lat="46.69582" lon="-1.94047">
        <ele>3</ele>
        <time>2018-03-17T08:17:09Z</time>
      </trkpt>
      <trkpt lat="46.69573" lon="-1.94025">
        <ele>4</ele>
        <time>2018-03-17T08:18:09Z</time>
      </trkpt>
      <trkpt lat="46.69548" lon="-1.93973">
        <ele>4</ele>
        <time>2018-03-17T08:19:09Z</time>
      </trkpt>
      <trkpt lat="46.69544" lon="-1.93963">
        <ele>4</ele>
        <time>2018-03-17T08:20:09Z</time>
      </trkpt>
      <trkpt lat="46.69543" lon="-1.9396">
        <ele>4</ele>
        <time>2018-03-17T08:21:09Z</time>
      </trkpt>
      <trkpt lat="46.69535" lon="-1.93937">
        <ele>4</ele>
        <time>2018-03-17T08:22:09Z</time>
      </trkpt>
      <trkpt lat="46.69532" lon="-1.93928">
        <ele>4</ele>
        <time>2018-03-17T08:23:09Z</time>
      </trkpt>
      <trkpt lat="46.69529" lon="-1.9392">
        <ele>4</ele>
        <time>2018-03-17T08:24:09Z</time>
      </trkpt>
      <trkpt lat="46.69526" lon="-1.93911">
        <ele>4</ele>
        <time>2018-03-17T08:25:09Z</time>
      </trkpt>
      <trkpt lat="46.69525" lon="-1.93905">
        <ele>4</ele>
        <time>2018-03-17T08:26:09Z</time>
      </trkpt>
      <trkpt lat="46.69522" lon="-1.93898">
        <ele>4</ele>
        <time>2018-03-17T08:27:09Z</time>
      </trkpt>
      <trkpt lat="46.69511" lon="-1.93878">
        <ele>4</ele>
        <time>2018-03-17T08:28:09Z</time>
      </trkpt>
      <trkpt lat="46.6951" lon="-1.93875">
        <ele>4</ele>
        <time>2018-03-17T08:29:09Z</time>
      </trkpt>
      <trkpt lat="46.69507" lon="-1.93869">
        <ele>4</ele>
        <time>2018-03-17T08:30:09Z</time>
      </trkpt>
      <trkpt lat="46.69505" lon="-1.93865">
        <ele>4</ele>
        <time>2018-03-17T08:31:09Z</time>
      </trkpt>
      <trkpt lat="46.69495" lon="-1.93843">
        <ele>3</ele>
        <time>2018-03-17T08:32:09Z</time>
      </trkpt>
      <trkpt lat="46.69492" lon="-1.93841">
        <ele>3</ele>
        <time>2018-03-17T08:33:09Z</time>
      </trkpt>
      <trkpt lat="46.69488" lon="-1.93834">
        <ele>3</ele>
        <time>2018-03-17T08:34:09Z</time>
      </trkpt>
      <trkpt lat="46.6947" lon="-1.93801">
        <ele>3</ele>
        <time>2018-03-17T08:35:09Z</time>
      </trkpt>
      <trkpt lat="46.69464" lon="-1.93789">
        <ele>3</ele>
        <time>2018-03-17T08:36:09Z</time>
      </trkpt>
      <trkpt lat="46.6946" lon="-1.93781">
        <ele>3</ele>
        <time>2018-03-17T08:37:09Z</time>
      </trkpt>
      <trkpt lat="46.69451" lon="-1.93756">
        <ele>3</ele>
        <time>2018-03-17T08:38:09Z</time>
      </trkpt>
      <trkpt lat="46.69449" lon="-1.93753">
        <ele>3</ele>
        <time>2018-03-17T08:39:09Z</time>
      </trkpt>
      <trkpt lat="46.69443" lon="-1.9374">
        <ele>3</ele>
        <time>2018-03-17T08:40:09Z</time>
      </trkpt>
      <trkpt lat="46.69441" lon="-1.93734">
        <ele>3</ele>
        <time>2018-03-17T08:41:09Z</time>
      </trkpt>
      <trkpt lat="46.69438" lon="-1.93724">
        <ele>3</ele>
        <time>2018-03-17T08:42:09Z</time>
      </trkpt>
      <trkpt lat="46.69433" lon="-1.93699">
        <ele>3</ele>
        <time>2018-03-17T08:43:09Z</time>
      </trkpt>
      <trkpt lat="46.69425" lon="-1.93665">
        <ele>3</ele>
        <time>2018-03-17T08:44:09Z</time>
      </trkpt>
      <trkpt lat="46.69423" lon="-1.93652">
        <ele>3</ele>
        <time>2018-03-17T08:45:09Z</time>
      </trkpt>
      <trkpt lat="46.69422" lon="-1.93638">
        <ele>2</ele>
        <time>2018-03-17T08:46:09Z</time>
      </trkpt>
      <trkpt lat="46.69422" lon="-1.93633">
        <ele>2</ele>
        <time>2018-03-17T08:47:09Z</time>
      </trkpt>
      <trkpt lat="46.69423" lon="-1.93624">
        <ele>2</ele>
        <time>2018-03-17T08:48:09Z</time>
      </trkpt>
      <trkpt lat="46.69425" lon="-1.93616">
        <ele>2</ele>
        <time>2018-03-17T08:49:09Z</time>
      </trkpt>
      <trkpt lat="46.69427" lon="-1.9361">
        <ele>2</ele>
        <time>2018-03-17T08:50:09Z</time>
      </trkpt>
      <trkpt lat="46.69428" lon="-1.93608">
        <ele>2</ele>
        <time>2018-03-17T08:51:09Z</time>
      </trkpt>
      <trkpt lat="46.69433" lon="-1.93601">
        <ele>2</ele>
        <time>2018-03-17T08:52:09Z</time>
      </trkpt>
      <trkpt lat="46.6944" lon="-1.93596">
        <ele>2</ele>
        <time>2018-03-17T08:53:09Z</time>
      </trkpt>
      <trkpt lat="46.69455" lon="-1.9359">
        <ele>2</ele>
        <time>2018-03-17T08:54:09Z</time>
      </trkpt>
      <trkpt lat="46.69478" lon="-1.93583">
        <ele>2</ele>
        <time>2018-03-17T08:55:09Z</time>
      </trkpt>
      <trkpt lat="46.69488" lon="-1.93581">
        <ele>3</ele>
        <time>2018-03-17T08:56:09Z</time>
      </trkpt>
      <trkpt lat="46.69498" lon="-1.93578">
        <ele>3</ele>
        <time>2018-03-17T08:57:09Z</time>
      </trkpt>
      <trkpt lat="46.69507" lon="-1.93574">
        <ele>3</ele>
        <time>2018-03-17T08:58:09Z</time>
      </trkpt>
      <trkpt lat="46.6951" lon="-1.93574">
        <ele>3</ele>
        <time>2018-03-17T08:59:09Z</time>
      </trkpt>
      <trkpt lat="46.69514" lon="-1.93574">
        <ele>3</ele>
        <time>2018-03-17T09:00:09Z</time>
      </trkpt>
      <trkpt lat="46.69519" lon="-1.93575">
        <ele>3</ele>
        <time>2018-03-17T09:01:09Z</time>
      </trkpt>
      <trkpt lat="46.6953" lon="-1.93579">
        <ele>3</ele>
        <time>2018-03-17T09:02:09Z</time>
      </trkpt>
      <trkpt lat="46.69542" lon="-1.93584">
        <ele>4</ele>
        <time>2018-03-17T09:03:09Z</time>
      </trkpt>
      <trkpt lat="46.69552" lon="-1.93588">
        <ele>4</ele>
        <time>2018-03-17T09:04:09Z</time>
      </trkpt>
      <trkpt lat="46.69561" lon="-1.93593">
        <ele>4</ele>
        <time>2018-03-17T09:05:09Z</time>
      </trkpt>
      <trkpt lat="46.69564" lon="-1.93594">
        <ele>4</ele>
        <time>2018-03-17T09:06:09Z</time>
      </trkpt>
      <trkpt lat="46.69585" lon="-1.93586">
        <ele>4</ele>
        <time>2018-03-17T09:07:09Z</time>
      </trkpt>
      <trkpt lat="46.69585" lon="-1.93586">
        <ele>4</ele>
        <time>2018-03-17T09:08:09Z</time>
      </trkpt>
      <trkpt lat="46.69585" lon="-1.93585">
        <ele>4</ele>
        <time>2018-03-17T09:09:09Z</time>
      </trkpt>
      <trkpt lat="46.69585" lon="-1.93584">
        <ele>4</ele>
        <time>2018-03-17T09:10:09Z</time>
      </trkpt>
      <trkpt lat="46.69585" lon="-1.93583">
        <ele>4</ele>
        <time>2018-03-17T09:11:09Z</time>
      </trkpt>
      <trkpt lat="46.69585" lon="-1.93582">
        <ele>4</ele>
        <time>2018-03-17T09:12:09Z</time>
      </trkpt>
      <trkpt lat="46.69586" lon="-1.93582">
        <ele>4</ele>
        <time>2018-03-17T09:13:09Z</time>
      </trkpt>
      <trkpt lat="46.69586" lon="-1.93581">
        <ele>4</ele>
        <time>2018-03-17T09:14:09Z</time>
      </trkpt>
      <trkpt lat="46.69586" lon="-1.9358">
        <ele>4</ele>
        <time>2018-03-17T09:15:09Z</time>
      </trkpt>
      <trkpt lat="46.69587" lon="-1.9358">
        <ele>4</ele>
        <time>2018-03-17T09:16:09Z</time>
      </trkpt>
      <trkpt lat="46.69587" lon="-1.93579">
        <ele>4</ele>
        <time>2018-03-17T09:17:09Z</time>
      </trkpt>
      <trkpt lat="46.69587" lon="-1.93578">
        <ele>4</ele>
        <time>2018-03-17T09:18:09Z</time>
      </trkpt>
      <trkpt lat="46.69588" lon="-1.93578">
        <ele>4</ele>
        <time>2018-03-17T09:19:09Z</time>
      </trkpt>
      <trkpt lat="46.69588" lon="-1.93577">
        <ele>4</ele>
        <time>2018-03-17T09:20:09Z</time>
      </trkpt>
      <trkpt lat="46.69589" lon="-1.93577">
        <ele>4</ele>
        <time>2018-03-17T09:21:09Z</time>
      </trkpt>
      <trkpt lat="46.69589" lon="-1.93576">
        <ele>4</ele>
        <time>2018-03-17T09:22:09Z</time>
      </trkpt>
      <trkpt lat="46.6959" lon="-1.93576">
        <ele>4</ele>
        <time>2018-03-17T09:23:09Z</time>
      </trkpt>
      <trkpt lat="46.6959" lon="-1.93575">
        <ele>4</ele>
        <time>2018-03-17T09:24:09Z</time>
      </trkpt>
      <trkpt lat="46.69591" lon="-1.93575">
        <ele>4</ele>
        <time>2018-03-17T09:25:09Z</time>
      </trkpt>
      <trkpt lat="46.69592" lon="-1.93574">
        <ele>4</ele>
        <time>2018-03-17T09:26:09Z</time>
      </trkpt>
      <trkpt lat="46.69593" lon="-1.93574">
        <ele>4</ele>
        <time>2018-03-17T09:27:09Z</time>
      </trkpt>
      <trkpt lat="46.69594" lon="-1.93574">
        <ele>4</ele>
        <time>2018-03-17T09:28:09Z</time>
      </trkpt>
      <trkpt lat="46.69602" lon="-1.9355">
        <ele>4</ele>
        <time>2018-03-17T09:29:09Z</time>
      </trkpt>
      <trkpt lat="46.69606" lon="-1.93531">
        <ele>4</ele>
        <time>2018-03-17T09:30:09Z</time>
      </trkpt>
      <trkpt lat="46.69613" lon="-1.93483">
        <ele>4</ele>
        <time>2018-03-17T09:31:09Z</time>
      </trkpt>
      <trkpt lat="46.69619" lon="-1.93445">
        <ele>4</ele>
        <time>2018-03-17T09:32:09Z</time>
      </trkpt>
      <trkpt lat="46.69622" lon="-1.93436">
        <ele>4</ele>
        <time>2018-03-17T09:33:09Z</time>
      </trkpt>
      <trkpt lat="46.69622" lon="-1.93436">
        <ele>4</ele>
        <time>2018-03-17T09:34:09Z</time>
      </trkpt>
      <trkpt lat="46.69621" lon="-1.93436">
        <ele>4</ele>
        <time>2018-03-17T09:35:09Z</time>
      </trkpt>
      <trkpt lat="46.6962" lon="-1.93435">
        <ele>4</ele>
        <time>2018-03-17T09:36:09Z</time>
      </trkpt>
      <trkpt lat="46.69619" lon="-1.93434">
        <ele>4</ele>
        <time>2018-03-17T09:37:09Z</time>
      </trkpt>
      <trkpt lat="46.69619" lon="-1.93433">
        <ele>4</ele>
        <time>2018-03-17T09:38:09Z</time>
      </trkpt>
      <trkpt lat="46.69618" lon="-1.93433">
        <ele>4</ele>
        <time>2018-03-17T09:39:09Z</time>
      </trkpt>
      <trkpt lat="46.69618" lon="-1.93432">
        <ele>4</ele>
        <time>2018-03-17T09:40:09Z</time>
      </trkpt>
      <trkpt lat="46.69618" lon="-1.93431">
        <ele>4</ele>
        <time>2018-03-17T09:41:09Z</time>
      </trkpt>
      <trkpt lat="46.69617" lon="-1.93431">
        <ele>4</ele>
        <time>2018-03-17T09:42:09Z</time>
      </trkpt>
      <trkpt lat="46.69617" lon="-1.9343">
        <ele>4</ele>
        <time>2018-03-17T09:43:09Z</time>
      </trkpt>
      <trkpt lat="46.69617" lon="-1.93429">
        <ele>4</ele>
        <time>2018-03-17T09:44:09Z</time>
      </trkpt>
      <trkpt lat="46.69617" lon="-1.93428">
        <ele>4</ele>
        <time>2018-03-17T09:45:09Z</time>
      </trkpt>
      <trkpt lat="46.69616" lon="-1.93428">
        <ele>4</ele>
        <time>2018-03-17T09:46:09Z</time>
      </trkpt>
      <trkpt lat="46.69616" lon="-1.93427">
        <ele>4</ele>
        <time>2018-03-17T09:47:09Z</time>
      </trkpt>
      <trkpt lat="46.69616" lon="-1.93426">
        <ele>4</ele>
        <time>2018-03-17T09:48:09Z</time>
      </trkpt>
      <trkpt lat="46.69616" lon="-1.93425">
        <ele>4</ele>
        <time>2018-03-17T09:49:09Z</time>
      </trkpt>
      <trkpt lat="46.69616" lon="-1.93424">
        <ele>4</ele>
        <time>2018-03-17T09:50:09Z</time>
      </trkpt>
      <trkpt lat="46.69616" lon="-1.93423">
        <ele>4</ele>
        <time>2018-03-17T09:51:09Z</time>
      </trkpt>
      <trkpt lat="46.69616" lon="-1.93422">
        <ele>4</ele>
        <time>2018-03-17T09:52:09Z</time>
      </trkpt>
      <trkpt lat="46.69616" lon="-1.93421">
        <ele>4</ele>
        <time>2018-03-17T09:53:09Z</time>
      </trkpt>
      <trkpt lat="46.69617" lon="-1.93421">
        <ele>4</ele>
        <time>2018-03-17T09:54:09Z</time>
      </trkpt>
      <trkpt lat="46.69617" lon="-1.9342">
        <ele>4</ele>
        <time>2018-03-17T09:55:09Z</time>
      </trkpt>
      <trkpt lat="46.69617" lon="-1.93419">
        <ele>4</ele>
        <time>2018-03-17T09:56:09Z</time>
      </trkpt>
      <trkpt lat="46.69617" lon="-1.93418">
        <ele>4</ele>
        <time>2018-03-17T09:57:09Z</time>
      </trkpt>
      <trkpt lat="46.69618" lon="-1.93418">
        <ele>4</ele>
        <time>2018-03-17T09:58:09Z</time>
      </trkpt>
      <trkpt lat="46.69618" lon="-1.93417">
        <ele>4</ele>
        <time>2018-03-17T09:59:09Z</time>
      </trkpt>
      <trkpt lat="46.69618" lon="-1.93416">
        <ele>4</ele>
        <time>2018-03-17T10:00:09Z</time>
      </trkpt>
      <trkpt lat="46.69619" lon="-1.93416">
        <ele>4</ele>
        <time>2018-03-17T10:01:09Z</time>
      </trkpt>
      <trkpt lat="46.69619" lon="-1.93415">
        <ele>4</ele>
        <time>2018-03-17T10:02:09Z</time>
      </trkpt>
      <trkpt lat="46.6962" lon="-1.93415">
        <ele>4</ele>
        <time>2018-03-17T10:03:09Z</time>
      </trkpt>
      <trkpt lat="46.6962" lon="-1.93414">
        <ele>5</ele>
        <time>2018-03-17T10:04:09Z</time>
      </trkpt>
      <trkpt lat="46.69621" lon="-1.93414">
        <ele>5</ele>
        <time>2018-03-17T10:05:09Z</time>
      </trkpt>
      <trkpt lat="46.69621" lon="-1.93413">
        <ele>5</ele>
        <time>2018-03-17T10:06:09Z</time>
      </trkpt>
      <trkpt lat="46.69622" lon="-1.93413">
        <ele>5</ele>
        <time>2018-03-17T10:07:09Z</time>
      </trkpt>
      <trkpt lat="46.69623" lon="-1.93412">
        <ele>5</ele>
        <time>2018-03-17T10:08:09Z</time>
      </trkpt>
      <trkpt lat="46.69624" lon="-1.93412">
        <ele>5</ele>
        <time>2018-03-17T10:09:09Z</time>
      </trkpt>
      <trkpt lat="46.69625" lon="-1.93412">
        <ele>5</ele>
        <time>2018-03-17T10:10:09Z</time>
      </trkpt>
      <trkpt lat="46.69626" lon="-1.93412">
        <ele>5</ele>
        <time>2018-03-17T10:11:09Z</time>
      </trkpt>
      <trkpt lat="46.69627" lon="-1.93412">
        <ele>5</ele>
        <time>2018-03-17T10:12:09Z</time>
      </trkpt>
      <trkpt lat="46.69627" lon="-1.93413">
        <ele>5</ele>
        <time>2018-03-17T10:13:09Z</time>
      </trkpt>
      <trkpt lat="46.69628" lon="-1.93413">
        <ele>5</ele>
        <time>2018-03-17T10:14:09Z</time>
      </trkpt>
      <trkpt lat="46.69629" lon="-1.93413">
        <ele>5</ele>
        <time>2018-03-17T10:15:09Z</time>
      </trkpt>
      <trkpt lat="46.69629" lon="-1.93414">
        <ele>5</ele>
        <time>2018-03-17T10:16:09Z</time>
      </trkpt>
      <trkpt lat="46.6963" lon="-1.93414">
        <ele>5</ele>
        <time>2018-03-17T10:17:09Z</time>
      </trkpt>
      <trkpt lat="46.6963" lon="-1.93415">
        <ele>5</ele>
        <time>2018-03-17T10:18:09Z</time>
      </trkpt>
      <trkpt lat="46.69631" lon="-1.93416">
        <ele>5</ele>
        <time>2018-03-17T10:19:09Z</time>
      </trkpt>
      <trkpt lat="46.69631" lon="-1.93417">
        <ele>5</ele>
        <time>2018-03-17T10:20:09Z</time>
      </trkpt>
      <trkpt lat="46.69632" lon="-1.93417">
        <ele>5</ele>
        <time>2018-03-17T10:21:09Z</time>
      </trkpt>
      <trkpt lat="46.69632" lon="-1.93418">
        <ele>5</ele>
        <time>2018-03-17T10:22:09Z</time>
      </trkpt>
      <trkpt lat="46.69632" lon="-1.93419">
        <ele>5</ele>
        <time>2018-03-17T10:23:09Z</time>
      </trkpt>
      <trkpt lat="46.69633" lon="-1.93419">
        <ele>5</ele>
        <time>2018-03-17T10:24:09Z</time>
      </trkpt>
      <trkpt lat="46.69633" lon="-1.9342">
        <ele>5</ele>
        <time>2018-03-17T10:25:09Z</time>
      </trkpt>
      <trkpt lat="46.69633" lon="-1.93421">
        <ele>5</ele>
        <time>2018-03-17T10:26:09Z</time>
      </trkpt>
      <trkpt lat="46.69633" lon="-1.93422">
        <ele>5</ele>
        <time>2018-03-17T10:27:09Z</time>
      </trkpt>
      <trkpt lat="46.69633" lon="-1.93423">
        <ele>5</ele>
        <time>2018-03-17T10:28:09Z</time>
      </trkpt>
      <trkpt lat="46.69685" lon="-1.93435">
        <ele>5</ele>
        <time>2018-03-17T10:29:09Z</time>
      </trkpt>
      <trkpt lat="46.69697" lon="-1.93436">
        <ele>5</ele>
        <time>2018-03-17T10:30:09Z</time>
      </trkpt>
      <trkpt lat="46.69714" lon="-1.93435">
        <ele>5</ele>
        <time>2018-03-17T10:31:09Z</time>
      </trkpt>
      <trkpt lat="46.69721" lon="-1.93434">
        <ele>5</ele>
        <time>2018-03-17T10:32:09Z</time>
      </trkpt>
      <trkpt lat="46.69759" lon="-1.93424">
        <ele>5</ele>
        <time>2018-03-17T10:33:09Z</time>
      </trkpt>
      <trkpt lat="46.69762" lon="-1.93423">
        <ele>5</ele>
        <time>2018-03-17T10:34:09Z</time>
      </trkpt>
      <trkpt lat="46.69772" lon="-1.9342">
        <ele>5</ele>
        <time>2018-03-17T10:35:09Z</time>
      </trkpt>
      <trkpt lat="46.69776" lon="-1.9342">
        <ele>5</ele>
        <time>2018-03-17T10:36:09Z</time>
      </trkpt>
      <trkpt lat="46.69779" lon="-1.9342">
        <ele>5</ele>
        <time>2018-03-17T10:37:09Z</time>
      </trkpt>
      <trkpt lat="46.69785" lon="-1.93422">
        <ele>5</ele>
        <time>2018-03-17T10:38:09Z</time>
      </trkpt>
      <trkpt lat="46.69785" lon="-1.93421">
        <ele>5</ele>
        <time>2018-03-17T10:39:09Z</time>
      </trkpt>
      <trkpt lat="46.69786" lon="-1.93421">
        <ele>5</ele>
        <time>2018-03-17T10:40:09Z</time>
      </trkpt>
      <trkpt lat="46.69786" lon="-1.9342">
        <ele>5</ele>
        <time>2018-03-17T10:41:09Z</time>
      </trkpt>
      <trkpt lat="46.69786" lon="-1.93419">
        <ele>5</ele>
        <time>2018-03-17T10:42:09Z</time>
      </trkpt>
      <trkpt lat="46.69786" lon="-1.93418">
        <ele>5</ele>
        <time>2018-03-17T10:43:09Z</time>
      </trkpt>
      <trkpt lat="46.69787" lon="-1.93418">
        <ele>5</ele>
        <time>2018-03-17T10:44:09Z</time>
      </trkpt>
      <trkpt lat="46.69787" lon="-1.93417">
        <ele>5</ele>
        <time>2018-03-17T10:45:09Z</time>
      </trkpt>
      <trkpt lat="46.69788" lon="-1.93417">
        <ele>5</ele>
        <time>2018-03-17T10:46:09Z</time>
      </trkpt>
      <trkpt lat="46.69789" lon="-1.93417">
        <ele>5</ele>
        <time>2018-03-17T10:47:09Z</time>
      </trkpt>
      <trkpt lat="46.6979" lon="-1.93417">
        <ele>5</ele>
        <time>2018-03-17T10:48:09Z</time>
      </trkpt>
      <trkpt lat="46.69791" lon="-1.93417">
        <ele>5</ele>
        <time>2018-03-17T10:49:09Z</time>
      </trkpt>
      <trkpt lat="46.69791" lon="-1.93418">
        <ele>5</ele>
        <time>2018-03-17T10:50:09Z</time>
      </trkpt>
      <trkpt lat="46.69792" lon="-1.93418">
        <ele>5</ele>
        <time>2018-03-17T10:51:09Z</time>
      </trkpt>
      <trkpt lat="46.69792" lon="-1.93419">
        <ele>5</ele>
        <time>2018-03-17T10:52:09Z</time>
      </trkpt>
      <trkpt lat="46.69792" lon="-1.9342">
        <ele>5</ele>
        <time>2018-03-17T10:53:09Z</time>
      </trkpt>
      <trkpt lat="46.69793" lon="-1.9342">
        <ele>5</ele>
        <time>2018-03-17T10:54:09Z</time>
      </trkpt>
      <trkpt lat="46.69796" lon="-1.93421">
        <ele>5</ele>
        <time>2018-03-17T10:55:09Z</time>
      </trkpt>
    </trkseg>
  </trk>
</gpx>